<<back to data home page
Ready for Fall? Stay in touch!! - DONATE ANY AMOUNT BY CLICKING THIS LINK!!!


    Month/Day/Year       Maximum   Minimum    Rel    Dew       Rainfall  Seasonal  Soil     Soil      Baro       Wind    Wind        Peak    Peak Gust  Evap     Leaf     Net
    and                  Air Temp  Air Temp   Hum    Point     Inches    Rainfall  Temp     Moisture  Pressure   Speed   Direction   Gust    Direction  Pan      Wetness  Radiation
    Local Time           Deg F     Deg F      %      Deg F               Inches    Deg F    dS/m      mbar       MPH     comp  deg   MPH     comp  deg  Inches   mV       W_m2
----------------------------------------------------------------------------------------------------------------------------------------------------------------------------------
   11/20/2017 09:00      65.1      63.8       28     30.5      0.00      0.09      64.6     0.27      1017.9     0.4     WNW   302   1.7       W   273   0.94    262      178.8
   11/20/2017 08:50      63.9      62.5       28     29.8      0.00      0.09      64.7     0.27      1018.0     0.6      NE    52   1.5     NNE    22   0.94    262      169.0
   11/20/2017 08:40      62.8      61.8       31     31.1      0.00      0.09      64.7     0.27      1018.1     0.6      NE    40   1.8     NNE    22   0.94    262      177.3
   11/20/2017 08:30      61.8      58.9       31     29.4      0.00      0.09      64.7     0.27      1018.2     0.0       N     0   0.0     ENE    73   0.91    262      178.1
   11/20/2017 08:20      59.0      57.6       36     31.7      0.00      0.09      64.8     0.27      1018.3     0.0       N     0   0.0     ENE    74   0.91    262      144.2
   11/20/2017 08:10      57.5      53.6       40     31.8      0.00      0.09      64.8     0.27      1018.4     0.3     ENE    74   1.0     ENE    74   0.91    262      135.7
   11/20/2017 08:00      53.9      52.1       43     30.7      0.00      0.09      64.9     0.27      1018.3     0.2     ENE    76   0.9     ENE    71   0.91    263       75.0
   11/20/2017 07:50      52.0      50.1       46     30.7      0.00      0.09      64.9     0.27      1018.2     0.0       E    98   0.4       E    98   0.91    264       49.9
   11/20/2017 07:40      50.8      50.1       45     29.9      0.00      0.09      64.9     0.27      1018.1     0.0       N     0   0.0       E    97   0.91    264      -13.8
   11/20/2017 07:30      50.8      48.3       47     30.1      0.00      0.09      64.9     0.27      1017.9     0.0       N     0   0.0       E    97   0.91    264      -14.0
   11/20/2017 07:20      48.4      45.9       52     30.1      0.00      0.09      65.0     0.27      1017.9     0.5      SE   136   1.6      SE   143   0.91    264      -11.7
   11/20/2017 07:10      46.1      44.8       56     30.5      0.00      0.09      65.0     0.27      1017.8     1.1      SE   144   1.7      SE   143   0.91    264       -5.7
   11/20/2017 07:00      45.1      43.2       54     28.5      0.00      0.09      65.0     0.27      1017.5     1.3       S   178   2.5       S   183   0.91    264      -15.4
   11/20/2017 06:50      43.4      43.0       55     28.0      0.00      0.09      65.0     0.27      1017.4     0.9     SSE   169   2.3       S   180   0.91    264      -30.3
   11/20/2017 06:40      43.5      43.0       53     27.1      0.00      0.09      65.1     0.27      1017.4     0.3     SSE   150   1.5     SSE   147   0.91    264      -39.0
   11/20/2017 06:30      43.3      42.7       54     27.5      0.00      0.09      65.1     0.27      1017.3     0.4     SSW   205   1.5     WSW   253   0.90    264      -43.0
   11/20/2017 06:20      43.4      43.0       55     28.1      0.00      0.09      65.1     0.27      1017.1     0.2     SSW   191   0.9       S   191   0.91    264      -45.0
   11/20/2017 06:10      43.6      43.0       55     28.2      0.00      0.09      65.1     0.27      1017.0     0.0     SSW   191   0.5     SSW   191   0.90    265      -46.3
   11/20/2017 06:00      43.5      43.0       56     28.6      0.00      0.09      65.2     0.27      1016.8     0.5       S   186   1.4       S   184   0.90    264      -46.7
   11/20/2017 05:50      43.8      43.0       56     28.6      0.00      0.09      65.2     0.27      1016.7     0.1     NNW   335   1.0     NNW   335   0.91    264      -46.7
   11/20/2017 05:40      43.8      43.4       55     28.7      0.00      0.09      65.2     0.27      1016.6     0.3      SE   144   0.9     SSE   168   0.91    264      -46.0
   11/20/2017 05:30      43.9      43.2       56     28.9      0.00      0.09      65.3     0.27      1016.5     0.2     SSE   167   0.9     SSE   167   0.91    264      -44.7
   11/20/2017 05:20      44.1      43.5       54     28.2      0.00      0.09      65.3     0.27      1016.4     0.2      SE   133   1.1      SE   132   0.91    264      -42.0
   11/20/2017 05:10      44.0      43.3       52     27.2      0.00      0.09      65.3     0.27      1016.3     0.1       N   352   1.1     NNW   337   0.91    264      -38.6
   11/20/2017 05:00      43.4      42.5       56     28.4      0.00      0.09      65.3     0.27      1015.9     0.0      SE   140   0.1      SE   140   0.91    264      -39.1
   11/20/2017 04:50      42.9      42.5       58     29.0      0.00      0.09      65.3     0.27      1015.7     0.0       N     0   0.0      SE   139   0.91    264      -42.5
   11/20/2017 04:40      43.4      42.6       56     28.4      0.00      0.09      65.4     0.27      1015.9     0.3      SE   141   1.2      SE   143   0.91    264      -44.9
   11/20/2017 04:30      43.7      43.0       54     27.5      0.00      0.09      65.4     0.27      1015.9     0.2      SE   143   1.5      SE   143   0.91    264      -45.6
   11/20/2017 04:20      43.8      42.9       53     27.4      0.00      0.09      65.4     0.27      1016.0     0.7      SW   230   2.9     WSW   258   0.91    264      -46.4
   11/20/2017 04:10      43.4      42.5       56     28.4      0.00      0.09      65.5     0.27      1015.9     0.2     NNW   342   1.2      NE    48   0.91    264      -46.6
   11/20/2017 04:00      42.9      42.6       56     28.2      0.00      0.09      65.5     0.27      1015.8     0.2       S   185   0.7       S   186   0.91    264      -46.0
   11/20/2017 03:50      43.4      42.7       54     27.7      0.00      0.09      65.5     0.27      1016.1     0.2       S   186   1.4       S   186   0.91    264      -47.4
   11/20/2017 03:40      43.2      42.6       56     28.0      0.00      0.09      65.5     0.27      1016.3     0.2       S   186   1.4       S   186   0.91    264      -47.4
   11/20/2017 03:30      43.7      43.1       55     28.0      0.00      0.09      65.5     0.27      1016.4     0.0       N     0   0.0       S   186   0.91    264      -46.3
   11/20/2017 03:20      43.7      43.1       55     28.3      0.00      0.09      65.6     0.27      1016.5     0.0       N     0   0.0       S   185   0.91    264      -46.5
   11/20/2017 03:10      43.9      43.4       54     28.1      0.00      0.09      65.6     0.27      1016.5     0.0       S   185   0.6       S   186   0.91    264      -48.6
   11/20/2017 03:00      43.7      43.4       54     27.9      0.00      0.09      65.6     0.27      1016.6     0.0       N     0   0.0       S   185   0.91    264      -49.5
   11/20/2017 02:50      44.3      43.4       51     26.8      0.00      0.09      65.7     0.27      1016.6     0.0       S   185   0.4       S   185   0.91    264      -51.0
   11/20/2017 02:40      44.2      43.5       52     27.1      0.00      0.09      65.7     0.27      1016.5     0.0       S   186   0.8       S   186   0.91    264      -51.6
   11/20/2017 02:30      44.2      43.4       51     26.9      0.00      0.09      65.7     0.27      1016.5     0.2       S   171   0.8       S   186   0.91    264      -53.8
   11/20/2017 02:20      44.2      43.7       53     28.0      0.00      0.09      65.7     0.27      1016.5     0.0      SE   142   1.0      SE   133   0.91    264      -54.7
   11/20/2017 02:10      44.5      43.7       54     28.5      0.00      0.09      65.8     0.27      1016.5     0.3       S   189   1.5     SSW   210   0.91    264      -54.6
   11/20/2017 02:00      44.4      43.4       55     28.9      0.00      0.09      65.8     0.27      1016.5     0.6      SE   130   2.8      SE   142   0.91    264      -56.3
   11/20/2017 01:50      44.4      43.2       53     27.9      0.00      0.09      65.8     0.27      1016.6     0.9     SSE   157   2.1     SSE   156   0.91    264      -56.4
   11/20/2017 01:40      44.8      44.0       52     27.8      0.00      0.09      65.8     0.27      1016.7     0.7     SSE   154   1.3     SSE   156   0.91    264      -57.3
   11/20/2017 01:30      44.8      44.2       51     27.7      0.00      0.09      65.8     0.27      1016.8     0.2     NNW   337   0.8       N   354   0.91    264      -57.4
   11/20/2017 01:20      44.5      44.0       55     29.3      0.00      0.09      65.9     0.27      1016.6     0.3     SSE   152   1.6      SE   143   0.91    264      -57.9
   11/20/2017 01:10      44.5      44.2       53     28.4      0.00      0.09      65.9     0.27      1016.7     0.6     SSE   158   1.6      SE   146   0.91    264      -58.2
   11/20/2017 01:00      45.0      44.2       53     28.5      0.00      0.09      65.9     0.27      1016.9     0.3     SSE   163   1.2     SSE   169   0.91    264      -58.2
   11/20/2017 00:50      45.3      44.5       52     28.3      0.00      0.09      65.9     0.27      1017.1     0.5       S   169   1.1       S   172   0.91    264      -58.9
   11/20/2017 00:40      45.3      44.9       52     28.3      0.00      0.09      65.9     0.28      1017.1     0.0     SSW   198   0.7     SSW   196   0.91    264      -58.4
   11/20/2017 00:30      45.9      44.8       53     29.0      0.00      0.09      66.0     0.28      1017.1     0.0     ESE   105   0.8     ESE   113   0.91    264      -58.9
   11/20/2017 00:20      46.1      45.5       54     29.9      0.00      0.09      66.0     0.27      1017.2     0.9     SSE   152   1.9      SE   142   0.91    264      -58.4
   11/20/2017 00:10      46.4      45.8       50     28.4      0.00      0.09      66.0     0.28      1017.3     0.4     SSE   163   1.1     SSE   163   0.91    264      -58.5
   11/20/2017 00:00      46.4      45.9       49     28.2      0.00      0.09      66.0     0.28      1017.2     0.2     SSE   163   0.8     SSE   163   0.91    264      -59.4
   11/19/2017 23:50      46.9      46.2       49     28.1      0.00      0.09      66.0     0.28      1017.1     0.0     SSE   163   0.6     SSE   163   0.91    264      -58.9
   11/19/2017 23:40      47.0      46.4       48     28.2      0.00      0.09      66.0     0.28      1017.0     0.2     SSE   163   0.8     SSE   163   0.91    264      -58.9
   11/19/2017 23:30      47.0      46.4       48     28.0      0.00      0.09      66.0     0.28      1016.9     0.3      SW   218   1.4      SW   235   0.91    264      -60.5
   11/19/2017 23:20      48.0      46.7       49     29.0      0.00      0.09      66.0     0.28      1017.0     0.0       S   173   0.9       S   181   0.91    264      -62.4
   11/19/2017 23:10      48.1      47.6       48     29.0      0.00      0.09      66.0     0.28      1016.9     0.3     SSE   151   1.0     SSE   151   0.91    263      -63.0
   11/19/2017 23:00      48.6      47.6       47     28.6      0.00      0.09      66.0     0.28      1016.8     0.7     SSE   167   1.8      SE   136   0.91    263      -62.9
   11/19/2017 22:50      49.0      48.3       46     28.9      0.00      0.09      66.1     0.28      1016.8     0.8     SSE   162   1.6     SSE   157   0.91    264      -62.8
   11/19/2017 22:40      49.3      48.5       45     28.4      0.00      0.09      66.0     0.28      1016.9     0.9       S   171   1.9       S   174   0.91    263      -63.4
   11/19/2017 22:30      49.3      48.9       45     28.5      0.00      0.09      66.1     0.28      1017.0     0.2     SSE   168   0.8     SSE   167   0.91    263      -64.8
   11/19/2017 22:20      50.1      48.8       45     28.6      0.00      0.09      66.0     0.28      1017.1     0.8      SE   146   1.8      SE   143   0.91    263      -65.5
   11/19/2017 22:10      50.1      49.5       44     28.6      0.00      0.09      66.1     0.28      1017.2     1.0     SSE   154   2.1      SE   139   0.91    263      -65.3
   11/19/2017 22:00      51.1      49.9       41     28.0      0.00      0.09      66.1     0.28      1017.2     0.7     SSE   166   1.8     SSE   163   0.91    263      -65.3
   11/19/2017 21:50      51.4      50.8       40     27.3      0.00      0.09      66.1     0.28      1017.3     0.8      SW   216   2.8     SSW   207   0.91    263      -64.8
   11/19/2017 21:40      51.5      51.1       40     27.5      0.00      0.09      66.1     0.28      1017.4     0.5       S   181   1.2     SSW   210   0.91    263      -65.5
   11/19/2017 21:30      52.4      51.0       41     28.4      0.00      0.09      66.1     0.28      1017.2     0.3       S   177   1.6     SSW   198   0.91    263      -65.3
   11/19/2017 21:20      53.3      52.1       37     27.1      0.00      0.09      66.1     0.28      1017.2     0.3     SSE   154   1.1       E   100   0.91    263      -67.0
   11/19/2017 21:10      54.9      53.1       34     26.3      0.00      0.09      66.1     0.28      1017.2     0.8     SSW   207   1.9      SW   215   0.91    262      -66.1
   11/19/2017 21:00      56.4      54.6       33     26.6      0.00      0.09      66.0     0.28      1017.0     0.3       S   177   1.4       S   184   0.91    262      -67.4
   11/19/2017 20:50      59.0      56.2       31     27.2      0.00      0.09      66.1     0.28      1016.9     0.1     SSE   160   0.9       S   171   0.91    262      -70.0
   11/19/2017 20:40      60.8      58.9       28     26.4      0.00      0.09      66.1     0.28      1016.9     0.2     SSW   214   0.9      SW   214   0.91    262      -73.8
   11/19/2017 20:30      61.2      60.5       27     26.6      0.00      0.09      66.1     0.28      1016.9     1.5     SSW   212   4.4     SSW   210   0.91    262      -76.6
   11/19/2017 20:20      61.1      59.8       27     26.7      0.00      0.09      66.0     0.28      1016.9     2.5     SSW   203   4.5      SW   215   0.91    262      -74.6
   11/19/2017 20:10      60.0      58.0       29     26.7      0.00      0.09      66.0     0.28      1016.8     1.5      SW   220   3.4       W   271   0.91    262      -71.5
   11/19/2017 20:00      59.9      58.2       29     27.3      0.00      0.09      66.0     0.28      1016.8     0.2       E    87   1.0     WNW   289   0.92    262      -74.1
   11/19/2017 19:50      60.4      59.6       29     27.3      0.00      0.09      66.0     0.28      1016.7     1.9       S   175   4.5       S   191   0.92    262      -75.2
   11/19/2017 19:40      60.1      59.0       30     27.8      0.00      0.09      66.0     0.28      1016.8     1.6       S   171   3.2      SW   222   0.92    262      -72.5
   11/19/2017 19:30      62.0      59.2       29     28.0      0.00      0.09      66.0     0.28      1016.7     1.5     SSE   158   2.5      SE   142   0.92    262      -73.1
   11/19/2017 19:20      62.6      61.8       26     27.1      0.00      0.09      66.0     0.28      1016.6     3.7     SSW   197   6.0      SW   225   0.92    262      -76.8
   11/19/2017 19:10      62.6      62.3       26     27.2      0.00      0.09      66.0     0.28      1016.8     3.8     SSW   207   5.9      SW   217   0.92    262      -80.0
   11/19/2017 19:00      62.5      61.2       27     27.2      0.00      0.09      66.0     0.28      1016.8     3.7     SSW   200   6.6     SSE   163   0.92    262      -80.3
   11/19/2017 18:50      62.7      60.9       27     27.6      0.00      0.09      65.9     0.28      1016.7     0.9      SE   143   4.5     SSW   206   0.91    262      -79.6
   11/19/2017 18:40      63.1      62.4       26     27.4      0.00      0.09      65.9     0.28      1016.7     1.1       S   186   3.2       S   178   0.91    262      -81.6
   11/19/2017 18:30      63.1      62.4       26     27.4      0.00      0.09      65.9     0.28      1016.6     2.6       S   187   5.1     SSW   212   0.91    262      -81.3
   11/19/2017 18:20      62.6      61.8       27     27.8      0.00      0.09      65.9     0.28      1016.5     2.5       S   187   7.0      SW   217   0.91    262      -80.8
   11/19/2017 18:10      61.9      59.8       29     28.1      0.00      0.09      65.8     0.28      1016.4     2.7       S   186   5.7       S   186   0.91    262      -77.6
   11/19/2017 18:00      63.7      61.0       26     27.5      0.00      0.09      65.8     0.28      1016.3     0.3     SSE   162   1.3       S   176   0.91    261      -79.9
   11/19/2017 17:50      65.2      63.5       25     27.4      0.00      0.09      65.8     0.28      1016.3     0.7      SW   229   2.1     SSW   210   0.91    261      -82.4
   11/19/2017 17:40      66.2      64.8       24     27.4      0.00      0.09      65.8     0.28      1016.2     1.5     SSW   209   3.0     SSW   197   0.91    261      -84.8
   11/19/2017 17:30      67.1      65.9       23     27.3      0.00      0.09      65.8     0.28      1015.9     2.5      SW   232   5.4      SW   224   0.91    261      -87.6
   11/19/2017 17:20      67.9      66.7       22     27.3      0.00      0.09      65.8     0.28      1015.7     2.0      SW   229   4.4     WSW   251   0.91    261      -87.4
   11/19/2017 17:10      68.5      67.4       21     27.0      0.00      0.09      65.7     0.28      1015.5     2.1      SW   218   4.9      SW   232   0.91    261      -87.2
   11/19/2017 17:00      68.5      67.6       19     24.6      0.00      0.09      65.7     0.28      1015.2     3.5     SSW   204   6.1      SW   226   0.91    261      -86.1
   11/19/2017 16:50      67.7      64.9       17     19.6      0.00      0.09      65.6     0.28      1015.1     2.3     SSW   208   6.0     WSW   237   0.91    261      -84.1
   11/19/2017 16:40      68.6      66.4       18     21.9      0.00      0.09      65.6     0.28      1015.0     0.8       S   174   2.5       S   178   0.91    261      -83.0
   11/19/2017 16:30      70.8      68.4       16     21.1      0.00      0.09      65.5     0.28      1015.0     0.8       S   171   1.6     SSE   158   0.91    261      -82.4
   11/19/2017 16:20      73.7      70.8       14     19.5      0.00      0.09      65.5     0.28      1014.9     0.2     SSE   153   1.4     SSE   167   0.91    260      -82.8
   11/19/2017 16:10      76.5      73.4       11     17.1      0.00      0.09      65.5     0.28      1015.0     0.9     SSE   152   2.2      SE   139   0.92    260      -63.4
   11/19/2017 16:00      78.5      76.2       10     15.8      0.00      0.09      65.5     0.28      1015.0     0.3      SE   143   2.0       S   180   0.91    260      -40.1
   11/19/2017 15:50      78.5      77.4        9     13.7      0.00      0.09      65.4     0.28      1014.9     0.2       E    90   1.2       E    82   0.92    260      -17.6
   11/19/2017 15:40      77.6      77.3        9     13.6      0.00      0.09      65.4     0.28      1014.9     0.9     ESE   105   1.9       E    87   0.92    260        7.6
   11/19/2017 15:30      78.8      77.4        8     13.0      0.00      0.09      65.4     0.28      1014.9     1.3     ENE    60   2.4     NNE    13   0.92    260       17.9
   11/19/2017 15:20      80.1      78.4        8     13.7      0.00      0.09      65.4     0.28      1014.9     1.0      SE   139   2.6     NNE    26   0.92    260       43.9
   11/19/2017 15:10      80.1      78.2        8     13.6      0.00      0.09      65.3     0.28      1014.9     0.4     SSW   202   1.6     SSW   194   0.92    260       67.1
   11/19/2017 15:00      78.6      77.6        9     14.3      0.00      0.09      65.3     0.28      1014.9     1.2      SE   127   3.1       E    99   0.92    260       93.1
   11/19/2017 14:50      78.5      77.3        9     14.3      0.00      0.09      65.3     0.28      1014.9     1.4     ESE   107   3.7       E    94   0.92    260      117.0
   11/19/2017 14:40      80.0      78.2        9     14.7      0.00      0.09      65.2     0.28      1015.0     1.5      NE    35   2.6     NNE    31   0.92    259      138.2
   11/19/2017 14:30      80.0      77.5        9     14.5      0.00      0.09      65.2     0.28      1015.2     0.7     WSW   243   2.1     WSW   254   0.92    260      161.4
   11/19/2017 14:20      77.4      76.5        9     13.9      0.00      0.09      65.2     0.28      1015.2     2.6      SW   215   5.2       S   191   0.92    260      184.1
   11/19/2017 14:10      78.8      77.1        9     15.1      0.00      0.09      65.2     0.28      1015.2     1.8      SE   138   5.9     SSW   195   0.91    260      200.9
   11/19/2017 14:00      77.9      76.9        9     15.1      0.00      0.09      65.2     0.28      1015.3     1.4     SSE   156   4.4      SW   227   0.92    260      217.3
   11/19/2017 13:50      77.9      77.0        9     15.3      0.00      0.09      65.2     0.28      1015.4     2.5      SW   223   4.9      SW   229   0.92    260      241.1
   11/19/2017 13:40      77.5      76.3       10     15.4      0.00      0.09      65.1     0.28      1015.4     1.0       N   350   3.1       N   354   0.92    259      255.0
   11/19/2017 13:30      76.5      74.6       10     14.5      0.00      0.09      65.1     0.28      1015.5     2.4     WSW   253   4.4       W   275   0.92    260      264.2
   11/19/2017 13:20      75.8      74.5       10     14.6      0.00      0.09      65.1     0.28      1015.5     3.5       W   265   5.5     WSW   246   0.92    260      166.5
   11/19/2017 13:10      76.1      75.3       10     14.3      0.00      0.09      65.1     0.28      1015.6     2.7     WSW   243   4.8     WSW   240   0.92    260      158.7
   11/19/2017 13:00      76.4      75.3       10     15.4      0.00      0.09      65.0     0.28      1015.9     2.6     WNW   290   6.7       W   263   0.92    259      271.9
   11/19/2017 12:50      75.8      75.2       10     14.7      0.00      0.09      65.1     0.28      1016.0     3.7     WSW   246   6.9       W   261   0.92    260      307.4
   11/19/2017 12:40      75.7      74.4       10     14.4      0.00      0.09      65.0     0.28      1016.0     1.4       W   268   4.4       W   266   0.91    260      179.0
   11/19/2017 12:30      75.2      74.3       10     15.0      0.00      0.09      65.0     0.28      1016.2     1.4      NW   314   4.9      NW   323   0.92    260      192.6
   11/19/2017 12:20      74.4      73.3       10     14.7      0.00      0.09      65.0     0.28      1016.1     1.5      SW   227   3.4      SW   229   0.92    260      153.1
   11/19/2017 12:10      76.3      73.8       11     16.7      0.00      0.09      65.1     0.28      1016.5     2.3     NNW   339   6.8       N   351   0.92    260       88.8
   11/19/2017 12:00      76.2      74.4       11     17.1      0.00      0.09      65.0     0.28      1016.9     2.3      SW   227   4.2       S   180   0.92    260      361.0
   11/19/2017 11:50      75.7      74.3       10     15.3      0.00      0.09      65.1     0.28      1017.5     2.2     SSW   198   4.6       S   184   0.91    259      357.3
   11/19/2017 11:40      75.2      73.6       11     17.0      0.00      0.09      65.1     0.28      1017.8     1.8      SE   144   4.8     SSE   167   0.91    259      345.4
   11/19/2017 11:30      73.6      72.9       12     17.1      0.00      0.09      65.1     0.28      1017.8     2.5     SSW   196   4.6     SSW   209   0.91    260      349.1
   11/19/2017 11:20      74.1      73.0       12     17.6      0.00      0.09      65.1     0.28      1017.9     1.2     WSW   249   3.0     WNW   285   0.92    260      263.0
   11/19/2017 11:10      73.2      72.0       13     18.8      0.00      0.09      65.1     0.28      1018.2     1.2       N     0   3.3      NE    42   0.92    260      263.9
   11/19/2017 11:00      73.5      72.2       13     18.9      0.00      0.09      65.2     0.28      1018.4     1.2     NNE    31   3.7     NNE    29   0.92    261      147.9
   11/19/2017 10:50      73.2      72.3       13     19.0      0.00      0.09      65.2     0.28      1018.6     1.4      NW   304   5.2       W   262   0.92    260      226.6
   11/19/2017 10:40      73.6      72.2       13     19.2      0.00      0.09      65.2     0.27      1018.8     1.6     WSW   253   4.5       S   190   0.92    260      317.1
   11/19/2017 10:30      73.5      72.1       14     20.0      0.00      0.09      65.3     0.28      1019.0     0.8       W   264   2.7      NW   322   0.92    259      323.5
   11/19/2017 10:20      72.3      71.5       14     19.8      0.00      0.09      65.3     0.28      1019.1     0.6     NNE    16   1.9     SSE   163   0.92    260      283.8
   11/19/2017 10:10      71.9      71.1       14     19.4      0.00      0.09      65.3     0.28      1019.3     0.8      NW   320   2.6       N   355   0.92    259      282.6
   11/19/2017 10:00      71.8      70.6       14     18.9      0.00      0.09      65.3     0.28      1019.3     0.6       N     2   3.1     NNE    20   0.92    260      279.6
   11/19/2017 09:50      70.8      69.2       14     18.4      0.00      0.09      65.4     0.27      1019.4     0.7       E    84   2.5      SE   126   0.92    260      266.4
   11/19/2017 09:40      69.7      68.8       14     18.0      0.00      0.09      65.4     0.28      1019.5     1.2      NE    53   2.7     ENE    78   0.92    260      270.7
   11/19/2017 09:30      68.8      68.1       14     17.8      0.00      0.09      65.4     0.28      1019.5     1.3      NE    39   3.2       N     4   0.92    260      252.8
   11/19/2017 09:20      68.2      67.3       14     17.2      0.00      0.09      65.5     0.28      1019.5     1.5       E   101   4.4      SE   134   0.92    261      239.3
   11/19/2017 09:10      67.5      66.6       14     16.2      0.00      0.09      65.5     0.28      1019.5     1.6      SE   128   3.2      SE   144   0.92    260      225.1
   11/19/2017 09:00      66.8      66.1       14     16.3      0.00      0.09      65.6     0.28      1019.6     1.7      SE   139   2.6       S   178   0.92    261      210.1
   11/19/2017 08:50      66.5      65.2       16     18.3      0.00      0.09      65.6     0.28      1019.5     1.0     SSE   157   3.3      SE   139   0.92    261      193.2
   11/19/2017 08:40      65.4      62.2       23     24.9      0.00      0.09      65.6     0.28      1019.5     0.4     SSE   155   2.1       S   172   0.92    261      178.7
   11/19/2017 08:30      63.2      62.1       27     28.0      0.00      0.09      65.7     0.28      1019.3     0.5      NE    46   1.6      SE   139   0.92    262      146.2
   11/19/2017 08:20      62.1      58.0       29     27.6      0.00      0.09      65.7     0.28      1019.1     0.0      SE   145   0.4      SE   145   0.92    262      144.2
   11/19/2017 08:10      58.0      54.5       35     28.1      0.00      0.09      65.8     0.28      1018.9     0.3      SE   145   1.1      SE   145   0.92    262      100.5
   11/19/2017 08:00      54.7      53.5       36     27.5      0.00      0.09      65.8     0.28      1018.8     0.6      SE   145   1.5      SE   145   0.91    262       45.1
   11/19/2017 07:50      53.7      50.7       36     25.8      0.00      0.09      65.8     0.28      1018.8     0.5     SSE   167   1.6      SE   145   0.91    263       66.3
   11/19/2017 07:40      50.8      49.1       37     24.2      0.00      0.09      65.8     0.28      1018.8     0.7     SSE   168   2.1       N     6   0.91    263       12.4
   11/19/2017 07:30      49.3      47.7       36     22.9      0.00      0.09      65.9     0.28      1018.9     1.0     SSE   153   2.5     ESE   101   0.91    264      -27.9
   11/19/2017 07:20      47.7      45.5       39     23.0      0.00      0.09      65.9     0.28      1018.9     0.9       S   179   4.5     NNW   329   0.91    264      -30.2
   11/19/2017 07:10      45.8      44.3       41     22.4      0.00      0.09      65.9     0.28      1018.9     0.2     ENE    74   1.8      SE   127   0.91    264      -27.6
   11/19/2017 07:00      44.6      43.1       41     22.0      0.00      0.09      66.0     0.28      1018.9     1.5     SSE   167   3.4      SE   130   0.91    264      -36.9
   11/19/2017 06:50      43.6      42.9       42     21.4      0.00      0.09      66.0     0.28      1018.7     1.0     SSE   162   2.9       S   176   0.91    264      -47.0
   11/19/2017 06:40      43.9      43.1       41     21.4      0.00      0.09      66.0     0.28      1018.8     0.8      SE   138   1.9     SSW   193   0.91    264      -53.1
   11/19/2017 06:30      43.8      43.4       41     21.1      0.00      0.09      66.1     0.28      1018.9     0.6     SSE   157   2.6       N   352   0.91    264      -54.9
   11/19/2017 06:20      43.5      43.0       45     23.1      0.00      0.09      66.1     0.28      1019.0     0.6     SSE   163   1.4     SSE   148   0.91    264      -57.3
   11/19/2017 06:10      43.3      42.3       45     22.6      0.00      0.09      66.1     0.28      1019.0     0.8       S   171   1.6     SSW   206   0.91    264      -57.9
   11/19/2017 06:00      42.9      42.5       46     23.2      0.00      0.09      66.2     0.28      1019.2     0.5       S   174   1.6     SSE   149   0.92    264      -58.3
   11/19/2017 05:50      43.4      42.5       45     23.1      0.00      0.09      66.2     0.28      1019.2     0.2       N     4   1.2     SSW   202   0.92    264      -57.8
   11/19/2017 05:40      44.2      43.2       42     22.2      0.00      0.09      66.2     0.28      1019.1     0.4     SSE   154   1.7      SE   146   0.92    264      -56.6
   11/19/2017 05:30      44.2      43.8       42     22.1      0.00      0.09      66.2     0.28      1018.9     0.4     SSE   159   1.2     SSE   157   0.92    264      -56.3
   11/19/2017 05:20      44.1      43.6       42     22.2      0.00      0.09      66.3     0.28      1018.7     0.1     ESE   122   1.1       E    82   0.92    264      -56.6
   11/19/2017 05:10      44.7      43.7       43     23.2      0.00      0.09      66.3     0.28      1018.6     0.0       E    81   0.9       E    82   0.91    264      -57.1
   11/19/2017 05:00      44.7      44.2       44     23.9      0.00      0.09      66.3     0.28      1018.5     0.6     SSE   168   1.9       W   269   0.92    264      -57.8
   11/19/2017 04:50      44.2      43.0       45     23.5      0.00      0.09      66.3     0.28      1018.3     1.2     SSE   156   3.0      SE   145   0.91    264      -57.3
   11/19/2017 04:40      44.2      43.4       41     21.7      0.00      0.09      66.4     0.28      1018.4     0.5       S   171   1.3       S   169   0.91    264      -57.6
   11/19/2017 04:30      44.5      43.9       43     22.9      0.00      0.09      66.4     0.28      1018.3     0.0     SSW   205   0.6     SSW   205   0.91    264      -58.1
   11/19/2017 04:20      44.3      43.5       42     22.4      0.00      0.09      66.5     0.28      1018.2     0.5     SSW   201   1.9     SSW   204   0.91    264      -57.4
   11/19/2017 04:10      44.4      43.7       41     22.0      0.00      0.09      66.5     0.28      1018.4     0.2      SE   144   1.0     SSE   161   0.91    264      -57.0
   11/19/2017 04:00      44.5      44.0       41     22.1      0.00      0.09      66.6     0.28      1018.6     0.3     SSW   209   1.9      SW   216   0.91    264      -56.7
   11/19/2017 03:50      44.8      44.2       43     23.4      0.00      0.09      66.5     0.28      1018.7     0.1      SE   144   1.8      SE   144   0.91    264      -56.8
   11/19/2017 03:40      45.3      44.5       41     22.8      0.00      0.09      66.6     0.28      1018.8     0.4     SSE   148   2.0      SE   145   0.91    264      -56.3
   11/19/2017 03:30      45.3      44.8       41     22.7      0.00      0.09      66.6     0.28      1019.0     0.8     SSE   162   1.7       S   177   0.91    264      -56.3
   11/19/2017 03:20      45.3      44.9       43     23.9      0.00      0.09      66.6     0.28      1019.0     0.2      SE   136   1.5     ENE    59   0.92    264      -56.6
   11/19/2017 03:10      45.1      44.5       42     23.0      0.00      0.09      66.6     0.28      1019.0     0.2       S   169   1.3       S   169   0.91    264      -56.6
   11/19/2017 03:00      45.8      44.5       42     23.1      0.00      0.09      66.7     0.28      1019.1     0.5       S   169   1.5       S   169   0.91    264      -57.1
   11/19/2017 02:50      45.8      45.0       40     22.2      0.00      0.09      66.7     0.28      1019.1     0.5       S   182   1.9     SSW   203   0.92    264      -57.7
   11/19/2017 02:40      46.2      45.4       39     22.4      0.00      0.09      66.8     0.28      1019.1     0.6     SSE   160   2.5     SSW   195   0.92    264      -57.5
   11/19/2017 02:30      46.2      45.6       39     22.6      0.00      0.09      66.8     0.28      1019.0     0.0       N     0   0.0     NNW   336   0.92    264      -57.9
   11/19/2017 02:20      46.2      45.5       41     23.1      0.00      0.09      66.8     0.28      1018.8     0.8     SSW   203   2.1     SSW   211   0.92    264      -57.6
   11/19/2017 02:10      46.3      45.9       40     22.9      0.00      0.09      66.8     0.28      1018.9     0.0     SSE   146   0.6      SE   146   0.92    263      -57.9
   11/19/2017 02:00      46.4      45.8       41     23.4      0.00      0.09      66.8     0.28      1018.9     0.0       N     0   0.0      SE   146   0.92    263      -57.5
   11/19/2017 01:50      47.3      46.1       40     23.3      0.00      0.09      66.8     0.28      1019.0     0.2     SSE   147   1.2     SSE   149   0.92    264      -57.7
   11/19/2017 01:40      47.6      46.9       37     22.4      0.00      0.09      66.9     0.28      1019.3     0.2     SSE   158   1.1       S   171   0.92    263      -57.2
   11/19/2017 01:30      47.6      46.8       38     22.8      0.00      0.09      66.9     0.28      1019.3     0.0       S   171   0.7       S   172   0.92    263      -57.5
   11/19/2017 01:20      47.9      46.9       38     23.2      0.00      0.09      66.9     0.28      1019.4     0.2       S   171   0.7       S   171   0.92    263      -58.1
   11/19/2017 01:10      48.3      47.5       37     22.8      0.00      0.09      66.9     0.28      1019.5     0.3       S   171   1.5       S   171   0.92    263      -57.8
   11/19/2017 01:00      48.4      47.7       38     23.5      0.00      0.09      67.0     0.28      1019.5     0.4       S   170   1.3       S   174   0.92    263      -58.9
   11/19/2017 00:50      48.6      47.9       38     23.8      0.00      0.09      66.9     0.28      1019.5     0.7      SE   143   1.5      SE   135   0.92    263      -59.8
   11/19/2017 00:40      49.4      48.3       36     22.9      0.00      0.09      67.0     0.28      1019.5     0.7     SSE   150   1.6     NNE    20   0.92    263      -59.6
   11/19/2017 00:30      49.4      48.3       36     23.3      0.00      0.09      67.0     0.28      1019.6     1.2     SSW   207   2.5     SSW   197   0.91    263      -59.1
   11/19/2017 00:20      49.6      48.2       37     23.9      0.00      0.09      67.0     0.28      1019.6     0.4       S   181   2.0     SSW   197   0.92    263      -61.0
   11/19/2017 00:10      50.1      49.3       35     23.5      0.00      0.09      67.0     0.28      1019.7     0.8      SE   128   2.1      SE   141   0.92    263      -60.0
   11/19/2017 00:00      50.3      49.8       35     23.2      0.00      0.09      67.0     0.28      1019.7     0.7     SSE   163   1.3       S   170   0.92    263      -58.7
   11/18/2017 23:50      50.2      49.7       35     23.1      0.00      0.09      67.0     0.28      1019.7     0.4       S   169   1.6       S   183   0.92    263      -59.3
   11/18/2017 23:40      50.6      49.7       34     22.8      0.00      0.09      67.1     0.28      1019.9     0.0       N     0   0.0       E    97   0.91    263      -60.5
   11/18/2017 23:30      51.3      50.4       33     22.5      0.00      0.09      67.1     0.28      1019.9     0.5     SSE   150   1.5     SSE   162   0.92    263      -60.2
   11/18/2017 23:20      52.1      51.1       32     22.4      0.00      0.09      67.1     0.28      1020.0     0.4      SE   142   1.5      SE   145   0.92    263      -60.5
   11/18/2017 23:10      52.0      51.5       31     22.3      0.00      0.09      67.1     0.28      1020.0     0.6      SE   127   1.7       N     9   0.92    263      -60.9
   11/18/2017 23:00      51.8      51.1       33     23.4      0.00      0.09      67.1     0.28      1020.0     1.0     SSE   152   2.0      SE   139   0.92    263      -61.0
   11/18/2017 22:50      51.7      51.2       34     23.6      0.00      0.09      67.1     0.28      1020.0     0.6     SSE   150   1.7      SE   144   0.92    263      -60.2
   11/18/2017 22:40      51.6      50.7       33     23.1      0.00      0.09      67.2     0.28      1019.9     0.8       S   177   1.6       S   175   0.92    263      -59.5
   11/18/2017 22:30      51.5      50.8       33     22.9      0.00      0.09      67.1     0.28      1020.0     0.4       S   187   1.6       S   181   0.92    263      -60.9
   11/18/2017 22:20      51.9      51.2       33     23.2      0.00      0.09      67.2     0.28      1020.0     0.0     WSW   249   0.2     WSW   249   0.92    263      -61.1
   11/18/2017 22:10      52.5      51.5       32     23.3      0.00      0.09      67.2     0.28      1020.0     0.0      SW   217   0.9      SE   131   0.92    263      -62.9
   11/18/2017 22:00      52.8      52.2       32     23.4      0.00      0.09      67.2     0.28      1020.0     0.7     SSE   155   2.3      SE   142   0.92    263      -62.1
   11/18/2017 21:50      53.0      52.1       32     23.7      0.00      0.09      67.2     0.28      1020.0     0.6     SSE   161   1.8      SE   145   0.92    263      -62.7
   11/18/2017 21:40      53.0      52.5       31     22.6      0.00      0.09      67.2     0.28      1020.1     0.5     SSE   164   1.5     SSE   167   0.92    263      -63.6
   11/18/2017 21:30      53.5      52.5       31     23.1      0.00      0.09      67.2     0.28      1020.1     1.0     SSE   161   3.0       S   179   0.92    262      -64.7
   11/18/2017 21:20      53.8      53.0       30     22.4      0.00      0.09      67.2     0.28      1020.0     0.5       S   177   2.5       S   174   0.92    263      -63.8
   11/18/2017 21:10      54.4      53.5       30     23.3      0.00      0.09      67.2     0.28      1019.9     0.7     SSE   155   1.5      SE   141   0.92    263      -65.5
   11/18/2017 21:00      54.5      54.0       29     22.6      0.00      0.09      67.2     0.28      1019.9     1.1     SSE   154   2.3      SE   141   0.92    262      -66.1
   11/18/2017 20:50      55.0      53.6       29     22.4      0.00      0.09      67.2     0.28      1019.8     0.6     SSE   165   1.7       S   174   0.92    262      -67.2
   11/18/2017 20:40      55.6      54.8       28     22.9      0.00      0.09      67.1     0.28      1019.9     1.1     SSE   149   2.1      SE   142   0.92    262      -67.7
   11/18/2017 20:30      55.8      55.0       28     22.4      0.00      0.09      67.2     0.28      1019.9     1.2     SSE   153   3.1      SE   140   0.92    262      -69.4
   11/18/2017 20:20      55.7      54.6       29     23.2      0.00      0.09      67.2     0.28      1019.9     2.0      SE   145   3.4      SE   144   0.92    262      -69.9
   11/18/2017 20:10      55.6      54.5       29     23.0      0.00      0.09      67.2     0.28      1019.9     1.0     SSE   156   3.2       S   184   0.92    262      -70.0
   11/18/2017 20:00      56.1      55.3       27     22.6      0.00      0.09      67.1     0.28      1019.8     1.1     SSE   158   2.1       S   176   0.92    262      -71.3
   11/18/2017 19:50      56.3      55.7       27     22.9      0.00      0.09      67.1     0.28      1019.8     1.3     SSE   154   2.5     SSE   148   0.92    262      -71.3
   11/18/2017 19:40      57.2      56.0       27     22.7      0.00      0.09      67.2     0.28      1019.7     1.3     SSE   153   2.5      SE   143   0.92    262      -72.5
   11/18/2017 19:30      57.9      57.0       25     22.1      0.00      0.09      67.1     0.28      1019.7     1.3     SSE   156   2.1     SSE   151   0.92    262      -73.5
   11/18/2017 19:20      58.9      57.7       25     22.3      0.00      0.09      67.1     0.28      1019.6     1.3     SSE   156   2.5     SSE   150   0.92    262      -74.6
   11/18/2017 19:10      61.7      58.7       21     20.0      0.00      0.09      67.1     0.28      1019.5     1.2     SSE   165   2.6       S   174   0.92    262      -74.8
   11/18/2017 19:00      65.1      61.5       17     17.5      0.00      0.09      67.1     0.28      1019.5     1.0     SSE   163   2.0     SSE   163   0.92    262      -75.7
   11/18/2017 18:50      66.5      64.9       15     16.7      0.00      0.09      67.0     0.28      1019.4     1.3     WNW   285   3.5      NW   319   0.92    261      -79.6
   11/18/2017 18:40      66.8      66.1       14     16.4      0.00      0.09      67.0     0.28      1019.3     1.0      NW   321   4.3       N     3   0.93    261      -81.5
   11/18/2017 18:30      66.9      66.3       14     16.4      0.00      0.09      67.0     0.28      1019.3     2.0      NW   322   5.8     NNW   326   0.92    261      -82.6
   11/18/2017 18:20      67.0      66.6       14     16.5      0.00      0.09      67.0     0.28      1019.2     1.5     WNW   298   5.0     WNW   296   0.92    261      -82.4
   11/18/2017 18:10      67.6      66.8       14     16.5      0.00      0.09      67.0     0.28      1019.1     1.1      NW   308   3.2       N     9   0.92    261      -83.0
   11/18/2017 18:00      67.5      66.7       14     16.5      0.00      0.09      67.0     0.28      1019.0     2.2      NW   310   6.0       W   276   0.92    261      -83.0
   11/18/2017 17:50      66.9      65.7       15     17.0      0.00      0.09      66.9     0.28      1019.0     1.1      NW   316   5.3     NNW   332   0.92    261      -80.6
   11/18/2017 17:40      66.8      65.7       15     17.9      0.00      0.09      66.9     0.28      1019.0     0.7     WSW   245   2.2      SW   221   0.92    261      -81.5
   11/18/2017 17:30      67.1      65.3       16     18.3      0.00      0.09      66.9     0.28      1019.0     1.4       N     2   4.8      NE    39   0.92    261      -84.5
   11/18/2017 17:20      68.1      65.3       16     18.6      0.00      0.09      66.8     0.28      1019.0     1.4       S   191   2.9     SSW   197   0.92    261      -80.2
   11/18/2017 17:10      70.0      67.9       14     18.1      0.00      0.09      66.9     0.28      1019.0     1.2      SW   226   3.3      NW   304   0.92    261      -82.6
   11/18/2017 17:00      70.6      69.6       14     18.3      0.00      0.09      66.8     0.28      1018.9     1.9     NNW   328   7.3     NNE    24   0.92    261      -79.1
   11/18/2017 16:50      70.9      70.1       14     18.6      0.00      0.09      66.8     0.28      1018.9     1.8     NNW   329   6.6     NNW   335   0.92    261      -78.8
   11/18/2017 16:40      71.4      70.6       14     18.9      0.00      0.09      66.8     0.28      1018.8     2.2       N   356   5.7     NNW   341   0.92    261      -75.3
   11/18/2017 16:30      72.0      71.2       14     19.1      0.00      0.09      66.7     0.28      1018.9     1.9     NNW   343   4.6     NNE    26   0.92    261      -73.6
   11/18/2017 16:20      72.5      71.6       13     18.7      0.00      0.09      66.7     0.28      1018.9     3.7       N   358   8.2       N   354   0.92    261      -70.0
   11/18/2017 16:10      73.2      72.2       13     19.1      0.00      0.09      66.7     0.28      1018.8     4.5       N   358   9.6       N     6   0.92    261      -64.4
   11/18/2017 16:00      73.8      72.9       13     19.8      0.00      0.09      66.7     0.28      1018.8     5.1       N     0  10.0       N   354   0.92    261      -41.1
   11/18/2017 15:50      74.2      73.5       13     19.7      0.00      0.09      66.6     0.28      1018.8     4.5       N   358  12.4      NW   318   0.92    261       -3.7
   11/18/2017 15:40      74.4      73.9       13     20.0      0.00      0.09      66.7     0.28      1018.7     5.1       N   359  10.4       N     4   0.92    261       28.5
   11/18/2017 15:30      74.6      74.2       13     20.1      0.00      0.09      66.6     0.28      1018.8     6.0       N     4   9.6     NNW   349   0.92    261       49.3
   11/18/2017 15:20      74.6      74.1       13     20.0      0.00      0.09      66.6     0.28      1018.7     6.2       N     3  11.8     NNW   345   0.92    261       69.3
   11/18/2017 15:10      74.5      74.1       13     19.9      0.00      0.09      66.5     0.28      1018.7     6.4       N     5  13.0     NNE    25   0.92    261      103.6
   11/18/2017 15:00      74.5      73.9       13     20.6      0.00      0.09      66.5     0.28      1018.7     5.2       N   359  10.3     NNW   333   0.92    261       89.1
   11/18/2017 14:50      74.3      73.8       13     20.7      0.00      0.09      66.5     0.28      1018.7     7.0       N     6  11.8      NE    40   0.92    261       97.1
   11/18/2017 14:40      75.4      74.1       13     21.2      0.00      0.09      66.5     0.28      1018.7     7.7       N     3  15.3       N     0   0.92    261      124.6
   11/18/2017 14:30      75.3      74.2       14     22.2      0.00      0.09      66.5     0.28      1018.9     5.1       N   356  10.3      NW   317   0.92    261      219.7
   11/18/2017 14:20      74.7      74.1       15     23.3      0.00      0.09      66.4     0.28      1019.0     5.9       N     9  11.5     NNE    29   0.92    261      118.2
   11/18/2017 14:10      75.4      74.3       15     24.5      0.00      0.09      66.4     0.28      1019.0     6.5       N     6  11.5       N   354   0.92    261      158.1
   11/18/2017 14:00      75.5      74.7       16     26.1      0.00      0.09      66.4     0.28      1019.1     5.3     NNE    16   9.6     NNW   346   0.92    261      161.0
   11/18/2017 13:50      75.8      75.2       16     26.8      0.00      0.09      66.4     0.28      1019.1     5.4     NNE    16   9.8     NNE    31   0.92    261      234.6
   11/18/2017 13:40      76.5      75.2       16     26.9      0.00      0.09      66.3     0.28      1019.3     6.0       N   354  10.0       N     4   0.92    261      255.6
   11/18/2017 13:30      76.4      75.7       17     28.1      0.00      0.09      66.4     0.28      1019.5     4.4       N     6   8.5       N   350   0.92    261      266.7
   11/18/2017 13:20      76.0      75.2       17     27.6      0.00      0.09      66.3     0.28      1019.5     5.3     NNE    21  11.8       N     4   0.92    261      283.9
   11/18/2017 13:10      76.2      75.5       17     27.6      0.00      0.09      66.4     0.28      1019.6     4.5       N     1   9.5       S   177   0.92    261      277.0
   11/18/2017 13:00      76.1      74.8       17     27.7      0.00      0.09      66.3     0.28      1019.8     4.2       N   360   8.1       N     6   0.92    261      306.9
   11/18/2017 12:50      75.0      74.4       17     27.0      0.00      0.09      66.3     0.28      1020.0     5.7       N   352   9.4      NW   311   0.92    261      316.4
   11/18/2017 12:40      75.7      74.9       17     27.1      0.00      0.09      66.3     0.28      1020.1     5.0     NNE    17   9.3     NNE    25   0.92    261      321.7
   11/18/2017 12:30      75.7      74.9       16     26.6      0.00      0.09      66.3     0.28      1020.3     4.8       N   355   8.8     NNE    27   0.93    261      322.6
   11/18/2017 12:20      75.8      75.0       16     26.4      0.00      0.09      66.3     0.28      1020.4     3.3      NW   321   8.7       N     2   0.93    261      329.1
   11/18/2017 12:10      75.6      74.6       16     26.1      0.00      0.09      66.3     0.28      1020.4     3.8       N     1   7.1     NNW   348   0.93    261      334.7
   11/18/2017 12:00      75.4      74.8       16     26.5      0.00      0.09      66.3     0.28      1020.6     3.4       N    11   8.3     NNW   342   0.93    261      337.3
   11/18/2017 11:50      75.4      74.1       17     27.0      0.00      0.09      66.4     0.28      1020.8     4.0       N   356   8.5       N   355   0.92    261      340.4
   11/18/2017 11:40      74.4      73.8       17     26.9      0.00      0.09      66.3     0.28      1021.1     4.1       N     6   8.1       N     3   0.92    261      343.0
   11/18/2017 11:30      74.4      73.8       17     27.1      0.00      0.09      66.4     0.28      1021.2     4.0     NNE    13   6.9      NE    37   0.93    261      342.3
   11/18/2017 11:20      74.4      73.5       18     28.2      0.00      0.09      66.4     0.28      1021.4     3.4     NNE    18   8.0     NNW   347   0.93    261      340.2
   11/18/2017 11:10      73.6      72.7       19     28.0      0.00      0.09      66.4     0.28      1021.6     4.0       N     3   7.8       N     4   0.93    261      338.9
   11/18/2017 11:00      73.5      72.7       19     28.3      0.00      0.09      66.4     0.28      1021.7     3.6     NNE    12   8.0       N   354   0.92    261      334.8
   11/18/2017 10:50      73.2      71.7       20     29.1      0.00      0.09      66.4     0.28      1021.8     3.4     NNE    21   7.0       N     2   0.92    261      331.2
   11/18/2017 10:40      71.8      71.1       21     29.1      0.00      0.09      66.5     0.28      1021.9     4.6     NNE    25  11.1     NNE    18   0.92    262      327.3
   11/18/2017 10:30      71.9      71.3       22     30.2      0.00      0.09      66.5     0.28      1022.1     4.1     NNE    23   6.9      NE    37   0.92    262      320.0
   11/18/2017 10:20      71.5      70.9       22     30.1      0.00      0.09      66.6     0.28      1022.1     3.9     NNE    14   6.7       N     7   0.92    262      312.1
   11/18/2017 10:10      71.2      70.3       23     30.5      0.00      0.09      66.6     0.28      1022.1     3.2      NE    39   5.5      NE    34   0.93    262      304.2
   11/18/2017 10:00      70.5      69.8       23     30.8      0.00      0.09      66.6     0.28      1022.1     3.6     NNE    30   5.6     NNE    31   0.92    262      295.2
   11/18/2017 09:50      70.5      69.3       24     32.1      0.00      0.09      66.7     0.28      1022.2     2.3      NE    42   4.5      NE    37   0.92    263      283.4
   11/18/2017 09:40      69.4      68.0       30     36.1      0.00      0.09      66.7     0.28      1022.2     0.9     NNE    28   2.5      NE    46   0.93    263      270.8
   11/18/2017 09:30      68.4      67.5       33     38.0      0.00      0.09      66.7     0.28      1022.1     1.2     WNW   299   2.8       N   350   0.92    263      257.6
   11/18/2017 09:20      67.8      67.3       34     37.8      0.00      0.09      66.7     0.28      1022.1     1.3      NE    41   2.7     ESE   112   0.92    264      241.8
   11/18/2017 09:10      67.5      66.3       35     38.6      0.00      0.09      66.8     0.28      1022.2     0.7     ENE    62   2.1     NNE    30   0.92    264      226.8
   11/18/2017 09:00      66.4      65.6       37     38.9      0.00      0.09      66.8     0.28      1022.2     1.4      SE   126   2.8      SE   131   0.92    264      212.5
   11/18/2017 08:50      65.7      64.5       39     39.8      0.00      0.09      66.9     0.28      1022.3     0.8     SSE   164   2.7       S   174   0.92    265      197.4
   11/18/2017 08:40      64.8      62.8       48     43.5      0.00      0.09      66.9     0.28      1022.3     0.4      SW   229   1.6       S   183   0.92    266      215.2
   11/18/2017 08:30      63.0      61.7       57     46.7      0.00      0.09      66.9     0.28      1022.3     0.4      NE    50   1.4     SSE   147   0.92    323      218.8
   11/18/2017 08:20      61.8      58.8       62     47.2      0.00      0.09      67.0     0.28      1022.2     0.1     SSE   147   0.9     SSE   147   0.92    380      195.5
   11/18/2017 08:10      58.7      57.0       69     47.5      0.00      0.09      67.0     0.28      1022.1     0.9     NNE    32   3.0     NNE    12   0.92    414      167.6
   11/18/2017 08:00      57.1      54.8       74     47.8      0.00      0.09      67.0     0.28      1022.2     0.5     ESE   114   1.5       S   174   0.92    439      137.9
   11/18/2017 07:50      55.0      52.3       80     47.8      0.00      0.09      67.0     0.28      1022.0     0.0     ENE    57   0.8     ENE    57   0.92    453      102.1
   11/18/2017 07:40      52.6      50.5       86     47.4      0.00      0.09      67.1     0.28      1021.8     0.0     SSE   156   1.1     SSE   155   0.92    461       44.1
   11/18/2017 07:30      50.4      49.1       90     47.0      0.00      0.09      67.1     0.28      1021.6     0.6      SE   140   1.5     SSE   156   0.92    461       20.6
   11/18/2017 07:20      49.1      47.4       92     46.0      0.00      0.09      67.1     0.28      1021.5     0.3     SSE   156   1.2     SSE   156   0.92    462        7.2
   11/18/2017 07:10      47.4      46.4       93     44.7      0.00      0.09      67.2     0.28      1021.4     0.0       N     0   0.0     SSE   156   0.92    461        4.2
   11/18/2017 07:00      46.6      46.1       93     44.4      0.00      0.09      67.2     0.28      1021.4     0.4     SSE   166   1.2     SSE   157   0.92    459        0.6
   11/18/2017 06:50      46.4      45.9       93     44.2      0.00      0.09      67.2     0.28      1021.3     0.2       S   175   1.2       S   175   0.92    457       -3.8
   11/18/2017 06:40      46.7      45.9       93     44.2      0.00      0.09      67.2     0.28      1021.1     0.2     SSE   163   1.6      SE   139   0.92    455       -8.4
   11/18/2017 06:30      46.5      45.9       93     44.2      0.00      0.09      67.3     0.28      1021.0     0.5     SSE   159   1.8      SE   139   0.92    453      -12.1
   11/18/2017 06:20      46.7      46.4       93     44.6      0.00      0.09      67.3     0.28      1020.9     0.7     SSE   152   2.0      SE   142   0.92    450      -13.5
   11/18/2017 06:10      47.3      46.0       93     44.7      0.00      0.09      67.3     0.28      1020.9     0.4     SSW   200   1.6       S   176   0.92    446      -14.4
   11/18/2017 06:00      47.3      46.9       93     45.1      0.00      0.09      67.3     0.28      1020.9     0.7       S   184   2.1       S   170   0.92    443      -14.4
   11/18/2017 05:50      47.6      46.9       93     45.2      0.00      0.09      67.3     0.28      1020.7     0.2      NW   319   1.3       S   180   0.92    440      -14.7
   11/18/2017 05:40      48.1      47.2       93     45.7      0.00      0.09      67.4     0.28      1020.5     0.1       S   180   1.3       S   180   0.92    437      -14.9
   11/18/2017 05:30      48.5      47.8       93     46.1      0.00      0.09      67.4     0.28      1020.5     0.4       S   180   1.4       S   180   0.92    433      -15.2
   11/18/2017 05:20      48.4      47.6       93     46.1      0.00      0.09      67.4     0.28      1020.4     0.0       S   180   0.8       S   180   0.92    429      -15.7
   11/18/2017 05:10      48.4      47.6       93     46.0      0.00      0.09      67.5     0.28      1020.3     0.7       S   186   2.0       N     4   0.92    425      -16.1
   11/18/2017 05:00      48.1      47.4       93     45.8      0.00      0.09      67.5     0.28      1020.3     0.2      SE   146   1.6       S   184   0.92    422      -16.2
   11/18/2017 04:50      48.6      47.8       93     46.1      0.00      0.09      67.5     0.28      1020.3     0.3       E    86   2.1      SE   143   0.92    417      -16.6
   11/18/2017 04:40      49.0      48.3       93     46.6      0.00      0.09      67.5     0.28      1020.2     0.0       E    88   0.8       E    88   0.92    412      -16.7
   11/18/2017 04:30      49.0      48.3       93     46.7      0.00      0.09      67.6     0.28      1020.1     0.8     SSE   149   2.3      SE   136   0.92    408      -17.2
   11/18/2017 04:20      48.4      47.5       92     45.9      0.00      0.09      67.6     0.28      1020.2     1.2     SSE   155   2.6      SE   141   0.92    403      -16.9
   11/18/2017 04:10      48.5      47.9       92     46.0      0.00      0.09      67.6     0.28      1020.2     0.9       S   174   1.9       S   184   0.92    399      -17.2
   11/18/2017 04:00      49.0      48.1       92     46.3      0.00      0.09      67.6     0.28      1020.2     0.2       E    99   1.1     NNE    22   0.92    394      -18.1
   11/18/2017 03:50      49.0      48.3       92     46.4      0.00      0.09      67.7     0.28      1020.2     0.0      SE   125   0.7      SE   125   0.92    389      -18.3
   11/18/2017 03:40      49.4      48.3       91     46.3      0.00      0.09      67.7     0.28      1020.2     0.1      SE   125   1.0      SE   125   0.92    386      -19.3
   11/18/2017 03:30      49.4      48.8       92     46.8      0.00      0.09      67.7     0.28      1020.3     0.1      SE   125   0.8      SE   125   0.92    380      -19.1
   11/18/2017 03:20      49.7      48.8       91     46.7      0.00      0.09      67.7     0.28      1020.3     0.0      SE   124   0.4      SE   124   0.92    375      -19.6
   11/18/2017 03:10      50.1      49.4       92     47.4      0.00      0.09      67.8     0.28      1020.5     0.4      SE   141   2.2      SE   142   0.92    369      -19.0
   11/18/2017 03:00      50.0      49.2       92     47.3      0.00      0.09      67.8     0.28      1020.5     0.5     SSE   161   1.9      SE   143   0.92    365      -18.3
   11/18/2017 02:50      49.5      49.0       91     46.7      0.00      0.09      67.8     0.28      1020.6     1.0     SSE   150   2.4     SSE   159   0.92    358      -18.6
   11/18/2017 02:40      49.6      48.8       91     46.5      0.00      0.09      67.8     0.28      1020.6     1.1     SSE   161   2.1      SE   141   0.92    353      -18.9
   11/18/2017 02:30      50.0      49.3       90     47.0      0.00      0.09      67.9     0.28      1020.7     0.3     SSE   154   0.9     SSE   169   0.92    345      -19.4
   11/18/2017 02:20      50.0      49.5       90     47.0      0.00      0.09      67.9     0.28      1020.7     0.2     SSE   154   0.9     SSE   154   0.92    339      -20.3
   11/18/2017 02:10      50.1      49.3       90     46.7      0.00      0.09      67.8     0.28      1020.6     0.1     SSE   154   0.6     SSE   154   0.92    333      -21.5
   11/18/2017 02:00      50.3      49.8       90     47.2      0.00      0.09      67.9     0.28      1020.6     0.6       S   185   1.8      SW   215   0.92    330      -21.7
   11/18/2017 01:50      50.5      50.0       90     47.3      0.00      0.09      67.9     0.28      1020.6     0.0       S   181   0.5       S   181   0.92    325      -22.9
   11/18/2017 01:40      50.6      50.2       90     47.5      0.00      0.09      67.9     0.28      1020.5     0.0       S   181   0.5       S   181   0.92    320      -23.3
   11/18/2017 01:30      51.0      50.2       89     47.5      0.00      0.09      68.0     0.28      1020.5     0.0       N     0   0.0       S   181   0.92    316      -25.1
   11/18/2017 01:20      51.1      50.7       90     47.9      0.00      0.09      68.0     0.28      1020.5     0.3       S   181   1.4       S   181   0.92    311      -25.5
   11/18/2017 01:10      51.0      50.6       90     47.8      0.00      0.09      68.0     0.28      1020.4     0.8     SSE   164   2.1       S   181   0.92    309      -27.0
   11/18/2017 01:00      51.0      50.3       90     47.8      0.00      0.09      68.0     0.28      1020.4     1.3     SSE   158   2.6      SE   145   0.92    305      -28.4
   11/18/2017 00:50      51.1      50.1       89     47.6      0.00      0.09      68.0     0.28      1020.4     0.6       S   171   1.8      SE   142   0.92    302      -29.2
   11/18/2017 00:40      51.2      50.6       89     47.6      0.00      0.09      68.0     0.28      1020.4     0.6      SE   146   1.4       S   183   0.92    298      -31.3
   11/18/2017 00:30      51.8      51.0       88     47.9      0.00      0.09      68.1     0.28      1020.4     0.4     SSE   169   1.7       S   177   0.92    295      -33.3
   11/18/2017 00:20      52.1      51.3       87     48.1      0.00      0.09      68.1     0.28      1020.4     0.6       S   187   2.3     SSW   195   0.92    292      -35.1
   11/18/2017 00:10      52.5      51.7       87     48.4      0.00      0.09      68.1     0.28      1020.4     0.6      SE   141   2.2     SSW   194   0.92    289      -36.4
   11/18/2017 00:00      52.5      51.9       87     48.5      0.00      0.09      68.1     0.28      1020.4     0.8       S   183   3.4     SSW   209   0.92    286      -38.6
   11/17/2017 23:50      52.4      51.9       87     48.5      0.00      0.09      68.1     0.28      1020.4     1.1     SSE   159   2.7     SSW   209   0.92    284      -41.1
   11/17/2017 23:40      52.2      51.7       87     48.1      0.00      0.09      68.2     0.28      1020.4     1.4       S   175   2.4     WSW   239   0.92    282      -42.9
   11/17/2017 23:30      52.7      52.0       87     48.5      0.00      0.09      68.2     0.28      1020.4     0.3     SSE   154   1.1     SSE   154   0.92    280      -43.6
   11/17/2017 23:20      52.8      52.2       87     48.5      0.00      0.09      68.2     0.28      1020.4     0.4     SSE   154   0.9     SSE   154   0.93    279      -47.0
   11/17/2017 23:10      53.0      52.5       86     48.7      0.00      0.09      68.2     0.28      1020.3     0.5     SSE   162   1.4     SSE   166   0.92    275      -48.2
   11/17/2017 23:00      53.2      52.6       86     48.6      0.00      0.09      68.2     0.28      1020.3     0.2     SSE   166   1.0     SSE   165   0.92    274      -50.8
   11/17/2017 22:50      53.5      53.0       85     48.7      0.00      0.09      68.2     0.28      1020.2     0.2     SSW   196   1.1     SSW   212   0.92    273      -53.1
   11/17/2017 22:40      53.7      53.2       84     48.6      0.00      0.09      68.2     0.28      1020.0     0.3       S   185   1.8     SSW   213   0.92    271      -54.4
   11/17/2017 22:30      54.2      53.4       83     48.7      0.00      0.09      68.2     0.28      1019.8     0.0       S   169   0.2       S   169   0.92    270      -56.5
   11/17/2017 22:20      54.3      53.6       82     48.7      0.00      0.09      68.2     0.28      1019.7     0.3     SSE   159   1.3     SSE   152   0.92    270      -56.6
   11/17/2017 22:10      54.9      53.9       81     48.7      0.00      0.09      68.2     0.28      1019.8     0.6     SSE   151   2.0     SSE   149   0.92    269      -57.6
   11/17/2017 22:00      55.8      54.5       79     48.5      0.00      0.09      68.2     0.28      1019.7     0.6       S   170   2.5       S   177   0.92    268      -57.8
   11/17/2017 21:50      55.8      55.0       80     49.2      0.00      0.09      68.2     0.28      1019.6     1.6       S   171   2.7     SSW   198   0.92    268      -56.5
   11/17/2017 21:40      55.9      55.1       78     48.8      0.00      0.09      68.2     0.28      1019.6     0.0      NE    49   0.5      NE    49   0.92    268      -58.2
   11/17/2017 21:30      56.6      55.6       77     48.8      0.00      0.09      68.2     0.28      1019.4     0.4       E    81   1.5     ENE    62   0.93    268      -59.3
   11/17/2017 21:20      57.2      56.4       77     49.4      0.00      0.09      68.2     0.28      1019.4     0.2     SSW   196   1.5     SSW   196   0.93    268      -58.8
   11/17/2017 21:10      58.3      56.8       74     49.1      0.00      0.09      68.2     0.28      1019.1     0.3     ESE   108   2.4     SSW   203   0.93    268      -60.7
   11/17/2017 21:00      58.3      57.9       74     49.8      0.00      0.09      68.2     0.28      1019.0     1.0       S   173   2.8       S   187   0.93    267      -61.1
   11/17/2017 20:50      58.5      57.9       74     49.9      0.00      0.09      68.2     0.28      1019.0     1.3       S   182   2.8       S   179   0.93    267      -61.4
   11/17/2017 20:40      58.9      58.2       73     49.9      0.00      0.09      68.2     0.28      1018.8     1.7       S   180   3.0     SSW   193   0.93    267      -60.9
   11/17/2017 20:30      60.1      58.6       71     50.0      0.00      0.09      68.2     0.28      1018.8     0.8       S   182   1.8       S   189   0.92    267      -62.2
   11/17/2017 20:20      60.4      59.7       70     50.1      0.00      0.09      68.2     0.28      1018.7     1.1       W   279   2.7     WSW   246   0.93    267      -63.0
   11/17/2017 20:10      60.5      59.9       70     50.2      0.00      0.09      68.2     0.28      1018.6     2.0      SW   232   4.1     WSW   250   0.93    267      -63.8
   11/17/2017 20:00      60.7      60.2       69     50.3      0.00      0.09      68.2     0.28      1018.5     2.6     SSW   210   4.6     SSW   193   0.93    267      -64.1
   11/17/2017 19:50      60.9      60.4       69     50.4      0.00      0.09      68.2     0.28      1018.5     1.3      SW   225   2.5     WSW   245   0.93    266      -64.3
   11/17/2017 19:40      60.9      60.4       70     50.6      0.00      0.09      68.2     0.28      1018.4     1.9     SSW   210   3.5      SW   220   0.93    266      -65.4
   11/17/2017 19:30      61.5      60.7       69     50.9      0.00      0.09      68.2     0.28      1018.2     1.4       S   185   3.3     SSW   212   0.92    267      -66.4
   11/17/2017 19:20      61.8      61.2       69     51.0      0.00      0.09      68.2     0.28      1018.2     2.2     SSW   201   4.5     WSW   258   0.92    266      -67.0
   11/17/2017 19:10      61.9      61.3       69     51.2      0.00      0.09      68.1     0.28      1018.1     2.1     SSW   209   4.1      SW   227   0.92    266      -67.4
   11/17/2017 19:00      62.3      61.6       68     51.4      0.00      0.09      68.1     0.28      1017.9     2.7       S   188   6.0      SW   231   0.92    266      -68.1
   11/17/2017 18:50      62.6      61.9       69     51.7      0.00      0.09      68.1     0.28      1017.8     3.6     SSW   206   5.7      SW   235   0.92    266      -67.4
   11/17/2017 18:40      62.9      62.2       68     51.9      0.00      0.09      68.1     0.28      1017.8     1.9       S   176   4.3     SSW   199   0.92    266      -67.7
   11/17/2017 18:30      63.3      62.6       68     52.0      0.00      0.09      68.0     0.28      1017.7     0.4     ENE    73   3.4     WSW   238   0.93    266      -68.2
   11/17/2017 18:20      63.5      63.0       67     52.2      0.00      0.09      68.0     0.28      1017.7     3.4     WSW   241   8.0      SW   236   0.92    266      -68.3
   11/17/2017 18:10      63.9      63.1       67     52.2      0.00      0.09      68.0     0.28      1017.7     3.5      SW   228   6.7      SW   231   0.92    266      -68.5
   11/17/2017 18:00      64.3      63.6       66     52.3      0.00      0.09      68.0     0.28      1017.8     4.3     WSW   237   7.3      SW   220   0.92    266      -68.5
   11/17/2017 17:50      64.7      64.0       65     52.4      0.00      0.09      68.0     0.28      1017.7     4.8     WSW   237   7.6     WSW   250   0.92    266      -68.8
   11/17/2017 17:40      65.2      64.4       65     52.6      0.00      0.09      68.0     0.28      1017.5     4.5     WSW   241   7.2     WSW   258   0.93    266      -69.1
   11/17/2017 17:30      65.5      64.9       64     52.5      0.00      0.09      67.9     0.28      1017.3     2.3      SW   223   6.0      SW   223   0.93    266      -69.3
   11/17/2017 17:20      66.3      65.3       62     52.4      0.00      0.09      67.9     0.28      1017.3     1.5     WSW   241   2.5     SSW   206   0.93    266      -69.5
   11/17/2017 17:10      66.7      65.8       61     52.5      0.00      0.09      67.9     0.28      1017.2     2.1     WSW   258   6.0     WSW   253   0.92    266      -70.6
   11/17/2017 17:00      67.2      66.5       60     52.6      0.00      0.09      67.9     0.28      1017.1     1.7       W   273   4.3     WSW   248   0.92    266      -70.3
   11/17/2017 16:50      67.6      66.8       59     52.5      0.00      0.09      67.9     0.28      1017.1     1.6     WSW   245   4.3     WSW   245   0.92    266      -68.2
   11/17/2017 16:40      67.9      67.3       58     52.4      0.00      0.09      67.8     0.28      1017.1     2.4     WSW   237   6.1      SW   219   0.92    266      -66.2
   11/17/2017 16:30      68.4      67.5       57     52.3      0.00      0.09      67.7     0.28      1016.9     4.2     WSW   241   6.7     WSW   252   0.92    265      -63.1
   11/17/2017 16:20      69.1      68.0       55     51.8      0.00      0.09      67.8     0.28      1016.8     4.7     WSW   239   6.9      SW   221   0.92    265      -61.3
   11/17/2017 16:10      69.9      68.8       53     51.6      0.00      0.09      67.8     0.28      1016.9     4.5      SW   231   7.8      SW   223   0.92    264      -39.7
   11/17/2017 16:00      70.8      69.7       51     51.3      0.00      0.09      67.7     0.28      1017.0     4.3     WSW   237   6.8      SW   236   0.93    264       -9.9
   11/17/2017 15:50      71.5      70.4       49     50.8      0.00      0.09      67.7     0.28      1016.8     4.3      SW   223   8.3     SSW   198   0.92    264        7.8
   11/17/2017 15:40      71.9      71.2       50     51.8      0.00      0.09      67.6     0.28      1016.8     4.3      SW   236   7.6       S   174   0.93    264       27.7
   11/17/2017 15:30      72.5      71.4       49     51.7      0.00      0.09      67.7     0.28      1016.8     4.3      SW   226   7.4      SW   214   0.93    264       49.8
   11/17/2017 15:20      72.4      71.4       50     52.5      0.00      0.09      67.6     0.28      1016.7     3.7     WSW   237   6.7     WNW   287   0.93    264       72.3
   11/17/2017 15:10      72.8      71.3       50     52.3      0.00      0.09      67.6     0.28      1016.6     4.6      SW   220   9.0     SSW   210   0.93    264       96.8
   11/17/2017 15:00      72.6      71.7       50     52.3      0.00      0.09      67.6     0.28      1016.7     4.3     WSW   250   8.0      SW   229   0.93    264      125.3
   11/17/2017 14:50      72.7      71.9       49     52.0      0.00      0.09      67.5     0.28      1016.8     4.4      SW   229   8.0      SW   235   0.93    264      129.0
   11/17/2017 14:40      73.0      72.2       49     52.1      0.00      0.09      67.5     0.28      1016.9     4.3       W   263   9.2     WNW   284   0.93    264      153.0
   11/17/2017 14:30      73.1      71.7       51     52.9      0.00      0.09      67.5     0.28      1017.0     4.5     WSW   251   8.1      SW   222   0.93    264      149.2
   11/17/2017 14:20      72.9      71.9       51     53.1      0.00      0.09      67.5     0.28      1017.0     4.8      SW   235   8.3     WSW   244   0.93    264      201.5
   11/17/2017 14:10      72.4      71.6       51     52.9      0.00      0.09      67.4     0.28      1016.9     5.3      SW   227   8.5     WSW   245   0.93    264      173.4
   11/17/2017 14:00      73.3      72.2       50     53.2      0.00      0.09      67.4     0.28      1016.9     6.1     WSW   237   9.2      SW   220   0.93    264      188.2
   11/17/2017 13:50      74.3      72.7       50     53.4      0.00      0.09      67.4     0.28      1016.8     5.9     WSW   245   9.3     WSW   253   0.93    264      257.9
   11/17/2017 13:40      74.3      73.6       49     53.4      0.00      0.09      67.3     0.28      1016.8     3.6       W   261   8.2       W   267   0.93    263      283.0
   11/17/2017 13:30      74.0      73.0       50     53.7      0.00      0.09      67.4     0.28      1016.9     3.1     WNW   292   6.8       N     2   0.93    263      273.7
   11/17/2017 13:20      73.6      72.7       51     53.9      0.00      0.09      67.3     0.28      1017.0     3.3      NW   317   7.3      NW   323   0.93    263      230.3
   11/17/2017 13:10      74.3      73.3       50     53.9      0.00      0.09      67.3     0.28      1017.0     2.8     NNW   330   5.0      NW   316   0.93    263      207.9
   11/17/2017 13:00      74.7      73.0       50     54.1      0.00      0.09      67.3     0.28      1017.0     3.1      NW   315   7.9     WNW   300   0.93    263      404.7
   11/17/2017 12:50      73.8      73.0       50     53.8      0.00      0.09      67.3     0.28      1017.1     4.1     NNW   340   7.5     NNE    15   0.93    263      442.2
   11/17/2017 12:40      73.4      72.3       51     53.5      0.00      0.09      67.3     0.28      1017.3     3.1       W   264   6.5       W   264   0.93    263      399.5
   11/17/2017 12:30      72.1      69.9       55     53.9      0.00      0.09      67.3     0.28      1017.5     1.9     SSE   156   4.8       S   176   0.93    264      335.0
   11/17/2017 12:20      71.0      69.7       56     53.8      0.00      0.09      67.3     0.28      1017.6     3.0      NE    37   4.6     NNW   347   0.93    265       46.6
   11/17/2017 12:10      71.7      70.8       54     53.9      0.00      0.09      67.3     0.28      1017.7     2.1     NNW   349   4.8       N     3   0.93    264       66.5
   11/17/2017 12:00      72.5      71.2       53     54.0      0.00      0.09      67.3     0.28      1018.0     3.3      SW   224   8.2     WSW   246   0.93    264      301.3
   11/17/2017 11:50      71.1      70.2       56     54.0      0.00      0.09      67.2     0.28      1018.1     2.2       S   171   4.2     SSE   161   0.93    264      294.4
   11/17/2017 11:40      71.0      70.2       55     53.5      0.00      0.09      67.2     0.28      1018.3     1.7     ESE   111   5.0      SE   133   0.93    264      215.6
   11/17/2017 11:30      70.3      69.6       56     53.2      0.00      0.09      67.2     0.28      1018.5     1.7      SW   223   3.5     WSW   246   0.93    264      187.3
   11/17/2017 11:20      70.0      69.2       56     53.1      0.00      0.09      67.3     0.28      1018.7     2.0     WSW   249   4.8       W   265   0.93    264      132.2
   11/17/2017 11:10      70.6      69.6       54     52.9      0.00      0.09      67.3     0.28      1018.8     1.8       W   270   3.9     WSW   258   0.93    264      116.9
   11/17/2017 11:00      70.5      69.6       54     52.4      0.00      0.09      67.2     0.28      1018.9     1.8     WNW   302   4.3       W   270   0.93    263      261.6
   11/17/2017 10:50      69.8      68.2       56     52.4      0.00      0.09      67.2     0.28      1018.9     2.1      NW   319   5.2     NNW   343   0.93    264      217.3
   11/17/2017 10:40      69.4      68.8       55     52.1      0.00      0.09      67.2     0.28      1019.0     2.0       N   353   4.8     NNW   336   0.92    264      145.9
   11/17/2017 10:30      69.1      68.1       55     51.9      0.00      0.09      67.2     0.28      1019.1     1.4       N     9   3.9      NW   317   0.92    264      204.0
   11/17/2017 10:20      69.9      68.8       54     52.1      0.00      0.09      67.3     0.28      1019.2     2.2      NW   319   4.3      NW   317   0.92    264       80.2
   11/17/2017 10:10      69.9      68.1       56     52.6      0.00      0.09      67.2     0.28      1019.3     1.5       S   171   2.8       W   268   0.92    263      387.1
   11/17/2017 10:00      68.5      68.0       58     53.1      0.00      0.09      67.3     0.28      1019.3     2.6     SSW   208   4.9     SSE   156   0.92    264      315.0
   11/17/2017 09:50      68.2      66.9       60     53.4      0.00      0.09      67.3     0.28      1019.4     2.0     SSW   205   4.3      SW   227   0.92    264      306.6
   11/17/2017 09:40      66.8      66.2       64     53.9      0.00      0.09      67.3     0.28      1019.3     3.0       S   189   5.1       S   183   0.92    265      289.6
   11/17/2017 09:30      67.0      66.2       66     54.7      0.00      0.09      67.3     0.28      1019.3     3.3      SW   218   5.9     SSW   207   0.92    266      248.2
   11/17/2017 09:20      66.9      65.4       68     55.2      0.00      0.09      67.3     0.28      1019.2     3.8     WSW   248   6.3     WSW   238   0.92    265      269.2
   11/17/2017 09:10      66.2      65.4       68     55.1      0.00      0.09      67.3     0.28      1019.2     3.6     WSW   258   5.8       W   262   0.92    266      209.7
   11/17/2017 09:00      65.9      65.1       70     55.3      0.00      0.09      67.3     0.28      1019.2     2.5       W   267   4.6      SW   234   0.92    266      209.9
   11/17/2017 08:50      66.9      65.3       69     55.2      0.00      0.09      67.3     0.28      1019.1     2.5     SSW   213   4.4     SSW   198   0.73    266      191.8
   11/17/2017 07:50      61.0      60.5       80     54.7      0.00      0.09      67.4     0.28      1018.6     1.8     SSW   207   4.3     SSW   207   0.94    269       -2.9
   11/17/2017 07:40      60.9      60.4       81     54.6      0.00      0.09      67.4     0.28      1018.6     2.6     SSW   209   4.3     SSW   213   0.94    269        0.9
   11/17/2017 07:30      60.8      60.4       81     54.6      0.00      0.09      67.4     0.28      1018.5     3.0      SW   214   4.6     SSW   210   0.94    270      -15.7
   11/17/2017 07:20      60.8      60.4       81     54.6      0.00      0.09      67.4     0.28      1018.3     2.9      SW   222   6.3      SW   233   0.94    270      -18.1
   11/17/2017 07:10      60.8      60.4       80     54.4      0.00      0.09      67.4     0.28      1018.3     3.3      SW   219   5.4     SSW   203   0.94    271      -15.4
   11/17/2017 07:00      60.8      60.4       78     53.7      0.00      0.09      67.4     0.28      1018.0     3.2      SW   215   6.4     SSW   204   0.94    271      -20.6
   11/17/2017 06:50      60.7      60.4       77     53.1      0.00      0.09      67.3     0.28      1017.8     1.8     SSW   212   2.8     SSW   204   0.94    272      -23.1
   11/17/2017 06:40      60.8      60.3       77     53.1      0.00      0.09      67.4     0.28      1017.7     0.8       S   171   2.1       S   181   0.94    274      -26.6
   11/17/2017 06:30      60.8      60.5       76     53.0      0.00      0.09      67.4     0.28      1017.6     2.4     SSW   195   4.8     WSW   237   0.94    276      -28.6
   11/17/2017 06:20      61.2      60.4       75     52.8      0.00      0.09      67.5     0.28      1017.2     1.1       S   177   3.0      SW   215   0.94    279      -28.9
   11/17/2017 06:10      61.1      60.6       73     52.2      0.00      0.09      67.5     0.28      1017.4     1.5      SW   216   2.8     SSW   204   0.94    283      -32.5
   11/17/2017 06:00      60.9      60.1       73     51.8      0.00      0.09      67.5     0.28      1017.0     1.6     SSW   195   5.6      SW   220   0.94    287      -30.9
   11/17/2017 05:50      60.5      59.8       75     52.1      0.00      0.09      67.5     0.28      1016.9     1.8       S   189   2.8       S   182   0.94    296      -26.8
   11/17/2017 05:40      60.5      59.9       74     52.0      0.00      0.09      67.5     0.28      1016.9     1.4       S   179   2.1     SSE   166   0.94    300      -23.4
   11/17/2017 05:30      60.6      60.2       75     52.4      0.00      0.09      67.5     0.28      1017.0     1.7     SSW   211   2.2       S   176   0.94    307      -25.3
   11/17/2017 05:20      60.7      60.2       76     52.9      0.00      0.09      67.5     0.28      1016.9     1.5     WSW   236   2.4      SW   230   0.94    314      -24.3
   11/17/2017 05:10      60.4      60.1       78     53.5      0.00      0.09      67.5     0.28      1016.8     0.2     WNW   299   1.1       W   274   0.94    323      -16.1
   11/17/2017 05:00      60.3      59.8       79     53.4      0.00      0.09      67.5     0.28      1016.8     0.3      NW   320   0.9      NW   322   0.94    329       -8.3
   11/17/2017 04:50      60.7      59.8       78     53.4      0.00      0.09      67.5     0.28      1016.7     0.0       N     0   0.5       N     0   0.94    335       -7.3
   11/17/2017 04:40      60.7      60.2       76     53.0      0.00      0.09      67.5     0.28      1016.7     0.4     WSW   243   1.8       N     0   0.94    341       -8.0
   11/17/2017 04:30      60.7      60.2       75     52.4      0.00      0.09      67.5     0.28      1016.7     0.0     SSW   196   0.7     SSW   197   0.94    345       -9.3
   11/17/2017 04:20      61.5      60.4       75     52.5      0.00      0.09      67.5     0.28      1016.7     1.2     SSE   167   3.0      SE   140   0.94    353       -8.8
   11/17/2017 04:10      62.0      61.4       68     51.0      0.00      0.09      67.5     0.28      1016.6     1.5       S   176   2.9     SSW   198   0.94    362      -12.0
   11/17/2017 04:00      61.8      61.0       67     50.5      0.00      0.09      67.5     0.28      1016.8     2.2     SSW   195   4.0       S   178   0.94    365      -15.4
   11/17/2017 03:50      61.3      60.6       70     51.0      0.00      0.09      67.5     0.28      1016.7     1.3      SW   217   2.9     WSW   247   0.94    304      -15.6
   11/17/2017 03:40      60.7      59.9       73     51.6      0.00      0.09      67.5     0.28      1016.5     1.8     SSW   198   3.2     SSW   207   0.94    300      -15.9
   11/17/2017 03:30      60.9      60.1       73     51.7      0.00      0.09      67.5     0.28      1016.3     0.0     SSW   207   0.3     SSW   207   0.94    311      -19.5
   11/17/2017 03:20      61.1      60.6       70     51.2      0.00      0.09      67.6     0.28      1016.4     0.3      SW   228   1.8      SW   228   0.94    319      -19.3
   11/17/2017 03:10      61.9      60.9       69     51.0      0.00      0.09      67.6     0.28      1016.3     0.0       N     0   0.0     ENE    69   0.94    326      -18.3
   11/17/2017 03:00      62.8      61.6       67     51.0      0.00      0.09      67.6     0.28      1016.1     0.2     ENE    75   1.2     ENE    69   0.94    309      -17.3
   11/17/2017 02:50      63.2      62.4       62     49.8      0.00      0.09      67.6     0.28      1016.2     0.2     WNW   296   1.2     ENE    77   0.94    289      -18.6
   11/17/2017 02:40      63.5      62.9       60     49.1      0.00      0.09      67.6     0.28      1016.2     0.9      SW   224   2.0      SW   217   0.94    291      -19.5
   11/17/2017 02:30      63.9      63.1       59     48.7      0.00      0.09      67.6     0.28      1016.3     1.4       S   186   3.4       S   189   0.94    302      -19.0
   11/17/2017 02:20      64.0      63.4       58     48.3      0.00      0.09      67.6     0.28      1016.4     3.0     SSW   199   5.3     SSW   204   0.94    274      -20.4
   11/17/2017 02:10      64.0      63.5       57     48.2      0.00      0.09      67.6     0.28      1016.3     3.2     SSW   198   5.6       S   180   0.94    270      -21.9
   11/17/2017 02:00      64.0      63.6       56     47.8      0.00      0.09      67.6     0.28      1016.4     2.3     SSW   211   4.1     SSW   193   0.94    274      -21.5
   11/17/2017 01:50      63.9      63.4       56     47.4      0.00      0.09      67.6     0.28      1016.3     2.3      SW   214   4.6      SW   222   0.94    266      -22.1
   11/17/2017 01:40      63.6      62.4       57     47.3      0.00      0.09      67.6     0.28      1016.3     1.7      SW   219   2.9      SW   215   0.94    266      -18.9
   11/17/2017 01:30      62.7      61.8       60     48.1      0.00      0.09      67.6     0.28      1016.4     1.1     SSW   213   2.0     SSW   206   0.94    266      -17.3
   11/17/2017 01:20      62.5      61.8       61     48.6      0.00      0.09      67.6     0.28      1016.3     0.7       S   184   2.7     SSW   201   0.94    266      -19.8
   11/17/2017 01:10      62.4      61.8       62     48.9      0.00      0.09      67.6     0.28      1016.4     1.8      SW   229   2.9     SSW   207   0.94    266      -18.8
   11/17/2017 01:00      62.0      60.9       64     49.1      0.00      0.09      67.7     0.28      1016.5     1.1     WNW   281   4.4       W   260   0.94    266      -16.2
   11/17/2017 00:50      61.3      60.9       67     49.8      0.00      0.09      67.6     0.28      1016.2     0.0       N     0   0.0     SSE   157   0.94    267      -16.0
   11/17/2017 00:40      61.6      60.9       66     49.7      0.00      0.09      67.7     0.28      1016.2     0.3     SSE   152   1.6      SE   144   0.94    268      -16.9
   11/17/2017 00:30      61.6      60.7       65     49.1      0.00      0.09      67.6     0.28      1016.3     0.7      SW   219   2.0     WSW   240   0.94    272      -17.1
   11/17/2017 00:20      61.2      60.7       66     49.4      0.00      0.09      67.6     0.28      1016.1     0.0       N     0   0.0      SE   134   0.94    277      -16.2
   11/17/2017 00:10      61.0      60.4       66     49.2      0.00      0.09      67.7     0.28      1016.0     0.2      SE   134   0.9      SE   134   0.94    280      -15.8
   11/17/2017 00:00      60.8      60.2       65     48.8      0.00      0.09      67.7     0.28      1016.1     0.5     SSE   154   1.3       S   173   0.94    266      -18.3
   11/16/2017 23:50      60.6      60.2       65     48.6      0.00      0.09      67.6     0.28      1016.0     0.1     SSE   153   1.3       S   176   0.94    266      -19.1
   11/16/2017 23:40      60.4      59.9       65     48.3      0.00      0.09      67.6     0.28      1015.8     0.0     WSW   240   0.7     WSW   240   0.94    266      -20.6
   11/16/2017 23:30      60.1      59.8       66     48.6      0.00      0.09      67.7     0.28      1015.9     0.4       S   171   1.4     SSE   152   0.95    266      -22.7
   11/16/2017 23:20      60.2      59.5       66     48.4      0.00      0.09      67.6     0.28      1015.8     1.2     SSE   150   2.4      SE   144   0.94    266      -27.3
   11/16/2017 23:10      60.9      59.9       65     48.5      0.00      0.09      67.7     0.28      1015.9     0.2       S   174   1.6      SE   125   0.95    266      -42.9
   11/16/2017 23:00      61.0      60.4       64     48.4      0.00      0.09      67.7     0.28      1016.2     0.0       S   177   0.5       S   178   0.95    266      -42.3
   11/16/2017 22:50      61.5      60.6       63     48.3      0.00      0.09      67.6     0.28      1016.3     1.1     SSE   148   2.4      SE   140   0.94    266      -42.0
   11/16/2017 22:40      61.9      61.3       60     47.4      0.00      0.09      67.6     0.28      1016.4     1.0     SSW   200   2.3     WSW   245   0.95    266      -41.0
   11/16/2017 22:30      62.5      61.5       60     48.0      0.00      0.09      67.6     0.28      1016.4     0.1       S   181   0.7       S   181   0.94    265      -37.9
   11/16/2017 22:20      62.7      62.2       59     47.9      0.00      0.09      67.6     0.28      1016.4     0.2       S   181   1.5       S   182   0.94    265      -35.1
   11/16/2017 22:10      62.9      62.4       58     47.6      0.00      0.09      67.6     0.28      1016.5     0.2       S   182   1.1       S   182   0.94    265      -23.2
   11/16/2017 22:00      63.0      62.3       59     48.2      0.00      0.09      67.6     0.28      1016.3     0.0       S   182   0.6       S   182   0.94    265      -30.7
   11/16/2017 21:50      63.6      62.7       58     48.0      0.00      0.09      67.6     0.28      1016.3     0.0       S   181   0.4       S   181   0.94    265      -28.9
   11/16/2017 21:40      63.6      63.3       57     48.1      0.00      0.09      67.6     0.28      1016.4     0.0       S   182   0.5       S   182   0.94    265      -29.1
   11/16/2017 21:30      63.9      63.3       57     47.9      0.00      0.09      67.6     0.28      1016.4     0.0       S   182   0.5       S   182   0.94    265      -22.4
   11/16/2017 21:20      64.4      63.6       56     47.9      0.00      0.09      67.5     0.28      1016.5     0.0       S   181   0.4       S   181   0.94    265      -21.4
   11/16/2017 21:10      64.3      63.9       55     47.8      0.00      0.09      67.5     0.28      1016.5     0.0       S   181   0.6       S   181   0.94    265      -17.2
   11/16/2017 21:00      64.5      64.0       55     47.8      0.00      0.09      67.5     0.28      1016.3     0.0       N     0   0.0       S   181   0.94    265      -16.6
   11/16/2017 20:50      64.5      64.1       55     47.6      0.00      0.09      67.5     0.28      1016.2     0.3       S   182   1.2       S   182   0.94    264      -18.3
   11/16/2017 20:40      64.3      63.8       55     47.7      0.00      0.09      67.5     0.28      1016.1     0.2       S   182   1.1       S   182   0.94    264      -17.9
   11/16/2017 20:30      64.8      64.1       55     47.6      0.00      0.09      67.5     0.28      1016.0     0.0       S   182   0.7       S   182   0.94    264      -18.4
   11/16/2017 20:20      65.6      64.4       53     47.5      0.00      0.09      67.5     0.28      1015.9     0.0       N     0   0.0       S   181   0.94    264      -26.3
   11/16/2017 20:10      65.9      65.3       52     47.5      0.00      0.09      67.5     0.28      1016.0     0.6      SW   221   1.9       W   259   0.94    264      -39.0
   11/16/2017 20:00      65.9      65.5       52     47.6      0.00      0.09      67.5     0.28      1016.1     1.3      SW   232   2.3     WSW   237   0.94    264      -31.4
   11/16/2017 19:50      66.0      65.5       52     47.7      0.00      0.09      67.5     0.28      1016.1     1.4     SSW   213   2.7      SW   228   0.94    264      -21.1
   11/16/2017 19:40      66.0      65.6       52     47.6      0.00      0.09      67.4     0.28      1016.1     2.2     SSW   206   3.8     SSW   202   0.94    264      -21.9
   11/16/2017 19:30      66.2      65.6       52     47.5      0.00      0.09      67.4     0.28      1016.0     1.5     SSW   207   2.3     SSW   213   0.94    264      -20.1
   11/16/2017 19:20      66.4      65.9       51     47.5      0.00      0.09      67.4     0.28      1015.8     0.7     SSW   202   3.2      SW   224   0.94    264      -25.3
   11/16/2017 19:10      66.5      66.0       51     47.6      0.00      0.09      67.4     0.28      1015.9     1.2      SW   227   3.3      SW   235   0.94    264      -19.6
   11/16/2017 19:00      66.6      66.1       51     47.7      0.00      0.09      67.4     0.28      1015.7     1.7     SSW   212   3.7     WSW   242   0.94    264      -24.4
   11/16/2017 18:50      66.7      66.2       51     47.8      0.00      0.09      67.3     0.28      1015.9     1.2      SW   231   3.6       W   263   0.94    264      -19.8
   11/16/2017 18:40      67.0      66.3       50     47.6      0.00      0.09      67.3     0.28      1015.9     2.1      SW   233   4.2       W   265   0.94    264      -18.9
   11/16/2017 18:30      67.5      66.7       49     47.3      0.00      0.09      67.3     0.28      1016.0     2.8      SW   225   5.1      SW   221   0.94    265      -19.3
   11/16/2017 18:20      67.8      67.1       48     47.0      0.00      0.09      67.3     0.28      1015.7     1.6      SW   235   4.1      SW   234   0.94    267      -24.1
   11/16/2017 18:10      68.2      67.6       47     47.0      0.00      0.09      67.3     0.28      1015.7     2.4     WSW   254   5.4     WSW   257   0.94    271      -30.6
   11/16/2017 18:00      68.7      68.0       45     46.4      0.00      0.09      67.2     0.28      1015.8     3.7     WSW   238   6.7     WSW   244   0.94    283      -26.5
   11/16/2017 17:50      68.9      68.4       43     45.5      0.00      0.09      67.2     0.28      1015.7     4.0      SW   216   6.6     SSW   201   0.94    269      -23.8
   11/16/2017 17:40      69.0      68.6       43     45.4      0.00      0.09      67.2     0.28      1015.4     3.7     SSW   209   6.0     SSW   206   0.94    264      -24.9
   11/16/2017 17:30      69.3      68.7       43     45.6      0.00      0.09      67.1     0.28      1015.6     3.7     SSW   202   5.2     SSW   195   0.94    264      -26.2
   11/16/2017 17:20      70.0      69.0       42     45.5      0.00      0.09      67.1     0.28      1015.5     3.5     SSW   212   6.6      SW   215   0.94    263      -30.5
   11/16/2017 17:10      70.5      69.6       42     45.5      0.00      0.09      67.1     0.28      1015.4     4.4      SW   235   7.8      SW   222   0.94    263      -34.6
   11/16/2017 17:00      70.9      70.1       41     45.5      0.00      0.09      67.1     0.28      1015.3     4.9     WSW   242   7.3      SW   234   0.94    263      -38.0
   11/16/2017 16:50      71.5      70.5       39     44.9      0.00      0.09      67.0     0.28      1015.0     5.3     WSW   238   7.9     WSW   238   0.94    263      -37.0
   11/16/2017 16:40      71.9      71.2       38     44.8      0.00      0.09      67.0     0.28      1015.0     4.4      SW   236   6.9     WSW   258   0.94    263      -35.6
   11/16/2017 16:30      72.2      71.5       39     45.3      0.00      0.09      67.0     0.28      1014.9     3.5      SW   229   6.2       W   273   0.94    263      -22.5
   11/16/2017 16:20      72.8      71.9       38     45.6      0.00      0.09      67.0     0.28      1014.7     4.8      SW   232   8.1     WSW   241   0.94    263      -33.3
   11/16/2017 16:10      73.5      72.5       38     45.8      0.00      0.09      67.0     0.28      1014.8     4.5      SW   235   8.7     WSW   249   0.94    263      -30.6
   11/16/2017 16:00      74.2      73.1       38     46.2      0.00      0.09      66.8     0.28      1014.7     4.0      SW   233   6.8     WSW   243   0.94    263      -20.4
   11/16/2017 15:50      75.2      74.0       37     46.5      0.00      0.09      66.8     0.28      1014.5     3.8      SW   228   6.3      SW   234   0.94    263       -5.5
   11/16/2017 15:40      75.5      74.9       36     46.1      0.00      0.09      66.8     0.28      1014.2     3.3     WSW   237   5.2      SW   228   0.94    263       25.6
   11/16/2017 15:30      75.6      74.7       36     46.0      0.00      0.09      66.8     0.28      1014.2     5.0     WSW   238   9.3     SSW   205   0.94    263       35.1
   11/16/2017 15:20      75.7      75.1       35     45.9      0.00      0.09      66.8     0.28      1014.3     5.9      SW   234   9.3     WSW   248   0.95    263       80.2
   11/16/2017 15:10      76.0      75.3       34     45.4      0.00      0.09      66.7     0.28      1014.3     4.9     WSW   244   9.6       W   263   0.94    263       58.1
   11/16/2017 15:00      76.3      75.5       34     45.2      0.00      0.09      66.7     0.28      1014.3     5.3      SW   235   9.6       W   274   0.95    262       64.3
   11/16/2017 14:50      77.4      75.8       33     45.6      0.00      0.09      66.6     0.28      1014.3     5.7     WSW   250   9.3      SW   216   0.95    262       67.0
   11/16/2017 14:40      77.3      76.7       32     45.1      0.00      0.09      66.7     0.28      1014.3     5.8       W   261  10.1     WNW   302   0.95    262      197.3
   11/16/2017 14:30      77.4      76.3       31     43.5      0.00      0.09      66.6     0.28      1014.3     5.8       W   260  10.6     SSW   211   0.94    262      135.5
   11/16/2017 14:20      77.6      76.6       30     42.9      0.00      0.09      66.6     0.28      1014.3     5.0     WSW   252   8.4      SW   234   0.94    262      117.7
   11/16/2017 14:10      77.2      76.7       30     43.1      0.00      0.09      66.6     0.28      1014.1     5.2       W   273   8.7     WSW   249   0.94    262      113.4
   11/16/2017 14:00      77.5      76.8       30     43.4      0.00      0.09      66.6     0.28      1014.3     5.3     WSW   254   8.4     WSW   243   0.94    262       93.5
   11/16/2017 13:50      77.7      77.1       30     43.8      0.00      0.09      66.6     0.28      1014.3     4.5     WSW   253   7.7       W   267   0.94    262       85.8
   11/16/2017 13:40      77.8      77.2       31     44.0      0.00      0.09      66.5     0.28      1014.4     3.1       W   266   5.7     WSW   246   0.94    262       90.1
   11/16/2017 13:30      78.3      77.1       30     44.1      0.00      0.09      66.5     0.28      1014.4     3.8      NW   317   7.3     WNW   298   0.94    262      113.2
   11/16/2017 13:20      78.9      77.9       30     43.9      0.00      0.09      66.5     0.28      1014.6     3.9       W   274   7.4       W   260   0.94    262      135.1
   11/16/2017 13:10      78.8      78.4       29     43.6      0.00      0.09      66.5     0.28      1014.5     4.4       W   261   7.6     WNW   287   0.94    262      241.3
   11/16/2017 13:00      78.5      77.7       29     43.3      0.00      0.09      66.5     0.28      1014.6     2.7     WSW   247   6.2     WSW   253   0.94    262      142.0
   11/16/2017 12:50      78.7      77.9       29     43.4      0.00      0.09      66.5     0.28      1014.6     3.8     WSW   242   7.5     WSW   258   0.94    262      121.6
   11/16/2017 12:40      79.2      78.4       29     43.6      0.00      0.09      66.5     0.28      1014.7     2.4      SW   214   5.2      SW   235   0.94    262      114.6
   11/16/2017 12:30      79.7      79.0       28     43.7      0.00      0.09      66.3     0.28      1014.9     4.8     WSW   245   7.7     WSW   245   0.94    261      310.7
   11/16/2017 12:20      79.7      78.6       29     44.0      0.00      0.09      66.4     0.28      1015.1     2.5       W   268   7.6      SW   219   0.94    262      237.4
   11/16/2017 12:10      80.0      79.4       28     44.1      0.00      0.09      66.5     0.28      1015.1     3.1       W   276   6.9     WSW   252   0.94    262      271.5
   11/16/2017 12:00      79.8      77.7       30     44.8      0.00      0.09      66.4     0.28      1015.3     0.7     ENE    72   2.8      NE    42   0.94    261      353.3
   11/16/2017 11:50      78.0      77.0       31     44.2      0.00      0.09      66.4     0.28      1015.4     1.0      NE    47   3.1      NE    53   0.94    262      207.3
   11/16/2017 11:40      77.8      76.9       31     44.1      0.00      0.09      66.4     0.28      1015.4     1.0     ENE    60   3.1     NNE    27   0.94    262      193.8
   11/16/2017 11:30      77.7      76.9       31     44.1      0.00      0.09      66.5     0.28      1015.5     1.2     NNE    19   3.1     NNE    14   0.94    262      226.1
   11/16/2017 11:20      77.3      76.5       31     44.2      0.00      0.09      66.4     0.28      1015.7     0.9     NNE    20   3.6     NNE    16   0.94    262      235.7
   11/16/2017 11:10      76.5      75.5       32     43.8      0.00      0.09      66.5     0.28      1015.7     1.1       N   358   2.6     NNE    13   0.94    262      351.0
   11/16/2017 11:00      75.7      74.2       33     43.7      0.00      0.09      66.5     0.28      1015.9     1.2      NE    54   2.6     NNE    15   0.94    263      262.7
   11/16/2017 10:50      74.6      73.6       33     43.1      0.00      0.09      66.5     0.28      1016.1     1.3     NNE    29   3.1       N     5   0.94    262      206.9
   11/16/2017 10:40      74.5      73.7       35     44.9      0.00      0.09      66.4     0.28      1016.2     1.9       N   359   3.5     NNW   345   0.94    262      323.8
   11/16/2017 10:30      73.8      71.7       37     44.9      0.00      0.09      66.5     0.28      1016.1     1.1     ENE    65   3.0       N   350   0.94    263      304.4
   11/16/2017 10:20      72.0      71.3       38     44.6      0.00      0.09      66.5     0.28      1016.2     2.3     ESE   106   3.4      SE   145   0.94    263      172.3
   11/16/2017 10:10      71.9      70.7       40     45.6      0.00      0.09      66.5     0.28      1016.3     1.4       E    94   3.3      SE   137   0.94    263      233.4
   11/16/2017 10:00      70.7      68.6       41     45.2      0.00      0.09      66.5     0.28      1016.4     0.7      NE    42   1.9       N     2   0.94    263      291.7
   11/16/2017 09:50      68.7      68.2       43     45.0      0.00      0.09      66.5     0.28      1016.5     0.8     NNW   340   1.9       N     0   0.94    264      110.2
   11/16/2017 09:40      68.5      67.9       43     45.1      0.00      0.09      66.5     0.28      1016.4     0.2      NW   325   1.4     NNW   348   0.94    264      123.9
   11/16/2017 09:30      68.1      66.9       43     44.1      0.00      0.09      66.5     0.28      1016.3     0.2     NNW   347   1.3     NNE    30   0.94    264       89.1
   11/16/2017 09:20      67.1      66.7       44     44.4      0.00      0.09      66.6     0.28      1016.2     1.4     NNW   347   2.3     NNE    20   0.94    264      131.7
   11/16/2017 09:10      67.0      66.2       46     45.1      0.00      0.09      66.6     0.28      1016.2     0.4     NNW   338   2.3      NW   320   0.94    264      111.8
   11/16/2017 09:00      66.4      65.6       47     45.0      0.00      0.09      66.6     0.28      1016.3     0.2     ESE   106   1.1     ESE   105   0.94    264      103.4
   11/16/2017 08:50      65.7      63.8       48     44.8      0.00      0.09      66.6     0.28      1016.3     0.0       N     0   0.0       E    93   0.94    264      106.3
   11/16/2017 08:40      64.0      62.9       52     45.4      0.00      0.09      66.7     0.28      1016.3     0.2       E    93   1.1       E    93   0.94    264      101.8
   11/16/2017 08:30      63.0      62.4       54     45.5      0.00      0.09      66.7     0.28      1016.3     0.0       E    93   1.1       E    93   0.94    265       49.9
   11/16/2017 08:20      62.6      61.9       54     45.5      0.00      0.09      66.7     0.28      1016.1     0.2       N     8   1.2      NW   326   0.93    265       30.8
   11/16/2017 08:10      62.1      61.2       54     45.1      0.00      0.09      66.7     0.28      1016.1     0.1       N   351   0.8     NNW   333   0.93    265       50.6
   11/16/2017 08:00      61.3      60.3       56     44.9      0.00      0.09      66.7     0.28      1016.0     0.3     NNW   333   1.9     NNW   347   0.93    265       31.1
   11/16/2017 07:50      60.4      59.2       57     44.6      0.00      0.09      66.7     0.28      1015.9     0.7       N   350   1.8     NNW   327   0.93    265       21.5
   11/16/2017 07:40      59.3      58.3       59     44.3      0.00      0.09      66.7     0.28      1015.8     0.0       N     0   0.0     ESE   122   0.93    265       36.1
   11/16/2017 07:30      58.4      57.5       60     44.1      0.00      0.09      66.7     0.28      1015.7     0.0       N     0   0.0     ESE   122   0.93    266       29.4
   11/16/2017 07:20      57.6      56.4       61     43.9      0.00      0.09      66.8     0.28      1015.6     0.6      SE   134   2.0      SE   131   0.93    265       16.4
   11/16/2017 07:10      56.6      54.9       63     43.4      0.00      0.09      66.8     0.28      1015.7     1.3      SE   141   2.8      SE   139   0.93    266       14.8
   11/16/2017 07:00      55.2      54.5       63     42.3      0.00      0.09      66.8     0.28      1015.6     0.0      SE   140   0.6      SE   140   0.93    266        5.2
   11/16/2017 06:50      54.9      54.4       62     41.7      0.00      0.09      66.8     0.28      1015.5     0.1      SE   140   0.7      SE   140   0.93    266      -13.7
   11/16/2017 06:40      54.8      54.5       63     42.1      0.00      0.09      66.8     0.28      1015.6     0.0       N     0   0.0      SE   140   0.93    266      -23.9
   11/16/2017 06:30      54.9      54.3       63     42.3      0.00      0.09      66.8     0.28      1015.5     0.0       N     0   0.0      SE   139   0.93    266      -31.2
   11/16/2017 06:20      55.1      54.5       63     42.5      0.00      0.09      66.9     0.28      1015.4     0.0      SE   140   1.1      SE   140   0.93    266      -35.8
   11/16/2017 06:10      55.3      54.9       64     43.3      0.00      0.09      66.9     0.28      1015.3     0.0       N     0   0.0      SE   140   0.93    266      -33.9
   11/16/2017 06:00      55.4      55.0       63     42.9      0.00      0.09      66.9     0.28      1015.4     0.0       N     0   0.0      SE   140   0.93    266      -28.6
   11/16/2017 05:50      55.3      54.9       62     42.3      0.00      0.09      66.9     0.28      1015.4     0.0      SE   140   0.8      SE   140   0.93    266      -23.5
   11/16/2017 05:40      55.1      54.6       64     42.9      0.00      0.09      66.9     0.28      1015.4     0.0       N     0   0.0      SE   140   0.93    266      -12.3
   11/16/2017 05:30      54.9      54.4       64     42.8      0.00      0.09      66.9     0.28      1015.2     0.0      SE   140   0.9      SE   140   0.93    266      -13.8
   11/16/2017 05:20      54.6      54.0       63     41.9      0.00      0.09      67.0     0.28      1015.0     0.2      SE   137   1.4      SE   140   0.93    266      -16.2
   11/16/2017 05:10      54.3      53.8       61     41.0      0.00      0.09      67.0     0.28      1015.0     0.0      SE   133   0.5      SE   133   0.93    266      -18.4
   11/16/2017 05:00      54.0      53.5       63     41.4      0.00      0.09      67.0     0.28      1015.0     0.0      SE   133   0.6      SE   133   0.93    266      -28.1
   11/16/2017 04:50      53.7      53.0       65     41.8      0.00      0.09      67.0     0.28      1015.0     0.0       N     0   0.0      SE   133   0.93    266      -16.9
   11/16/2017 04:40      53.5      52.9       64     41.1      0.00      0.09      67.0     0.28      1014.8     0.0       N     0   0.0      SE   133   0.93    266      -17.9
   11/16/2017 04:30      53.5      53.0       63     41.2      0.00      0.09      67.0     0.28      1014.8     0.0      SE   133   0.6      SE   133   0.93    266      -30.1
   11/16/2017 04:20      53.7      53.1       64     41.3      0.00      0.09      67.0     0.28      1014.9     0.0       N     0   0.0      SE   133   0.93    266      -34.1
   11/16/2017 04:10      53.8      53.4       64     41.7      0.00      0.09      67.1     0.28      1014.8     0.1      SE   133   0.6      SE   133   0.93    266      -40.0
   11/16/2017 04:00      53.6      53.2       63     41.0      0.00      0.09      67.0     0.28      1014.8     0.0      SE   133   0.6      SE   133   0.93    266      -29.8
   11/16/2017 03:50      53.5      52.8       64     41.1      0.00      0.09      67.1     0.28      1014.8     0.0      SE   133   0.7      SE   133   0.93    266      -27.0
   11/16/2017 03:40      53.5      52.9       63     40.9      0.00      0.09      67.1     0.28      1014.8     0.0      SE   133   0.7      SE   133   0.93    266      -33.4
   11/16/2017 03:30      54.4      53.2       61     40.5      0.00      0.09      67.1     0.28      1014.7     0.2      SE   133   1.0      SE   133   0.93    266      -40.7
   11/16/2017 03:20      54.3      53.5       59     40.1      0.00      0.09      67.0     0.28      1014.8     0.0      SE   133   0.6      SE   133   0.93    266      -42.5
   11/16/2017 03:10      54.0      53.5       61     40.5      0.00      0.09      67.1     0.28      1014.9     0.0      SE   133   0.5      SE   133   0.93    266      -41.0
   11/16/2017 03:00      54.0      53.5       61     40.5      0.00      0.09      67.1     0.28      1015.1     0.0      SE   133   0.5      SE   133   0.93    266      -42.0
   11/16/2017 02:50      54.3      53.7       61     40.9      0.00      0.09      67.1     0.28      1015.1     0.0       N     0   0.0      SE   133   0.93    266      -44.1
   11/16/2017 02:40      54.9      54.0       60     40.8      0.00      0.09      67.1     0.28      1015.2     0.2      SE   133   1.2      SE   133   0.93    266      -44.3
   11/16/2017 02:30      55.5      54.5       59     41.0      0.00      0.09      67.1     0.28      1015.4     0.2      SE   133   1.0      SE   133   0.93    265      -44.6
   11/16/2017 02:20      55.7      55.2       58     41.0      0.00      0.09      67.2     0.28      1015.4     0.3      SE   133   1.0      SE   133   0.93    265      -45.2
   11/16/2017 02:10      55.8      55.4       57     40.7      0.00      0.09      67.2     0.28      1015.4     0.0      SE   133   0.7      SE   133   0.93    265      -43.9
   11/16/2017 02:00      56.0      55.5       59     41.6      0.00      0.09      67.2     0.28      1015.5     0.1      SE   133   0.7      SE   133   0.93    265      -44.4
   11/16/2017 01:50      56.4      55.6       58     41.5      0.00      0.09      67.2     0.28      1015.5     0.2      SE   132   0.7      SE   132   0.93    265      -45.6
   11/16/2017 01:40      56.8      56.1       58     41.6      0.00      0.09      67.2     0.28      1015.6     0.0      SE   132   0.0      SE   132   0.93    265      -45.7
   11/16/2017 01:30      56.8      56.3       57     41.4      0.00      0.09      67.2     0.28      1015.6     0.1      SE   132   1.3      SE   132   0.93    265      -47.5
   11/16/2017 01:20      57.7      56.4       57     41.8      0.00      0.09      67.2     0.28      1015.7     0.0      SE   132   0.2      SE   132   0.93    265      -49.5
   11/16/2017 01:10      58.4      57.4       55     41.8      0.00      0.09      67.2     0.28      1015.8     0.3     SSE   165   1.1      SE   132   0.93    265      -48.5
   11/16/2017 01:00      58.6      58.0       54     42.0      0.00      0.09      67.2     0.28      1015.8     1.0     SSE   147   1.8      SE   140   0.93    264      -34.2
   11/16/2017 00:50      58.3      57.8       54     41.4      0.00      0.09      67.3     0.28      1015.9     0.5     SSW   204   1.9     SSW   206   0.93    264      -30.3
   11/16/2017 00:40      58.1      57.5       54     41.3      0.00      0.09      67.2     0.28      1015.8     0.0       N     0   0.0     ESE   111   0.93    264      -21.3
   11/16/2017 00:30      58.0      57.5       54     41.2      0.00      0.09      67.2     0.28      1016.0     0.0       N     0   0.0     ESE   111   0.93    264      -18.5
   11/16/2017 00:20      58.3      57.5       54     41.5      0.00      0.09      67.3     0.28      1016.0     0.0       N     0   0.0     ESE   111   0.93    264      -23.3
   11/16/2017 00:10      58.8      58.1       55     42.1      0.00      0.09      67.3     0.28      1016.1     0.1     SSE   160   1.0      SE   134   0.93    264      -34.4
   11/16/2017 00:00      58.6      57.9       53     41.0      0.00      0.09      67.3     0.28      1016.3     1.4      SW   214   3.0      SW   228   0.93    264      -31.0
   11/15/2017 23:50      57.9      57.3       55     41.5      0.00      0.09      67.3     0.28      1016.1     0.7      SW   235   1.8     WSW   238   0.93    264      -20.0
   11/15/2017 23:40      57.8      57.4       55     41.3      0.00      0.09      67.3     0.28      1016.3     0.1     SSE   147   1.2     SSW   205   0.93    264      -22.2
   11/15/2017 23:30      57.8      57.4       55     41.2      0.00      0.09      67.3     0.28      1016.2     0.0       N     0   0.0       S   184   0.93    264      -18.5
   11/15/2017 23:20      57.6      56.8       54     40.7      0.00      0.09      67.3     0.28      1016.2     0.0       S   169   0.8     SSE   155   0.93    264      -16.6
   11/15/2017 23:10      57.0      56.4       53     39.9      0.00      0.09      67.3     0.28      1016.1     1.2     SSE   155   1.9      SE   139   0.93    264      -21.4
   11/15/2017 23:00      56.9      56.1       54     40.0      0.00      0.09      67.3     0.28      1015.9     0.5     SSE   159   1.3     SSE   158   0.94    264      -37.0
   11/15/2017 22:50      57.4      56.5       54     40.4      0.00      0.09      67.3     0.28      1016.0     0.3     SSE   159   1.2     SSE   159   0.93    264      -45.5
   11/15/2017 22:40      57.6      57.0       53     40.2      0.00      0.09      67.3     0.28      1016.0     0.3     SSE   159   1.1     SSE   159   0.93    264      -47.3
   11/15/2017 22:30      57.7      57.2       52     39.9      0.00      0.09      67.3     0.28      1015.9     0.7     SSE   153   1.5     SSE   147   0.94    264      -46.4
   11/15/2017 22:20      58.1      57.5       52     40.1      0.00      0.09      67.3     0.28      1015.9     0.4       S   173   1.2       S   174   0.94    264      -46.7
   11/15/2017 22:10      58.2      57.8       52     40.3      0.00      0.09      67.3     0.28      1016.0     0.1       S   173   0.7       S   173   0.93    264      -47.8
   11/15/2017 22:00      58.6      57.9       51     40.1      0.00      0.09      67.2     0.28      1016.0     0.8     SSE   159   1.7      SE   139   0.93    264      -49.2
   11/15/2017 21:50      59.3      58.0       50     39.9      0.00      0.09      67.2     0.28      1016.0     0.4     SSE   155   1.4      SE   141   0.93    264      -48.4
   11/15/2017 21:40      60.0      59.1       46     39.0      0.00      0.09      67.2     0.28      1016.0     0.4       S   173   1.3      SW   234   0.94    264      -49.0
   11/15/2017 21:30      59.8      59.3       47     39.3      0.00      0.09      67.2     0.28      1015.9     0.8     SSW   195   1.5     WSW   244   0.94    264      -48.0
   11/15/2017 21:20      60.1      59.5       45     38.6      0.00      0.09      67.2     0.28      1015.8     1.1       S   184   2.0     SSW   194   0.94    264      -42.0
   11/15/2017 21:10      60.5      59.6       47     39.7      0.00      0.09      67.2     0.28      1015.8     1.1     SSE   160   1.6      SE   141   0.94    264      -39.1
   11/15/2017 21:00      60.4      59.8       45     38.6      0.00      0.09      67.2     0.28      1015.8     0.7     SSW   210   2.0      SW   230   0.94    264      -37.7
   11/15/2017 20:50      60.8      59.6       46     39.3      0.00      0.09      67.2     0.28      1015.8     0.5     SSE   164   1.6     SSW   197   0.94    264      -39.9
   11/15/2017 20:40      61.9      60.6       45     39.5      0.00      0.09      67.2     0.28      1015.8     0.2     ENE    65   1.1     ESE   112   0.93    264      -51.1
   11/15/2017 20:30      62.0      60.9       43     38.6      0.00      0.09      67.1     0.28      1015.8     2.2     SSE   167   3.6       S   176   0.93    264      -53.0
   11/15/2017 20:20      61.6      60.9       42     38.3      0.00      0.09      67.1     0.28      1015.7     1.2       S   176   3.0       S   174   0.94    264      -52.8
   11/15/2017 20:10      62.3      61.3       43     38.9      0.00      0.09      67.1     0.28      1015.6     0.7       S   172   1.6       S   178   0.93    264      -54.1
   11/15/2017 20:00      63.1      62.1       44     40.5      0.00      0.09      67.1     0.28      1015.5     0.9       S   171   1.7       S   180   0.94    264      -54.3
   11/15/2017 19:50      63.6      62.4       45     41.1      0.00      0.09      67.1     0.28      1015.6     0.4     SSE   157   1.3     SSW   199   0.94    264      -55.9
   11/15/2017 19:40      64.3      63.2       44     41.1      0.00      0.09      67.1     0.28      1015.5     0.0      NE    47   0.7      NE    47   0.94    264      -58.4
   11/15/2017 19:30      65.1      64.2       43     41.2      0.00      0.09      67.0     0.28      1015.4     0.3      NE    44   1.9      NE    39   0.94    264      -57.9
   11/15/2017 19:20      66.3      64.8       42     42.0      0.00      0.09      67.0     0.28      1015.3     0.2       E    85   0.9     ESE   103   0.94    264      -58.4
   11/15/2017 19:10      66.5      66.0       41     42.0      0.00      0.09      67.0     0.28      1015.3     0.7     SSE   161   1.7       S   173   0.94    264      -58.7
   11/15/2017 19:00      66.4      66.0       43     43.1      0.00      0.09      67.0     0.28      1015.3     1.6     SSE   166   3.0       S   178   0.94    264      -54.0
   11/15/2017 18:50      66.9      65.8       43     43.0      0.00      0.09      67.0     0.28      1015.3     1.5       S   173   3.2       S   173   0.94    264      -41.6
   11/15/2017 18:40      67.8      66.8       40     42.5      0.00      0.09      67.0     0.28      1015.3     1.3     SSW   206   2.0     SSW   206   0.94    263      -43.0
   11/15/2017 18:30      67.6      65.7       42     43.1      0.00      0.09      66.9     0.28      1015.4     2.0     SSW   195   2.6       S   182   0.94    263      -36.6
   11/15/2017 18:20      66.5      65.6       43     42.9      0.00      0.09      66.9     0.28      1015.4     1.1     SSE   168   2.6     SSE   156   0.94    264      -28.6
   11/15/2017 18:10      67.1      66.2       42     42.9      0.00      0.09      66.9     0.28      1015.4     0.0     SSW   197   1.1       S   169   0.93    263      -34.3
   11/15/2017 18:00      67.1      66.6       40     41.9      0.00      0.09      66.8     0.28      1015.3     1.0      SW   228   2.5     WSW   240   0.93    263      -52.6
   11/15/2017 17:50      68.7      66.9       39     41.6      0.00      0.09      66.8     0.28      1015.2     0.9       S   188   2.6     SSW   196   0.93    263      -59.4
   11/15/2017 17:40      70.7      68.2       37     41.8      0.00      0.09      66.8     0.28      1015.2     0.9     SSW   209   2.1     SSW   195   0.93    263      -55.7
   11/15/2017 17:30      72.2      70.2       35     42.1      0.00      0.09      66.8     0.28      1015.1     1.8     SSW   211   2.9     SSW   214   0.93    263      -60.4
   11/15/2017 17:20      73.1      72.0       34     42.4      0.00      0.09      66.7     0.28      1015.0     1.7     WSW   247   3.8      SW   236   0.93    262      -68.5
   11/15/2017 17:10      74.3      72.9       32     42.1      0.00      0.09      66.7     0.28      1014.8     1.2       W   259   2.4       W   279   0.93    262      -70.4
   11/15/2017 17:00      75.9      74.0       30     41.3      0.00      0.09      66.7     0.28      1014.7     1.7       W   273   2.8     WNW   297   0.93    262      -71.5
   11/15/2017 16:50      77.0      75.6       25     37.4      0.00      0.09      66.5     0.28      1014.6     1.1       W   277   3.1     WNW   290   0.93    262      -72.6
   11/15/2017 16:40      77.7      76.6       22     35.0      0.00      0.09      66.6     0.28      1014.5     2.5     WSW   254   5.4     WSW   237   0.94    262      -70.4
   11/15/2017 16:30      78.5      77.3       21     35.1      0.00      0.09      66.6     0.28      1014.4     2.4     WSW   240   5.2     WSW   247   0.94    262      -66.7
   11/15/2017 16:20      79.8      78.4       21     35.5      0.00      0.09      66.5     0.28      1014.3     3.1       W   259   7.3       W   260   0.94    261      -64.3
   11/15/2017 16:10      81.1      79.5       20     35.4      0.00      0.09      66.5     0.28      1014.3     2.8     WNW   297   6.1       W   270   0.94    261      -45.5
   11/15/2017 16:00      81.7      80.6       20     35.9      0.00      0.09      66.5     0.28      1014.3     2.1       W   279   4.5     WNW   303   0.94    261      -25.8
   11/15/2017 15:50      82.3      81.4       20     37.0      0.00      0.09      66.5     0.28      1014.2     2.3       W   276   4.9       W   271   0.94    261       -7.8
   11/15/2017 15:40      82.2      81.8       21     37.9      0.00      0.09      66.4     0.28      1014.2     2.8     WSW   244   4.7     WSW   250   0.94    261       18.7
   11/15/2017 15:30      82.5      81.8       21     38.7      0.00      0.09      66.4     0.28      1014.2     3.5      SW   230   7.0      SW   236   0.94    262       39.3
   11/15/2017 15:20      83.0      82.2       22     39.8      0.00      0.09      66.3     0.28      1014.2     3.3      SW   230   6.1      SW   226   0.94    261       61.2
   11/15/2017 15:10      83.7      82.1       21     38.6      0.00      0.09      66.3     0.28      1014.2     3.2     SSW   212   6.7     SSW   203   0.94    262       81.9
   11/15/2017 15:00      83.7      82.8       22     40.1      0.00      0.09      66.3     0.28      1014.2     1.4       N   356   4.3       W   264   0.94    261      103.5
   11/15/2017 14:50      83.7      82.8       22     40.6      0.00      0.09      66.3     0.28      1014.2     1.4     NNE    12   2.9      NE    45   0.94    261      130.6
   11/15/2017 14:40      83.6      83.0       22     40.7      0.00      0.09      66.3     0.28      1014.2     1.3     NNE    25   3.5       N     4   0.94    261      161.3
   11/15/2017 14:30      83.7      82.6       22     40.8      0.00      0.09      66.2     0.28      1014.1     1.7       N   349   3.6       N   353   0.94    261      154.5
   11/15/2017 14:20      83.5      82.1       22     40.8      0.00      0.09      66.2     0.28      1014.1     1.2      NE    54   3.7       E    99   0.94    261      201.3
   11/15/2017 14:10      82.8      81.5       23     40.3      0.00      0.09      66.2     0.28      1014.2     2.8      SE   133   5.4     SSE   156   0.94    261      225.2
   11/15/2017 14:00      83.3      82.4       22     40.1      0.00      0.09      66.2     0.28      1014.3     1.9     NNE    30   3.7      NE    43   0.94    261      250.8
   11/15/2017 13:50      83.3      82.3       22     39.6      0.00      0.09      66.2     0.28      1014.4     1.0     NNE    19   2.7     NNE    33   0.94    261      256.3
   11/15/2017 13:40      83.1      81.0       22     39.4      0.00      0.09      66.2     0.28      1014.4     0.8      SE   144   2.2       S   179   0.94    261      263.1
   11/15/2017 13:30      81.5      80.6       23     39.5      0.00      0.09      66.1     0.28      1014.4     1.4       E    82   2.6     ESE   103   0.94    261      291.5
   11/15/2017 13:20      82.6      81.3       22     39.7      0.00      0.09      66.1     0.28      1014.4     1.2     NNE    14   2.5       N   354   0.94    261      216.1
   11/15/2017 13:10      82.5      81.1       22     39.3      0.00      0.09      66.1     0.28      1014.5     0.9       W   260   2.6     WSW   241   0.94    261      298.7
   11/15/2017 13:00      81.1      79.3       23     38.9      0.00      0.09      66.1     0.28      1014.6     0.9      NW   318   4.0      NE    43   0.94    261      305.5
   11/15/2017 12:50      79.6      78.2       23     38.3      0.00      0.09      66.1     0.28      1014.6     1.2     ESE   112   2.5     SSW   205   0.94    261      316.8
   11/15/2017 12:40      78.4      77.8       24     37.9      0.00      0.09      66.1     0.28      1014.8     2.2       N   350   4.4     NNE    14   0.94    261      327.9
   11/15/2017 12:30      78.4      77.8       23     37.6      0.00      0.09      66.1     0.28      1014.9     1.9     NNE    16   3.4      NW   309   0.94    261      347.4
   11/15/2017 12:20      78.3      76.6       24     37.6      0.00      0.09      66.1     0.28      1015.0     1.1     ENE    66   2.5       E    95   0.94    261      299.8
   11/15/2017 12:10      77.0      76.2       26     38.9      0.00      0.09      66.1     0.28      1015.2     0.9     NNE    24   2.5     NNE    34   0.94    262      154.9
   11/15/2017 12:00      77.0      73.7       28     39.5      0.00      0.09      66.1     0.28      1015.3     1.1      NE    41   3.4     NNE    13   0.94    261      392.6
   11/15/2017 11:50      74.6      73.5       30     40.5      0.00      0.09      66.0     0.28      1015.5     1.5      NE    37   2.6      NE    36   0.94    263       82.9
   11/15/2017 11:40      74.5      74.0       30     41.1      0.00      0.09      66.1     0.28      1015.7     1.4     NNE    25   3.1     NNE    18   0.94    262      118.6
   11/15/2017 11:30      74.2      73.7       31     41.4      0.00      0.09      66.1     0.28      1015.9     1.1     NNE    16   2.3     NNE    26   0.94    263      134.2
   11/15/2017 11:20      73.8      73.3       31     41.2      0.00      0.09      66.1     0.28      1016.0     1.5     NNE    16   3.4     NNW   327   0.94    262      217.2
   11/15/2017 11:10      73.4      72.8       33     42.3      0.00      0.09      66.1     0.28      1016.2     1.5     NNW   348   3.5       N   352   0.94    263      189.5
   11/15/2017 11:00      73.4      72.7       33     42.2      0.00      0.09      66.1     0.28      1016.3     1.7       N     2   3.2     NNW   344   0.94    263      163.6
   11/15/2017 10:50      73.1      72.8       34     43.2      0.00      0.09      66.1     0.28      1016.3     1.1     NNE    21   2.7     NNE    13   0.94    263      189.7
   11/15/2017 10:40      73.0      71.7       35     43.1      0.00      0.09      66.1     0.28      1016.2     0.9     ENE    68   2.7     NNE    12   0.94    263      226.5
   11/15/2017 10:30      72.1      71.4       37     43.9      0.00      0.09      66.1     0.28      1016.3     1.2     NNE    17   2.5     NNE    12   0.94    263      198.0
   11/15/2017 10:20      71.9      70.9       36     43.4      0.00      0.09      66.1     0.28      1016.4     0.2     ESE   109   1.3     SSE   147   0.94    263      169.8
   11/15/2017 10:10      71.0      69.7       38     43.4      0.00      0.09      66.2     0.28      1016.4     0.5      NE    39   1.6     NNE    23   0.94    263      198.1
   11/15/2017 10:00      70.9      69.4       38     43.3      0.00      0.09      66.2     0.28      1016.4     1.4      NE    36   3.0      NE    52   0.94    263      178.2
   11/15/2017 09:50      70.9      69.1       37     42.7      0.00      0.09      66.2     0.28      1016.6     0.3       E    87   1.4     NNE    24   0.94    263      181.7
   11/15/2017 09:40      69.3      67.3       40     43.0      0.00      0.09      66.2     0.28      1016.6     0.0     WNW   291   0.5     ESE   103   0.94    263      215.2
   11/15/2017 09:30      67.4      66.7       41     42.6      0.00      0.09      66.2     0.28      1016.5     0.6       E    87   1.7      NE    53   0.94    264      149.9
   11/15/2017 09:20      67.3      66.7       39     41.3      0.00      0.09      66.2     0.28      1016.7     0.4     NNE    22   1.4       N     0   0.94    264      120.8
   11/15/2017 09:10      67.0      65.5       41     42.2      0.00      0.09      66.3     0.28      1016.5     0.0     ENE    69   0.5     ESE   122   0.94    264      159.3
   11/15/2017 09:00      65.7      65.0       44     42.7      0.00      0.09      66.3     0.28      1016.6     0.3       N     3   1.7       N     3   0.94    264      112.4
   11/15/2017 08:50      65.8      64.8       44     43.0      0.00      0.09      66.3     0.28      1016.7     0.3       N     9   1.1     NNW   332   0.94    264      105.3
   11/15/2017 08:40      64.8      63.4       46     42.6      0.00      0.09      66.3     0.28      1016.7     0.6     WNW   290   2.0     WSW   249   0.94    264      137.8
   11/15/2017 08:30      63.4      61.1       49     42.7      0.00      0.09      66.3     0.28      1016.8     2.2     WSW   255   3.5       W   262   0.93    264      217.5
   11/15/2017 08:20      61.1      57.9       56     43.7      0.00      0.09      66.4     0.28      1016.8     1.1       W   272   2.5     WNW   287   0.93    264      184.1
   11/15/2017 08:10      58.1      56.5       61     44.0      0.00      0.09      66.4     0.28      1016.7     0.5     WNW   295   1.9     WSW   255   0.94    266      111.3
   11/15/2017 08:00      56.7      55.7       62     43.5      0.00      0.09      66.4     0.28      1016.6     0.7      NW   324   1.5      NW   313   0.94    266       46.6
   11/15/2017 07:50      55.8      54.5       65     43.5      0.00      0.09      66.4     0.28      1016.5     1.2     NNW   340   2.3       N   353   0.93    266       40.1
   11/15/2017 07:40      54.6      53.6       68     43.6      0.00      0.09      66.5     0.28      1016.5     0.2       W   262   0.9     WNW   284   0.93    266       30.2
   11/15/2017 07:30      54.0      53.5       67     43.1      0.00      0.09      66.5     0.28      1016.3     0.0       N     0   0.0     SSE   147   0.93    266       15.6
   11/15/2017 07:20      53.7      52.5       68     42.9      0.00      0.09      66.5     0.28      1016.3     0.0     SSE   147   0.8     SSE   147   0.93    266        3.8
   11/15/2017 07:10      52.7      51.1       71     42.6      0.00      0.09      66.5     0.28      1016.3     0.0      SE   145   1.4      SE   141   0.93    267        3.3
   11/15/2017 07:00      51.3      50.7       71     41.9      0.00      0.09      66.5     0.28      1016.3     0.7     SSE   158   2.3      SE   145   0.93    267       -5.5
   11/15/2017 06:50      50.8      50.0       73     42.0      0.00      0.09      66.5     0.28      1016.2     0.0       W   262   0.5       W   262   0.93    267      -17.3
   11/15/2017 06:40      50.4      49.9       73     41.7      0.00      0.09      66.6     0.28      1016.1     0.2     WSW   256   1.3       W   262   0.93    267      -21.6
   11/15/2017 06:30      50.6      50.1       73     41.9      0.00      0.09      66.6     0.28      1016.1     0.0       E    83   1.1       E    81   0.93    267      -29.4
   11/15/2017 06:20      50.6      50.1       73     42.0      0.00      0.09      66.6     0.28      1015.9     0.4     SSE   154   1.1     SSE   147   0.93    267      -38.3
   11/15/2017 06:10      50.5      49.7       73     41.8      0.00      0.09      66.6     0.28      1015.8     0.4     SSE   155   1.2      SE   138   0.93    267      -34.6
   11/15/2017 06:00      50.3      49.8       72     41.5      0.00      0.09      66.7     0.28      1015.8     1.3     SSW   192   2.1     SSW   195   0.93    267      -34.4
   11/15/2017 05:50      50.5      50.1       72     41.5      0.00      0.09      66.7     0.28      1015.7     0.2       E    92   1.3       E    79   0.93    267      -37.9
   11/15/2017 05:40      50.5      49.7       72     41.4      0.00      0.09      66.7     0.28      1015.6     1.2     SSW   209   2.5     SSW   204   0.93    267      -41.1
   11/15/2017 05:30      50.9      50.0       70     41.1      0.00      0.09      66.7     0.28      1015.5     0.9     ENE    63   2.6      NE    53   0.93    267      -46.4
   11/15/2017 05:20      51.1      50.3       71     41.3      0.00      0.09      66.8     0.28      1015.4     0.8      SW   227   2.6      SW   224   0.93    267      -43.5
   11/15/2017 05:10      51.6      50.7       70     41.5      0.00      0.09      66.8     0.28      1015.5     0.3      SE   141   1.5      SE   141   0.93    267      -41.8
   11/15/2017 05:00      51.8      51.3       70     42.1      0.00      0.09      66.8     0.28      1015.5     0.0      SE   141   1.2      SE   141   0.93    267      -41.1
   11/15/2017 04:50      51.6      50.7       72     42.3      0.00      0.09      66.8     0.28      1015.4     0.8      SE   145   2.0      SE   141   0.93    267      -38.8
   11/15/2017 04:40      51.4      50.6       71     41.9      0.00      0.09      66.8     0.28      1015.4     0.6       S   169   1.5     SSW   193   0.93    267      -40.0
   11/15/2017 04:30      51.4      50.6       69     41.3      0.00      0.09      66.8     0.28      1015.5     1.4     SSE   163   2.3     SSW   203   0.93    267      -38.8
   11/15/2017 04:20      50.9      50.2       71     41.5      0.00      0.09      66.8     0.28      1015.5     0.2     SSW   202   1.9     SSW   207   0.93    266      -35.1
   11/15/2017 04:10      50.5      50.1       72     41.6      0.00      0.09      66.9     0.28      1015.5     0.0       N     0   0.0     WNW   287   0.94    266      -35.3
   11/15/2017 04:00      51.0      50.3       71     41.7      0.00      0.09      66.9     0.28      1015.5     0.0       N     0   0.0     WNW   287   0.94    267      -33.6
   11/15/2017 03:50      51.0      50.5       71     41.6      0.00      0.09      66.9     0.28      1015.6     0.0     WNW   291   0.6     WNW   298   0.94    267      -32.4
   11/15/2017 03:40      51.0      50.5       71     41.8      0.00      0.09      66.9     0.28      1015.5     0.6     ESE   117   1.9      SE   139   0.94    266      -30.7
   11/15/2017 03:30      50.9      50.3       71     41.5      0.00      0.09      66.9     0.28      1015.6     0.3     SSE   162   1.0      NW   324   0.94    267      -32.2
   11/15/2017 03:20      50.5      50.0       73     42.0      0.00      0.09      67.0     0.28      1015.5     0.2     SSE   163   1.2       W   276   0.93    267      -37.0
   11/15/2017 03:10      50.3      49.9       73     41.7      0.00      0.09      67.0     0.28      1015.6     0.0      SE   143   0.4      SE   143   0.93    267      -36.6
   11/15/2017 03:00      50.6      50.1       71     41.5      0.00      0.09      67.0     0.28      1015.7     0.2      SE   143   1.0      SE   142   0.93    267      -40.3
   11/15/2017 02:50      50.8      50.3       70     41.0      0.00      0.09      67.0     0.28      1015.7     0.0      SE   143   0.7      SE   143   0.93    267      -43.2
   11/15/2017 02:40      51.1      50.5       71     41.8      0.00      0.09      67.0     0.28      1015.8     0.0       N     0   0.0      SE   142   0.93    267      -45.6
   11/15/2017 02:30      51.1      50.7       71     41.8      0.00      0.09      67.0     0.28      1015.9     0.0       N     0   0.0      SE   143   0.94    267      -47.3
   11/15/2017 02:20      51.3      50.7       71     41.9      0.00      0.09      67.1     0.28      1016.0     0.2      SE   143   1.1      SE   143   0.94    267      -40.2
   11/15/2017 02:10      51.4      50.8       71     42.0      0.00      0.09      67.1     0.28      1016.0     0.3      SE   142   0.9      SE   143   0.93    266      -41.6
   11/15/2017 02:00      51.6      51.1       71     42.1      0.00      0.09      67.1     0.28      1016.1     0.2      SE   142   0.8      SE   142   0.94    267      -45.9
   11/15/2017 01:50      51.8      51.2       71     42.2      0.00      0.09      67.1     0.28      1016.1     0.0      SE   142   0.4      SE   142   0.94    266      -47.9
   11/15/2017 01:40      51.6      51.1       71     42.2      0.00      0.09      67.1     0.28      1016.3     0.8     SSE   151   2.1      SE   141   0.94    266      -49.9
   11/15/2017 01:30      51.5      50.6       71     42.0      0.00      0.09      67.1     0.28      1016.3     1.2      SE   145   2.8      SE   139   0.94    267      -51.0
   11/15/2017 01:20      51.8      50.8       69     41.5      0.00      0.09      67.1     0.28      1016.4     0.6      SE   145   1.6      SE   145   0.94    266      -50.2
   11/15/2017 01:10      51.6      51.1       69     41.4      0.00      0.09      67.1     0.28      1016.5     0.0      SE   144   0.7      SE   144   0.94    266      -51.5
   11/15/2017 01:00      52.1      51.3       68     41.5      0.00      0.09      67.1     0.28      1016.5     0.0      SE   144   1.1      SE   144   0.94    266      -51.5
   11/15/2017 00:50      52.4      51.9       70     42.4      0.00      0.09      67.2     0.28      1016.6     0.0      SE   144   0.9      SE   144   0.94    266      -51.6
   11/15/2017 00:40      52.4      51.7       69     42.2      0.00      0.09      67.2     0.28      1016.6     0.2      SE   144   0.9      SE   144   0.94    266      -52.9
   11/15/2017 00:30      53.0      52.2       68     42.3      0.00      0.09      67.2     0.28      1016.7     0.2      SE   144   1.2      SE   144   0.94    266      -49.6
   11/15/2017 00:20      53.0      52.5       68     42.6      0.00      0.09      67.2     0.28      1016.7     0.0      SE   144   0.5      SE   144   0.93    266      -46.9
   11/15/2017 00:10      53.3      52.5       68     42.5      0.00      0.09      67.2     0.28      1016.8     0.0      SE   144   0.4      SE   144   0.93    266      -50.5
   11/15/2017 00:00      53.5      53.1       66     42.4      0.00      0.09      67.2     0.28      1016.7     0.2      SE   144   1.3      SE   144   0.93    266      -52.8
   11/14/2017 23:50      53.5      53.0       68     43.0      0.00      0.09      67.2     0.28      1016.5     0.1      SE   144   0.7      SE   144   0.93    266      -45.3
   11/14/2017 23:40      53.8      53.2       68     42.9      0.00      0.09      67.2     0.28      1016.7     0.0      SE   144   0.7      SE   144   0.94    266      -40.0
   11/14/2017 23:30      54.4      53.5       65     42.5      0.00      0.09      67.2     0.28      1016.7     0.4      SE   144   1.0      SE   144   0.94    266      -45.5
   11/14/2017 23:20      54.3      53.9       63     41.6      0.00      0.09      67.2     0.28      1016.7     0.0      SE   144   0.5      SE   144   0.94    266      -47.8
   11/14/2017 23:10      54.3      53.8       65     42.4      0.00      0.09      67.2     0.28      1016.6     0.0       N     0   0.0      SE   144   0.94    266      -49.7
   11/14/2017 23:00      54.8      53.9       65     42.9      0.00      0.09      67.2     0.28      1016.5     0.0      SE   144   0.4      SE   144   0.94    266      -50.8
   11/14/2017 22:50      54.5      54.0       64     42.2      0.00      0.09      67.2     0.28      1016.6     0.2      SE   144   0.8      SE   144   0.94    266      -47.0
   11/14/2017 22:40      55.0      54.1       64     42.8      0.00      0.09      67.3     0.28      1016.6     0.4      SE   144   1.6      SE   144   0.94    266      -47.2
   11/14/2017 22:30      55.2      54.8       62     42.3      0.00      0.09      67.2     0.28      1016.7     0.0      SE   144   0.6      SE   144   0.94    266      -48.2
   11/14/2017 22:20      55.5      54.6       65     43.2      0.00      0.09      67.2     0.28      1016.7     0.0      SE   144   0.4      SE   144   0.94    266      -52.1
   11/14/2017 22:10      55.8      55.1       63     43.3      0.00      0.09      67.2     0.28      1016.7     0.4     SSE   151   1.6     SSE   155   0.94    266      -55.9
   11/14/2017 22:00      56.1      55.4       63     43.3      0.00      0.09      67.2     0.28      1016.6     0.6     SSE   155   1.2     SSE   155   0.94    266      -54.5
   11/14/2017 21:50      56.6      55.9       61     42.8      0.00      0.09      67.2     0.28      1016.6     0.8     SSE   151   1.9      SE   143   0.94    266      -52.7
   11/14/2017 21:40      56.9      56.2       59     42.5      0.00      0.09      67.2     0.28      1016.6     0.7       S   178   2.1       S   184   0.93    265      -51.9
   11/14/2017 21:30      57.1      56.3       59     42.5      0.00      0.09      67.2     0.28      1016.7     0.9     SSW   194   2.3     SSW   209   0.93    266      -52.6
   11/14/2017 21:20      57.1      56.3       61     43.4      0.00      0.09      67.2     0.28      1016.8     0.0       S   179   0.7       S   172   0.94    265      -54.4
   11/14/2017 21:10      58.1      56.9       59     43.1      0.00      0.09      67.2     0.28      1016.9     0.0       E    91   1.0     ENE    70   0.94    266      -56.4
   11/14/2017 21:00      58.7      57.9       56     42.6      0.00      0.09      67.2     0.28      1017.0     0.4       S   176   1.2       S   176   0.94    265      -54.9
   11/14/2017 20:50      58.5      58.1       57     43.1      0.00      0.09      67.1     0.28      1017.0     0.3       S   176   1.2       S   176   0.94    265      -54.2
   11/14/2017 20:40      58.3      58.0       57     43.2      0.00      0.09      67.2     0.28      1017.0     0.4     SSE   169   1.4     SSE   150   0.94    265      -55.0
   11/14/2017 20:30      58.7      58.1       57     43.2      0.00      0.09      67.1     0.28      1016.9     1.1     SSE   149   2.5      SE   141   0.93    265      -53.8
   11/14/2017 20:20      59.0      58.3       57     43.2      0.00      0.09      67.1     0.28      1017.0     1.1     SSE   156   1.9     SSE   148   0.94    264      -57.3
   11/14/2017 20:10      59.1      58.4       55     42.6      0.00      0.09      67.1     0.28      1016.9     0.3       S   171   1.4       S   172   0.94    264      -58.6
   11/14/2017 20:00      59.9      58.8       54     42.9      0.00      0.09      67.1     0.28      1016.9     1.0     SSE   153   2.1      SE   138   0.94    264      -60.6
   11/14/2017 19:50      60.7      59.8       53     42.8      0.00      0.09      67.1     0.28      1016.8     0.6     SSE   161   1.5     SSE   161   0.94    264      -61.7
   11/14/2017 19:40      61.6      60.4       51     42.5      0.00      0.09      67.0     0.28      1016.8     0.6     SSE   165   1.8     SSE   148   0.94    264      -63.3
   11/14/2017 19:30      62.1      61.3       49     42.4      0.00      0.09      67.0     0.28      1016.7     0.6     SSE   163   1.6       S   181   0.94    264      -62.5
   11/14/2017 19:20      62.7      61.8       48     42.4      0.00      0.09      67.0     0.28      1016.6     0.0     SSE   158   0.6     SSE   158   0.94    264      -61.6
   11/14/2017 19:10      63.7      62.2       47     42.3      0.00      0.09      67.0     0.28      1016.7     0.1     SSE   158   0.7     SSE   158   0.94    264      -59.2
   11/14/2017 19:00      66.2      63.6       45     42.5      0.00      0.09      66.9     0.28      1016.7     0.7     SSE   158   1.8      SE   138   0.94    264      -60.3
   11/14/2017 18:50      66.7      65.9       41     41.9      0.00      0.09      66.9     0.28      1016.7     0.8     SSW   197   3.9     SSW   197   0.94    264      -62.0
   11/14/2017 18:40      66.4      65.6       41     41.9      0.00      0.09      66.9     0.28      1016.7     1.3     SSW   196   3.4     SSW   192   0.94    264      -64.3
   11/14/2017 18:30      66.4      65.5       42     42.0      0.00      0.09      66.8     0.28      1016.5     1.7     SSW   192   2.5      SW   217   0.94    264      -66.0
   11/14/2017 18:20      66.8      65.7       41     41.8      0.00      0.09      66.8     0.28      1016.5     0.4       S   171   1.4     SSW   195   0.94    264      -67.7
   11/14/2017 18:10      68.0      66.4       39     41.5      0.00      0.09      66.8     0.28      1016.5     0.8     SSE   161   1.8       S   188   0.94    263      -69.0
   11/14/2017 18:00      69.1      67.7       37     41.2      0.00      0.09      66.7     0.28      1016.4     1.9       S   190   2.8       S   189   0.94    263      -70.4
   11/14/2017 17:50      69.6      68.8       36     41.1      0.00      0.09      66.7     0.28      1016.3     1.4     SSW   208   2.7     WSW   247   0.94    263      -73.9
   11/14/2017 17:40      70.0      69.2       35     41.0      0.00      0.09      66.7     0.28      1016.2     1.4     SSW   200   3.3     SSW   208   0.94    263      -74.6
   11/14/2017 17:30      70.6      69.3       35     40.9      0.00      0.09      66.6     0.28      1016.1     2.4     SSW   200   3.9     SSW   206   0.94    263      -73.9
   11/14/2017 17:20      71.6      70.2       34     40.6      0.00      0.09      66.6     0.28      1016.1     1.4      SW   217   2.5      SW   232   0.93    263      -76.4
   11/14/2017 17:10      72.5      71.2       32     40.5      0.00      0.09      66.6     0.28      1016.1     2.3      SW   235   3.9     WSW   251   0.94    263      -78.2
   11/14/2017 17:00      73.3      72.3       31     40.4      0.00      0.09      66.5     0.28      1016.1     1.0       W   273   2.6       W   266   0.93    262      -77.8
   11/14/2017 16:50      74.0      72.9       30     40.1      0.00      0.09      66.5     0.28      1015.9     1.8     WSW   254   4.1     WSW   251   0.94    262      -78.1
   11/14/2017 16:40      74.8      73.6       29     39.8      0.00      0.09      66.4     0.28      1015.8     3.6      SW   233   7.6     WSW   252   0.94    262      -75.1
   11/14/2017 16:30      75.7      74.4       28     40.1      0.00      0.09      66.4     0.28      1015.8     3.7     WSW   247   6.8      SW   236   0.94    262      -72.4
   11/14/2017 16:20      76.7      75.4       29     41.4      0.00      0.09      66.4     0.28      1015.9     3.6     WSW   240   6.9      SW   219   0.94    262      -69.3
   11/14/2017 16:10      78.0      76.3       28     41.5      0.00      0.09      66.3     0.28      1015.8     5.1     WSW   238   8.4     SSW   212   0.94    262      -50.3
   11/14/2017 16:00      78.7      77.8       26     40.6      0.00      0.09      66.3     0.28      1015.7     4.2     WSW   242   7.0     WSW   248   0.94    262      -17.2
   11/14/2017 15:50      79.3      78.4       25     39.8      0.00      0.09      66.2     0.28      1015.7     3.6      SW   228   5.8     SSW   196   0.94    262      -10.9
   11/14/2017 15:40      80.1      79.2       24     39.4      0.00      0.09      66.2     0.28      1015.8     3.9      SW   228   6.4     SSW   207   0.94    262       18.5
   11/14/2017 15:30      80.1      79.6       23     39.0      0.00      0.09      66.1     0.28      1015.9     4.0      SW   230   6.7     WSW   243   0.94    262       43.3
   11/14/2017 15:20      80.7      79.8       23     39.0      0.00      0.09      66.1     0.28      1015.9     4.8      SW   231   8.3      SW   231   0.94    262       65.8
   11/14/2017 15:10      81.0      80.4       23     39.3      0.00      0.09      66.1     0.28      1015.9     4.2     WSW   242   6.9     SSW   210   0.94    261       89.2
   11/14/2017 15:00      81.1      80.3       23     39.3      0.00      0.09      66.0     0.28      1016.0     4.6      SW   229   7.3      SW   229   0.94    261      112.8
   11/14/2017 14:50      81.8      80.7       23     39.3      0.00      0.09      66.0     0.28      1016.0     4.7     SSW   206   8.8     SSW   201   0.94    261      135.4
   11/14/2017 14:40      82.3      81.4       22     38.9      0.00      0.09      66.0     0.28      1016.1     4.1     WSW   256   8.1       W   262   0.94    261      155.9
   11/14/2017 14:30      82.0      81.3       22     38.5      0.00      0.09      65.9     0.28      1016.2     4.1     WSW   240   7.1     WSW   239   0.94    261      177.0
   11/14/2017 14:20      82.3      81.5       21     38.5      0.00      0.09      65.9     0.28      1016.1     4.9     WSW   257   9.4     WSW   244   0.94    261      194.7
   11/14/2017 14:10      82.1      81.6       21     38.1      0.00      0.09      65.9     0.28      1016.0     4.3     WSW   254   9.0     WSW   258   0.94    261      213.7
   11/14/2017 14:00      82.1      81.5       21     37.9      0.00      0.09      65.8     0.28      1016.2     4.8     WSW   248   7.3       W   265   0.94    261      231.1
   11/14/2017 13:50      82.9      81.8       21     38.8      0.00      0.09      65.8     0.28      1016.2     4.5      SW   215   9.9      SW   236   0.94    261      247.0
   11/14/2017 13:40      83.3      82.3       21     38.7      0.00      0.09      65.8     0.28      1016.3     3.1     WSW   253   8.7     WSW   244   0.94    261      259.2
   11/14/2017 13:30      83.0      81.8       20     37.8      0.00      0.09      65.8     0.28      1016.4     4.4       W   273  10.0     WSW   252   0.94    261      275.2
   11/14/2017 13:20      83.2      82.1       21     38.2      0.00      0.09      65.7     0.28      1016.4     3.4      SW   234  10.5      SW   236   0.94    261      288.1
   11/14/2017 13:10      83.2      82.4       20     38.1      0.00      0.09      65.7     0.28      1016.5     3.3       W   261   9.0       W   259   0.94    261      297.7
   11/14/2017 13:00      84.8      83.0       20     38.2      0.00      0.09      65.7     0.28      1016.7     2.3     SSW   197   6.9     SSE   167   0.94    261      307.2
   11/14/2017 12:50      84.7      82.1       20     38.5      0.00      0.09      65.7     0.28      1016.9     0.9      SW   226   2.5     WSW   238   0.94    261      313.6
   11/14/2017 12:40      82.1      81.2       21     38.2      0.00      0.09      65.7     0.28      1017.0     1.7       N   355   4.3       N     7   0.94    261      322.9
   11/14/2017 12:30      81.8      81.0       21     37.8      0.00      0.09      65.6     0.28      1017.2     2.1     NNW   329   4.4      NW   309   0.94    261      304.3
   11/14/2017 12:20      81.8      80.4       21     37.7      0.00      0.09      65.6     0.28      1017.3     2.2     NNW   343   5.0      SW   231   0.94    261      332.3
   11/14/2017 12:10      81.5      80.3       21     37.2      0.00      0.09      65.6     0.28      1017.5     2.7     WNW   301   7.1     WSW   236   0.94    261      346.9
   11/14/2017 12:00      81.6      80.8       21     37.0      0.00      0.09      65.6     0.28      1017.7     1.5      NW   318   4.5       W   267   0.94    261      346.7
   11/14/2017 11:50      81.9      80.9       20     36.6      0.00      0.09      65.6     0.28      1018.0     1.1       W   260   4.5     WSW   245   0.94    261      348.3
   11/14/2017 11:40      81.1      80.3       21     36.8      0.00      0.09      65.6     0.28      1018.1     1.7     WSW   245   5.5      SW   216   0.94    261      352.4
   11/14/2017 11:30      80.5      79.0       22     37.8      0.00      0.09      65.6     0.28      1018.5     1.3     NNE    14   4.0     ENE    70   0.94    261      348.0
   11/14/2017 11:20      79.5      78.2       22     37.4      0.00      0.09      65.7     0.28      1018.7     2.0      SW   232   4.6     WSW   247   0.94    261      355.2
   11/14/2017 11:10      78.5      77.7       23     36.8      0.00      0.09      65.7     0.28      1018.9     3.1      SW   221   6.7     WSW   241   0.94    261      355.1
   11/14/2017 11:00      78.3      77.0       23     37.1      0.00      0.09      65.7     0.28      1019.0     3.3       S   191   5.5     SSW   192   0.94    261      345.1
   11/14/2017 10:50      78.4      77.6       23     37.5      0.00      0.09      65.7     0.28      1019.2     2.4       W   264   5.9       W   275   0.94    261      342.9
   11/14/2017 10:40      78.1      77.3       25     38.6      0.00      0.09      65.7     0.28      1019.3     1.8      SW   226   5.0      SW   215   0.94    261      337.1
   11/14/2017 10:30      78.2      76.9       26     39.6      0.00      0.09      65.7     0.28      1019.4     0.8       N   351   2.9     NNW   332   0.94    261      329.1
   11/14/2017 10:20      77.2      75.7       26     39.5      0.00      0.09      65.8     0.28      1019.5     1.6     WSW   242   4.3     WSW   239   0.94    262      323.7
   11/14/2017 10:10      75.9      74.9       29     41.0      0.00      0.09      65.8     0.28      1019.6     1.1       N   360   2.9     WNW   286   0.94    262      313.2
   11/14/2017 10:00      75.3      73.2       33     43.3      0.00      0.09      65.8     0.28      1019.9     0.4     NNW   335   2.0     NNW   337   0.94    262      304.8
   11/14/2017 09:50      73.8      72.8       35     44.0      0.00      0.09      65.8     0.28      1020.0     1.1     NNW   336   2.5       N   353   0.94    262      294.4
   11/14/2017 09:40      73.4      70.8       37     44.2      0.00      0.09      65.8     0.28      1020.0     0.3      NE    48   1.0     ENE    57   0.94    263      282.7
   11/14/2017 09:30      70.9      70.0       38     43.4      0.00      0.09      65.8     0.28      1020.0     0.7       N   359   1.9     NNE    18   0.94    263      268.8
   11/14/2017 09:20      70.1      68.1       40     43.9      0.00      0.09      65.9     0.28      1020.0     0.5     NNE    21   1.6     NNE    30   0.94    263      256.3
   11/14/2017 09:10      68.3      67.0       44     44.7      0.00      0.09      65.9     0.28      1020.0     0.8      NE    37   1.7      NE    50   0.94    263      239.6
   11/14/2017 09:00      67.2      66.3       46     45.6      0.00      0.09      66.0     0.28      1020.1     1.1     NNE    12   3.2      NE    46   0.94    264      225.0
   11/14/2017 08:50      66.7      65.7       47     45.4      0.00      0.09      66.0     0.28      1020.1     0.8     NNE    17   2.3     NNW   346   0.94    264      210.0
   11/14/2017 08:40      65.7      64.8       48     45.0      0.00      0.09      66.0     0.28      1020.2     1.0     NNE    24   2.5     NNE    27   0.94    264      194.2
   11/14/2017 08:30      65.4      64.6       48     44.8      0.00      0.09      66.0     0.28      1020.2     0.5     NNE    16   1.8     NNE    27   0.94    264      177.8
   11/14/2017 08:20      64.8      62.8       49     44.3      0.00      0.09      66.0     0.28      1020.1     0.2       E    87   1.2       E    84   0.94    264      157.8
   11/14/2017 08:10      63.0      60.3       52     43.9      0.00      0.09      66.1     0.28      1020.0     0.2       E    86   1.0     ENE    78   0.94    265      140.8
   11/14/2017 08:00      60.3      58.4       56     43.4      0.00      0.09      66.1     0.28      1020.0     0.3       N     0   1.1      NW   312   0.94    265      123.2
   11/14/2017 07:50      58.6      56.4       60     43.5      0.00      0.09      66.1     0.28      1019.9     0.1      SW   234   1.0      SW   231   0.94    266      102.1
   11/14/2017 07:40      56.7      53.2       66     43.8      0.00      0.09      66.1     0.28      1019.9     0.0     NNE    30   0.6     NNE    30   0.94    268       86.1
   11/14/2017 07:30      53.2      50.6       72     42.9      0.00      0.09      66.2     0.28      1019.9     0.1      NE    44   1.1     NNE    30   0.94    267       27.0
   11/14/2017 07:20      50.5      49.5       75     42.2      0.00      0.09      66.2     0.28      1019.9     0.3      NE    51   1.2      NE    46   0.94    268      -17.1
   11/14/2017 07:10      49.6      48.4       77     41.9      0.00      0.09      66.2     0.28      1019.8     0.9     SSE   157   2.4      SE   127   0.94    268      -14.1
   11/14/2017 07:00      48.8      47.6       79     41.8      0.00      0.09      66.3     0.28      1019.8     0.3     SSE   167   1.4     SSE   167   0.94    268      -18.3
   11/14/2017 06:50      47.9      46.8       79     41.3      0.00      0.09      66.3     0.28      1019.7     0.7     SSE   158   1.7      SE   144   0.94    268      -25.6
   11/14/2017 06:40      47.2      46.9       79     40.7      0.00      0.09      66.3     0.28      1019.6     0.5     SSE   164   1.8      SE   140   0.94    269      -36.3
   11/14/2017 06:30      47.7      47.0       78     40.7      0.00      0.09      66.3     0.28      1019.4     0.4      SE   145   1.5       S   180   0.94    269      -44.9
   11/14/2017 06:20      47.9      47.3       78     40.9      0.00      0.09      66.3     0.28      1019.3     0.6       S   185   1.5      SW   234   0.94    268      -46.1
   11/14/2017 06:10      47.8      47.0       77     40.4      0.00      0.09      66.4     0.28      1019.2     0.7     WSW   248   1.9      SW   223   0.94    268      -44.2
   11/14/2017 06:00      48.0      47.4       76     40.4      0.00      0.09      66.4     0.28      1019.0     0.3     ENE    75   1.6     ENE    59   0.94    268      -44.6
   11/14/2017 05:50      48.1      47.6       76     40.7      0.00      0.09      66.4     0.28      1018.9     0.3     ESE   117   1.7     ESE   114   0.94    268      -45.2
   11/14/2017 05:40      48.1      47.6       78     41.2      0.00      0.09      66.4     0.28      1018.9     1.1     SSE   159   2.6      SE   141   0.94    268      -41.5
   11/14/2017 05:30      47.7      47.3       79     41.2      0.00      0.09      66.4     0.28      1018.9     0.5       S   180   1.7       S   187   0.94    268      -42.8
   11/14/2017 05:20      48.0      47.3       78     41.1      0.00      0.09      66.5     0.28      1018.9     0.5     SSE   152   1.7      SE   145   0.94    268      -43.9
   11/14/2017 05:10      48.4      47.6       76     40.9      0.00      0.09      66.5     0.28      1018.9     0.4       S   186   1.4     SSW   204   0.94    268      -45.4
   11/14/2017 05:00      48.6      48.0       76     40.9      0.00      0.09      66.5     0.28      1018.9     0.4     SSW   203   1.4     SSW   203   0.94    269      -45.7
   11/14/2017 04:50      48.9      48.1       75     41.0      0.00      0.09      66.5     0.28      1018.8     0.3     SSE   147   0.9     SSE   165   0.94    268      -42.3
   11/14/2017 04:40      48.6      48.1       77     41.5      0.00      0.09      66.5     0.28      1019.0     0.2     SSE   165   1.0     SSE   165   0.94    268      -39.5
   11/14/2017 04:30      48.6      48.0       77     41.4      0.00      0.09      66.6     0.28      1018.9     0.0       N     0   0.0     SSE   165   0.94    268      -37.5
   11/14/2017 04:20      48.6      48.1       77     41.5      0.00      0.09      66.6     0.28      1019.0     0.1     SSE   165   1.3     SSE   165   0.94    268      -35.2
   11/14/2017 04:10      48.4      48.0       77     41.3      0.00      0.09      66.6     0.28      1019.0     0.5     SSE   165   1.2     SSE   165   0.94    268      -37.6
   11/14/2017 04:00      48.3      47.8       78     41.4      0.00      0.09      66.6     0.28      1019.0     0.2     SSE   165   0.9     SSE   165   0.94    268      -36.6
   11/14/2017 03:50      48.3      47.8       77     41.1      0.00      0.09      66.7     0.28      1019.0     0.5     SSE   166   1.4     SSE   165   0.94    268      -39.4
   11/14/2017 03:40      48.2      47.6       78     41.1      0.00      0.09      66.7     0.28      1019.0     0.5       S   184   1.3       S   184   0.94    268      -38.2
   11/14/2017 03:30      48.6      47.6       77     41.0      0.00      0.09      66.7     0.28      1019.1     0.0       S   184   0.7       S   184   0.94    269      -39.1
   11/14/2017 03:20      48.7      48.2       77     41.5      0.00      0.09      66.7     0.28      1019.1     0.1       S   184   0.8       S   184   0.94    268      -39.6
   11/14/2017 03:10      48.6      48.2       77     41.4      0.00      0.09      66.7     0.28      1019.1     0.1       S   184   0.7       S   184   0.94    268      -40.7
   11/14/2017 03:00      48.6      48.2       77     41.6      0.00      0.09      66.8     0.28      1019.1     0.0       S   184   0.5       S   184   0.94    269      -41.5
   11/14/2017 02:50      48.4      48.0       76     41.2      0.00      0.09      66.8     0.28      1018.9     0.3     SSW   200   1.6       S   184   0.94    269      -40.5
   11/14/2017 02:40      48.1      47.6       79     41.6      0.00      0.09      66.8     0.28      1019.0     0.2      SE   131   1.2     ENE    77   0.94    268      -41.1
   11/14/2017 02:30      48.1      47.8       80     41.9      0.00      0.09      66.8     0.28      1018.9     0.0     SSE   169   0.7     SSE   169   0.94    269      -41.2
   11/14/2017 02:20      48.4      47.8       79     41.7      0.00      0.09      66.8     0.28      1019.0     0.4     SSE   160   1.2     SSE   155   0.94    269      -41.7
   11/14/2017 02:10      48.6      48.1       79     42.1      0.00      0.09      66.8     0.28      1019.0     0.4       E    93   1.1      SE   143   0.94    269      -44.8
   11/14/2017 02:00      48.7      48.1       79     42.2      0.00      0.09      66.9     0.28      1019.1     0.0       N     0   0.0       E   100   0.94    269      -45.3
   11/14/2017 01:50      48.5      48.0       80     42.3      0.00      0.09      66.9     0.28      1019.0     0.7     SSE   147   1.8     SSE   157   0.94    269      -46.4
   11/14/2017 01:40      48.9      48.2       81     42.6      0.00      0.09      66.9     0.28      1019.0     0.2     SSE   169   1.1       S   173   0.94    269      -49.9
   11/14/2017 01:30      49.0      48.4       80     42.9      0.00      0.09      66.9     0.28      1018.9     1.0     ESE   115   1.7     SSE   148   0.94    269      -50.5
   11/14/2017 01:20      49.0      48.6       80     42.9      0.00      0.09      66.9     0.28      1019.0     0.1     NNE    17   1.1     NNE    17   0.94    269      -48.6
   11/14/2017 01:10      49.5      48.7       80     43.2      0.00      0.09      66.9     0.28      1019.1     0.0     NNE    16   0.3     NNE    16   0.94    269      -49.8
   11/14/2017 01:00      49.4      48.9       81     43.6      0.00      0.09      66.9     0.28      1019.1     0.3     SSE   157   1.0     SSE   158   0.94    269      -49.7
   11/14/2017 00:50      49.3      48.8       80     43.2      0.00      0.09      67.0     0.28      1019.2     0.6     SSE   158   1.1     SSE   158   0.94    269      -48.8
   11/14/2017 00:40      49.4      48.9       80     43.1      0.00      0.09      67.0     0.28      1019.3     0.5       S   180   1.6     SSW   211   0.94    269      -46.6
   11/14/2017 00:30      49.8      49.2       81     43.9      0.00      0.09      67.0     0.28      1019.3     0.3     SSE   169   0.9     SSE   166   0.94    269      -46.4
   11/14/2017 00:20      49.7      49.2       80     43.4      0.00      0.09      67.0     0.28      1019.3     0.0       S   191   0.8       S   191   0.94    269      -46.6
   11/14/2017 00:10      50.1      49.3       79     43.4      0.00      0.09      67.0     0.28      1019.1     0.2      SE   140   1.4       S   191   0.94    269      -50.5
   11/14/2017 00:00      50.5      49.9       79     43.8      0.00      0.09      67.0     0.28      1019.2     0.3      NE    41   1.0     ENE    58   0.94    269      -51.2
   11/13/2017 23:50      50.3      49.8       81     44.2      0.00      0.09      67.0     0.28      1019.2     0.4      SE   137   1.7     SSE   152   0.94    269      -51.5
   11/13/2017 23:40      50.5      49.7       81     44.3      0.00      0.09      67.1     0.28      1019.4     0.8     SSE   153   2.1     SSE   149   0.94    269      -52.3
   11/13/2017 23:30      50.4      50.0       81     44.5      0.00      0.09      67.0     0.28      1019.4     0.6      SE   143   1.6      SE   142   0.94    269      -52.8
   11/13/2017 23:20      50.6      50.1       80     44.5      0.00      0.09      67.1     0.28      1019.5     0.4     SSE   155   1.9      SE   138   0.94    268      -53.0
   11/13/2017 23:10      50.9      50.3       80     44.6      0.00      0.09      67.1     0.28      1019.4     0.0       N     0   0.0     SSE   159   0.94    268      -53.9
   11/13/2017 23:00      51.1      50.5       80     44.7      0.00      0.09      67.0     0.28      1019.5     0.2     SSE   159   0.8     SSE   159   0.94    268      -55.2
   11/13/2017 22:50      51.4      50.8       79     44.6      0.00      0.09      67.1     0.28      1019.5     0.6       S   182   1.4     SSW   198   0.94    268      -55.2
   11/13/2017 22:40      52.1      51.1       78     45.1      0.00      0.09      67.1     0.28      1019.5     0.0       N     0   0.0     SSW   198   0.94    268      -56.0
   11/13/2017 22:30      52.0      51.7       77     45.0      0.00      0.09      67.1     0.28      1019.5     0.1     SSW   198   1.6     SSW   198   0.94    268      -56.3
   11/13/2017 22:20      52.5      51.7       76     44.9      0.00      0.09      67.1     0.28      1019.6     0.8       S   174   1.8     SSW   198   0.94    268      -56.4
   11/13/2017 22:10      53.0      52.1       76     45.2      0.00      0.09      67.1     0.28      1019.6     0.9       S   177   2.2     SSW   210   0.94    268      -55.9
   11/13/2017 22:00      53.2      52.5       76     45.5      0.00      0.09      67.1     0.28      1019.6     0.2       S   169   0.8       S   169   0.94    268      -56.6
   11/13/2017 21:50      53.5      52.7       75     45.5      0.00      0.09      67.1     0.28      1019.5     0.2       S   169   0.8       S   169   0.94    268      -56.4
   11/13/2017 21:40      53.8      53.2       75     45.6      0.00      0.09      67.1     0.28      1019.5     0.2       S   172   1.5       S   186   0.94    268      -56.7
   11/13/2017 21:30      54.5      53.5       74     45.6      0.00      0.09      67.1     0.28      1019.6     0.0     SSE   165   0.8     SSE   165   0.94    267      -57.0
   11/13/2017 21:20      54.5      54.0       74     45.9      0.00      0.09      67.1     0.28      1019.6     0.2     SSE   149   0.9      SE   146   0.94    267      -56.9
   11/13/2017 21:10      54.7      54.2       73     45.9      0.00      0.09      67.1     0.28      1019.6     0.1      SE   146   0.6      SE   146   0.94    267      -57.4
   11/13/2017 21:00      54.8      54.0       73     45.7      0.00      0.09      67.1     0.28      1019.7     0.7      SE   146   2.0      SE   145   0.94    267      -58.5
   11/13/2017 20:50      55.0      54.1       71     45.2      0.00      0.09      67.0     0.28      1019.7     0.4     SSE   153   1.2      SE   146   0.94    267      -58.0
   11/13/2017 20:40      55.0      54.5       70     45.2      0.00      0.09      67.0     0.28      1019.7     0.5     SSE   158   1.3      SE   146   0.94    267      -59.0
   11/13/2017 20:30      55.9      54.9       70     45.6      0.00      0.09      67.0     0.28      1019.7     0.7     SSE   155   1.7     SSE   152   0.94    267      -60.6
   11/13/2017 20:20      55.9      55.4       70     46.0      0.00      0.09      67.0     0.28      1019.6     0.7     SSE   159   1.6     SSE   153   0.94    267      -60.0
   11/13/2017 20:10      56.7      55.6       70     46.5      0.00      0.09      67.0     0.28      1019.5     0.5       S   169   1.2       S   169   0.94    266      -60.8
   11/13/2017 20:00      56.9      56.3       70     46.8      0.00      0.09      67.0     0.28      1019.4     0.9     SSE   153   2.1      SE   143   0.94    267      -61.4
   11/13/2017 19:50      57.0      56.5       70     46.9      0.00      0.09      67.0     0.28      1019.4     0.5     SSE   150   1.5      SE   146   0.94    266      -60.7
   11/13/2017 19:40      57.7      56.7       69     47.1      0.00      0.09      67.0     0.28      1019.4     0.8     SSE   159   1.5     SSE   149   0.94    266      -60.9
   11/13/2017 19:30      57.9      57.4       68     47.2      0.00      0.09      66.9     0.28      1019.4     0.6       S   170   1.0       S   171   0.94    266      -61.0
   11/13/2017 19:20      58.3      57.5       67     46.8      0.00      0.09      66.9     0.28      1019.5     0.9     SSE   154   1.9      SE   143   0.94    266      -61.0
   11/13/2017 19:10      58.8      58.1       66     47.1      0.00      0.09      66.9     0.28      1019.6     0.7     SSE   160   1.8      SE   146   0.94    266      -60.3
   11/13/2017 19:00      59.3      58.5       65     46.9      0.00      0.09      66.9     0.28      1019.6     0.6     SSE   158   1.2     SSE   166   0.94    266      -58.0
   11/13/2017 18:50      59.8      59.0       64     47.1      0.00      0.09      66.8     0.28      1019.6     0.9     SSE   157   1.8      SE   146   0.94    266      -57.2
   11/13/2017 18:40      60.2      59.6       63     47.1      0.00      0.09      66.8     0.28      1019.6     0.5     SSE   159   1.0     SSE   159   0.94    266      -58.5
   11/13/2017 18:30      60.8      59.9       62     47.0      0.00      0.09      66.8     0.28      1019.4     0.1     SSE   166   0.9       S   170   0.94    266      -60.6
   11/13/2017 18:20      61.4      60.4       60     46.8      0.00      0.09      66.7     0.28      1019.3     0.5     SSE   164   1.3     SSE   151   0.94    266      -62.6
   11/13/2017 18:10      62.4      61.0       57     46.5      0.00      0.09      66.7     0.28      1019.2     0.4     SSE   168   1.2     SSE   168   0.94    265      -63.2
   11/13/2017 18:00      63.1      62.0       56     46.4      0.00      0.09      66.7     0.28      1019.0     0.7       S   169   1.5     SSE   168   0.94    265      -63.6
   11/13/2017 17:50      64.1      62.7       53     45.9      0.00      0.09      66.7     0.28      1018.9     0.4       S   176   1.4     SSW   193   0.94    265      -65.5
   11/13/2017 17:40      65.2      63.7       52     46.1      0.00      0.09      66.6     0.28      1018.8     0.3       S   181   1.1       S   182   0.94    264      -65.0
   11/13/2017 17:30      66.2      64.9       50     46.2      0.00      0.09      66.6     0.28      1018.6     0.4       S   182   1.0       S   182   0.94    264      -66.1
   11/13/2017 17:20      67.4      65.9       47     45.9      0.00      0.09      66.6     0.28      1018.4     0.8     SSW   208   2.2      SW   218   0.94    264      -66.7
   11/13/2017 17:10      68.6      67.1       47     46.6      0.00      0.09      66.6     0.28      1018.4     0.4       S   186   1.2       S   187   0.94    264      -66.5
   11/13/2017 17:00      69.6      68.2       45     46.6      0.00      0.09      66.5     0.28      1018.3     0.8      SE   134   2.3     ENE    59   0.94    263      -67.6
   11/13/2017 16:50      70.5      69.3       43     46.6      0.00      0.09      66.5     0.28      1018.3     0.0       N     0   0.0     SSW   192   0.94    263      -65.1
   11/13/2017 16:40      71.5      70.3       42     46.6      0.00      0.09      66.5     0.28      1018.3     1.5       S   181   3.4       S   177   0.94    263      -60.2
   11/13/2017 16:30      72.5      71.3       41     46.7      0.00      0.09      66.4     0.28      1018.2     2.7       S   177   4.7     SSE   152   0.94    263      -51.2
   11/13/2017 16:20      73.6      72.2       40     46.8      0.00      0.09      66.4     0.28      1018.2     1.4      SE   141   3.6      SE   140   0.94    263      -44.1
   11/13/2017 16:10      74.6      73.3       37     46.3      0.00      0.09      66.3     0.28      1018.1     0.3       S   175   1.5       S   170   0.94    263      -38.6
   11/13/2017 16:00      75.3      74.2       36     45.9      0.00      0.09      66.3     0.28      1018.1     1.3       S   186   3.2       S   169   0.94    263      -34.9
   11/13/2017 15:50      76.6      75.2       35     45.9      0.00      0.09      66.3     0.28      1018.0     1.9       S   169   2.9     SSE   151   0.94    263      -22.1
   11/13/2017 15:40      78.1      76.4       32     44.6      0.00      0.09      66.3     0.28      1017.9     2.0     ESE   103   4.5     SSE   154   0.94    263       -2.0
   11/13/2017 15:30      79.1      77.9       25     39.4      0.00      0.09      66.3     0.28      1017.8     1.8     ENE    77   4.2       E    82   0.94    262       40.9
   11/13/2017 15:20      79.8      78.8       24     39.3      0.00      0.09      66.2     0.28      1017.6     1.5     ENE    72   3.2     ENE    62   0.94    262       55.8
   11/13/2017 15:10      81.5      79.5       23     39.1      0.00      0.09      66.2     0.28      1017.6     1.2      NE    54   2.8     ENE    71   0.94    262       87.9
   11/13/2017 15:00      81.3      79.9       22     38.5      0.00      0.09      66.2     0.28      1017.6     0.2      SE   134   1.6      SE   132   0.94    262       93.0
   11/13/2017 14:50      80.5      79.6       23     39.0      0.00      0.09      66.1     0.28      1017.8     0.7     SSW   192   2.1      SW   223   0.94    262       94.5
   11/13/2017 14:40      80.2      79.5       23     39.1      0.00      0.09      66.1     0.28      1017.8     1.2     SSE   167   3.2     SSW   200   0.94    262      133.2
   11/13/2017 14:30      79.9      79.3       23     38.9      0.00      0.09      66.1     0.28      1017.9     0.9     ESE   115   2.0      SE   133   0.94    262      157.0
   11/13/2017 14:20      79.7      78.8       24     39.3      0.00      0.09      66.1     0.28      1017.9     1.0       N     9   2.7       N     3   0.94    262      168.8
   11/13/2017 14:10      80.1      79.3       24     39.4      0.00      0.09      66.0     0.28      1018.0     1.1     WNW   298   2.9       W   270   0.94    262      155.2
   11/13/2017 14:00      79.8      79.0       23     38.9      0.00      0.09      66.0     0.28      1018.1     1.7     WSW   238   4.3     WSW   259   0.94    262      171.0
   11/13/2017 13:50      80.9      79.3       22     37.4      0.00      0.09      66.0     0.28      1018.2     1.3     NNW   332   3.7      NW   317   0.94    262      220.3
   11/13/2017 13:40      80.5      79.3       20     35.0      0.00      0.09      66.0     0.28      1018.2     0.6     WSW   246   2.9       W   269   0.94    262      222.0
   11/13/2017 13:30      79.5      78.0       20     34.1      0.00      0.09      66.0     0.28      1018.3     1.0      SW   215   3.8      SW   229   0.94    262      233.1
   11/13/2017 13:20      78.0      77.2       21     34.4      0.00      0.09      66.0     0.28      1018.3     1.8     WNW   299   3.7      SW   231   0.94    262      291.4
   11/13/2017 13:10      77.5      76.9       24     37.5      0.00      0.09      65.9     0.28      1018.4     1.7     WNW   296   4.0     WNW   286   0.94    262      226.5
   11/13/2017 13:00      77.1      76.0       25     38.6      0.00      0.09      65.9     0.28      1018.5     2.0       N   350   3.7      NW   316   0.94    262      268.6
   11/13/2017 12:50      77.0      75.7       26     38.8      0.00      0.09      65.9     0.28      1018.6     1.8       N     8   3.7       N    10   0.94    262      321.0
   11/13/2017 12:40      77.4      76.4       26     39.8      0.00      0.09      65.9     0.28      1018.8     1.1     NNE    27   3.3     NNE    27   0.94    262      242.0
   11/13/2017 12:30      76.5      75.6       28     40.7      0.00      0.09      65.9     0.28      1019.0     1.0       E    82   3.2       E    93   0.94    262      273.3
   11/13/2017 12:20      76.3      74.7       29     41.0      0.00      0.09      65.9     0.28      1019.1     1.2      NE    44   2.9      NE    37   0.94    262      311.1
   11/13/2017 12:10      74.9      73.3       31     41.4      0.00      0.09      65.9     0.28      1019.3     0.7       N     8   2.0      NE    55   0.94    263      254.8
   11/13/2017 12:00      73.9      73.1       32     42.0      0.00      0.09      65.9     0.28      1019.5     1.9     NNW   329   3.5       N   349   0.94    263      273.3
   11/13/2017 11:50      74.3      73.0       34     43.1      0.00      0.09      65.9     0.28      1019.6     2.0       N     8   3.3     NNE    17   0.94    263      300.5
   11/13/2017 11:40      74.2      73.2       36     44.9      0.00      0.09      65.9     0.28      1019.8     1.2     NNE    20   2.4     ENE    67   0.94    263      345.4
   11/13/2017 11:30      73.4      72.2       36     44.7      0.00      0.09      65.9     0.28      1020.0     1.1     NNE    14   2.7       N   355   0.94    263      356.9
   11/13/2017 11:20      72.5      71.4       39     45.3      0.00      0.09      66.0     0.28      1020.3     1.2      NE    41   3.1     NNE    22   0.94    263      345.8
   11/13/2017 11:10      72.0      71.2       40     46.3      0.00      0.09      66.0     0.28      1020.6     1.0     ENE    60   2.5     NNE    33   0.94    263      334.6
   11/13/2017 11:00      71.5      70.7       42     46.7      0.00      0.09      66.0     0.28      1020.7     1.0      NE    44   2.5     NNE    19   0.94    263      328.5
   11/13/2017 10:50      71.3      69.6       43     47.0      0.00      0.09      66.0     0.28      1020.8     0.6     NNE    18   1.8     NNE    21   0.94    263      286.2
   11/13/2017 10:40      69.6      68.3       46     47.0      0.00      0.09      66.0     0.28      1021.0     0.9      NW   315   2.1     NNE    26   0.94    263      294.6
   11/13/2017 10:30      68.7      67.8       48     47.4      0.00      0.09      66.1     0.28      1021.1     1.2      NW   322   2.8     NNW   330   0.94    264      289.2
   11/13/2017 10:20      68.1      66.7       48     47.0      0.00      0.09      66.1     0.28      1021.1     1.0     NNW   344   2.3       N   355   0.94    264      306.8
   11/13/2017 10:10      66.8      65.2       53     48.2      0.00      0.09      66.1     0.28      1021.2     1.2     NNE    16   2.1     NNE    12   0.94    264      310.4
   11/13/2017 10:00      65.4      64.2       56     48.7      0.00      0.09      66.1     0.28      1021.3     1.0      NE    55   2.3      SE   140   0.94    266      263.7
   11/13/2017 09:50      64.5      63.3       59     49.2      0.00      0.09      66.1     0.28      1021.4     1.2     NNE    22   2.1     NNE    24   0.94    266      277.8
   11/13/2017 09:40      63.4      61.2       61     48.8      0.00      0.09      66.2     0.28      1021.4     0.8     ESE   113   2.1       E    94   0.94    266      273.9
   11/13/2017 09:30      61.8      61.2       63     48.8      0.00      0.09      66.2     0.28      1021.3     1.3     ESE   104   3.0       E   101   0.94    267      157.7
   11/13/2017 09:20      61.5      60.0       65     49.1      0.00      0.09      66.3     0.28      1021.3     0.5       E    88   1.7      SE   124   0.94    267      172.0
   11/13/2017 09:10      60.2      58.6       68     48.8      0.00      0.09      66.3     0.28      1021.3     0.5     ENE    57   1.9      SE   125   0.94    275      200.4
   11/13/2017 09:00      58.9      58.0       70     48.7      0.00      0.09      66.3     0.28      1021.2     0.6       N     7   2.3       N     0   0.94    307      175.1
   11/13/2017 08:50      58.4      57.9       70     48.5      0.00      0.09      66.3     0.28      1021.2     0.3     NNE    24   1.6     NNW   336   0.94    344      142.9
   11/13/2017 08:40      58.3      57.4       72     48.8      0.00      0.09      66.4     0.28      1021.1     0.0       N     0   0.0     NNE    19   0.94    369      135.6
   11/13/2017 08:30      57.6      55.6       77     49.4      0.00      0.09      66.4     0.28      1021.1     0.0       N     0   0.0     NNE    19   0.94    383      145.0
   11/13/2017 08:20      55.7      53.5       84     49.5      0.00      0.09      66.4     0.28      1021.0     0.0       N     0   0.0     NNE    19   0.93    395      173.0
   11/13/2017 08:10      53.7      52.9       85     48.9      0.00      0.09      66.5     0.28      1021.0     0.5     NNE    11   2.0     NNE    19   0.93    406      127.0
   11/13/2017 08:00      53.5      52.5       88     49.5      0.00      0.09      66.5     0.28      1020.9     0.0      NE    43   0.9     ENE    64   0.93    414      112.4
   11/13/2017 07:50      52.6      50.7       91     49.0      0.00      0.09      66.5     0.28      1020.9     0.0     ENE    63   0.3     NNE    20   0.93    418      109.6
   11/13/2017 07:40      50.9      50.1       92     48.1      0.00      0.09      66.5     0.28      1020.9     0.5       N     2   1.8      NW   320   0.93    423       85.1
   11/13/2017 07:30      50.4      48.1       93     47.4      0.00      0.09      66.6     0.28      1020.8     0.0       N     0   0.0       S   169   0.93    425       67.2
   11/13/2017 07:20      48.2      47.0       93     45.5      0.00      0.09      66.6     0.28      1020.8     0.0       S   169   0.5       S   169   0.92    425       40.4
   11/13/2017 07:10      47.4      46.0       94     45.0      0.00      0.09      66.6     0.28      1020.8     0.0       S   169   0.6       S   169   0.92    424       29.6
   11/13/2017 07:00      46.2      45.7       93     44.1      0.00      0.09      66.7     0.28      1020.6     0.0       S   170   0.6       S   170   0.92    423       19.9
   11/13/2017 06:50      46.0      45.4       93     43.8      0.00      0.09      66.7     0.28      1020.5     0.0       N     0   0.0       S   170   0.92    421       10.0
   11/13/2017 06:40      46.0      45.0       93     43.5      0.00      0.09      66.7     0.28      1020.3     0.0       S   170   0.5       S   170   0.93    418       -2.5
   11/13/2017 06:30      45.4      44.9       93     43.1      0.00      0.09      66.7     0.28      1020.3     0.0     SSE   169   0.9     SSE   169   0.93    416      -10.3
   11/13/2017 06:20      45.6      45.1       93     43.5      0.00      0.09      66.8     0.28      1020.2     0.0       N     0   0.0     ENE    73   0.93    414      -12.4
   11/13/2017 06:10      46.0      45.4       93     43.7      0.00      0.09      66.8     0.28      1020.1     0.0       N     0   0.0     ENE    72   0.93    411      -13.1
   11/13/2017 06:00      46.0      45.5       93     43.8      0.00      0.09      66.8     0.28      1020.1     0.5       S   172   2.1     WSW   253   0.93    409      -13.1
   11/13/2017 05:50      45.7      45.1       93     43.5      0.00      0.09      66.8     0.28      1020.0     0.4       S   183   1.9      SW   226   0.93    406      -13.3
   11/13/2017 05:40      45.6      45.1       93     43.4      0.00      0.09      66.9     0.28      1019.9     0.3      SW   223   1.4     WSW   248   0.93    404      -13.7
   11/13/2017 05:30      45.3      44.8       93     43.1      0.00      0.09      66.9     0.28      1019.9     0.2      SE   141   1.6      SE   140   0.93    402      -14.6
   11/13/2017 05:20      46.2      44.8       92     43.3      0.00      0.09      66.9     0.28      1019.8     0.3     SSE   163   1.7      SE   141   0.93    400      -14.2
   11/13/2017 05:10      46.2      45.4       93     43.7      0.00      0.09      66.9     0.28      1019.8     0.0      SW   231   1.2      SW   231   0.93    397      -14.0
   11/13/2017 05:00      45.8      45.0       93     43.3      0.00      0.09      67.0     0.28      1019.7     0.0     SSE   147   0.7     SSE   147   0.93    395      -13.8
   11/13/2017 04:50      46.1      45.3       92     43.5      0.00      0.09      67.0     0.28      1019.7     0.2     SSE   147   1.1     SSE   147   0.93    394      -14.5
   11/13/2017 04:40      46.2      45.6       93     43.9      0.00      0.09      67.0     0.28      1019.6     0.0     SSE   147   0.4     SSE   147   0.93    391      -14.7
   11/13/2017 04:30      45.8      45.4       92     43.5      0.00      0.09      67.0     0.28      1019.7     0.3     SSE   147   1.1     SSE   147   0.93    389      -16.0
   11/13/2017 04:20      45.8      45.3       92     43.4      0.00      0.09      67.1     0.28      1019.6     0.6     SSE   157   2.3      SE   143   0.93    386      -16.2
   11/13/2017 04:10      45.8      45.3       92     43.4      0.00      0.09      67.1     0.28      1019.6     0.4     SSE   164   1.0     SSE   164   0.93    383      -16.1
   11/13/2017 04:00      45.8      45.2       92     43.1      0.00      0.09      67.1     0.28      1019.6     0.1     SSE   164   0.9     SSE   164   0.93    380      -17.2
   11/13/2017 03:50      46.4      45.5       91     43.5      0.00      0.09      67.1     0.28      1019.5     0.0     SSE   164   0.5     SSE   164   0.93    377      -17.3
   11/13/2017 03:40      46.7      46.1       92     44.0      0.00      0.09      67.2     0.28      1019.5     0.5     SSE   164   1.3     SSE   165   0.93    373      -16.7
   11/13/2017 03:30      46.7      46.1       91     43.9      0.00      0.09      67.2     0.28      1019.5     0.0     SSE   164   0.5     SSE   164   0.93    370      -17.1
   11/13/2017 03:20      46.5      45.9       91     43.6      0.00      0.09      67.2     0.28      1019.5     0.3     SSE   164   0.9     SSE   164   0.93    364      -17.8
   11/13/2017 03:10      46.9      46.1       91     43.7      0.00      0.09      67.2     0.28      1019.5     0.0       N     0   0.0     SSE   164   0.93    359      -18.4
   11/13/2017 03:00      46.9      46.4       91     43.9      0.00      0.09      67.3     0.28      1019.5     0.1     SSE   164   0.7     SSE   164   0.93    350      -18.9
   11/13/2017 02:50      47.4      46.5       90     44.3      0.00      0.09      67.3     0.28      1019.5     0.0     SSE   164   0.6     SSE   164   0.93    343      -20.0
   11/13/2017 02:40      47.5      47.0       91     44.6      0.00      0.09      67.3     0.28      1019.5     0.0     SSE   164   0.3     SSE   164   0.93    338      -20.2
   11/13/2017 02:30      48.0      47.2       90     44.9      0.00      0.09      67.3     0.28      1019.7     0.0     SSE   164   0.5     SSE   164   0.93    333      -20.4
   11/13/2017 02:20      48.0      47.3       90     44.9      0.00      0.09      67.3     0.28      1019.7     0.5     SSE   165   1.1     SSE   164   0.93    327      -20.8
   11/13/2017 02:10      47.8      47.4       90     44.9      0.00      0.09      67.3     0.28      1019.7     0.3     SSE   168   1.0       S   173   0.93    323      -21.6
   11/13/2017 02:00      47.6      47.1       90     44.6      0.00      0.09      67.3     0.28      1019.7     0.2       S   181   1.3       S   188   0.93    319      -23.2
   11/13/2017 01:50      47.6      46.9       90     44.2      0.00      0.09      67.4     0.28      1019.7     0.7     SSE   168   1.6     SSE   151   0.93    316      -25.3
   11/13/2017 01:40      48.1      47.1       89     44.5      0.00      0.09      67.4     0.28      1019.7     1.1     SSE   150   2.5      SE   138   0.93    312      -25.7
   11/13/2017 01:30      48.1      47.2       89     44.5      0.00      0.09      67.4     0.28      1019.7     0.7     SSE   154   1.5     SSE   149   0.93    309      -26.8
   11/13/2017 01:20      48.2      47.6       88     44.5      0.00      0.09      67.4     0.28      1019.8     0.9     SSE   155   2.1      SE   139   0.93    305      -27.8
   11/13/2017 01:10      48.6      47.8       88     44.6      0.00      0.09      67.4     0.28      1019.8     0.7      SW   214   1.5      SW   236   0.93    302      -27.9
   11/13/2017 01:00      49.0      48.3       88     45.3      0.00      0.09      67.4     0.28      1019.8     0.5       S   176   1.4     SSW   206   0.93    300      -28.7
   11/13/2017 00:50      49.0      48.4       88     45.2      0.00      0.09      67.5     0.28      1019.8     0.0       N     0   0.0     ESE   104   0.93    298      -30.6
   11/13/2017 00:40      49.2      48.4       87     45.0      0.00      0.09      67.5     0.28      1019.9     0.0       N     0   0.0     ESE   103   0.93    295      -32.5
   11/13/2017 00:30      49.5      49.0       87     45.5      0.00      0.09      67.5     0.28      1019.8     0.0       N     0   0.0     ESE   103   0.93    293      -33.5
   11/13/2017 00:20      50.0      49.3       87     45.8      0.00      0.09      67.5     0.28      1019.7     0.0       N     0   0.0     ESE   103   0.93    291      -34.9
   11/13/2017 00:10      50.3      49.7       86     45.8      0.00      0.09      67.5     0.28      1019.7     0.0       N     0   0.0     ESE   103   0.93    288      -37.9
   11/13/2017 00:00      50.2      49.8       86     45.8      0.00      0.09      67.5     0.28      1019.7     0.0       N     0   0.0     ESE   103   0.93    285      -40.4
   11/12/2017 23:50      50.5      49.7       85     45.7      0.00      0.09      67.5     0.28      1019.6     0.0       N     0   0.0     ESE   103   0.93    283      -42.4
   11/12/2017 23:40      50.7      50.0       85     46.0      0.00      0.09      67.5     0.28      1019.7     0.6      SE   140   2.2      SE   143   0.93    282      -43.0
   11/12/2017 23:30      50.9      50.0       85     46.3      0.00      0.09      67.5     0.28      1019.7     0.9     SSE   149   1.8      SE   142   0.93    281      -42.8
   11/12/2017 23:20      51.5      50.5       85     46.5      0.00      0.09      67.6     0.28      1019.7     0.6      SE   144   1.6     SSE   148   0.93    280      -43.5
   11/12/2017 23:10      51.9      51.3       85     47.1      0.00      0.09      67.5     0.28      1019.6     0.3      SE   143   1.0      SE   143   0.93    279      -45.9
   11/12/2017 23:00      51.9      51.4       85     47.1      0.00      0.09      67.6     0.28      1019.6     0.0      SE   143   0.6      SE   143   0.93    277      -49.1
   11/12/2017 22:50      52.4      51.5       84     47.0      0.00      0.09      67.6     0.28      1019.6     0.1      SE   143   0.7      SE   143   0.93    275      -51.9
   11/12/2017 22:40      52.4      51.9       83     47.2      0.00      0.09      67.6     0.28      1019.5     0.1      SE   143   1.0      SE   143   0.93    273      -54.0
   11/12/2017 22:30      52.6      52.0       83     47.1      0.00      0.09      67.6     0.28      1019.5     0.0      SE   143   0.5      SE   143   0.93    271      -56.2
   11/12/2017 22:20      52.9      52.2       82     47.2      0.00      0.09      67.6     0.28      1019.5     0.8      SE   146   1.8      SE   143   0.93    270      -58.0
   11/12/2017 22:10      53.1      52.4       81     47.2      0.00      0.09      67.5     0.28      1019.4     1.0     SSE   155   2.2      SE   143   0.93    269      -59.1
   11/12/2017 22:00      53.1      52.7       80     46.8      0.00      0.09      67.5     0.28      1019.5     0.3       S   175   0.9     SSE   163   0.93    268      -58.1
   11/12/2017 21:50      53.4      53.0       80     47.1      0.00      0.09      67.5     0.28      1019.5     0.3       S   182   0.9       S   182   0.93    268      -57.0
   11/12/2017 21:40      54.9      53.1       77     46.8      0.00      0.09      67.6     0.28      1019.4     0.2     SSE   148   1.1      SE   141   0.93    268      -55.0
   11/12/2017 21:30      55.7      54.7       76     47.7      0.00      0.09      67.6     0.28      1019.3     0.4     SSE   149   1.4      SE   141   0.93    268      -57.6
   11/12/2017 21:20      56.3      55.5       74     47.6      0.00      0.09      67.5     0.28      1019.3     0.8     SSW   198   1.3     SSW   213   0.93    268      -55.7
   11/12/2017 21:10      57.1      56.0       73     48.0      0.00      0.09      67.6     0.28      1019.3     0.0      NE    52   0.4      NE    52   0.93    267      -54.1
   11/12/2017 21:00      57.9      56.8       71     48.0      0.00      0.09      67.6     0.28      1019.3     0.0      NE    52   0.2      NE    52   0.93    267      -56.8
   11/12/2017 20:50      59.0      57.6       68     47.9      0.00      0.09      67.5     0.28      1019.3     0.2      NE    51   1.8      NE    51   0.93    267      -54.8
   11/12/2017 20:40      60.2      58.8       66     48.0      0.00      0.09      67.5     0.28      1019.3     1.1     ENE    64   2.4      NE    54   0.93    267      -53.3
   11/12/2017 20:30      60.3      59.8       65     48.2      0.00      0.09      67.5     0.28      1019.2     1.1     SSW   201   2.7     SSW   200   0.93    267      -55.1
   11/12/2017 20:20      60.4      60.0       65     48.5      0.00      0.09      67.5     0.28      1019.1     1.6     SSW   213   3.4     WSW   240   0.93    267      -53.4
   11/12/2017 20:10      60.7      60.0       65     48.5      0.00      0.09      67.5     0.28      1019.0     1.7      SW   221   3.2      SW   220   0.93    267      -54.9
   11/12/2017 20:00      60.7      60.2       65     48.7      0.00      0.09      67.5     0.28      1018.9     2.4     SSW   202   4.3      SW   234   0.93    266      -51.8
   11/12/2017 19:50      60.8      60.3       65     48.8      0.00      0.09      67.5     0.28      1018.9     1.4     SSW   203   4.1     SSW   197   0.93    266      -48.8
   11/12/2017 19:40      60.9      60.5       65     48.9      0.00      0.09      67.5     0.28      1018.9     1.9     WSW   247   4.5       S   185   0.93    267      -46.6
   11/12/2017 19:30      60.8      59.9       66     48.9      0.00      0.09      67.5     0.28      1019.0     2.5     WSW   242   5.3      SW   232   0.93    267      -47.3
   11/12/2017 19:20      60.5      59.9       67     49.2      0.00      0.09      67.5     0.28      1018.8     0.2      SE   138   1.9     WSW   236   0.93    267      -46.0
   11/12/2017 19:10      60.9      60.2       66     49.2      0.00      0.09      67.5     0.28      1018.8     0.3       S   176   1.1      SE   140   0.93    267      -46.3
   11/12/2017 19:00      61.1      60.4       66     49.3      0.00      0.09      67.4     0.28      1018.8     0.3     SSW   206   2.7       W   259   0.93    267      -48.6
   11/12/2017 18:50      61.6      60.7       66     49.5      0.00      0.09      67.4     0.28      1018.7     0.2     SSE   166   1.0     SSE   166   0.93    267      -48.2
   11/12/2017 18:40      61.8      61.4       65     49.8      0.00      0.09      67.4     0.28      1018.7     0.4     SSW   197   1.9      SW   227   0.93    266      -49.4
   11/12/2017 18:30      61.8      61.3       66     49.9      0.00      0.09      67.4     0.28      1018.7     1.7     SSW   206   2.5     SSW   214   0.93    266      -51.0
   11/12/2017 18:20      61.5      60.8       66     49.9      0.00      0.09      67.4     0.28      1018.6     1.0      SW   224   1.8     SSW   200   0.93    266      -51.1
   11/12/2017 18:10      61.3      61.0       66     49.8      0.00      0.09      67.3     0.28      1018.5     0.1      SW   222   1.1      SW   235   0.93    266      -51.5
   11/12/2017 18:00      62.0      61.0       67     50.4      0.00      0.09      67.3     0.28      1018.4     0.0      SW   214   0.5      SW   214   0.93    266      -50.2
   11/12/2017 17:50      62.7      61.9       63     49.6      0.00      0.09      67.3     0.28      1018.3     0.0       N     0   0.0      SW   214   0.93    266      -48.4
   11/12/2017 17:40      63.1      62.4       60     48.9      0.00      0.09      67.3     0.28      1018.3     0.5      SW   215   1.6      SW   214   0.93    266      -46.2
   11/12/2017 17:30      64.6      62.7       59     48.8      0.00      0.09      67.3     0.28      1018.2     0.7     SSW   209   2.4     SSW   212   0.93    266      -46.0
   11/12/2017 17:20      64.6      64.1       58     49.4      0.00      0.09      67.2     0.28      1018.1     0.2     WNW   282   1.4      NW   324   0.93    266      -46.7
   11/12/2017 17:10      64.6      64.1       59     49.8      0.00      0.09      67.2     0.28      1018.0     0.4     WSW   241   1.9     WSW   257   0.93    266      -44.8
   11/12/2017 17:00      65.0      64.2       60     50.5      0.00      0.09      67.2     0.28      1017.8     0.0       N     0   0.0       E    99   0.93    266      -44.6
   11/12/2017 16:50      66.5      64.9       59     51.0      0.00      0.09      67.2     0.28      1017.7     0.0       E    99   0.4       E    99   0.93    266      -44.9
   11/12/2017 16:40      67.4      66.2       57     51.1      0.00      0.09      67.1     0.28      1017.7     0.0       N     0   0.0       E    98   0.93    266      -41.0
   11/12/2017 16:30      67.8      67.1       57     51.6      0.00      0.09      67.1     0.28      1017.6     0.0       N     0   0.0       E    97   0.93    266      -39.8
   11/12/2017 16:20      68.5      67.6       56     51.6      0.00      0.09      67.1     0.28      1017.6     0.0     ENE    70   0.5      NE    53   0.93    266      -26.5
   11/12/2017 16:10      68.6      68.1       55     51.3      0.00      0.09      67.1     0.28      1017.4     0.2      NE    55   1.3      NE    49   0.93    266      -28.1
   11/12/2017 16:00      69.2      68.4       54     51.4      0.00      0.09      67.0     0.28      1017.4     0.9      NE    54   1.6      NE    49   0.93    265      -12.2
   11/12/2017 15:50      69.3      68.8       53     51.1      0.00      0.09      67.0     0.28      1017.3     0.9      NE    55   1.9      NE    48   0.93    265        0.8
   11/12/2017 15:40      69.7      69.1       51     50.7      0.00      0.09      67.0     0.28      1017.4     1.2      NE    55   2.2      NE    55   0.93    265        7.8
   11/12/2017 15:30      70.1      69.3       51     50.5      0.00      0.09      67.0     0.28      1017.5     0.9     ENE    73   2.2     ENE    70   0.93    265       24.6
   11/12/2017 15:20      70.4      69.6       49     49.7      0.00      0.09      67.0     0.28      1017.6     1.0     ENE    73   3.1       E    85   0.94    264       17.4
   11/12/2017 15:10      70.5      70.1       45     48.2      0.00      0.09      67.0     0.28      1017.6     0.7     ENE    72   1.8      NE    53   0.94    264       26.6
   11/12/2017 15:00      70.7      70.3       44     47.8      0.00      0.09      66.9     0.28      1017.6     0.9       E    82   2.4     ENE    69   0.94    264       30.5
   11/12/2017 14:50      71.0      70.4       43     47.2      0.00      0.09      66.9     0.28      1017.6     0.8     ESE   102   2.2       E    85   0.94    264       46.8
   11/12/2017 14:40      71.4      70.9       41     46.5      0.00      0.09      66.9     0.28      1017.6     0.5       E    80   1.9     ENE    69   0.94    264       47.0
   11/12/2017 14:30      71.2      70.5       41     46.0      0.00      0.09      66.9     0.28      1017.6     0.3       E    82   1.4     ENE    61   0.93    264       55.0
   11/12/2017 14:20      70.9      70.4       42     46.5      0.00      0.09      66.8     0.28      1017.5     0.8      NE    47   2.5     NNE    26   0.93    264       55.4
   11/12/2017 14:10      71.2      70.7       42     46.5      0.00      0.09      66.8     0.28      1017.4     0.7      NE    38   2.2      NE    44   0.93    264       61.6
   11/12/2017 14:00      71.2      70.5       42     46.8      0.00      0.09      66.8     0.28      1017.5     1.0      NE    56   2.7       E    89   0.93    264       70.6
   11/12/2017 13:50      71.0      70.6       42     46.8      0.00      0.09      66.8     0.28      1017.4     1.3      NE    56   2.6     ENE    59   0.93    264       98.4
   11/12/2017 13:40      71.2      70.4       42     46.4      0.00      0.09      66.8     0.28      1017.3     1.3     ESE   111   3.9      SE   132   0.93    264      125.7
   11/12/2017 13:30      71.1      70.6       42     46.4      0.00      0.09      66.8     0.28      1017.2     1.5     ENE    73   2.9     ENE    73   0.93    264      143.9
   11/12/2017 13:20      70.8      70.4       41     45.8      0.00      0.09      66.8     0.28      1017.2     1.8     ENE    62   4.4      SE   138   0.93    263      192.2
   11/12/2017 13:10      70.5      69.7       44     46.9      0.00      0.09      66.8     0.28      1017.3     1.3      NE    44   3.8     ENE    72   0.93    264      208.0
   11/12/2017 13:00      69.9      69.3       45     47.4      0.00      0.09      66.8     0.28      1017.4     1.2     NNE    26   2.8     NNW   346   0.93    264      188.6
   11/12/2017 12:50      69.5      68.6       47     47.8      0.00      0.09      66.8     0.28      1017.5     0.6     ESE   122   3.0       E    95   0.93    264      179.5
   11/12/2017 12:40      68.9      68.0       48     47.9      0.00      0.09      66.8     0.28      1017.5     1.2      SW   236   2.8       W   279   0.93    264      166.1
   11/12/2017 12:30      68.8      68.0       48     47.8      0.00      0.09      66.8     0.28      1017.8     1.5      SW   223   4.1     WSW   243   0.93    264      140.2
   11/12/2017 12:20      69.6      68.6       46     47.7      0.00      0.09      66.8     0.28      1017.9     1.9     NNW   341   5.3       N     0   0.93    264      250.2
   11/12/2017 12:10      69.0      67.6       48     47.8      0.00      0.09      66.8     0.28      1018.0     1.0     WSW   257   2.6     WSW   245   0.93    264      307.6
   11/12/2017 12:00      67.9      67.3       49     47.9      0.00      0.09      66.8     0.28      1017.9     1.3     WNW   298   2.4     WSW   240   0.93    264      296.3
   11/12/2017 11:50      67.3      65.9       51     47.7      0.00      0.09      66.8     0.28      1018.0     1.2     WSW   254   2.8       W   271   0.93    264      281.1
   11/12/2017 11:40      66.0      65.2       52     47.5      0.00      0.09      66.8     0.28      1018.3     1.5       W   266   2.7     WSW   258   0.93    264      222.8
   11/12/2017 11:30      65.5      64.8       53     47.5      0.00      0.09      66.8     0.28      1018.3     0.7     WNW   303   1.5     NNW   337   0.93    265      147.3
   11/12/2017 11:20      65.0      64.3       53     47.4      0.00      0.09      66.8     0.28      1018.4     1.0     NNE    14   2.2      NE    39   0.93    266      135.3
   11/12/2017 11:10      64.8      64.1       54     47.4      0.00      0.09      66.8     0.28      1018.5     1.0     NNE    28   2.5      NE    38   0.93    266      140.6
   11/12/2017 11:00      64.6      64.1       54     47.4      0.00      0.09      66.8     0.28      1018.6     0.5     NNE    26   1.9      NE    51   0.93    266      121.3
   11/12/2017 10:50      64.4      63.5       55     47.2      0.00      0.09      66.8     0.28      1018.9     0.4      NE    51   2.1       E    84   0.93    266       95.9
   11/12/2017 10:40      63.8      63.2       56     47.3      0.00      0.09      66.9     0.28      1019.0     0.7     NNE    25   2.0     NNE    23   0.93    266       97.6
   11/12/2017 10:30      63.7      63.2       56     47.3      0.00      0.09      66.9     0.28      1019.0     1.5     NNE    22   2.5       N    10   0.93    266      114.5
   11/12/2017 10:20      63.8      63.2       55     47.1      0.00      0.09      66.9     0.28      1019.2     1.0     NNE    16   2.6      NE    45   0.93    266      113.8
   11/12/2017 10:10      63.3      62.1       55     46.4      0.00      0.09      66.9     0.28      1019.4     0.5      SW   228   1.3      SW   223   0.93    266      115.4
   11/12/2017 10:00      62.3      61.4       58     46.7      0.00      0.09      67.0     0.28      1019.4     1.2     WSW   237   3.0       S   179   0.93    266      124.1
   11/12/2017 09:50      61.5      60.9       58     46.2      0.00      0.09      67.0     0.28      1019.5     3.0      SW   214   5.3      SW   223   0.93    266      130.9
   11/12/2017 09:40      61.5      60.7       58     46.3      0.00      0.09      67.0     0.28      1019.3     2.4      SW   230   3.7     WSW   244   0.93    266      156.6
   11/12/2017 09:30      61.0      59.6       59     46.1      0.00      0.09      67.0     0.28      1019.3     0.7       W   266   3.1     WSW   254   0.93    266      152.1
   11/12/2017 09:20      59.8      58.7       60     45.5      0.00      0.09      67.1     0.28      1019.1     0.8      NW   321   2.6     WNW   295   0.93    266      127.3
   11/12/2017 09:10      58.9      57.5       66     46.8      0.00      0.09      67.1     0.28      1019.1     0.9     SSE   165   2.7       S   187   0.93    267      111.8
   11/12/2017 09:00      57.6      56.9       70     47.7      0.00      0.09      67.1     0.28      1019.2     2.7       S   187   4.0       S   184   0.93    267      110.0
   11/12/2017 08:50      56.9      55.5       72     47.5      0.00      0.09      67.1     0.28      1019.1     1.7       S   169   3.2     SSW   212   0.93    267      101.1
   11/12/2017 08:40      55.8      54.5       75     47.3      0.00      0.09      67.2     0.28      1019.0     0.7      SE   140   1.9      SE   132   0.93    268       90.7
   11/12/2017 08:30      54.7      53.8       77     47.3      0.00      0.09      67.2     0.28      1019.2     1.3     SSE   148   2.5     SSE   168   0.93    268       86.3
   11/12/2017 08:20      54.1      53.2       79     47.3      0.00      0.09      67.2     0.28      1019.2     1.1     ESE   120   2.7      SE   129   0.93    268       87.4
   11/12/2017 08:10      53.3      52.1       84     48.1      0.00      0.09      67.2     0.28      1019.3     0.4     ESE   115   1.9      SE   139   0.93    276       82.3
   11/12/2017 08:00      52.4      51.4       87     48.0      0.00      0.09      67.3     0.28      1019.4     0.2     NNE    29   1.2     NNE    24   0.93    290       68.8
   11/12/2017 07:50      51.6      50.3       88     47.6      0.00      0.09      67.3     0.28      1019.4     0.0       N     0   0.0      SE   146   0.93    301       64.4
   11/12/2017 07:40      50.5      49.7       89     47.0      0.00      0.09      67.3     0.28      1019.3     0.0       N     0   0.0      SE   146   0.93    308       52.6
   11/12/2017 07:30      49.8      49.2       90     46.7      0.00      0.09      67.3     0.28      1019.3     0.0       N     0   0.0      SE   146   0.93    311       41.4
   11/12/2017 07:20      49.4      48.8       91     46.4      0.00      0.09      67.4     0.28      1019.2     0.0      SE   146   0.7      SE   146   0.93    311       29.1
   11/12/2017 07:10      48.9      48.1       91     46.0      0.00      0.09      67.4     0.28      1019.0     0.0       N     0   0.0      SE   146   0.93    312       20.1
   11/12/2017 07:00      48.1      47.8       91     45.3      0.00      0.09      67.4     0.28      1018.7     0.0       N     0   0.0      SE   146   0.93    311        9.2
   11/12/2017 06:50      48.1      47.6       91     45.3      0.00      0.09      67.4     0.28      1018.4     0.0       N     0   0.0      SE   146   0.93    310        1.7
   11/12/2017 06:40      48.1      47.6       91     45.4      0.00      0.09      67.5     0.28      1018.3     0.0      SE   146   0.5      SE   146   0.93    308       -6.9
   11/12/2017 06:30      48.1      47.3       91     45.1      0.00      0.09      67.5     0.28      1018.1     0.4      SE   146   1.2      SE   146   0.93    307      -14.5
   11/12/2017 06:20      47.8      47.2       91     45.0      0.00      0.09      67.5     0.28      1018.1     0.2      SE   146   1.0      SE   146   0.93    304      -16.7
   11/12/2017 06:10      47.3      47.1       91     44.7      0.00      0.09      67.5     0.28      1017.9     0.2      SE   146   0.9      SE   146   0.93    303      -15.9
   11/12/2017 06:00      47.6      47.1       91     44.7      0.00      0.09      67.5     0.28      1017.9     0.3      SE   146   0.8      SE   146   0.93    302      -15.3
   11/12/2017 05:50      47.6      47.1       91     44.6      0.00      0.09      67.6     0.28      1017.8     0.0      SE   146   0.6      SE   146   0.93    300      -17.2
   11/12/2017 05:40      47.6      47.3       90     44.7      0.00      0.09      67.5     0.28      1017.8     0.1      SE   146   0.9      SE   146   0.93    298      -21.3
   11/12/2017 05:30      47.5      47.0       90     44.5      0.00      0.09      67.6     0.28      1017.9     0.1      SE   146   0.7      SE   146   0.93    296      -22.2
   11/12/2017 05:20      47.6      47.1       90     44.5      0.00      0.09      67.6     0.28      1017.8     0.0       N     0   0.0      SE   146   0.93    293      -24.0
   11/12/2017 05:10      47.8      47.2       90     44.5      0.00      0.09      67.7     0.28      1017.8     0.0       N     0   0.0      SE   146   0.93    292      -26.1
   11/12/2017 05:00      47.8      47.2       90     44.5      0.00      0.09      67.7     0.28      1017.6     0.0       N     0   0.0      SE   146   0.93    290      -27.7
   11/12/2017 04:50      48.1      47.3       89     44.5      0.00      0.09      67.6     0.28      1017.5     0.1      SE   146   0.8      SE   146   0.93    287      -28.9
   11/12/2017 04:40      48.2      47.5       89     44.5      0.00      0.09      67.7     0.28      1017.5     0.0      SE   146   0.6      SE   146   0.93    286      -29.6
   11/12/2017 04:30      48.2      47.8       89     44.8      0.00      0.09      67.7     0.28      1017.5     0.0      SE   146   0.4      SE   146   0.93    283      -32.3
   11/12/2017 04:20      48.1      47.6       88     44.3      0.00      0.09      67.7     0.28      1017.5     0.0      SE   146   0.3      SE   146   0.93    281      -35.5
   11/12/2017 04:10      48.8      47.8       87     44.5      0.00      0.09      67.8     0.28      1017.5     0.4      SE   146   1.1      SE   146   0.94    279      -37.9
   11/12/2017 04:00      48.9      48.4       87     45.1      0.00      0.09      67.8     0.28      1017.5     0.1      SE   146   1.0      SE   146   0.93    278      -38.0
   11/12/2017 03:50      49.0      48.6       87     45.0      0.00      0.09      67.8     0.28      1017.3     0.0       N     0   0.0      SE   146   0.93    277      -37.6
   11/12/2017 03:40      49.4      48.7       87     45.2      0.00      0.09      67.8     0.28      1017.2     0.0      SE   146   0.9      SE   146   0.93    275      -37.3
   11/12/2017 03:30      49.7      49.2       87     45.6      0.00      0.09      67.8     0.28      1017.4     0.6      SE   146   1.5      SE   146   0.94    274      -37.8
   11/12/2017 03:20      49.6      49.2       87     45.5      0.00      0.09      67.9     0.28      1017.4     0.2      SE   146   0.8      SE   146   0.94    273      -39.8
   11/12/2017 03:10      49.7      49.2       87     45.6      0.00      0.09      67.8     0.28      1017.4     0.0      SE   146   0.6      SE   146   0.94    272      -40.4
   11/12/2017 03:00      49.5      49.2       86     45.3      0.00      0.09      67.9     0.28      1017.4     0.0      SE   146   0.6      SE   146   0.94    272      -39.0
   11/12/2017 02:50      50.0      49.2       85     45.1      0.00      0.09      67.9     0.28      1017.4     0.0       N     0   0.0      SE   146   0.94    271      -38.3
   11/12/2017 02:40      50.3      49.7       85     45.5      0.00      0.09      67.9     0.28      1017.4     0.0      SE   146   0.4      SE   146   0.93    271      -40.6
   11/12/2017 02:30      50.1      49.7       85     45.5      0.00      0.09      68.0     0.28      1017.4     0.0      SE   146   0.7      SE   146   0.94    270      -40.8
   11/12/2017 02:20      50.3      49.7       85     45.5      0.00      0.09      68.0     0.28      1017.3     0.2      SE   146   1.0      SE   146   0.94    271      -42.8
   11/12/2017 02:10      50.6      49.8       84     45.5      0.00      0.09      68.0     0.28      1017.3     0.2      SE   146   1.1      SE   146   0.93    271      -44.0
   11/12/2017 02:00      50.8      50.1       84     45.6      0.00      0.09      68.0     0.28      1017.4     0.6      SE   146   1.4      SE   146   0.93    270      -44.0
   11/12/2017 01:50      50.8      50.2       84     45.7      0.00      0.09      68.0     0.28      1017.4     0.2      SE   146   0.8      SE   146   0.93    270      -46.8
   11/12/2017 01:40      50.6      50.0       83     45.3      0.00      0.09      68.0     0.28      1017.4     0.1      SE   146   0.9      SE   146   0.93    269      -45.0
   11/12/2017 01:30      51.0      50.0       82     45.1      0.00      0.09      68.1     0.29      1017.5     0.0      SE   146   0.8      SE   146   0.93    269      -42.8
   11/12/2017 01:20      51.0      50.6       82     45.5      0.00      0.09      68.1     0.28      1017.5     0.9     SSE   147   1.5      SE   146   0.94    269      -44.1
   11/12/2017 01:10      51.3      50.8       82     45.6      0.00      0.09      68.1     0.28      1017.5     0.3       S   190   1.1       S   190   0.94    269      -47.0
   11/12/2017 01:00      51.5      50.9       82     45.8      0.00      0.09      68.1     0.29      1017.5     0.0       N     0   0.0      SE   136   0.94    269      -46.3
   11/12/2017 00:50      51.6      51.1       81     45.8      0.00      0.09      68.1     0.28      1017.5     0.0      SE   137   0.2      SE   137   0.93    269      -42.5
   11/12/2017 00:40      51.6      51.3       82     46.0      0.00      0.09      68.1     0.29      1017.5     0.4      SE   139   1.6      SE   136   0.94    269      -37.2
   11/12/2017 00:30      51.5      51.1       82     45.9      0.00      0.09      68.1     0.29      1017.4     0.3       S   169   0.7       S   169   0.94    269      -34.9
   11/12/2017 00:20      51.4      50.7       82     45.6      0.00      0.09      68.2     0.29      1017.5     0.2       S   169   1.1       S   169   0.94    268      -33.7
   11/12/2017 00:10      51.3      50.8       82     45.5      0.00      0.09      68.2     0.29      1017.5     0.0       N     0   0.0       S   169   0.94    269      -36.1
   11/12/2017 00:00      51.5      51.0       82     45.7      0.00      0.09      68.2     0.29      1017.4     0.0       N     0   0.0       S   169   0.94    269      -38.0
   11/11/2017 23:50      51.4      50.9       82     45.8      0.00      0.09      68.2     0.29      1017.4     0.4     SSE   168   1.8       S   187   0.94    269      -41.2
   11/11/2017 23:40      51.6      51.0       81     45.7      0.00      0.09      68.2     0.29      1017.4     0.1     SSE   161   0.8     SSE   161   0.94    269      -43.9
   11/11/2017 23:30      52.0      51.3       80     45.7      0.00      0.09      68.2     0.29      1017.3     0.0     SSE   161   0.5     SSE   161   0.94    269      -45.0
   11/11/2017 23:20      51.9      51.6       82     46.3      0.00      0.09      68.2     0.29      1017.4     0.3     SSE   161   1.1     SSE   161   0.94    269      -48.1
   11/11/2017 23:10      51.9      51.6       82     46.5      0.00      0.09      68.2     0.29      1017.5     0.2     SSE   161   0.7     SSE   161   0.94    269      -48.1
   11/11/2017 23:00      51.9      51.5       81     46.2      0.00      0.09      68.2     0.29      1017.3     0.5     SSE   160   1.6     SSE   150   0.94    269      -50.1
   11/11/2017 22:50      52.0      51.4       82     46.2      0.00      0.09      68.2     0.29      1017.2     0.4     SSE   156   1.7      SE   146   0.94    269      -50.6
   11/11/2017 22:40      52.0      51.5       83     46.6      0.00      0.09      68.2     0.29      1017.2     0.2     SSE   161   1.2     SSE   157   0.93    269      -51.2
   11/11/2017 22:30      52.5      51.4       81     46.4      0.00      0.09      68.2     0.29      1017.1     0.3       S   171   1.3       S   177   0.93    269      -54.1
   11/11/2017 22:20      52.8      52.2       81     46.8      0.00      0.09      68.2     0.29      1017.1     0.7     SSE   161   1.4     SSE   158   0.93    269      -55.7
   11/11/2017 22:10      53.3      52.4       79     46.5      0.00      0.09      68.2     0.29      1017.2     0.3     SSE   163   1.6     SSW   193   0.93    268      -56.5
   11/11/2017 22:00      54.0      53.1       79     47.1      0.00      0.09      68.2     0.29      1017.3     0.0       N     0   0.0     ESE   105   0.93    268      -56.8
   11/11/2017 21:50      53.7      53.2       79     47.2      0.00      0.09      68.2     0.29      1017.4     0.0       N     0   0.0     ESE   105   0.93    268      -56.9
   11/11/2017 21:40      54.0      53.4       78     47.0      0.00      0.09      68.3     0.29      1017.3     0.0       N     0   0.0     ESE   105   0.93    268      -58.5
   11/11/2017 21:30      54.5      53.6       76     46.6      0.00      0.09      68.2     0.29      1017.2     0.0     ESE   105   0.5     ESE   105   0.93    268      -59.2
   11/11/2017 21:20      54.9      54.2       75     46.9      0.00      0.09      68.2     0.29      1017.2     0.4      SE   127   1.6     SSE   152   0.93    268      -59.4
   11/11/2017 21:10      55.5      54.7       74     47.0      0.00      0.09      68.2     0.29      1017.1     0.2     SSE   161   1.3      SE   136   0.93    268      -60.1
   11/11/2017 21:00      56.0      55.0       73     47.0      0.00      0.09      68.2     0.29      1017.0     0.2       E    88   1.2     NNE    24   0.93    267      -61.5
   11/11/2017 20:50      56.6      55.9       72     47.3      0.00      0.09      68.2     0.29      1016.9     0.2     SSE   157   1.3     SSE   148   0.93    267      -61.9
   11/11/2017 20:40      57.9      56.4       70     47.4      0.00      0.09      68.2     0.29      1016.8     0.4     SSE   152   1.0     SSE   148   0.93    267      -61.7
   11/11/2017 20:30      59.1      57.7       67     47.5      0.00      0.09      68.2     0.29      1016.9     0.0       N     0   0.0       S   188   0.93    267      -65.1
   11/11/2017 20:20      59.1      58.8       67     47.8      0.00      0.09      68.2     0.29      1016.8     1.9     SSW   203   3.5     WSW   248   0.93    266      -67.0
   11/11/2017 20:10      59.3      58.8       66     47.9      0.00      0.09      68.2     0.29      1016.8     1.6     SSW   209   4.0      SW   222   0.93    266      -67.3
   11/11/2017 20:00      59.2      58.8       67     48.0      0.00      0.09      68.2     0.29      1016.6     1.7     SSW   213   3.8     SSW   211   0.93    266      -67.6
   11/11/2017 19:50      59.5      58.8       67     48.1      0.00      0.09      68.2     0.29      1016.4     2.4     SSW   201   4.4      SW   227   0.94    266      -67.7
   11/11/2017 19:40      59.8      59.3       66     48.3      0.00      0.09      68.1     0.29      1016.3     2.6     SSW   199   4.6      SW   220   0.94    266      -68.0
   11/11/2017 19:30      59.9      59.4       66     48.3      0.00      0.09      68.1     0.29      1016.4     2.4     SSW   204   4.1     SSW   210   0.94    266      -67.7
   11/11/2017 19:20      60.1      59.4       66     48.3      0.00      0.09      68.1     0.29      1016.2     1.3     SSW   204   2.8      SW   222   0.94    266      -66.5
   11/11/2017 19:10      60.4      59.8       65     48.3      0.00      0.09      68.0     0.29      1016.2     1.0      SW   214   3.1      SW   218   0.94    266      -66.4
   11/11/2017 19:00      60.7      60.1       65     48.4      0.00      0.09      68.1     0.29      1016.3     0.7     SSW   208   2.1     SSW   201   0.94    266      -67.2
   11/11/2017 18:50      61.2      60.3       63     48.2      0.00      0.09      68.0     0.29      1016.3     1.8     SSW   213   3.5     SSW   213   0.94    266      -68.4
   11/11/2017 18:40      61.7      60.9       61     47.7      0.00      0.09      68.0     0.29      1016.3     1.8     SSW   203   3.6     SSW   193   0.94    266      -69.7
   11/11/2017 18:30      62.1      61.4       60     47.5      0.00      0.09      68.0     0.29      1016.3     1.9      SW   224   4.0     WSW   246   0.94    266      -69.5
   11/11/2017 18:20      62.2      61.8       59     47.5      0.00      0.09      68.0     0.29      1016.2     3.1     WSW   241   5.1     WSW   242   0.94    266      -68.4
   11/11/2017 18:10      62.7      61.9       59     47.8      0.00      0.09      67.9     0.29      1016.2     1.9      SW   220   3.6     WSW   242   0.94    266      -67.7
   11/11/2017 18:00      63.2      62.4       58     47.9      0.00      0.09      67.9     0.29      1016.1     2.1      SW   227   4.7      SW   216   0.94    266      -68.3
   11/11/2017 17:50      63.7      63.0       57     47.7      0.00      0.09      67.9     0.29      1015.9     2.3      SW   226   4.3     WSW   245   0.94    266      -70.1
   11/11/2017 17:40      63.8      63.3       57     47.9      0.00      0.09      67.8     0.29      1015.9     2.7      SW   234   4.9     WSW   241   0.94    266      -70.2
   11/11/2017 17:30      64.8      63.5       55     47.4      0.00      0.09      67.8     0.29      1015.7     1.3     SSW   210   3.0      SW   236   0.94    266      -69.0
   11/11/2017 17:20      65.5      64.5       53     47.4      0.00      0.09      67.8     0.29      1015.6     1.4     WSW   236   2.9     WSW   240   0.94    265      -71.0
   11/11/2017 17:10      66.6      65.2       52     47.5      0.00      0.09      67.8     0.29      1015.5     1.7      SW   232   2.6     WSW   257   0.93    265      -73.0
   11/11/2017 17:00      67.2      66.3       51     47.9      0.00      0.09      67.8     0.29      1015.3     1.0     WNW   282   2.5       W   261   0.94    265      -75.8
   11/11/2017 16:50      67.7      66.8       50     47.9      0.00      0.09      67.7     0.29      1015.2     1.3     WNW   296   3.1      NW   316   0.94    264      -75.2
   11/11/2017 16:40      68.7      67.3       49     47.8      0.00      0.09      67.7     0.29      1015.3     2.8      NW   309   6.0     WNW   301   0.94    264      -73.0
   11/11/2017 16:30      69.6      68.3       47     48.2      0.00      0.09      67.7     0.29      1015.4     2.7     WNW   295   5.4     NNW   336   0.94    264      -64.7
   11/11/2017 16:20      70.4      69.3       47     48.6      0.00      0.09      67.6     0.29      1015.4     2.1     WNW   286   5.1     WNW   303   0.94    264      -58.1
   11/11/2017 16:10      71.0      70.1       46     48.6      0.00      0.09      67.6     0.29      1015.2     2.6       W   261   4.3     WSW   238   0.94    263      -38.0
   11/11/2017 16:00      71.5      70.7       46     49.4      0.00      0.09      67.5     0.29      1015.2     2.8     WSW   255   5.0      SW   235   0.94    263      -13.8
   11/11/2017 15:50      72.1      71.3       49     51.5      0.00      0.09      67.5     0.29      1015.0     2.4     SSW   208   5.3     SSW   205   0.94    264        8.9
   11/11/2017 15:40      73.2      71.6       48     51.1      0.00      0.09      67.5     0.29      1014.9     2.9       S   186   4.7       S   185   0.94    264       27.8
   11/11/2017 15:30      73.8      72.9       45     51.1      0.00      0.09      67.4     0.29      1014.9     1.2     SSW   204   2.7       S   190   0.94    263       26.4
   11/11/2017 15:20      74.1      73.0       44     50.4      0.00      0.09      67.4     0.29      1014.8     1.6     ENE    73   3.8     ESE   105   0.94    263       70.5
   11/11/2017 15:10      74.1      73.2       43     50.0      0.00      0.09      67.4     0.29      1014.9     1.9     ESE   102   4.8      SE   131   0.94    263       93.7
   11/11/2017 15:00      74.6      73.6       42     49.5      0.00      0.09      67.3     0.29      1014.9     2.3     ESE   109   6.3     ESE   115   0.94    263      117.4
   11/11/2017 14:50      75.6      74.3       40     48.9      0.00      0.09      67.3     0.29      1014.9     2.6       E    88   5.6     ESE   107   0.94    263      137.1
   11/11/2017 14:40      77.8      75.2       36     46.9      0.00      0.09      67.3     0.29      1014.8     2.4     ENE    76   5.2     ESE   116   0.94    263      156.6
   11/11/2017 14:30      77.9      76.7       29     42.6      0.00      0.09      67.3     0.29      1014.9     1.1     ENE    74   3.5     NNW   346   0.94    262      176.9
   11/11/2017 14:20      77.0      75.2       30     42.3      0.00      0.09      67.2     0.29      1014.8     1.2      NE    47   4.3       N     8   0.94    262      196.0
   11/11/2017 14:10      76.8      75.9       30     42.4      0.00      0.09      67.2     0.29      1014.9     2.1     NNE    21   4.9       N     8   0.94    262      214.2
   11/11/2017 14:00      75.9      74.9       30     42.2      0.00      0.09      67.2     0.29      1014.9     1.5     SSE   167   3.2      NE    45   0.94    262      235.3
   11/11/2017 13:50      75.5      75.2       31     42.3      0.00      0.09      67.2     0.29      1015.0     1.9     NNE    23   3.7      NE    55   0.94    262      249.7
   11/11/2017 13:40      75.7      74.7       31     42.3      0.00      0.09      67.1     0.29      1015.1     1.9     NNW   339   3.8     NNW   340   0.94    262      266.9
   11/11/2017 13:30      75.9      74.9       31     42.4      0.00      0.09      67.1     0.29      1015.0     2.2      NE    51   4.6       S   179   0.94    262      283.7
   11/11/2017 13:20      75.3      74.3       31     42.5      0.00      0.09      67.1     0.29      1014.9     1.8     NNE    29   4.5     NNE    19   0.94    262      329.2
   11/11/2017 13:10      74.4      73.8       32     42.2      0.00      0.09      67.1     0.29      1015.0     2.0       E    83   4.4     SSE   147   0.94    262      353.1
   11/11/2017 13:00      74.3      73.2       32     42.4      0.00      0.09      67.1     0.29      1015.1     2.3     ENE    69   3.9       E   101   0.94    262      403.1
   11/11/2017 12:50      73.5      72.2       34     42.6      0.00      0.09      67.0     0.29      1015.1     1.5     ENE    65   3.8       E   100   0.94    262      358.3
   11/11/2017 12:40      72.4      71.7       34     42.5      0.00      0.09      67.0     0.29      1015.1     1.5      NE    44   3.5     NNE    30   0.94    263      221.8
   11/11/2017 12:30      73.2      71.9       34     42.3      0.00      0.09      67.0     0.29      1015.2     1.8     NNE    20   4.7     NNE    14   0.94    263      176.8
   11/11/2017 12:20      73.7      72.7       33     42.1      0.00      0.09      67.0     0.29      1015.3     1.2     NNW   334   4.1     NNE    16   0.94    263      214.1
   11/11/2017 12:10      73.9      73.3       33     42.8      0.00      0.09      67.0     0.28      1015.3     1.5     NNW   345   3.9     WSW   251   0.94    263      218.3
   11/11/2017 12:00      74.2      72.4       34     43.1      0.00      0.09      67.0     0.28      1015.4     1.3     WSW   258   4.1     WNW   301   0.94    262      385.5
   11/11/2017 11:50      73.2      72.3       34     43.0      0.00      0.09      67.0     0.28      1015.6     1.3      NE    44   4.1     NNE    13   0.94    262      378.7
   11/11/2017 11:40      73.2      71.4       36     43.8      0.00      0.09      67.0     0.28      1015.9     2.0     NNE    33   4.6     NNW   342   0.94    262      413.8
   11/11/2017 11:30      71.5      70.2       37     43.4      0.00      0.09      67.0     0.28      1016.2     1.9      SW   230   4.3      SW   231   0.94    263      449.0
   11/11/2017 11:20      70.3      69.1       40     43.9      0.00      0.09      67.0     0.28      1016.5     1.4     WNW   293   4.0       W   267   0.94    263      267.9
   11/11/2017 11:10      69.8      69.0       41     44.4      0.00      0.09      67.0     0.28      1016.7     2.0     WNW   285   4.3      SW   232   0.94    263      379.1
   11/11/2017 11:00      70.2      69.0       41     44.8      0.00      0.09      67.1     0.28      1017.0     2.3     WSW   239   4.0       W   274   0.94    263      400.5
   11/11/2017 10:50      71.0      69.5       41     45.5      0.00      0.09      67.1     0.28      1017.2     1.7     WNW   285   5.1     WSW   257   0.94    263      299.3
   11/11/2017 10:40      70.8      68.3       40     44.4      0.00      0.09      67.1     0.28      1017.5     0.7     SSE   168   2.9      SW   233   0.94    263      371.9
   11/11/2017 10:30      68.5      67.4       44     45.0      0.00      0.09      67.1     0.28      1017.6     1.9      SW   235   3.5      SW   223   0.94    263      343.2
   11/11/2017 10:20      68.2      67.3       45     45.9      0.00      0.09      67.2     0.28      1017.7     1.7      SW   231   3.7      SW   223   0.94    263      341.9
   11/11/2017 10:10      67.6      66.6       48     46.9      0.00      0.09      67.2     0.28      1017.8     1.7      SW   219   4.6     WSW   249   0.94    264      305.1
   11/11/2017 10:00      66.8      65.8       50     47.0      0.00      0.09      67.3     0.28      1018.0     1.7       S   178   3.9      SW   232   0.94    264      315.2
   11/11/2017 09:50      66.5      65.8       53     48.4      0.00      0.09      67.3     0.28      1018.2     1.5      NW   323   3.7     NNW   340   0.94    264      302.0
   11/11/2017 09:40      67.3      65.7       55     49.6      0.00      0.09      67.3     0.28      1018.1     0.7      SW   216   3.2      SW   222   0.94    265      291.3
   11/11/2017 09:30      65.7      64.5       59     50.4      0.00      0.09      67.3     0.28      1018.1     1.0     ENE    73   2.6      NE    48   0.94    265      281.2
   11/11/2017 09:20      65.1      63.4       62     50.8      0.00      0.09      67.4     0.28      1018.2     1.2     ENE    58   2.3     ENE    63   0.94    266      267.1
   11/11/2017 09:10      63.6      62.5       64     50.7      0.00      0.09      67.4     0.28      1018.4     1.1      NE    43   2.4     NNE    33   0.94    266      250.5
   11/11/2017 09:00      63.3      62.8       64     50.7      0.00      0.09      67.5     0.28      1018.5     1.0      NE    34   2.2      NE    54   0.93    266      235.5
   11/11/2017 08:50      62.9      60.9       66     50.5      0.00      0.09      67.5     0.28      1018.5     0.4     ENE    63   1.7     ENE    68   0.94    267      231.7
   11/11/2017 08:40      61.2      59.4       69     50.2      0.00      0.09      67.5     0.28      1018.4     0.9     ENE    64   1.5     ENE    64   0.94    274      233.9
   11/11/2017 08:30      59.5      58.5       72     49.9      0.00      0.09      67.5     0.28      1018.3     1.0      NE    36   2.2       N   351   0.94    309      225.4
   11/11/2017 08:20      58.7      58.3       75     50.5      0.00      0.09      67.6     0.28      1018.3     0.8      NE    51   1.8      NE    44   0.94    365      207.9
   11/11/2017 08:10      58.4      56.4       83     51.9      0.00      0.09      67.6     0.29      1018.2     0.0       N     0   0.0     SSE   148   0.93    401      184.6
   11/11/2017 08:00      56.5      54.0       89     52.1      0.00      0.09      67.6     0.28      1018.2     0.0       N     0   0.0     SSE   148   0.94    425      160.6
   11/11/2017 07:50      54.0      52.1       91     50.7      0.00      0.09      67.7     0.28      1018.1     0.0       N     0   0.0     SSE   148   0.94    441      122.4
   11/11/2017 07:40      52.3      50.7       92     48.9      0.00      0.09      67.8     0.28      1018.0     0.0       N     0   0.0     SSE   148   0.94    450       83.9
   11/11/2017 07:30      51.0      49.8       93     48.7      0.00      0.09      67.7     0.28      1017.8     0.0       N     0   0.0     SSE   148   0.94    450       47.0
   11/11/2017 07:20      49.8      47.8       94     47.3      0.00      0.09      67.7     0.28      1017.6     0.0       N     0   0.0     SSE   148   0.93    452       25.4
   11/11/2017 07:10      48.1      46.3       94     45.6      0.00      0.09      67.8     0.29      1017.5     0.0       N     0   0.0     SSE   149   0.94    450       25.1
   11/11/2017 07:00      46.5      45.9       94     44.5      0.00      0.09      67.8     0.29      1017.3     0.1     SSE   149   0.8     SSE   149   0.94    448       17.4
   11/11/2017 06:50      46.2      45.8       94     44.3      0.00      0.09      67.8     0.29      1017.1     0.0     SSE   149   0.7     SSE   149   0.94    446        7.9
   11/11/2017 06:40      46.2      45.9       94     44.5      0.00      0.09      67.9     0.29      1016.9     0.0       N     0   0.0     SSE   149   0.94    444       -0.8
   11/11/2017 06:30      46.2      45.9       94     44.5      0.00      0.09      67.9     0.29      1016.9     0.0       N     0   0.0     SSE   149   0.94    442       -8.1
   11/11/2017 06:20      46.1      45.8       94     44.3      0.00      0.09      67.9     0.29      1016.8     0.0     SSE   149   0.5     SSE   149   0.94    440      -10.6
   11/11/2017 06:10      46.2      45.8       94     44.4      0.00      0.09      67.9     0.29      1016.8     0.0       N     0   0.0     SSE   149   0.94    437      -12.3
   11/11/2017 06:00      46.2      45.0       93     43.6      0.00      0.09      68.0     0.29      1016.6     0.1     SSE   149   0.7     SSE   149   0.94    435      -12.4
   11/11/2017 05:50      46.9      45.9       94     44.6      0.00      0.09      68.0     0.29      1016.7     0.2     SSE   149   1.3     SSE   149   0.93    432      -12.4
   11/11/2017 05:40      47.2      46.5       94     45.1      0.00      0.09      68.0     0.29      1016.7     0.0       N     0   0.0     SSE   149   0.93    430      -12.5
   11/11/2017 05:30      47.1      46.4       94     45.0      0.00      0.09      68.0     0.29      1016.7     0.4     SSE   149   0.9     SSE   149   0.93    427      -12.3
   11/11/2017 05:20      46.9      46.4       94     44.8      0.00      0.09      68.1     0.29      1016.7     0.0     SSE   149   0.6     SSE   149   0.93    425      -12.7
   11/11/2017 05:10      47.2      46.4       94     44.9      0.00      0.09      68.1     0.29      1016.7     0.0       N     0   0.0     SSE   149   0.94    423      -12.9
   11/11/2017 05:00      46.7      46.2       94     44.8      0.00      0.09      68.1     0.29      1016.6     0.0       N     0   0.0     SSE   149   0.94    421      -13.3
   11/11/2017 04:50      46.9      46.2       93     44.6      0.00      0.09      68.2     0.29      1016.6     0.0       N     0   0.0     SSE   149   0.94    418      -13.5
   11/11/2017 04:40      46.9      46.2       94     44.8      0.00      0.09      68.2     0.29      1016.5     0.0     SSE   149   0.5     SSE   149   0.94    416      -13.5
   11/11/2017 04:30      47.2      46.2       93     44.6      0.00      0.09      68.2     0.29      1016.5     0.0       N     0   0.0     SSE   148   0.94    413      -13.2
   11/11/2017 04:20      47.6      46.9       93     45.4      0.00      0.09      68.2     0.29      1016.5     0.0     SSE   148   0.5     SSE   148   0.94    412      -13.6
   11/11/2017 04:10      47.6      47.1       93     45.5      0.00      0.09      68.2     0.29      1016.4     0.0       N     0   0.0     SSE   149   0.94    409      -13.7
   11/11/2017 04:00      47.4      46.9       93     45.3      0.00      0.09      68.3     0.29      1016.3     0.0       N     0   0.0     SSE   148   0.93    406      -14.0
   11/11/2017 03:50      47.8      47.1       93     45.5      0.00      0.09      68.3     0.29      1016.3     0.0     SSE   149   0.5     SSE   148   0.93    404      -14.5
   11/11/2017 03:40      48.0      47.3       93     45.6      0.00      0.09      68.3     0.29      1016.2     0.0       N     0   0.0     SSE   149   0.93    401      -14.3
   11/11/2017 03:30      48.1      47.6       93     46.0      0.00      0.09      68.3     0.29      1016.1     0.0     SSE   149   0.6     SSE   149   0.93    398      -14.9
   11/11/2017 03:20      48.1      47.4       93     45.8      0.00      0.09      68.3     0.29      1016.0     0.0     SSE   149   0.8     SSE   149   0.93    396      -14.9
   11/11/2017 03:10      47.9      47.3       93     45.5      0.00      0.09      68.4     0.29      1016.0     0.2     SSE   149   0.9     SSE   149   0.93    393      -15.2
   11/11/2017 03:00      48.7      47.6       93     45.9      0.00      0.09      68.4     0.29      1016.2     0.3     SSE   149   1.1     SSE   148   0.93    390      -15.2
   11/11/2017 02:50      48.6      47.8       93     46.1      0.00      0.09      68.4     0.29      1016.4     0.2     SSE   148   1.1     SSE   148   0.93    387      -15.1
   11/11/2017 02:40      48.6      47.8       93     46.1      0.00      0.09      68.4     0.29      1016.3     0.3     SSE   149   0.8     SSE   149   0.93    383      -15.6
   11/11/2017 02:30      48.6      47.8       93     46.2      0.00      0.09      68.5     0.29      1016.3     0.3     SSE   149   0.8     SSE   149   0.93    380      -15.7
   11/11/2017 02:20      48.6      47.8       92     45.9      0.00      0.09      68.4     0.29      1016.3     0.2     SSE   148   0.9     SSE   148   0.93    375      -16.4
   11/11/2017 02:10      49.0      48.3       92     46.4      0.00      0.09      68.5     0.29      1016.3     0.2     SSE   148   0.8     SSE   148   0.94    372      -16.8
   11/11/2017 02:00      48.9      48.3       92     46.5      0.00      0.09      68.5     0.29      1016.4     0.1     SSE   149   0.8     SSE   148   0.94    368      -16.8
   11/11/2017 01:50      49.1      48.5       92     46.6      0.00      0.09      68.5     0.29      1016.5     0.0     SSE   149   0.5     SSE   148   0.94    364      -17.3
   11/11/2017 01:40      49.4      48.7       92     46.8      0.00      0.09      68.5     0.29      1016.5     0.0     SSE   148   0.6     SSE   148   0.94    358      -17.3
   11/11/2017 01:30      49.5      49.0       92     47.0      0.00      0.09      68.6     0.29      1016.6     0.0       N     0   0.0     SSE   148   0.94    350      -18.0
   11/11/2017 01:20      49.5      49.2       92     47.1      0.00      0.09      68.6     0.29      1016.7     0.2     SSE   148   1.3     SSE   148   0.94    345      -18.1
   11/11/2017 01:10      49.9      49.2       92     47.0      0.00      0.09      68.6     0.29      1016.7     0.6     SSE   148   1.6     SSE   148   0.93    338      -18.7
   11/11/2017 01:00      50.0      49.4       92     47.4      0.00      0.09      68.6     0.29      1016.7     0.2     SSE   148   0.8     SSE   148   0.93    333      -19.2
   11/11/2017 00:50      50.0      49.2       92     47.2      0.00      0.09      68.7     0.29      1016.5     0.2     SSE   148   0.9     SSE   148   0.94    328      -20.3
   11/11/2017 00:40      50.1      49.3       91     47.1      0.00      0.09      68.7     0.29      1016.5     0.1     SSE   148   0.7     SSE   148   0.94    324      -20.5
   11/11/2017 00:30      50.3      49.9       91     47.6      0.00      0.09      68.7     0.29      1016.5     0.0     SSE   148   0.5     SSE   148   0.94    320      -19.0
   11/11/2017 00:20      50.1      49.8       91     47.4      0.00      0.09      68.7     0.29      1016.5     0.0     SSE   148   0.5     SSE   148   0.94    317      -19.6
   11/11/2017 00:10      50.3      49.7       91     47.4      0.00      0.09      68.7     0.29      1016.5     0.0     SSE   148   0.7     SSE   148   0.94    314      -21.4
   11/11/2017 00:00      50.5      49.9       91     47.4      0.00      0.09      68.7     0.29      1016.5     0.1     SSE   148   0.7     SSE   148   0.93    311      -22.8
   11/10/2017 23:50      50.5      50.1       91     47.6      0.00      0.09      68.7     0.29      1016.5     0.3     SSE   148   0.9     SSE   147   0.94    308      -23.3
   11/10/2017 23:40      51.0      50.1       90     47.5      0.00      0.09      68.8     0.29      1016.5     0.4     SSE   147   1.3     SSE   147   0.94    305      -24.9
   11/10/2017 23:30      51.2      50.6       90     48.1      0.00      0.09      68.8     0.29      1016.6     0.6      SE   146   1.2     SSE   147   0.94    303      -25.3
   11/10/2017 23:20      51.2      50.4       90     47.8      0.00      0.09      68.8     0.29      1016.6     0.3      SE   145   1.0      SE   145   0.94    300      -26.3
   11/10/2017 23:10      51.3      50.8       90     48.2      0.00      0.09      68.8     0.29      1016.5     0.0      SE   145   0.8      SE   145   0.94    297      -27.1
   11/10/2017 23:00      51.3      50.7       90     48.0      0.00      0.09      68.8     0.29      1016.6     0.3      SE   145   0.8      SE   145   0.94    294      -28.5
   11/10/2017 22:50      51.5      50.7       89     48.0      0.00      0.09      68.8     0.29      1016.6     0.4      SE   145   1.2      SE   145   0.94    292      -29.6
   11/10/2017 22:40      51.6      51.2       89     48.3      0.00      0.09      68.8     0.29      1016.6     0.3      SE   145   1.3      SE   145   0.94    290      -30.6
   11/10/2017 22:30      51.8      51.1       89     48.2      0.00      0.09      68.8     0.29      1016.6     0.1      SE   145   0.6      SE   145   0.94    288      -32.7
   11/10/2017 22:20      52.2      51.4       88     48.4      0.00      0.09      68.8     0.29      1016.6     0.2      SE   145   1.1      SE   145   0.94    286      -34.7
   11/10/2017 22:10      52.5      52.0       88     48.8      0.00      0.09      68.8     0.29      1016.6     0.5      SE   145   1.2      SE   145   0.94    284      -36.0
   11/10/2017 22:00      52.9      52.0       87     48.6      0.00      0.09      68.8     0.29      1016.6     0.4      SE   145   1.1      SE   145   0.94    281      -39.3
   11/10/2017 21:50      53.0      52.6       87     49.2      0.00      0.09      68.8     0.29      1016.4     0.3      SE   145   0.8      SE   145   0.94    278      -41.0
   11/10/2017 21:40      52.9      52.3       87     48.9      0.00      0.09      68.9     0.29      1016.5     0.0      SE   145   0.2      SE   145   0.94    277      -45.0
   11/10/2017 21:30      53.0      52.3       85     48.3      0.00      0.09      68.8     0.29      1016.5     0.3      SE   145   1.4      SE   145   0.94    274      -49.7
   11/10/2017 21:20      53.3      52.7       85     48.5      0.00      0.09      68.8     0.29      1016.5     0.3      SE   146   1.0      SE   146   0.94    273      -50.1
   11/10/2017 21:10      54.1      53.0       85     48.9      0.00      0.09      68.8     0.29      1016.5     0.3     SSE   147   1.4      SE   146   0.93    273      -50.4
   11/10/2017 21:00      54.2      53.8       85     49.5      0.00      0.09      68.8     0.29      1016.5     0.3     SSE   150   1.0     SSE   150   0.93    272      -50.1
   11/10/2017 20:50      54.1      53.6       84     49.2      0.00      0.09      68.8     0.29      1016.4     0.0     SSE   150   0.3     SSE   150   0.94    271      -53.5
   11/10/2017 20:40      55.0      53.8       83     49.3      0.00      0.09      68.8     0.29      1016.4     0.0       N     0   0.0     SSE   150   0.94    271      -55.6
   11/10/2017 20:30      54.9      54.6       84     49.8      0.00      0.09      68.8     0.29      1016.3     0.0     SSE   150   0.5     SSE   150   0.94    269      -55.4
   11/10/2017 20:20      55.4      54.7       82     49.7      0.00      0.09      68.8     0.29      1016.3     0.0       N     0   0.0     SSE   150   0.94    269      -57.0
   11/10/2017 20:10      55.8      55.0       81     49.7      0.00      0.09      68.8     0.29      1016.3     0.0     SSE   150   0.7     SSE   150   0.94    268      -58.1
   11/10/2017 20:00      56.4      55.3       80     49.6      0.00      0.09      68.8     0.29      1016.3     0.2     SSE   150   0.8     SSE   150   0.94    268      -58.0
   11/10/2017 19:50      56.8      56.0       80     50.3      0.00      0.09      68.8     0.29      1016.3     0.6     SSE   154   1.1     SSE   167   0.94    268      -53.8
   11/10/2017 19:40      57.4      56.4       79     50.2      0.00      0.09      68.8     0.29      1016.2     0.7       S   183   1.5       S   180   0.94    268      -53.1
   11/10/2017 19:30      58.0      57.0       77     50.3      0.00      0.09      68.8     0.29      1016.1     0.2     SSW   194   0.8     SSW   194   0.94    268      -55.7
   11/10/2017 19:20      58.3      57.7       76     50.4      0.00      0.09      68.8     0.29      1016.0     0.9     SSW   197   1.7     SSW   195   0.94    267      -59.2
   11/10/2017 19:10      58.8      58.1       75     50.6      0.00      0.09      68.7     0.29      1016.0     0.4     SSW   198   1.0     SSW   199   0.94    267      -61.9
   11/10/2017 19:00      58.8      58.3       75     50.6      0.00      0.09      68.7     0.29      1016.0     1.3       S   190   3.0       S   185   0.94    267      -54.9
   11/10/2017 18:50      58.7      58.2       76     50.9      0.00      0.09      68.7     0.29      1015.9     1.9     SSW   194   3.0     SSW   197   0.94    267      -53.5
   11/10/2017 18:40      58.5      57.8       77     51.0      0.00      0.09      68.7     0.29      1015.8     1.3       S   176   2.2       S   190   0.94    267      -57.9
   11/10/2017 18:30      58.8      58.0       76     50.8      0.00      0.09      68.7     0.29      1015.9     0.7     SSE   168   1.6       S   174   0.94    267      -57.2
   11/10/2017 18:20      59.8      58.5       74     50.9      0.00      0.09      68.6     0.29      1015.8     1.0       S   176   1.6       S   180   0.94    267      -57.3
   11/10/2017 18:10      60.5      59.4       73     51.1      0.00      0.09      68.6     0.29      1015.7     0.7       S   179   1.3     SSE   163   0.94    267      -62.8
   11/10/2017 18:00      61.0      60.2       71     51.2      0.00      0.09      68.6     0.29      1015.7     1.3       S   178   2.8       S   175   0.94    266      -67.0
   11/10/2017 17:50      61.3      60.6       70     51.2      0.00      0.09      68.5     0.29      1015.6     2.1       S   189   3.5     SSW   196   0.94    266      -64.9
   11/10/2017 17:40      61.2      60.7       71     51.3      0.00      0.09      68.6     0.29      1015.5     2.3     SSW   202   3.8     SSW   213   0.94    266      -63.0
   11/10/2017 17:30      61.6      60.8       70     51.5      0.00      0.09      68.5     0.29      1015.3     1.2       S   182   2.5     SSW   198   0.94    266      -64.0
   11/10/2017 17:20      62.5      61.3       69     51.4      0.00      0.09      68.5     0.29      1015.2     2.6     SSW   199   6.1      SW   236   0.94    266      -66.2
   11/10/2017 17:10      62.5      62.1       67     51.3      0.00      0.09      68.5     0.29      1015.1     2.1      SW   235   4.9     WSW   249   0.94    266      -67.9
   11/10/2017 17:00      62.9      62.2       66     51.1      0.00      0.09      68.5     0.29      1015.1     2.3     SSW   208   4.6      SW   216   0.94    266      -63.2
   11/10/2017 16:50      63.3      62.6       65     51.1      0.00      0.09      68.4     0.29      1015.1     2.6     SSW   192   4.5       S   182   0.94    266      -50.0
   11/10/2017 16:40      64.0      63.0       64     51.0      0.00      0.09      68.4     0.29      1015.1     3.2       S   171   5.0      SE   141   0.94    266      -39.6
   11/10/2017 16:30      64.5      63.7       62     50.7      0.00      0.09      68.4     0.29      1015.0     2.8     SSE   162   5.1     SSE   147   0.94    266      -45.4
   11/10/2017 16:20      65.2      64.2       60     50.4      0.00      0.09      68.3     0.29      1014.9     2.7     SSE   169   4.8     SSE   160   0.94    266      -56.8
   11/10/2017 16:10      65.7      64.9       58     50.4      0.00      0.09      68.3     0.29      1014.9     3.4       S   175   5.3     SSW   193   0.94    266      -37.5
   11/10/2017 16:00      66.4      65.3       57     50.3      0.00      0.09      68.3     0.29      1014.9     4.3       S   170   7.3       S   175   0.94    265       -8.6
   11/10/2017 15:50      66.8      66.1       56     50.3      0.00      0.09      68.3     0.29      1014.8     4.1       S   180   7.2     SSE   165   0.94    265       28.1
   11/10/2017 15:40      67.4      66.5       55     50.2      0.00      0.09      68.3     0.29      1014.8     4.3       S   170   8.6       S   179   0.94    265       49.1
   11/10/2017 15:30      67.7      67.1       54     50.3      0.00      0.09      68.2     0.29      1014.7     5.0     SSE   166   8.6       S   189   0.94    265      111.1
   11/10/2017 15:20      67.7      67.1       55     50.5      0.00      0.09      68.2     0.29      1014.7     4.9      SE   141   8.5     ESE   121   0.94    265      143.3
   11/10/2017 15:10      68.6      67.4       54     50.5      0.00      0.09      68.2     0.29      1014.6     4.9     ESE   123   8.9     ESE   102   0.94    264      129.5
   11/10/2017 15:00      69.7      68.1       52     50.6      0.00      0.09      68.2     0.29      1014.5     5.5     SSE   148   8.7      SE   132   0.94    264      154.8
   11/10/2017 14:50      70.5      69.3       51     50.7      0.00      0.09      68.1     0.29      1014.4     3.4       S   179   6.3     SSE   149   0.94    264      120.9
   11/10/2017 14:40      71.7      69.8       50     50.9      0.00      0.09      68.1     0.29      1014.3     3.6      SE   133   6.0       S   181   0.94    264      167.2
   11/10/2017 14:30      72.0      71.3       48     50.9      0.00      0.09      68.1     0.29      1014.3     1.6      SE   135   5.4      SE   142   0.94    263      230.4
   11/10/2017 14:20      72.2      71.3       48     50.9      0.00      0.09      68.1     0.29      1014.3     1.9       E    85   4.1     ENE    66   0.94    263      266.6
   11/10/2017 14:10      72.3      71.7       48     51.0      0.00      0.09      68.0     0.29      1014.3     2.4      NE    45   3.9     NNW   342   0.94    264      262.3
   11/10/2017 14:00      72.4      71.4       47     50.9      0.00      0.09      68.1     0.29      1014.4     1.4      NE    49   4.0      NE    53   0.94    264      281.7
   11/10/2017 13:50      71.5      70.4       49     50.6      0.00      0.09      68.0     0.29      1014.6     1.9     NNE    28   5.1       N     4   0.94    264      315.6
   11/10/2017 13:40      71.3      70.0       49     50.3      0.00      0.09      68.0     0.29      1014.6     2.5     ENE    65   5.5       N   355   0.94    264      335.5
   11/10/2017 13:30      71.2      69.3       49     50.1      0.00      0.09      68.0     0.29      1014.6     1.7     ENE    77   4.4     ENE    63   0.94    263      303.8
   11/10/2017 13:20      70.2      69.4       49     50.0      0.00      0.09      68.0     0.29      1014.7     1.7      NE    50   4.3       E    91   0.94    264      244.4
   11/10/2017 13:10      69.7      68.5       51     49.8      0.00      0.09      68.0     0.29      1014.7     1.5       S   185   4.6     SSE   155   0.94    264      134.3
   11/10/2017 13:00      70.2      68.7       49     49.7      0.00      0.09      68.0     0.29      1014.8     3.3       S   172   5.8     ESE   116   0.94    264      307.0
   11/10/2017 12:50      70.1      68.5       50     50.0      0.00      0.09      67.9     0.29      1014.9     2.1       W   269   4.4       N     9   0.94    263      393.1
   11/10/2017 12:40      69.6      68.6       51     50.3      0.00      0.09      67.9     0.29      1015.0     2.2     NNE    33   4.4      NE    42   0.94    264      218.6
   11/10/2017 12:30      70.2      69.0       51     50.6      0.00      0.09      67.9     0.29      1015.1     1.9     NNE    13   4.6     ENE    61   0.94    264      216.1
   11/10/2017 12:20      69.9      68.1       52     50.5      0.00      0.09      67.9     0.29      1015.3     1.4      NE    36   4.4       E    97   0.94    263      355.4
   11/10/2017 12:10      69.0      68.0       52     50.3      0.00      0.09      67.9     0.29      1015.5     2.3      NE    55   5.3     NNE    32   0.94    263      364.3
   11/10/2017 12:00      68.8      67.2       53     50.1      0.00      0.09      67.9     0.29      1015.6     2.4     ENE    76   6.3      SE   143   0.94    264      368.7
   11/10/2017 11:50      69.1      67.5       52     50.0      0.00      0.09      67.9     0.29      1015.8     2.1     NNE    31   5.1       E    95   0.94    263      369.0
   11/10/2017 11:40      68.2      67.0       53     49.9      0.00      0.09      67.9     0.29      1016.1     2.5     ENE    77   6.2       E    99   0.94    264      372.4
   11/10/2017 11:30      67.7      66.9       54     50.1      0.00      0.09      68.0     0.29      1016.3     2.2      NE    36   4.9       N   352   0.94    264      373.3
   11/10/2017 11:20      67.1      66.1       55     49.9      0.00      0.09      67.9     0.29      1016.6     2.1       E    98   4.2      SE   129   0.94    264      370.2
   11/10/2017 11:10      67.1      66.4       55     50.1      0.00      0.09      68.0     0.29      1016.9     2.6     NNE    29   4.8       S   181   0.94    264      362.8
   11/10/2017 11:00      66.9      65.3       56     50.0      0.00      0.09      68.0     0.29      1016.9     1.3       N    10   3.5       N   350   0.94    263      397.1
   11/10/2017 10:50      65.6      64.8       57     49.7      0.00      0.09      68.0     0.29      1016.9     1.6     ENE    58   4.8     ESE   111   0.94    264      325.5
   11/10/2017 10:40      65.7      65.0       57     49.7      0.00      0.09      68.0     0.29      1017.1     1.6     ENE    71   3.5     NNE    20   0.94    264      302.2
   11/10/2017 10:30      66.3      65.2       57     49.9      0.00      0.09      68.0     0.29      1017.3     2.3      NE    55   4.5      NE    45   0.94    264      344.4
   11/10/2017 10:20      65.8      63.3       58     49.5      0.00      0.09      68.0     0.29      1017.3     0.6      NW   320   2.1       N   351   0.94    264      389.6
   11/10/2017 10:10      65.0      63.4       59     49.7      0.00      0.09      68.1     0.29      1017.4     2.1     ENE    63   4.6       N     6   0.94    266      161.3
   11/10/2017 10:00      64.4      63.0       62     50.2      0.00      0.09      68.1     0.29      1017.5     1.3       E    90   3.7     ENE    69   0.94    266      369.6
   11/10/2017 09:50      63.1      62.1       67     51.2      0.00      0.09      68.1     0.29      1017.7     2.5       N     7   6.3     NNE    13   0.94    265      336.1
   11/10/2017 09:40      62.2      61.5       68     51.4      0.00      0.09      68.1     0.29      1017.9     1.9       N   355   4.3       N     3   0.94    266      325.9
   11/10/2017 09:30      61.5      59.1       73     51.7      0.00      0.09      68.2     0.29      1017.9     1.3       N   350   3.1       N     6   0.94    267      364.2
   11/10/2017 09:20      59.3      58.1       77     51.3      0.00      0.09      68.2     0.29      1018.0     1.0     NNW   341   2.2     NNW   349   0.94    274      192.3
   11/10/2017 09:10      58.1      57.7       77     50.9      0.00      0.09      68.2     0.29      1018.1     1.2     NNW   327   3.3     NNW   328   0.94    298      133.0
   11/10/2017 09:00      57.9      57.2       79     51.0      0.00      0.09      68.2     0.29      1018.0     0.2      NW   312   1.2     NNW   335   0.94    333       92.4
   11/10/2017 08:50      57.4      56.4       81     51.1      0.00      0.09      68.1     0.29      1017.9     0.0       N     7   1.0     NNE    18   0.94    360       88.5
   11/10/2017 08:40      56.6      55.8       83     51.2      0.00      0.09      68.2     0.29      1017.8     0.4     NNE    31   1.5     NNE    12   0.94    378       80.0
   11/10/2017 08:30      56.0      55.4       87     51.7      0.00      0.09      68.3     0.29      1017.9     0.7       N     6   1.6      NE    44   0.94    394       59.1
   11/10/2017 08:20      55.5      55.1       89     52.0      0.00      0.09      68.3     0.29      1017.9     0.7     WNW   292   1.9       W   273   0.94    405       60.6
   11/10/2017 08:10      55.4      54.5       90     52.1      0.00      0.09      68.3     0.29      1017.8     0.0       N     0   0.0     NNW   332   0.94    414       55.5
   11/10/2017 08:00      54.8      54.2       91     51.8      0.00      0.09      68.3     0.29      1017.8     0.2     NNW   332   1.1     NNW   332   0.94    419       51.5
   11/10/2017 07:50      54.5      53.9       91     51.5      0.00      0.09      68.4     0.29      1017.7     0.0     WNW   286   0.7     SSE   168   0.94    424       34.3
   11/10/2017 07:40      54.3      53.9       92     51.8      0.00      0.09      68.4     0.29      1017.5     0.1     SSE   168   0.7     SSE   168   0.94    428       27.1
   11/10/2017 07:30      54.2      53.5       93     51.8      0.00      0.09      68.4     0.29      1017.5     0.4       S   170   2.0       S   175   0.94    431       41.3
   11/10/2017 07:20      53.7      52.9       93     51.3      0.00      0.09      68.5     0.29      1017.3     0.5       S   188   1.1       S   186   0.94    433       33.4
   11/10/2017 07:10      53.0      52.4       93     50.8      0.00      0.09      68.5     0.29      1017.2     0.0       S   186   0.8       S   186   0.94    435       22.6
   11/10/2017 07:00      52.5      51.9       93     50.3      0.00      0.09      68.5     0.29      1017.1     0.3       S   186   1.2       S   186   0.94    436       14.5
   11/10/2017 06:50      52.1      51.6       93     49.9      0.00      0.09      68.5     0.29      1017.0     0.0       S   186   0.5       S   186   0.94    438        8.5
   11/10/2017 06:40      51.8      51.1       94     49.6      0.00      0.09      68.6     0.29      1017.0     0.6       S   174   1.8       S   186   0.94    438        3.2
   11/10/2017 06:30      51.3      50.9       94     49.4      0.00      0.09      68.6     0.29      1017.0     0.2      SE   144   1.1      SE   144   0.94    439        0.6
   11/10/2017 06:20      51.1      50.6       94     49.2      0.00      0.09      68.6     0.29      1017.0     0.6     NNE    31   1.8      SE   144   0.94    440       -0.7
   11/10/2017 06:10      51.0      50.1       94     48.9      0.00      0.09      68.6     0.29      1016.8     1.1     ENE    60   2.4     ESE   108   0.94    441       -0.9
   11/10/2017 06:00      50.4      49.7       94     48.4      0.00      0.09      68.7     0.29      1016.8     0.3     ESE   110   1.5     ENE    61   0.94    442       -0.9
   11/10/2017 05:50      50.0      49.2       94     48.0      0.00      0.09      68.7     0.29      1016.7     0.3      SE   137   1.5     ENE    61   0.94    443       -0.9
   11/10/2017 05:40      49.5      48.9       94     47.5      0.00      0.09      68.7     0.29      1016.7     0.2     SSE   151   0.8     SSE   151   0.94    444       -0.7
   11/10/2017 05:30      49.2      48.9       94     47.4      0.00      0.09      68.7     0.29      1016.6     0.0       N     0   0.0     SSE   150   0.94    444       -2.5
   11/10/2017 05:20      49.3      48.7       94     47.3      0.00      0.09      68.8     0.29      1016.6     0.0       N     0   0.0     SSE   151   0.94    444       -6.4
   11/10/2017 05:10      49.4      48.7       94     47.5      0.00      0.09      68.8     0.29      1016.6     0.0     SSE   151   0.6     SSE   151   0.94    443      -11.1
   11/10/2017 05:00      49.0      48.6       94     47.1      0.00      0.09      68.8     0.29      1016.5     0.0     SSE   151   0.1     SSE   151   0.94    440      -12.6
   11/10/2017 04:50      49.0      48.1       94     46.9      0.00      0.09      68.8     0.29      1016.5     0.4     SSE   151   1.2     SSE   150   0.94    437      -13.3
   11/10/2017 04:40      48.9      47.8       94     46.7      0.00      0.09      68.8     0.29      1016.4     0.7     SSE   149   1.7     SSE   150   0.94    434      -13.8
   11/10/2017 04:30      48.6      48.2       94     46.6      0.00      0.09      68.9     0.29      1016.4     0.1       S   181   0.7       S   181   0.94    430      -14.0
   11/10/2017 04:20      48.9      48.2       94     46.8      0.00      0.09      68.9     0.29      1016.4     0.2       S   181   0.7       S   181   0.94    427      -13.8
   11/10/2017 04:10      49.1      48.6       94     47.0      0.00      0.09      68.9     0.29      1016.4     0.0       S   181   0.2       S   181   0.94    424      -14.1
   11/10/2017 04:00      49.2      48.6       93     47.0      0.00      0.09      68.9     0.29      1016.4     0.0       S   181   0.5       S   181   0.94    420      -14.4
   11/10/2017 03:50      50.0      48.8       93     47.6      0.00      0.09      69.0     0.29      1016.3     0.2       S   181   1.2       S   182   0.94    417      -14.4
   11/10/2017 03:40      50.1      49.4       93     47.9      0.00      0.09      69.0     0.29      1016.2     0.4       S   181   1.6       S   181   0.94    414      -14.7
   11/10/2017 03:30      50.0      49.6       94     48.0      0.00      0.09      69.0     0.29      1016.3     0.1       S   181   0.9       S   181   0.94    410      -14.5
   11/10/2017 03:20      50.5      49.6       93     48.0      0.00      0.09      69.0     0.29      1016.3     0.2       S   181   0.8       S   181   0.94    406      -14.9
   11/10/2017 03:10      50.6      50.2       93     48.6      0.00      0.09      69.1     0.29      1016.3     0.2       S   181   0.7       S   181   0.94    403      -14.6
   11/10/2017 03:00      50.6      50.0       93     48.4      0.00      0.09      69.1     0.29      1016.4     0.1       S   181   1.0       S   181   0.94    399      -15.4
   11/10/2017 02:50      50.8      50.2       93     48.5      0.00      0.09      69.1     0.29      1016.4     0.1       S   181   0.6       S   181   0.94    396      -15.6
   11/10/2017 02:40      50.7      50.0       93     48.3      0.00      0.09      69.1     0.29      1016.5     0.2     SSE   163   1.1     SSE   150   0.94    393      -16.3
   11/10/2017 02:30      51.4      50.5       93     48.8      0.00      0.09      69.1     0.29      1016.5     0.1       S   177   1.1     SSE   150   0.94    388      -15.9
   11/10/2017 02:20      51.3      50.6       93     49.0      0.00      0.09      69.2     0.29      1016.6     0.3      SW   229   1.9      SW   235   0.94    383      -16.0
   11/10/2017 02:10      51.9      50.6       93     49.1      0.00      0.09      69.2     0.29      1016.6     0.3     SSE   153   1.2     SSE   153   0.94    379      -16.6
   11/10/2017 02:00      51.9      51.1       93     49.5      0.00      0.09      69.2     0.29      1016.7     0.3     SSE   153   1.1     SSE   153   0.94    374      -16.3
   11/10/2017 01:50      52.1      51.2       93     49.5      0.00      0.09      69.2     0.29      1016.6     0.2     SSE   153   0.7     SSE   153   0.94    368      -16.1
   11/10/2017 01:40      52.1      51.7       93     49.8      0.00      0.09      69.2     0.29      1016.7     0.1     SSE   153   0.8     SSE   153   0.94    361      -16.5
   11/10/2017 01:30      52.4      51.9       93     50.0      0.00      0.09      69.2     0.29      1016.8     0.0       N     0   0.0     SSE   153   0.94    355      -17.5
   11/10/2017 01:20      52.5      51.7       92     49.8      0.00      0.09      69.3     0.29      1016.9     0.2     SSE   153   0.7     SSE   153   0.94    350      -18.1
   11/10/2017 01:10      52.4      51.9       92     50.0      0.00      0.09      69.2     0.29      1016.9     0.0       N     0   0.0     SSE   153   0.94    341      -18.1
   11/10/2017 01:00      52.7      51.9       92     50.0      0.00      0.09      69.3     0.29      1016.9     0.2     SSE   153   1.1     SSE   153   0.94    337      -19.2
   11/10/2017 00:50      53.1      52.3       92     50.3      0.00      0.09      69.3     0.29      1017.0     0.0       N     0   0.0     SSE   153   0.94    333      -19.8
   11/10/2017 00:40      53.2      52.7       92     50.6      0.00      0.09      69.3     0.29      1017.0     0.1     SSE   153   0.8     SSE   153   0.94    328      -20.6
   11/10/2017 00:30      53.5      52.7       92     50.6      0.00      0.09      69.3     0.29      1017.0     0.3     SSE   153   0.8     SSE   153   0.94    325      -21.6
   11/10/2017 00:20      53.6      53.0       92     50.8      0.00      0.09      69.3     0.29      1017.0     0.0     SSE   153   0.5     SSE   153   0.94    321      -23.0
   11/10/2017 00:10      53.5      53.0       91     50.7      0.00      0.09      69.3     0.29      1017.0     0.0       N     0   0.0     SSE   153   0.94    318      -25.0
   11/10/2017 00:00      53.6      53.2       91     50.7      0.00      0.09      69.3     0.29      1017.0     0.0       N     0   0.0     SSE   153   0.94    314      -27.5
   11/09/2017 23:50      54.0      53.1       90     50.7      0.00      0.09      69.4     0.29      1017.1     0.0       N     0   0.0     SSE   153   0.94    309      -30.2
   11/09/2017 23:40      53.8      53.5       91     51.0      0.00      0.09      69.4     0.29      1017.1     0.1     SSE   153   0.9     SSE   153   0.94    305      -33.5
   11/09/2017 23:30      54.2      53.5       90     51.1      0.00      0.09      69.4     0.29      1017.2     0.4     SSE   155   1.8     SSE   168   0.94    300      -35.0
   11/09/2017 23:20      54.0      53.6       90     50.9      0.00      0.09      69.4     0.29      1017.2     0.3       S   169   1.5     SSE   148   0.94    296      -36.9
   11/09/2017 23:10      54.2      53.6       90     51.0      0.00      0.09      69.4     0.29      1017.2     0.6     SSE   165   1.7       S   176   0.94    292      -39.5
   11/09/2017 23:00      54.7      53.7       89     50.8      0.00      0.09      69.4     0.29      1017.2     0.5       S   172   1.9       S   179   0.94    288      -43.2
   11/09/2017 22:50      55.0      54.4       89     51.3      0.00      0.09      69.4     0.29      1017.2     0.6       S   181   1.2       S   177   0.94    285      -44.4
   11/09/2017 22:40      55.4      54.7       88     51.6      0.00      0.09      69.4     0.29      1017.2     0.2       S   181   1.0       S   181   0.94    282      -47.6
   11/09/2017 22:30      56.1      55.1       87     51.8      0.00      0.09      69.4     0.29      1017.2     0.0       S   181   0.8       S   181   0.94    279      -51.2
   11/09/2017 22:20      57.0      55.9       86     52.2      0.00      0.09      69.4     0.29      1017.3     0.3       S   181   1.1       S   182   0.94    276      -52.1
   11/09/2017 22:10      57.6      56.7       85     52.8      0.00      0.09      69.5     0.29      1017.4     0.2       S   181   0.8       S   181   0.94    273      -53.8
   11/09/2017 22:00      58.4      57.4       84     52.8      0.00      0.09      69.4     0.29      1017.4     0.3       S   180   1.3       S   181   0.94    271      -56.3
   11/09/2017 21:50      59.3      58.3       82     53.1      0.00      0.09      69.4     0.29      1017.4     1.3       S   180   2.0       S   182   0.94    269      -57.6
   11/09/2017 21:40      59.8      59.1       80     53.4      0.00      0.09      69.4     0.29      1017.4     1.3     SSW   200   3.1      SW   219   0.94    268      -59.4
   11/09/2017 21:30      59.9      59.5       80     53.5      0.00      0.09      69.4     0.29      1017.4     1.9      SW   224   3.3     WSW   241   0.94    268      -60.1
   11/09/2017 21:20      59.9      59.3       81     53.5      0.00      0.09      69.4     0.29      1017.4     2.4      SW   228   4.6     WSW   253   0.94    268      -59.9
   11/09/2017 21:10      59.6      58.7       81     53.4      0.00      0.09      69.4     0.29      1017.4     2.0      SW   224   4.1       W   272   0.94    268      -58.1
   11/09/2017 21:00      59.0      58.4       81     52.9      0.00      0.09      69.4     0.29      1017.4     1.1     WSW   240   3.4      SW   228   0.94    268      -56.8
   11/09/2017 20:50      58.6      58.1       81     52.6      0.00      0.09      69.4     0.29      1017.4     1.0      SW   228   2.0      SW   232   0.94    268      -56.4
   11/09/2017 20:40      58.7      57.9       80     52.2      0.00      0.09      69.4     0.29      1017.4     0.4       S   187   1.2       S   186   0.94    268      -57.0
   11/09/2017 20:30      59.1      58.3       79     52.2      0.00      0.09      69.4     0.29      1017.4     0.2     SSW   192   0.8       N   354   0.94    268      -58.1
   11/09/2017 20:20      59.1      58.7       79     52.5      0.00      0.09      69.4     0.29      1017.4     0.4      SW   222   2.0     WSW   238   0.94    268      -59.1
   11/09/2017 20:10      59.2      58.6       79     52.4      0.00      0.09      69.4     0.29      1017.4     0.7       S   191   1.6       S   176   0.94    268      -58.9
   11/09/2017 20:00      59.3      58.7       78     52.3      0.00      0.09      69.4     0.29      1017.4     0.6       S   183   1.9       S   189   0.94    267      -59.8
   11/09/2017 19:50      59.8      59.1       77     52.3      0.00      0.09      69.4     0.29      1017.3     0.6      SW   214   2.3     WSW   237   0.94    267      -60.5
   11/09/2017 19:40      60.2      59.5       76     52.4      0.00      0.09      69.3     0.29      1017.3     1.0      SW   216   2.3      SW   233   0.94    267      -62.1
   11/09/2017 19:30      60.3      59.9       76     52.5      0.00      0.09      69.3     0.29      1017.3     2.0     WSW   241   3.3     WSW   237   0.94    267      -63.3
   11/09/2017 19:20      60.3      59.8       76     52.4      0.00      0.09      69.3     0.29      1017.3     1.7      SW   225   4.0      SW   225   0.94    267      -63.6
   11/09/2017 19:10      60.5      59.9       75     52.3      0.00      0.09      69.3     0.29      1017.2     1.7      SW   218   4.9      SW   236   0.94    266      -64.3
   11/09/2017 19:00      60.8      60.2       75     52.4      0.00      0.09      69.3     0.29      1017.1     2.1      SW   222   5.0     WSW   246   0.94    266      -64.6
   11/09/2017 18:50      61.2      60.4       74     52.4      0.00      0.09      69.3     0.29      1017.1     1.5     SSW   200   2.8     SSW   200   0.94    266      -65.0
   11/09/2017 18:40      61.6      60.9       72     52.3      0.00      0.09      69.2     0.29      1017.0     3.0      SW   222   6.4     WSW   251   0.94    266      -65.9
   11/09/2017 18:30      61.8      61.3       72     52.2      0.00      0.09      69.2     0.29      1017.0     4.0     WSW   238   6.3      SW   225   0.94    266      -66.1
   11/09/2017 18:20      62.0      61.4       71     52.1      0.00      0.09      69.2     0.29      1017.0     4.0      SW   234   6.1      SW   222   0.94    266      -66.6
   11/09/2017 18:10      62.2      61.8       70     52.1      0.00      0.09      69.2     0.29      1017.0     3.7      SW   229   5.8     WSW   244   0.94    266      -67.2
   11/09/2017 18:00      62.6      62.0       69     52.1      0.00      0.09      69.1     0.29      1017.0     3.5     WSW   239   6.4     SSW   212   0.94    266      -67.6
   11/09/2017 17:50      62.8      62.2       69     52.0      0.00      0.09      69.1     0.29      1016.8     3.9     WSW   238   7.2     WSW   240   0.94    266      -67.9
   11/09/2017 17:40      63.2      62.5       68     51.9      0.00      0.09      69.1     0.29      1016.7     2.9     WSW   242   9.0      SW   228   0.94    266      -68.8
   11/09/2017 17:30      63.8      63.0       66     51.9      0.00      0.09      69.1     0.29      1016.7     2.3       W   260   3.7      NW   312   0.94    266      -69.9
   11/09/2017 17:20      64.0      63.3       66     51.8      0.00      0.09      69.0     0.29      1016.6     3.3       W   259   6.5      SW   231   0.94    266      -70.4
   11/09/2017 17:10      64.3      63.5       64     51.6      0.00      0.09      69.0     0.29      1016.5     3.2     WSW   242   6.1      SW   219   0.94    266      -70.7
   11/09/2017 17:00      65.2      64.1       63     51.7      0.00      0.09      69.0     0.29      1016.4     4.2     WSW   240   7.1     WSW   250   0.94    266      -69.7
   11/09/2017 16:50      65.7      64.8       61     51.6      0.00      0.09      69.0     0.29      1016.4     4.4     WSW   246   6.3     WSW   241   0.94    266      -67.3
   11/09/2017 16:40      66.2      65.4       59     51.2      0.00      0.09      68.9     0.29      1016.3     4.8     WSW   241   6.9     SSW   206   0.94    265      -65.2
   11/09/2017 16:30      66.6      65.8       58     51.0      0.00      0.09      68.9     0.29      1016.3     3.2      SW   232   6.4     WSW   243   0.94    265      -62.8
   11/09/2017 16:20      67.5      66.3       57     50.9      0.00      0.09      68.9     0.29      1016.3     3.9      SW   222   6.4     SSE   161   0.94    264      -59.1
   11/09/2017 16:10      68.1      67.1       55     50.8      0.00      0.09      68.9     0.29      1016.4     5.2      SW   236   8.7      SW   223   0.94    264      -14.2
   11/09/2017 16:00      69.3      67.7       53     50.7      0.00      0.09      68.8     0.29      1016.4     4.6      SW   227   8.0     WSW   253   0.94    264       -0.4
   11/09/2017 15:50      69.3      68.9       52     50.9      0.00      0.09      68.8     0.29      1016.5     3.9     WSW   243   6.4       W   263   0.94    264       32.7
   11/09/2017 15:40      70.2      69.0       51     50.8      0.00      0.09      68.8     0.29      1016.5     4.6     WSW   241   9.2     WSW   255   0.94    264       50.8
   11/09/2017 15:30      70.8      69.9       50     50.9      0.00      0.09      68.7     0.29      1016.4     5.2      SW   234   9.0      SW   234   0.94    264       96.9
   11/09/2017 15:20      71.4      70.3       50     51.0      0.00      0.09      68.7     0.29      1016.4     4.3     WSW   246   8.5      SW   229   0.94    264      143.2
   11/09/2017 15:10      71.4      70.5       49     51.0      0.00      0.09      68.7     0.29      1016.3     5.4     WSW   248   9.9     WSW   242   0.94    264      140.4
   11/09/2017 15:00      71.7      70.9       48     50.8      0.00      0.09      68.7     0.29      1016.3     4.7     WSW   251   8.1      SW   233   0.94    264      151.6
   11/09/2017 14:50      72.7      71.2       47     50.8      0.00      0.09      68.7     0.29      1016.3     4.8      SW   226   7.8     WSW   241   0.94    263      174.7
   11/09/2017 14:40      73.1      71.9       46     50.7      0.00      0.09      68.6     0.29      1016.3     2.4      SW   217   6.6      SW   234   0.94    263      191.1
   11/09/2017 14:30      72.3      71.7       49     51.8      0.00      0.09      68.6     0.29      1016.3     3.2     SSW   203   7.3     SSW   201   0.94    263      231.9
   11/09/2017 14:20      71.9      70.6       51     52.4      0.00      0.09      68.6     0.29      1016.3     2.2      SE   142   5.5      SE   129   0.94    263      276.0
   11/09/2017 14:10      72.3      70.5       52     52.6      0.00      0.09      68.5     0.29      1016.4     2.2     ESE   113   6.1      SE   140   0.94    264       82.7
   11/09/2017 14:00      72.0      70.8       51     52.6      0.00      0.09      68.5     0.29      1016.5     2.5     SSE   160   5.8     SSE   156   0.94    263      318.8
   11/09/2017 13:50      71.3      70.0       52     52.3      0.00      0.09      68.5     0.29      1016.5     4.0       E    95   7.4     ENE    77   0.94    263      343.1
   11/09/2017 13:40      72.3      70.3       49     51.3      0.00      0.09      68.5     0.29      1016.5     3.7     ESE   102   8.3      SE   129   0.94    263      338.0
   11/09/2017 13:30      73.0      71.9       43     48.4      0.00      0.09      68.5     0.29      1016.5     2.4     NNE    19   5.4      NE    47   0.94    263      254.9
   11/09/2017 13:20      73.6      72.2       41     48.0      0.00      0.09      68.5     0.29      1016.6     2.9     WNW   283   6.4       W   260   0.94    263      260.1
   11/09/2017 13:10      73.3      72.5       43     48.9      0.00      0.09      68.4     0.29      1016.7     1.8     NNE    17   3.6      NE    35   0.94    263      332.2
   11/09/2017 13:00      72.9      71.4       44     48.7      0.00      0.09      68.4     0.29      1016.8     2.0       N     5   4.7     NNW   335   0.94    263      335.8
   11/09/2017 12:50      71.8      70.9       44     48.5      0.00      0.09      68.4     0.29      1017.0     3.2       W   264   5.9     WSW   248   0.94    263      347.4
   11/09/2017 12:40      71.5      70.8       44     48.5      0.00      0.09      68.4     0.29      1017.0     3.2       W   266   5.9       W   264   0.94    263      349.2
   11/09/2017 12:30      72.2      70.8       44     48.4      0.00      0.09      68.4     0.29      1017.1     2.2      SW   220   5.1     SSW   204   0.94    263      354.4
   11/09/2017 12:20      72.5      71.7       44     48.6      0.00      0.09      68.4     0.29      1017.2     1.7       N   350   3.9      NW   319   0.94    263      358.9
   11/09/2017 12:10      72.5      70.9       44     48.6      0.00      0.09      68.4     0.29      1017.3     1.4      NW   312   5.1     NNW   335   0.94    263      365.7
   11/09/2017 12:00      71.3      69.6       47     48.8      0.00      0.09      68.4     0.29      1017.6     1.7     NNW   340   4.5     WSW   243   0.94    263      371.3
   11/09/2017 11:50      70.1      69.5       47     48.9      0.00      0.09      68.4     0.29      1017.8     2.3     NNW   339   4.8     WNW   297   0.94    263      375.7
   11/09/2017 11:40      70.0      69.0       48     49.0      0.00      0.09      68.4     0.29      1018.0     2.8      NW   317   5.8       N     0   0.94    263      380.1
   11/09/2017 11:30      69.2      68.1       49     48.8      0.00      0.09      68.5     0.29      1018.2     2.9     WNW   282   6.8     WSW   250   0.94    263      374.9
   11/09/2017 11:20      69.4      68.2       49     49.0      0.00      0.09      68.5     0.29      1018.4     2.6     WNW   284   4.4     WSW   239   0.94    263      373.7
   11/09/2017 11:10      69.3      67.7       50     48.9      0.00      0.09      68.5     0.29      1018.6     1.1     SSW   210   3.7      NW   324   0.94    263      380.8
   11/09/2017 11:00      67.7      66.8       53     49.4      0.00      0.09      68.5     0.29      1018.8     2.2     WSW   246   5.6     WSW   248   0.94    263      381.1
   11/09/2017 10:50      67.6      66.5       54     49.9      0.00      0.09      68.5     0.29      1018.9     2.6       W   278   5.0     NNW   332   0.94    263      309.3
   11/09/2017 10:40      67.5      66.3       55     50.1      0.00      0.09      68.5     0.29      1019.1     2.5       N   351   4.8     NNE    23   0.94    263      471.2
   11/09/2017 10:30      67.3      66.3       56     50.2      0.00      0.09      68.6     0.29      1019.1     1.8       N     6   4.9      NW   316   0.94    265      236.4
   11/09/2017 10:20      67.3      66.8       55     50.3      0.00      0.09      68.6     0.29      1019.1     1.9     NNE    17   4.8       N     0   0.94    264      306.9
   11/09/2017 10:10      67.4      66.6       55     50.3      0.00      0.09      68.6     0.29      1019.2     1.9     ENE    57   3.3     ESE   105   0.94    264      462.5
   11/09/2017 10:00      67.4      63.6       60     51.2      0.00      0.09      68.6     0.29      1019.3     0.4      NE    44   2.3       E    97   0.94    264      404.4
   11/09/2017 09:50      63.7      63.2       63     50.8      0.00      0.09      68.6     0.29      1019.4     0.7     SSW   212   3.1      SW   226   0.94    266       95.2
   11/09/2017 09:40      63.5      62.9       64     50.9      0.00      0.09      68.6     0.29      1019.4     0.8       W   266   2.3     WSW   248   0.94    266       60.8
   11/09/2017 09:30      64.9      63.0       64     51.0      0.00      0.09      68.7     0.29      1019.4     1.7      SW   230   3.1       W   263   0.94    266       48.3
   11/09/2017 09:20      64.8      64.1       62     51.3      0.00      0.09      68.7     0.29      1019.4     1.1       W   262   3.0     WSW   244   0.94    265      170.4
   11/09/2017 09:10      64.4      63.2       66     52.3      0.00      0.09      68.8     0.29      1019.3     1.2       W   264   4.4     WSW   256   0.94    265      217.4
   11/09/2017 09:00      63.2      62.3       70     52.5      0.00      0.09      68.8     0.29      1019.3     2.4     WSW   257   4.2       W   272   0.94    266      252.0
   11/09/2017 08:50      63.1      62.2       71     52.9      0.00      0.09      68.8     0.29      1019.3     1.9      NW   305   3.5      NW   309   0.94    266      225.9
   11/09/2017 08:40      63.2      62.3       71     53.3      0.00      0.09      68.8     0.29      1019.3     1.1      NW   320   3.0     NNW   336   0.93    266      207.2
   11/09/2017 08:30      62.5      61.9       72     53.2      0.00      0.09      68.8     0.29      1019.4     0.6     NNE    24   1.9       N     5   0.93    266      186.3
   11/09/2017 08:20      63.0      61.3       74     53.7      0.00      0.09      68.8     0.29      1019.4     0.6     NNE    12   2.3     NNE    19   0.93    268      188.2
   11/09/2017 08:10      61.4      59.9       78     53.9      0.00      0.09      68.8     0.29      1019.5     0.0       N     0   0.0      SE   143   0.93    304      198.4
   11/09/2017 08:00      60.1      57.8       85     54.6      0.00      0.09      68.8     0.29      1019.4     0.0       N     0   0.0      SE   143   0.93    335      180.6
   11/09/2017 07:50      57.9      57.0       86     53.2      0.00      0.09      68.9     0.29      1019.3     0.0      SE   143   0.1      SE   143   0.93    354       92.7
   11/09/2017 07:40      58.3      57.4       89     54.7      0.00      0.09      68.9     0.29      1019.2     0.0      SE   143   0.5      SE   143   0.93    356       86.1
   11/09/2017 07:30      57.6      55.3       91     53.7      0.00      0.09      68.9     0.29      1019.1     0.0       N     0   0.0      SE   143   0.93    361       96.8
   11/09/2017 07:20      55.4      52.9       93     51.9      0.00      0.09      68.9     0.29      1019.0     0.0       N     0   0.0      SE   140   0.93    356        3.0
   11/09/2017 07:10      53.0      51.4       93     50.1      0.00      0.09      69.0     0.29      1018.9     0.0       N     0   0.0      SE   140   0.93    350        3.4
   11/09/2017 07:00      51.4      50.3       93     48.9      0.00      0.09      69.0     0.29      1018.8     0.0       N     0   0.0      SE   139   0.93    343       -0.1
   11/09/2017 06:50      50.6      50.1       93     48.2      0.00      0.09      69.0     0.29      1018.8     0.2      SE   139   1.4      SE   139   0.93    339       -5.9
   11/09/2017 06:40      50.8      50.1       92     48.3      0.00      0.09      68.9     0.29      1018.8     0.0      SE   139   0.5      SE   139   0.93    333      -11.4
   11/09/2017 06:30      51.4      50.5       92     48.7      0.00      0.09      69.0     0.29      1018.8     0.6     SSE   148   1.9      SE   141   0.93    329      -16.4
   11/09/2017 06:20      51.6      51.0       92     49.0      0.00      0.09      69.0     0.29      1018.8     0.4       S   174   1.4       S   175   0.93    325      -18.1
   11/09/2017 06:10      52.0      51.3       92     49.4      0.00      0.09      69.0     0.29      1018.7     0.4       S   180   1.6     SSW   206   0.93    320      -21.0
   11/09/2017 06:00      52.0      51.6       92     49.5      0.00      0.09      69.0     0.29      1018.6     0.0     SSE   162   0.5     SSE   162   0.93    315      -22.9
   11/09/2017 05:50      52.6      51.8       92     49.7      0.00      0.09      69.0     0.29      1018.5     0.1     SSE   162   0.8     SSE   162   0.93    312      -24.9
   11/09/2017 05:40      53.0      52.4       92     50.4      0.00      0.09      69.0     0.29      1018.5     0.0     SSE   162   0.6     SSE   161   0.93    309      -25.8
   11/09/2017 05:30      53.0      52.3       92     50.3      0.00      0.09      69.0     0.29      1018.4     0.3     SSE   162   0.9     SSE   161   0.93    305      -22.5
   11/09/2017 05:20      52.9      52.5       92     50.3      0.00      0.09      69.0     0.29      1018.4     0.3     SSE   154   1.6      SE   144   0.93    302      -29.9
   11/09/2017 05:10      53.5      52.5       91     50.3      0.00      0.09      69.1     0.29      1018.3     0.3     SSE   155   1.3      SE   143   0.93    297      -32.7
   11/09/2017 05:00      54.0      53.2       91     50.9      0.00      0.09      69.1     0.29      1018.2     0.0     NNW   346   0.4     NNW   345   0.93    293      -37.3
   11/09/2017 04:50      53.9      53.5       90     50.9      0.00      0.09      69.1     0.29      1018.1     0.0     NNW   345   0.6     NNW   345   0.93    290      -42.2
   11/09/2017 04:40      54.1      53.5       89     50.5      0.00      0.09      69.1     0.29      1018.0     0.0     NNW   346   0.7     NNW   345   0.93    286      -49.3
   11/09/2017 04:30      54.8      53.8       89     51.2      0.00      0.09      69.1     0.29      1018.0     0.2     NNW   346   0.7     NNW   346   0.93    282      -51.8
   11/09/2017 04:20      55.8      54.5       87     51.3      0.00      0.09      69.1     0.29      1018.0     0.0     NNW   345   0.7     NNW   345   0.93    279      -56.8
   11/09/2017 04:10      56.8      55.5       87     52.0      0.00      0.09      69.1     0.29      1018.0     0.1     NNW   345   0.8     NNW   345   0.93    274      -58.0
   11/09/2017 04:00      57.3      56.5       86     52.9      0.00      0.09      69.1     0.29      1017.9     0.4     NNW   345   1.2     NNW   345   0.93    271      -48.9
   11/09/2017 03:50      57.8      57.0       86     53.2      0.00      0.09      69.1     0.29      1017.8     0.4     NNW   345   1.1     NNW   345   0.93    270      -35.1
   11/09/2017 03:40      58.0      57.4       86     53.5      0.00      0.09      69.2     0.29      1017.7     0.7     NNW   344   1.4     NNW   345   0.93    270      -35.2
   11/09/2017 03:30      58.2      57.7       86     53.8      0.00      0.09      69.2     0.29      1017.7     1.0      NW   320   2.0      NW   319   0.93    270      -39.5
   11/09/2017 03:20      58.4      57.9       86     53.9      0.00      0.09      69.2     0.29      1017.8     1.1     WNW   297   2.8      NW   306   0.93    268      -32.5
   11/09/2017 03:10      58.6      58.1       86     54.0      0.00      0.09      69.2     0.29      1017.7     1.1      NW   304   3.0     WNW   303   0.93    268      -25.9
   11/09/2017 03:00      58.7      58.3       86     54.2      0.00      0.09      69.2     0.29      1017.7     1.0      NW   310   2.2      NW   306   0.93    268      -17.8
   11/09/2017 02:50      58.8      58.3       86     54.2      0.00      0.09      69.2     0.29      1017.8     0.3     WNW   297   1.2      NW   322   0.93    269      -28.4
   11/09/2017 02:40      58.7      58.3       86     54.2      0.00      0.09      69.2     0.29      1017.8     0.3       W   264   2.0     WSW   253   0.92    268      -21.9
   11/09/2017 02:30      58.8      58.3       86     54.3      0.00      0.09      69.2     0.29      1017.7     0.9     WSW   251   3.7     WSW   257   0.93    268      -26.3
   11/09/2017 02:20      58.8      58.3       86     54.4      0.00      0.09      69.2     0.29      1017.6     1.7     WSW   240   3.7     WSW   251   0.93    268      -34.1
   11/09/2017 02:10      58.9      58.3       87     54.6      0.00      0.09      69.3     0.29      1017.7     2.3     WSW   246   4.1       W   272   0.93    268      -32.1
   11/09/2017 02:00      58.6      58.3       88     54.8      0.00      0.09      69.3     0.29      1017.7     2.5     WSW   238   4.5     WSW   257   0.93    268      -19.4
   11/09/2017 01:50      58.5      58.1       89     55.0      0.00      0.09      69.3     0.29      1017.7     2.0     WSW   239   5.3       W   265   0.93    268       -9.5
   11/09/2017 01:40      58.3      58.0       89     55.0      0.00      0.09      69.3     0.29      1017.6     3.0     WSW   241   6.9       W   278   0.93    268       -7.7
   11/09/2017 01:30      58.2      57.7       90     54.9      0.00      0.09      69.3     0.29      1017.6     3.0     WSW   237   6.5     WSW   254   0.93    268       -9.1
   11/09/2017 01:20      58.0      57.4       90     54.7      0.00      0.09      69.3     0.29      1017.8     4.6     WSW   240   9.2     SSW   202   0.93    269      -11.1
   11/09/2017 01:10      57.7      57.4       90     54.6      0.00      0.09      69.3     0.29      1017.8     4.4     WSW   247   7.7       W   279   0.92    274      -15.2
   11/09/2017 01:00      57.7      57.4       90     54.5      0.00      0.09      69.3     0.29      1017.8     4.9     WSW   247   9.3       W   262   0.92    281      -17.3
   11/09/2017 00:50      57.7      57.3       90     54.6      0.00      0.09      69.3     0.29      1017.9     2.8     WSW   250   5.0     WSW   258   0.93    287      -24.3
   11/09/2017 00:40      57.6      57.2       90     54.5      0.00      0.09      69.3     0.29      1017.9     2.8     WSW   237   6.1     WSW   244   0.93    288      -26.0
   11/09/2017 00:30      57.5      57.1       90     54.4      0.00      0.09      69.4     0.29      1017.7     3.9     WSW   238   7.8       W   260   0.93    288      -36.7
   11/09/2017 00:20      57.6      57.2       90     54.4      0.00      0.09      69.3     0.29      1017.7     3.3      SW   227   8.1      SW   229   0.93    287      -39.9
   11/09/2017 00:10      57.5      57.2       90     54.5      0.00      0.09      69.4     0.29      1017.7     4.1     WSW   238   8.7       W   259   0.93    285      -42.3
   11/09/2017 00:00      57.6      57.1       90     54.4      0.00      0.09      69.4     0.29      1017.6     2.6     SSW   212   4.8       S   181   0.93    283      -46.2
   11/08/2017 23:50      57.7      57.2       90     54.5      0.00      0.09      69.4     0.29      1017.7     3.4      SW   236   6.6      SW   228   0.93    279      -48.6
   11/08/2017 23:40      57.8      57.3       90     54.4      0.00      0.09      69.3     0.29      1017.7     4.2     WSW   237   6.7     WSW   237   0.93    276      -47.9
   11/08/2017 23:30      57.7      57.4       89     54.3      0.00      0.09      69.4     0.29      1017.7     5.3     WSW   244   9.3     WSW   254   0.93    274      -50.4
   11/08/2017 23:20      57.7      57.2       88     54.0      0.00      0.09      69.4     0.29      1017.6     3.7     WSW   246   7.7      SW   229   0.93    273      -54.4
   11/08/2017 23:10      57.9      57.3       87     53.7      0.00      0.09      69.4     0.29      1017.5     3.1     WSW   243   7.9      SW   231   0.93    271      -58.5
   11/08/2017 23:00      58.0      57.5       86     53.6      0.00      0.09      69.4     0.29      1017.5     1.5     SSW   202   2.9      SW   230   0.93    270      -60.8
   11/08/2017 22:50      58.3      57.7       86     53.6      0.00      0.09      69.4     0.29      1017.7     2.6     SSW   194   5.0     SSW   201   0.92    268      -61.0
   11/08/2017 22:40      58.7      58.0       85     53.7      0.00      0.09      69.4     0.29      1017.6     3.9     SSW   206   6.1     SSW   210   0.93    267      -61.2
   11/08/2017 22:30      59.0      58.4       83     53.6      0.00      0.09      69.3     0.29      1017.8     3.4      SW   232   7.7     WSW   246   0.93    267      -61.1
   11/08/2017 22:20      59.3      58.6       83     53.6      0.00      0.09      69.4     0.29      1017.6     1.8      SW   219   3.6      SW   227   0.93    267      -61.0
   11/08/2017 22:10      59.4      58.8       82     53.6      0.00      0.09      69.4     0.29      1017.6     1.5      SW   217   3.9       S   188   0.93    267      -61.2
   11/08/2017 22:00      59.6      59.0       81     53.6      0.00      0.09      69.4     0.29      1017.7     2.9     SSW   204   6.0     SSW   205   0.93    267      -61.4
   11/08/2017 21:50      59.9      59.3       80     53.4      0.00      0.09      69.4     0.29      1017.7     2.2     SSW   213   6.1     SSW   209   0.93    267      -61.4
   11/08/2017 21:40      60.1      59.4       80     53.4      0.00      0.09      69.4     0.29      1017.7     3.3     SSW   205   6.7     SSW   195   0.93    267      -61.5
   11/08/2017 21:30      60.2      59.7       79     53.4      0.00      0.09      69.3     0.29      1017.7     1.7     SSW   207   4.9       S   188   0.93    267      -61.1
   11/08/2017 21:20      60.2      59.8       79     53.3      0.00      0.09      69.4     0.29      1017.7     2.5     SSW   210   5.2     SSW   192   0.93    267      -61.1
   11/08/2017 21:10      60.2      59.8       79     53.3      0.00      0.09      69.3     0.29      1017.7     2.7     SSW   208   4.5      SW   225   0.93    267      -60.4
   11/08/2017 21:00      60.7      59.9       78     53.2      0.00      0.09      69.3     0.29      1017.7     2.0     SSW   192   3.2       S   183   0.93    267      -58.0
   11/08/2017 20:50      60.9      60.3       77     53.3      0.00      0.09      69.3     0.29      1017.6     2.0     SSW   195   3.4     SSW   195   0.93    266      -57.0
   11/08/2017 20:40      61.3      60.7       76     53.3      0.00      0.09      69.3     0.29      1017.7     3.2     SSW   202   4.7       S   175   0.93    266      -58.6
   11/08/2017 20:30      61.4      60.8       75     53.2      0.00      0.09      69.3     0.29      1017.6     3.5     SSW   209   5.4     SSW   211   0.92    266      -60.5
   11/08/2017 20:20      61.6      61.2       75     53.2      0.00      0.09      69.3     0.29      1017.5     3.2     SSW   205   4.9     SSW   209   0.92    266      -61.9
   11/08/2017 20:10      61.6      61.3       74     53.1      0.00      0.09      69.2     0.29      1017.5     3.0      SW   227   5.4      SW   226   0.92    266      -62.0
   11/08/2017 20:00      61.6      61.2       74     53.1      0.00      0.09      69.3     0.29      1017.4     2.3      SW   221   6.2       W   271   0.93    266      -61.5
   11/08/2017 19:50      61.5      60.9       75     53.1      0.00      0.09      69.2     0.29      1017.4     1.1     SSW   213   2.5     SSW   214   0.93    266      -60.6
   11/08/2017 19:40      61.0      60.2       76     52.9      0.00      0.09      69.2     0.29      1017.2     1.1       S   188   3.0      SW   215   0.93    266      -59.6
   11/08/2017 19:30      62.0      60.4       74     52.8      0.00      0.09      69.2     0.29      1017.1     0.8       S   169   1.9       S   179   0.93    266      -60.9
   11/08/2017 19:20      62.7      61.8       72     52.9      0.00      0.09      69.2     0.29      1017.0     0.6       S   188   2.0       S   179   0.93    266      -61.9
   11/08/2017 19:10      63.2      62.4       70     52.9      0.00      0.09      69.1     0.29      1017.0     1.5     SSW   193   2.4      SW   217   0.93    266      -63.0
   11/08/2017 19:00      63.7      63.0       69     53.0      0.00      0.09      69.1     0.29      1016.8     1.5     SSW   201   2.1      SW   215   0.93    266      -64.6
   11/08/2017 18:50      64.0      63.3       68     52.9      0.00      0.09      69.1     0.29      1016.8     1.4      SW   229   3.4     WSW   246   0.93    266      -64.3
   11/08/2017 18:40      64.6      63.5       67     52.8      0.00      0.09      69.1     0.29      1016.8     1.9      SW   221   3.7     SSW   197   0.93    266      -64.6
   11/08/2017 18:30      65.2      64.4       65     52.9      0.00      0.09      69.0     0.29      1016.8     2.6     SSW   205   4.0     SSW   193   0.93    266      -66.2
   11/08/2017 18:20      65.8      64.7       64     52.7      0.00      0.09      69.0     0.29      1016.9     3.0      SW   235   6.3       W   263   0.93    266      -65.2
   11/08/2017 18:10      66.4      65.7       63     53.0      0.00      0.09      69.0     0.29      1016.6     1.6       W   268   3.4     WSW   257   0.93    266      -68.4
   11/08/2017 18:00      66.7      66.0       62     53.1      0.00      0.09      68.9     0.29      1016.5     1.8     WNW   297   3.7     WSW   237   0.93    266      -69.2
   11/08/2017 17:50      67.4      66.5       62     53.2      0.00      0.09      68.9     0.29      1016.4     1.3      NW   323   2.8      NW   316   0.93    266      -69.8
   11/08/2017 17:40      67.6      66.9       61     53.3      0.00      0.09      68.9     0.29      1016.4     1.1      NW   325   2.8     NNW   347   0.93    266      -69.8
   11/08/2017 17:30      68.1      67.3       60     53.3      0.00      0.09      68.8     0.29      1016.4     1.5      NW   313   3.7      NW   317   0.93    265      -70.2
   11/08/2017 17:20      68.7      67.8       59     53.1      0.00      0.09      68.8     0.29      1016.4     1.9     WNW   298   3.6       W   265   0.93    265      -70.9
   11/08/2017 17:10      69.1      68.4       56     52.5      0.00      0.09      68.8     0.29      1016.4     2.3     WSW   254   4.8      SW   235   0.93    265      -70.3
   11/08/2017 17:00      69.6      68.8       56     52.7      0.00      0.09      68.8     0.29      1016.4     2.3     WSW   244   4.9       W   266   0.93    265      -69.5
   11/08/2017 16:50      70.1      69.3       55     52.9      0.00      0.09      68.7     0.29      1016.3     2.1     WSW   248   4.7       W   281   0.93    264      -67.5
   11/08/2017 16:40      70.2      69.6       55     52.9      0.00      0.09      68.7     0.29      1016.3     2.9       W   261   6.9     WSW   253   0.93    264      -65.5
   11/08/2017 16:30      70.7      69.9       54     52.9      0.00      0.09      68.7     0.29      1016.4     3.4      SW   234   5.8      SW   221   0.93    264      -62.1
   11/08/2017 16:20      71.2      70.4       53     52.8      0.00      0.09      68.6     0.29      1016.5     3.9     WSW   258   7.4     WSW   257   0.94    264      -44.0
   11/08/2017 16:10      71.9      70.9       52     52.7      0.00      0.09      68.6     0.29      1016.4     4.3      SW   234   8.3     WSW   255   0.94    263       29.3
   11/08/2017 16:00      72.5      71.5       50     52.5      0.00      0.09      68.5     0.29      1016.3     4.4      SW   229   7.7      SW   219   0.93    263       65.5
   11/08/2017 15:50      72.6      72.2       49     52.3      0.00      0.09      68.5     0.29      1016.3     4.7      SW   215   8.7     SSW   204   0.93    263       92.7
   11/08/2017 15:40      72.4      71.6       50     52.3      0.00      0.09      68.5     0.29      1016.3     4.9      SW   224   8.4     WSW   255   0.93    263       62.0
   11/08/2017 15:30      72.7      71.8       49     52.2      0.00      0.09      68.4     0.29      1016.2     5.3      SW   216   7.9     SSW   211   0.93    263       28.6
   11/08/2017 15:20      73.1      72.3       49     52.2      0.00      0.09      68.4     0.29      1016.2     5.1      SW   226   8.7     SSW   213   0.93    263       26.0
   11/08/2017 15:10      74.5      72.8       47     52.1      0.00      0.09      68.3     0.29      1016.2     5.6      SW   231   8.8     WSW   240   0.93    263       10.6
   11/08/2017 15:00      76.3      74.3       44     51.9      0.00      0.09      68.3     0.29      1016.2     5.5      SW   218   9.0      SW   226   0.93    263       73.9
   11/08/2017 14:50      76.6      75.7       43     52.1      0.00      0.09      68.3     0.29      1016.1     3.6      SW   227   6.6       W   274   0.93    263      133.2
   11/08/2017 14:40      76.8      75.8       43     51.9      0.00      0.09      68.2     0.29      1016.2     3.9     SSW   208   9.3      SW   214   0.93    263      221.3
   11/08/2017 14:30      76.4      75.1       43     51.7      0.00      0.09      68.2     0.29      1016.2     5.3     WSW   245   9.0     WSW   241   0.93    263      223.6
   11/08/2017 14:20      76.9      74.9       42     51.3      0.00      0.09      68.2     0.29      1016.2     5.7      SW   224   9.2     WSW   254   0.93    263      135.4
   11/08/2017 14:10      78.1      76.6       40     51.5      0.00      0.09      68.2     0.29      1016.1     4.7     WSW   243   8.0     WSW   249   0.93    263      270.5
   11/08/2017 14:00      78.6      77.4       39     51.2      0.00      0.09      68.1     0.29      1016.0     4.0       S   184   8.1     SSE   169   0.93    263      321.5
   11/08/2017 13:50      78.6      77.9       39     51.3      0.00      0.09      68.1     0.29      1016.2     1.9     ESE   123   4.7     SSE   157   0.93    262      336.3
   11/08/2017 13:40      78.0      75.7       41     51.0      0.00      0.09      68.1     0.29      1016.2     2.0     ENE    64   5.0     ESE   105   0.93    263      344.6
   11/08/2017 13:30      76.0      75.4       42     50.9      0.00      0.09      68.0     0.29      1016.3     1.7     ENE    76   4.5     ENE    73   0.93    263      114.3
   11/08/2017 13:20      76.8      75.7       41     50.9      0.00      0.09      68.0     0.29      1016.5     1.5       E   101   4.0      SE   127   0.93    263       73.5
   11/08/2017 13:10      76.9      75.6       41     50.8      0.00      0.09      68.0     0.29      1016.6     2.0     SSE   153   5.3     SSW   196   0.93    263      164.4
   11/08/2017 13:00      77.1      76.2       41     51.2      0.00      0.09      68.0     0.29      1016.7     3.8     ESE   120   6.8     SSE   153   0.93    262      358.7
   11/08/2017 12:50      78.8      76.3       41     51.4      0.00      0.09      68.0     0.29      1016.8     2.7     ESE   121   5.2     ESE   106   0.93    262      355.1
   11/08/2017 12:40      79.2      77.7       39     51.6      0.00      0.09      68.0     0.29      1016.9     1.8       E    92   4.8      SE   145   0.93    262      353.8
   11/08/2017 12:30      77.7      76.8       41     51.4      0.00      0.09      67.9     0.29      1017.1     1.6     SSE   160   3.4       S   182   0.93    262      369.4
   11/08/2017 12:20      77.0      75.2       42     51.4      0.00      0.09      68.0     0.29      1017.3     2.9     SSE   161   8.3     WSW   249   0.93    262      378.5
   11/08/2017 12:10      76.6      75.7       42     51.4      0.00      0.09      68.0     0.29      1017.4     3.4     ESE   102   6.7      SE   134   0.93    262      367.8
   11/08/2017 12:00      75.9      75.2       43     51.2      0.00      0.09      68.0     0.29      1017.7     2.3       E    92   4.4       E    95   0.93    262      374.3
   11/08/2017 11:50      77.6      75.3       41     51.4      0.00      0.09      68.0     0.29      1017.9     1.9     ESE   111   6.4     SSW   194   0.93    262      370.9
   11/08/2017 11:40      75.5      74.5       43     51.1      0.00      0.09      68.0     0.29      1018.1     1.9       N   354   5.2       N     0   0.94    262      370.0
   11/08/2017 11:30      75.3      74.4       43     50.9      0.00      0.09      68.0     0.29      1018.3     2.5     NNW   343   4.9     NNE    27   0.94    262      370.5
   11/08/2017 11:20      75.3      73.7       44     50.8      0.00      0.09      68.0     0.29      1018.5     1.7      SE   146   3.3       S   175   0.93    262      370.8
   11/08/2017 11:10      74.4      73.4       44     50.8      0.00      0.09      68.0     0.29      1018.6     1.6     ESE   118   4.5     NNE    14   0.93    263      367.5
   11/08/2017 11:00      74.4      73.7       44     50.9      0.00      0.09      68.0     0.29      1018.7     1.9     NNE    24   3.8       N   353   0.93    262      363.6
   11/08/2017 10:50      74.2      72.4       45     50.8      0.00      0.09      68.0     0.29      1018.9     1.2     NNW   333   4.1       W   272   0.93    262      360.0
   11/08/2017 10:40      73.3      72.3       45     50.4      0.00      0.09      68.1     0.29      1019.0     1.9      NW   319   4.4      NW   308   0.93    262      354.7
   11/08/2017 10:30      73.3      71.4       46     50.1      0.00      0.09      68.1     0.29      1019.1     1.3       N   349   3.0     NNW   341   0.93    262      349.2
   11/08/2017 10:20      71.6      70.5       47     49.8      0.00      0.09      68.1     0.29      1019.1     2.0       N     3   3.9     NNE    16   0.93    263      340.6
   11/08/2017 10:10      71.5      70.4       47     49.7      0.00      0.09      68.2     0.29      1019.3     1.3     WNW   292   3.1     NNW   341   0.93    263      334.3
   11/08/2017 10:00      70.8      69.6       48     49.5      0.00      0.09      68.2     0.29      1019.4     1.5     ESE   118   2.9     ESE   110   0.93    263      324.5
   11/08/2017 09:50      70.3      69.4       48     49.2      0.00      0.09      68.2     0.29      1019.4     1.2     NNW   337   1.9     NNW   329   0.93    263      314.3
   11/08/2017 09:40      70.4      69.2       48     49.2      0.00      0.09      68.2     0.29      1019.5     0.8      NE    43   2.4     NNE    31   0.93    263      302.4
   11/08/2017 09:30      69.7      69.1       48     49.1      0.00      0.09      68.2     0.29      1019.6     0.8     NNE    13   2.5     NNE    13   0.93    263      288.4
   11/08/2017 09:20      69.6      68.2       50     49.2      0.00      0.09      68.3     0.29      1019.6     0.7     NNE    32   2.4      NE    38   0.93    263      274.4
   11/08/2017 09:10      69.3      67.3       50     48.8      0.00      0.09      68.3     0.29      1019.7     0.2     WNW   291   1.8     ENE    59   0.93    263      256.9
   11/08/2017 09:00      67.5      65.3       54     48.7      0.00      0.09      68.3     0.29      1019.6     0.5     WNW   289   1.8       N     6   0.93    263      241.1
   11/08/2017 08:50      65.6      65.0       55     48.6      0.00      0.09      68.4     0.29      1019.6     1.0       N   358   2.4     NNW   338   0.93    264      227.9
   11/08/2017 08:40      66.3      65.3       54     48.4      0.00      0.09      68.4     0.29      1019.7     0.7     NNE    19   1.9       N     0   0.93    264      212.7
   11/08/2017 08:30      66.3      65.5       52     48.1      0.00      0.09      68.4     0.29      1019.7     0.5     ENE    78   1.6       E    86   0.93    264      193.2
   11/08/2017 08:20      65.6      64.8       53     47.7      0.00      0.09      68.5     0.29      1019.7     0.2     ENE    79   1.3     ENE    78   0.93    264      175.1
   11/08/2017 08:10      65.1      62.9       55     47.4      0.00      0.09      68.5     0.29      1019.7     0.0      SW   224   0.5      SW   224   0.93    264      157.1
   11/08/2017 08:00      62.9      60.8       59     47.2      0.00      0.09      68.5     0.29      1019.6     0.0       N     0   0.0      SE   125   0.93    265      136.8
   11/08/2017 07:50      61.1      60.6       60     46.7      0.00      0.09      68.5     0.29      1019.4     0.1       E    93   1.2       E    93   0.93    266      111.2
   11/08/2017 07:40      60.7      57.8       64     46.8      0.00      0.09      68.5     0.29      1019.2     0.0       N     0   0.0     ENE    67   0.93    267       25.8
   11/08/2017 07:30      58.0      54.7       70     47.1      0.00      0.09      68.6     0.29      1019.2     0.0     ENE    67   0.9     ENE    67   0.93    268       80.4
   11/08/2017 07:20      54.7      51.8       79     46.8      0.00      0.09      68.6     0.29      1019.2     0.0       N     0   0.0     SSE   146   0.93    270      -15.7
   11/08/2017 07:10      51.9      50.1       84     46.0      0.00      0.09      68.6     0.29      1019.1     0.5     SSE   147   1.6     SSE   147   0.93    271      -19.2
   11/08/2017 07:00      50.1      49.0       87     45.6      0.00      0.09      68.7     0.29      1019.0     0.0       N     0   0.0     SSW   211   0.93    271      -20.5
   11/08/2017 06:50      49.3      48.6       86     45.0      0.00      0.09      68.7     0.29      1018.8     0.0       N     0   0.0     SSW   211   0.93    271      -25.5
   11/08/2017 06:40      48.9      48.4       86     44.6      0.00      0.09      68.7     0.29      1018.7     0.0       N     0   0.0     SSW   211   0.93    270      -31.4
   11/08/2017 06:30      49.0      48.6       85     44.5      0.00      0.09      68.7     0.29      1018.6     0.0     SSW   211   0.7     SSW   211   0.93    269      -35.4
   11/08/2017 06:20      49.4      48.6       84     44.5      0.00      0.09      68.7     0.29      1018.5     0.0     SSW   211   0.6     SSW   211   0.93    269      -40.7
   11/08/2017 06:10      49.4      48.7       85     44.7      0.00      0.09      68.8     0.29      1018.4     0.6      SW   219   1.4     SSW   212   0.93    268      -41.3
   11/08/2017 06:00      49.0      48.3       85     44.2      0.00      0.09      68.8     0.29      1018.2     0.7     WSW   249   1.4      SW   235   0.93    268      -42.6
   11/08/2017 05:50      49.0      48.6       84     44.3      0.00      0.09      68.8     0.29      1018.1     0.2     WSW   252   0.9     WSW   252   0.93    268      -44.8
   11/08/2017 05:40      49.0      48.3       85     44.4      0.00      0.09      68.8     0.29      1018.2     0.6     WSW   242   2.5     WSW   245   0.93    268      -42.8
   11/08/2017 05:30      49.1      48.3       85     44.3      0.00      0.09      68.9     0.29      1018.1     0.0     SSE   159   0.5     SSE   159   0.93    269      -43.7
   11/08/2017 05:20      49.5      48.7       84     44.4      0.00      0.09      68.9     0.29      1018.2     0.3     SSE   159   1.2     SSE   159   0.93    268      -43.9
   11/08/2017 05:10      49.8      49.1       84     44.7      0.00      0.09      68.9     0.29      1018.2     0.1     SSE   159   0.9     SSE   159   0.93    268      -43.9
   11/08/2017 05:00      50.0      49.3       84     44.9      0.00      0.09      68.9     0.29      1018.2     0.0       N     0   0.0     SSE   159   0.94    268      -44.6
   11/08/2017 04:50      49.9      49.2       85     45.2      0.00      0.09      69.0     0.29      1018.1     0.0       N     0   0.0     SSE   159   0.94    268      -44.9
   11/08/2017 04:40      49.5      48.8       82     44.0      0.00      0.09      68.9     0.29      1018.1     0.3     SSE   157   1.1     SSE   168   0.93    267      -47.7
   11/08/2017 04:30      50.0      49.4       82     44.5      0.00      0.09      69.0     0.29      1018.2     0.5      SE   138   1.2      SE   138   0.93    267      -48.6
   11/08/2017 04:20      50.0      49.5       82     44.5      0.00      0.09      69.0     0.29      1018.4     0.7     SSE   155   1.8      SE   138   0.93    267      -47.9
   11/08/2017 04:10      50.6      49.8       80     44.2      0.00      0.09      69.0     0.29      1018.4     0.0     SSE   159   0.9     SSE   159   0.93    267      -49.0
   11/08/2017 04:00      50.7      50.1       79     44.1      0.00      0.09      69.0     0.29      1018.4     0.2     SSW   209   2.1      SW   216   0.93    267      -48.7
   11/08/2017 03:50      50.3      49.9       80     44.0      0.00      0.09      69.1     0.29      1018.4     0.3     WSW   241   1.4       W   261   0.93    267      -48.1
   11/08/2017 03:40      50.6      50.0       81     44.7      0.00      0.09      69.1     0.29      1018.4     0.0     SSW   213   1.2     SSW   213   0.93    267      -48.6
   11/08/2017 03:30      51.1      50.4       81     45.0      0.00      0.09      69.1     0.29      1018.5     0.0       N     0   0.0     SSW   213   0.93    267      -48.5
   11/08/2017 03:20      51.4      50.8       80     45.0      0.00      0.09      69.2     0.29      1018.6     0.2      SW   217   0.8     SSW   213   0.94    267      -48.9
   11/08/2017 03:10      51.5      50.8       80     45.0      0.00      0.09      69.2     0.29      1018.8     0.6     WSW   242   1.7       W   260   0.94    266      -48.7
   11/08/2017 03:00      51.8      51.3       80     45.4      0.00      0.09      69.2     0.29      1018.8     0.7      SE   134   1.8      SE   144   0.93    266      -50.0
   11/08/2017 02:50      51.5      50.1       81     45.1      0.00      0.09      69.2     0.29      1019.0     1.6       S   186   2.6     SSW   198   0.93    266      -49.3
   11/08/2017 02:40      50.9      50.1       80     44.4      0.00      0.09      69.3     0.29      1018.9     0.5     SSE   158   1.1     SSE   168   0.94    266      -50.4
   11/08/2017 02:30      51.3      50.6       78     44.4      0.00      0.09      69.2     0.29      1018.9     0.3     SSE   162   1.2     SSE   165   0.93    266      -50.0
   11/08/2017 02:20      51.1      50.7       78     44.2      0.00      0.09      69.2     0.29      1018.9     0.2     SSE   163   1.0     SSE   163   0.93    266      -49.1
   11/08/2017 02:10      51.5      50.7       76     43.7      0.00      0.09      69.3     0.29      1018.8     0.0       N     0   0.0     SSE   162   0.93    266      -50.0
   11/08/2017 02:00      51.8      51.2       75     44.0      0.00      0.09      69.3     0.29      1018.7     0.2     SSE   162   0.7     SSE   162   0.93    266      -49.8
   11/08/2017 01:50      51.9      51.4       75     44.0      0.00      0.09      69.3     0.29      1018.9     0.1     SSE   162   1.0     SSE   163   0.93    266      -49.7
   11/08/2017 01:40      52.1      51.6       73     43.6      0.00      0.09      69.3     0.29      1019.0     0.0     SSE   162   0.8     SSE   162   0.93    266      -49.7
   11/08/2017 01:30      52.3      51.9       72     43.6      0.00      0.09      69.3     0.29      1019.0     0.0       N     0   0.0     SSE   162   0.93    266      -49.6
   11/08/2017 01:20      52.5      51.9       72     43.2      0.00      0.09      69.3     0.29      1019.1     0.2     SSE   159   1.2     SSE   150   0.93    266      -49.9
   11/08/2017 01:10      52.5      52.2       71     43.1      0.00      0.09      69.4     0.29      1019.1     0.7      SE   146   2.1     SSE   147   0.93    266      -50.8
   11/08/2017 01:00      52.8      52.2       69     42.7      0.00      0.09      69.4     0.29      1019.1     0.3      SE   145   1.4      SE   145   0.93    266      -49.6
   11/08/2017 00:50      52.9      52.4       70     42.9      0.00      0.09      69.4     0.29      1019.1     0.2      SE   145   1.3      SE   145   0.93    266      -50.2
   11/08/2017 00:40      53.3      52.6       68     42.6      0.00      0.09      69.4     0.29      1019.2     0.4      SE   145   1.3      SE   145   0.93    266      -49.9
   11/08/2017 00:30      53.3      52.7       67     42.4      0.00      0.09      69.4     0.29      1019.2     0.2      SE   145   0.9      SE   145   0.93    266      -49.7
   11/08/2017 00:20      54.0      52.9       67     42.8      0.00      0.09      69.4     0.29      1019.2     0.2      SE   145   0.7      SE   145   0.94    266      -50.6
   11/08/2017 00:10      54.3      53.6       64     42.0      0.00      0.09      69.4     0.29      1019.1     0.4      SE   145   1.5      SE   145   0.94    266      -50.8
   11/08/2017 00:00      54.2      53.6       65     42.3      0.00      0.09      69.4     0.29      1019.1     0.0      SE   145   0.4      SE   145   0.94    266      -51.1
   11/07/2017 23:50      54.6      53.7       65     42.5      0.00      0.09      69.4     0.29      1019.2     0.6     SSE   147   2.0      SE   141   0.94    266      -52.3
   11/07/2017 23:40      54.7      54.1       63     42.3      0.00      0.09      69.5     0.29      1019.3     0.7     SSE   156   1.8     SSE   151   0.94    266      -51.6
   11/07/2017 23:30      54.9      54.1       63     42.2      0.00      0.09      69.5     0.29      1019.2     0.0     SSW   198   0.5      SW   229   0.93    266      -51.7
   11/07/2017 23:20      55.1      54.4       63     42.4      0.00      0.09      69.5     0.29      1019.1     0.7     SSW   206   1.6      SW   227   0.94    266      -51.8
   11/07/2017 23:10      55.0      54.4       65     43.1      0.00      0.09      69.5     0.29      1019.1     0.4     SSE   165   1.6       S   186   0.94    266      -52.2
   11/07/2017 23:00      55.6      54.9       63     42.7      0.00      0.09      69.5     0.29      1019.2     0.0     WSW   236   0.6     WSW   236   0.94    266      -52.3
   11/07/2017 22:50      55.7      55.0       60     41.7      0.00      0.09      69.5     0.29      1019.3     0.8      SW   227   1.9     SSW   209   0.94    266      -51.0
   11/07/2017 22:40      55.8      55.3       62     42.7      0.00      0.09      69.5     0.29      1019.2     0.8       S   190   1.9      SW   214   0.94    265      -51.6
   11/07/2017 22:30      56.7      55.4       62     43.0      0.00      0.09      69.5     0.29      1019.2     0.3      SE   144   1.7      SE   144   0.94    266      -53.1
   11/07/2017 22:20      57.4      56.3       59     42.5      0.00      0.09      69.5     0.29      1019.3     0.8       S   170   2.0     SSW   197   0.94    265      -52.7
   11/07/2017 22:10      57.5      56.9       60     43.2      0.00      0.09      69.5     0.29      1019.3     0.0     SSE   156   0.6     SSE   156   0.94    265      -52.6
   11/07/2017 22:00      58.3      57.3       59     43.4      0.00      0.09      69.5     0.29      1019.2     0.4     ESE   110   1.8      NE    49   0.94    265      -54.9
   11/07/2017 21:50      59.7      58.1       57     43.6      0.00      0.09      69.5     0.29      1019.3     0.9     ENE    67   2.0      NE    55   0.94    265      -56.1
   11/07/2017 21:40      60.3      59.4       55     43.5      0.00      0.09      69.5     0.29      1019.2     0.9     SSE   164   2.2     SSW   197   0.94    265      -56.0
   11/07/2017 21:30      60.9      60.1       54     43.6      0.00      0.09      69.5     0.29      1019.3     2.3     SSW   203   4.4      SW   229   0.94    265      -57.2
   11/07/2017 21:20      61.3      60.4       54     43.9      0.00      0.09      69.5     0.29      1019.2     1.2     SSW   199   3.9      SW   216   0.94    265      -57.8
   11/07/2017 21:10      61.5      60.9       53     44.0      0.00      0.09      69.5     0.29      1019.1     2.4     SSW   210   3.9     WSW   246   0.93    265      -58.7
   11/07/2017 21:00      61.8      61.2       53     44.3      0.00      0.09      69.5     0.29      1019.0     2.6     SSW   208   4.0     SSW   204   0.93    265      -58.9
   11/07/2017 20:50      61.8      61.2       53     44.4      0.00      0.09      69.5     0.29      1019.0     2.6     SSW   212   4.8      SW   219   0.93    265      -59.0
   11/07/2017 20:40      61.6      61.2       54     44.5      0.00      0.09      69.5     0.29      1018.9     4.2     SSW   209   5.8      SW   214   0.93    265      -58.5
   11/07/2017 20:30      61.4      59.0       58     45.4      0.00      0.09      69.5     0.29      1018.8     2.8     SSW   209   6.5     SSW   210   0.93    266      -56.3
   11/07/2017 20:20      59.3      58.5       63     46.6      0.00      0.09      69.5     0.29      1018.7     1.0       S   186   2.4     SSW   206   0.94    266      -54.7
   11/07/2017 20:10      59.9      58.8       63     46.7      0.00      0.09      69.4     0.29      1018.7     0.0     SSW   201   1.2     SSW   201   0.93    265      -55.1
   11/07/2017 20:00      59.8      59.0       63     46.7      0.00      0.09      69.4     0.29      1018.5     1.2     SSW   200   2.5     SSW   200   0.93    265      -55.4
   11/07/2017 19:50      60.5      59.3       61     46.2      0.00      0.09      69.4     0.29      1018.5     0.4     SSE   150   1.5     SSE   151   0.94    265      -57.0
   11/07/2017 19:40      61.1      60.1       60     46.5      0.00      0.09      69.4     0.29      1018.4     0.8       S   183   2.2       S   186   0.93    265      -55.9
   11/07/2017 19:30      61.4      60.6       61     47.2      0.00      0.09      69.4     0.29      1018.4     0.1       S   186   0.9       S   186   0.94    265      -55.7
   11/07/2017 19:20      62.1      61.1       59     47.1      0.00      0.09      69.3     0.29      1018.3     0.0       N     0   0.0       S   186   0.94    265      -57.5
   11/07/2017 19:10      62.5      61.7       58     47.1      0.00      0.09      69.3     0.29      1018.3     0.9     SSW   195   1.8       S   187   0.94    265      -57.4
   11/07/2017 19:00      63.3      62.2       57     47.3      0.00      0.09      69.3     0.29      1018.4     0.4     SSE   147   1.4     SSE   147   0.94    264      -59.5
   11/07/2017 18:50      65.2      63.2       54     47.0      0.00      0.09      69.3     0.29      1018.5     1.2       S   171   2.4       S   172   0.93    264      -60.7
   11/07/2017 18:40      66.2      65.0       51     46.8      0.00      0.09      69.3     0.29      1018.6     1.6     SSW   212   3.0     SSW   213   0.93    264      -61.8
   11/07/2017 18:30      66.5      65.8       50     47.2      0.00      0.09      69.3     0.29      1018.7     1.8       W   281   3.7       W   279   0.93    264      -63.3
   11/07/2017 18:20      66.4      66.1       52     47.9      0.00      0.09      69.3     0.29      1018.6     1.7       W   277   3.5      SW   228   0.93    264      -62.6
   11/07/2017 18:10      66.9      65.9       52     48.1      0.00      0.09      69.2     0.29      1018.5     1.3     WSW   247   2.5       W   265   0.93    264      -61.0
   11/07/2017 18:00      67.4      66.6       52     48.5      0.00      0.09      69.2     0.29      1018.3     1.3     SSW   212   2.8      SW   220   0.94    264      -62.2
   11/07/2017 17:50      67.8      67.1       51     48.8      0.00      0.09      69.2     0.29      1018.0     1.3      SW   215   2.7     WSW   246   0.94    264      -63.9
   11/07/2017 17:40      68.1      67.5       51     49.0      0.00      0.09      69.1     0.29      1017.8     1.9     SSW   201   3.0      SW   223   0.93    264      -65.7
   11/07/2017 17:30      68.7      67.8       51     49.1      0.00      0.09      69.1     0.29      1017.7     1.8     SSW   204   3.5      SW   227   0.94    264      -66.3
   11/07/2017 17:20      69.1      68.3       50     49.1      0.00      0.09      69.1     0.29      1017.5     2.0     SSW   214   4.8      SW   223   0.93    263      -67.9
   11/07/2017 17:10      69.6      68.8       49     49.1      0.00      0.09      69.0     0.29      1017.3     1.9     SSW   199   3.9     WSW   243   0.94    263      -68.2
   11/07/2017 17:00      70.5      69.5       47     49.1      0.00      0.09      69.0     0.29      1017.2     2.2     SSW   197   5.1      SW   215   0.94    263      -67.2
   11/07/2017 16:50      71.3      70.2       46     49.2      0.00      0.09      69.0     0.29      1017.1     3.7      SW   217   7.7     WSW   242   0.94    263      -64.5
   11/07/2017 16:40      72.0      71.0       45     49.1      0.00      0.09      68.9     0.29      1017.0     3.9     SSW   207   6.9     WSW   241   0.94    263      -61.8
   11/07/2017 16:30      72.7      71.8       44     48.9      0.00      0.09      68.9     0.29      1016.9     2.8     SSW   207   5.5     SSW   212   0.94    263      -59.3
   11/07/2017 16:20      73.0      72.4       44     49.2      0.00      0.09      68.9     0.29      1016.8     2.9     SSW   209   5.8      SW   221   0.94    263      -53.1
   11/07/2017 16:10      73.5      72.6       44     49.5      0.00      0.09      68.9     0.29      1016.8     3.6       S   185   5.6     SSW   196   0.94    263      -10.2
   11/07/2017 16:00      74.3      73.2       42     49.3      0.00      0.09      68.8     0.29      1016.8     4.0       S   173   6.7       S   174   0.94    263        3.5
   11/07/2017 15:50      74.4      73.9       41     48.8      0.00      0.09      68.8     0.29      1016.9     3.7       S   169   7.7       S   182   0.94    263       17.5
   11/07/2017 15:40      75.5      74.1       40     48.7      0.00      0.09      68.8     0.29      1016.9     4.2       S   171   7.8     SSE   148   0.94    263       38.5
   11/07/2017 15:30      76.8      75.2       38     48.6      0.00      0.09      68.8     0.29      1016.9     3.7       S   181   6.6       S   169   0.94    263       60.3
   11/07/2017 15:20      77.5      76.2       37     48.5      0.00      0.09      68.7     0.29      1016.9     2.7       S   173   7.4     SSW   192   0.94    263       96.9
   11/07/2017 15:10      78.4      77.2       35     47.9      0.00      0.09      68.7     0.29      1016.8     1.5     SSE   166   4.3      SE   146   0.94    263      131.3
   11/07/2017 15:00      77.4      76.3       36     47.7      0.00      0.09      68.7     0.29      1016.9     1.6     NNW   336   3.7     WNW   298   0.94    262      144.9
   11/07/2017 14:50      77.9      76.9       35     47.4      0.00      0.09      68.6     0.29      1017.0     1.7     NNW   341   3.1      NW   326   0.94    262       98.0
   11/07/2017 14:40      77.8      76.6       35     47.2      0.00      0.09      68.6     0.29      1017.1     1.6      NW   324   5.3     WSW   249   0.94    262      176.8
   11/07/2017 14:30      77.1      76.6       35     47.1      0.00      0.09      68.6     0.29      1017.1     2.1      NW   305   5.3     WSW   259   0.94    262      199.2
   11/07/2017 14:20      78.7      76.8       34     47.0      0.00      0.09      68.6     0.29      1017.1     2.5      NW   323   4.9      NW   304   0.94    262      225.7
   11/07/2017 14:10      78.4      77.1       34     47.0      0.00      0.09      68.5     0.29      1017.2     1.4      SW   226   5.9     WSW   239   0.94    262      262.1
   11/07/2017 14:00      77.1      75.9       35     46.6      0.00      0.09      68.5     0.29      1017.2     1.8       N   353   3.8     NNE    20   0.94    262      278.1
   11/07/2017 13:50      76.2      75.0       35     46.5      0.00      0.09      68.5     0.29      1017.4     1.7      NW   320   3.9     WNW   295   0.94    262      221.3
   11/07/2017 13:40      76.3      75.2       35     46.1      0.00      0.09      68.5     0.29      1017.4     2.6     WSW   243   5.6     WSW   254   0.94    262      154.4
   11/07/2017 13:30      75.7      75.2       35     46.2      0.00      0.09      68.4     0.29      1017.4     3.9     NNW   333   8.6      SW   233   0.94    262      343.6
   11/07/2017 13:20      75.6      74.6       35     45.7      0.00      0.09      68.5     0.29      1017.5     3.0       W   276   6.3     WSW   239   0.94    262      361.9
   11/07/2017 13:10      75.7      74.8       35     45.6      0.00      0.09      68.4     0.29      1017.5     2.6       W   265   6.0     WSW   242   0.94    262      272.5
   11/07/2017 13:00      75.9      75.0       35     46.1      0.00      0.09      68.4     0.29      1017.6     3.3       W   262   6.3      SW   231   0.94    262      364.0
   11/07/2017 12:50      75.8      74.9       36     46.6      0.00      0.09      68.4     0.29      1017.8     2.7     WNW   292   6.2       W   261   0.94    261      372.4
   11/07/2017 12:40      75.4      73.6       37     46.4      0.00      0.09      68.4     0.29      1017.9     1.5     WNW   291   3.2     SSW   201   0.94    262      453.8
   11/07/2017 12:30      73.7      72.3       38     45.6      0.00      0.09      68.4     0.29      1018.1     1.0       S   183   3.3     SSW   200   0.94    262      237.3
   11/07/2017 12:20      72.9      71.7       38     45.4      0.00      0.09      68.4     0.29      1018.4     0.5      NW   315   1.7      NW   318   0.94    263      162.8
   11/07/2017 12:10      73.2      71.7       37     44.9      0.00      0.09      68.4     0.29      1018.6     2.6     WSW   250   4.7     WSW   257   0.94    263       84.2
   11/07/2017 12:00      73.2      72.7       37     45.0      0.00      0.09      68.3     0.29      1018.8     1.1     WNW   299   3.4     WSW   258   0.94    263      101.7
   11/07/2017 11:50      73.5      72.8       37     45.1      0.00      0.09      68.4     0.29      1019.0     1.6     WSW   257   3.8     WSW   255   0.94    262      210.9
   11/07/2017 11:40      73.8      72.8       37     45.3      0.00      0.09      68.4     0.29      1019.2     1.6       N   355   3.5     NNW   328   0.94    262      253.5
   11/07/2017 11:30      73.5      72.5       37     45.4      0.00      0.09      68.3     0.29      1019.4     1.7      NE    40   3.2     NNW   347   0.94    262      363.1
   11/07/2017 11:20      72.5      71.8       39     45.8      0.00      0.09      68.4     0.29      1019.6     1.1      NE    50   2.8      NW   311   0.94    262      204.1
   11/07/2017 11:10      72.0      71.4       39     45.5      0.00      0.09      68.4     0.29      1019.7     2.0     WNW   301   4.0      SW   228   0.94    263      178.7
   11/07/2017 11:00      72.2      71.3       40     46.3      0.00      0.09      68.4     0.29      1019.8     2.0      NW   308   4.4     WNW   296   0.94    263      272.0
   11/07/2017 10:50      72.6      71.7       40     46.8      0.00      0.09      68.4     0.29      1019.8     1.6     NNW   327   4.8     NNW   347   0.94    263      277.1
   11/07/2017 10:40      72.3      71.1       41     46.7      0.00      0.09      68.5     0.29      1020.0     1.2     NNE    28   3.5       E    93   0.94    263      336.2
   11/07/2017 10:30      72.4      70.6       41     47.1      0.00      0.09      68.5     0.29      1020.1     1.0      NE    36   3.7       E    85   0.94    262      356.7
   11/07/2017 10:20      70.5      69.4       44     46.9      0.00      0.09      68.5     0.29      1020.2     1.4     NNW   328   3.7       N     4   0.93    262      353.3
   11/07/2017 10:10      70.7      69.2       45     47.5      0.00      0.09      68.5     0.29      1020.3     1.2      NE    49   3.3     NNE    24   0.94    262      334.6
   11/07/2017 10:00      69.6      68.3       46     47.4      0.00      0.09      68.6     0.29      1020.5     0.8       S   175   2.8      SE   141   0.94    263      323.1
   11/07/2017 09:50      68.7      67.1       48     47.7      0.00      0.09      68.6     0.29      1020.5     1.2     NNE    18   3.7       N     8   0.94    262      312.7
   11/07/2017 09:40      67.6      67.0       49     47.2      0.00      0.09      68.6     0.29      1020.6     1.2     WNW   293   2.9       W   260   0.94    263      301.1
   11/07/2017 09:30      67.0      66.2       49     47.0      0.00      0.09      68.6     0.29      1020.6     1.0     NNE    20   3.9     NNE    28   0.93    263      287.8
   11/07/2017 09:20      66.3      64.8       51     46.7      0.00      0.09      68.7     0.29      1020.6     1.3     NNE    12   3.8     NNW   333   0.93    263      273.0
   11/07/2017 09:10      65.3      64.3       51     46.5      0.00      0.09      68.7     0.29      1020.6     1.5       N   357   4.6      NW   326   0.94    263      257.3
   11/07/2017 09:00      64.6      63.9       52     46.2      0.00      0.09      68.7     0.29      1020.6     1.3       N     9   2.7     NNE    15   0.94    264      242.1
   11/07/2017 08:50      64.2      62.6       53     45.8      0.00      0.09      68.8     0.29      1020.7     0.7     WNW   298   2.0     NNW   330   0.94    263      227.4
   11/07/2017 08:40      62.8      60.8       55     45.4      0.00      0.09      68.8     0.29      1020.6     0.7     WNW   304   2.5       W   270   0.94    264      212.7
   11/07/2017 08:30      61.1      59.7       58     45.3      0.00      0.09      68.8     0.29      1020.7     1.3      NW   320   2.9      NW   304   0.94    264      196.4
   11/07/2017 08:20      59.7      58.3       61     45.7      0.00      0.09      68.8     0.29      1020.7     1.2     NNW   329   2.9     NNW   328   0.94    264      174.5
   11/07/2017 08:10      58.1      55.9       66     45.6      0.00      0.09      68.8     0.29      1020.6     0.0      NE    47   0.0      NE    47   0.94    266       74.9
   11/07/2017 08:00      56.1      54.0       71     45.8      0.00      0.09      68.8     0.29      1020.6     0.0       N     0   0.0      SE   141   0.94    266       51.5
   11/07/2017 07:50      54.1      53.1       74     45.4      0.00      0.09      68.9     0.29      1020.5     0.0      SE   141   0.8      SE   141   0.94    266       12.5
   11/07/2017 07:40      53.3      52.9       75     45.5      0.00      0.09      68.9     0.29      1020.4     0.0       N     0   0.0      SE   141   0.94    266      -16.1
   11/07/2017 07:30      53.1      52.6       76     45.4      0.00      0.09      68.9     0.29      1020.4     0.5      SE   141   1.4      SE   141   0.94    266      -20.8
   11/07/2017 07:20      52.9      52.1       75     44.7      0.00      0.09      68.9     0.29      1020.3     0.0      SE   141   0.5      SE   141   0.94    266      -20.5
   11/07/2017 07:10      52.4      52.1       77     45.1      0.00      0.09      69.0     0.29      1020.2     0.0      SE   140   0.5      SE   141   0.94    266      -21.7
   11/07/2017 07:00      52.2      51.7       78     45.3      0.00      0.09      69.0     0.29      1019.9     0.0       N     0   0.0      SE   140   0.94    266      -19.8
   11/07/2017 06:50      52.0      51.3       78     45.2      0.00      0.09      69.0     0.29      1019.8     0.3      SE   136   1.4      SE   139   0.94    266      -22.2
   11/07/2017 06:40      51.6      50.8       78     44.6      0.00      0.09      69.0     0.29      1019.8     0.8      SE   142   2.2      SE   139   0.94    267      -20.4
   11/07/2017 06:30      51.3      50.7       78     44.5      0.00      0.09      69.0     0.29      1019.9     0.4     SSE   162   1.2     SSE   162   0.94    267      -31.6
   11/07/2017 06:20      51.3      50.7       79     44.5      0.00      0.09      69.1     0.29      1019.9     0.2     SSE   161   0.8     SSE   161   0.94    266      -35.6
   11/07/2017 06:10      52.0      51.1       78     45.0      0.00      0.09      69.1     0.29      1019.8     0.0     SSE   161   0.8     SSE   161   0.93    266      -43.2
   11/07/2017 06:00      52.1      51.7       79     45.4      0.00      0.09      69.1     0.29      1019.7     0.0       N     0   0.0     SSE   161   0.93    267      -43.0
   11/07/2017 05:50      52.0      51.6       79     45.5      0.00      0.09      69.2     0.29      1019.6     0.0     SSE   161   0.5     SSE   161   0.93    266      -42.0
   11/07/2017 05:40      52.0      51.4       79     45.5      0.00      0.09      69.2     0.29      1019.6     0.2     SSE   162   1.1     SSE   162   0.93    266      -38.3
   11/07/2017 05:30      52.2      51.6       79     45.6      0.00      0.09      69.2     0.29      1019.7     0.0     SSE   161   0.7     SSE   161   0.93    266      -38.7
   11/07/2017 05:20      52.1      51.7       79     45.6      0.00      0.09      69.2     0.29      1019.7     0.9     SSE   152   1.7     SSE   151   0.94    266      -41.4
   11/07/2017 05:10      52.4      51.7       76     44.5      0.00      0.09      69.2     0.29      1019.7     0.6       S   173   2.3       S   188   0.93    266      -40.8
   11/07/2017 05:00      52.5      51.9       77     45.1      0.00      0.09      69.2     0.29      1019.6     1.2      SW   218   1.8     SSW   210   0.93    266      -36.0
   11/07/2017 04:50      52.8      52.1       77     45.2      0.00      0.09      69.3     0.29      1019.5     0.0       N     0   0.8       N     0   0.93    266      -32.6
   11/07/2017 04:40      52.8      52.2       77     45.7      0.00      0.09      69.3     0.29      1019.5     0.1     NNE    16   1.0     NNE    14   0.93    266      -34.2
   11/07/2017 04:30      52.5      52.1       77     45.4      0.00      0.09      69.3     0.29      1019.5     0.4     SSE   149   1.9      SE   142   0.93    266      -34.8
   11/07/2017 04:20      52.4      51.8       76     44.6      0.00      0.09      69.3     0.29      1019.4     0.5      SE   143   2.0      SE   141   0.93    266      -34.3
   11/07/2017 04:10      52.1      51.8       76     44.5      0.00      0.09      69.4     0.29      1019.5     0.0       N     0   0.0      SE   143   0.93    266      -35.8
   11/07/2017 04:00      52.2      51.8       75     44.3      0.00      0.09      69.4     0.29      1019.5     0.0       N     0   0.0      SE   143   0.93    266      -35.9
   11/07/2017 03:50      52.4      52.0       76     44.7      0.00      0.09      69.4     0.29      1019.4     0.0      SE   143   0.7      SE   143   0.94    266      -33.2
   11/07/2017 03:40      52.5      52.0       75     44.6      0.00      0.09      69.4     0.29      1019.3     0.0       N     0   0.0      SE   143   0.94    266      -32.4
   11/07/2017 03:30      52.5      52.0       74     44.3      0.00      0.09      69.4     0.29      1019.3     0.0       N     0   0.0      SE   143   0.94    266      -34.0
   11/07/2017 03:20      52.7      52.2       73     44.1      0.00      0.09      69.4     0.29      1019.4     0.0      SE   143   0.7      SE   143   0.94    266      -35.1
   11/07/2017 03:10      52.7      52.2       73     44.1      0.00      0.09      69.5     0.29      1019.5     0.2      SE   143   0.9      SE   143   0.94    266      -36.1
   11/07/2017 03:00      52.5      52.1       72     43.6      0.00      0.09      69.5     0.29      1019.4     1.0      SE   144   1.8      SE   143   0.94    266      -36.9
   11/07/2017 02:50      52.5      52.1       71     43.2      0.00      0.09      69.5     0.29      1019.3     0.3      SE   145   1.1      SE   145   0.94    266      -37.4
   11/07/2017 02:40      52.7      52.2       72     43.5      0.00      0.09      69.5     0.30      1019.3     0.0       N     0   0.0      SE   145   0.94    266      -38.0
   11/07/2017 02:30      53.0      52.5       71     43.4      0.00      0.09      69.5     0.29      1019.5     0.0       N     0   0.0      SE   145   0.94    266      -37.2
   11/07/2017 02:20      53.1      52.6       73     44.2      0.00      0.09      69.6     0.30      1019.5     0.0      SE   145   0.4      SE   145   0.94    266      -39.2
   11/07/2017 02:10      53.0      52.5       73     44.4      0.00      0.09      69.6     0.30      1019.3     0.0       N     0   0.0      SE   145   0.94    266      -41.5
   11/07/2017 02:00      53.2      52.6       73     44.4      0.00      0.09      69.6     0.30      1019.2     0.0      SE   145   0.9      SE   145   0.94    266      -41.0
   11/07/2017 01:50      53.1      52.5       73     44.2      0.00      0.09      69.6     0.30      1019.3     0.2      SE   145   0.9      SE   145   0.94    266      -40.8
   11/07/2017 01:40      52.9      52.4       70     43.1      0.00      0.09      69.6     0.30      1019.3     0.0       N     0   0.0      SE   145   0.94    266      -37.8
   11/07/2017 01:30      53.1      52.5       69     43.0      0.00      0.09      69.6     0.30      1019.6     0.2      SE   145   1.2      SE   145   0.94    266      -38.3
   11/07/2017 01:20      53.1      52.5       73     44.3      0.00      0.09      69.7     0.30      1019.6     0.5      SE   145   1.8      SE   145   0.93    266      -42.8
   11/07/2017 01:10      53.1      52.5       71     43.4      0.00      0.09      69.7     0.30      1019.5     0.2      SE   145   1.2      SE   145   0.93    266      -46.6
   11/07/2017 01:00      53.0      52.6       68     42.5      0.00      0.09      69.7     0.30      1019.5     0.3      SE   145   1.1      SE   145   0.93    266      -49.6
   11/07/2017 00:50      53.2      52.7       67     42.2      0.00      0.09      69.7     0.30      1019.6     0.3      SE   145   1.1      SE   145   0.93    266      -49.7
   11/07/2017 00:40      53.6      53.0       66     42.0      0.00      0.09      69.7     0.30      1019.6     0.4      SE   145   1.3      SE   145   0.94    266      -47.8
   11/07/2017 00:30      53.8      53.3       64     41.6      0.00      0.09      69.7     0.30      1019.5     0.2      SE   145   1.0      SE   145   0.94    266      -45.5
   11/07/2017 00:20      53.7      53.2       65     41.9      0.00      0.09      69.8     0.30      1019.5     0.3      SE   145   1.0      SE   145   0.94    266      -49.3
   11/07/2017 00:10      54.1      53.3       64     41.8      0.00      0.09      69.8     0.30      1019.5     0.1      SE   145   0.7      SE   145   0.94    266      -45.0
   11/07/2017 00:00      54.6      53.9       63     41.6      0.00      0.09      69.7     0.30      1019.6     0.2      SE   145   0.7      SE   145   0.94    266      -46.4
   11/06/2017 23:50      54.6      54.0       62     41.7      0.00      0.09      69.8     0.30      1019.6     0.2      SE   145   0.9      SE   145   0.94    265      -42.2
   11/06/2017 23:40      54.2      53.8       63     41.8      0.00      0.09      69.8     0.30      1019.6     0.0       N     0   0.0      SE   145   0.94    266      -40.5
   11/06/2017 23:30      54.3      53.6       63     41.5      0.00      0.09      69.7     0.30      1019.5     0.0      SE   145   0.5      SE   145   0.94    266      -42.6
   11/06/2017 23:20      54.5      54.0       61     41.0      0.00      0.09      69.8     0.30      1019.5     0.5     SSE   154   1.3      SE   144   0.94    265      -42.8
   11/06/2017 23:10      54.6      54.2       61     41.0      0.00      0.09      69.8     0.30      1019.6     0.1       S   185   1.5     SSW   193   0.94    265      -45.8
   11/06/2017 23:00      54.9      54.3       60     41.2      0.00      0.09      69.8     0.30      1019.7     0.3     SSE   150   0.9     SSE   147   0.94    265      -47.6
   11/06/2017 22:50      55.0      54.5       60     41.1      0.00      0.09      69.8     0.30      1019.6     0.8     SSE   147   2.0      SE   140   0.94    265      -46.8
   11/06/2017 22:40      54.9      54.4       61     41.4      0.00      0.09      69.8     0.30      1019.5     0.5       S   171   1.2     SSW   204   0.94    265      -52.0
   11/06/2017 22:30      55.6      54.6       61     41.7      0.00      0.09      69.8     0.30      1019.4     0.9      SE   142   2.2      SE   137   0.94    265      -53.5
   11/06/2017 22:20      56.3      55.4       59     41.5      0.00      0.09      69.8     0.30      1019.1     0.0     SSW   213   0.5     SSW   213   0.94    265      -52.3
   11/06/2017 22:10      56.6      55.9       59     42.2      0.00      0.09      69.8     0.30      1019.0     0.2     SSW   213   1.1     SSW   213   0.94    265      -52.5
   11/06/2017 22:00      56.8      56.3       59     42.5      0.00      0.09      69.8     0.30      1019.1     0.0     SSW   214   0.5     SSW   214   0.94    265      -55.1
   11/06/2017 21:50      57.0      56.4       59     42.4      0.00      0.09      69.8     0.30      1019.0     1.6     SSW   194   2.8       S   173   0.94    265      -56.6
   11/06/2017 21:40      57.9      56.8       57     42.2      0.00      0.09      69.8     0.30      1019.1     0.6     SSE   151   1.6     SSE   149   0.94    264      -57.9
   11/06/2017 21:30      58.6      57.6       56     42.5      0.00      0.09      69.8     0.30      1019.2     0.6     SSW   193   2.4     SSW   211   0.94    264      -58.0
   11/06/2017 21:20      58.7      57.9       57     43.0      0.00      0.09      69.8     0.30      1019.2     0.3     SSW   200   2.6     SSW   208   0.94    265      -53.9
   11/06/2017 21:10      59.4      58.4       56     43.2      0.00      0.09      69.8     0.30      1019.2     0.1       S   185   0.6       S   185   0.94    264      -54.5
   11/06/2017 21:00      60.2      59.1       54     42.8      0.00      0.09      69.8     0.30      1019.1     0.1       S   185   1.0       S   185   0.94    264      -58.4
   11/06/2017 20:50      60.8      59.9       52     42.6      0.00      0.09      69.8     0.30      1019.0     0.1       S   185   0.8       S   185   0.94    264      -57.4
   11/06/2017 20:40      61.6      60.5       49     41.6      0.00      0.09      69.8     0.30      1018.9     0.4       S   181   1.2       S   186   0.94    264      -51.0
   11/06/2017 20:30      62.4      61.4       50     43.1      0.00      0.09      69.8     0.30      1018.8     0.7     SSW   201   2.3       S   180   0.94    264      -48.5
   11/06/2017 20:20      62.5      61.8       46     41.1      0.00      0.09      69.7     0.30      1018.7     0.9     WSW   257   2.5     WSW   245   0.94    264      -44.2
   11/06/2017 20:10      63.2      61.9       39     37.2      0.00      0.09      69.8     0.30      1018.7     0.0      SW   226   1.2     WSW   257   0.94    264      -40.0
   11/06/2017 20:00      63.5      62.8       37     36.5      0.00      0.09      69.8     0.30      1018.7     0.2     SSW   204   1.0     SSW   204   0.94    264      -28.4
   11/06/2017 19:50      63.7      63.2       36     36.3      0.00      0.09      69.8     0.30      1018.6     0.6     SSW   209   1.6     SSW   200   0.94    264      -37.0
   11/06/2017 19:40      63.7      63.3       36     36.2      0.00      0.09      69.8     0.30      1018.6     0.9      SW   226   1.9     WSW   245   0.94    264      -35.8
   11/06/2017 19:30      63.6      63.0       36     36.2      0.00      0.09      69.7     0.30      1018.7     0.7      SW   226   1.5      SW   233   0.94    264      -30.3
   11/06/2017 19:20      63.2      62.5       40     37.9      0.00      0.09      69.7     0.30      1018.6     0.2     SSE   156   1.2     SSW   207   0.94    264      -26.6
   11/06/2017 19:10      63.1      62.5       42     39.6      0.00      0.09      69.7     0.30      1018.4     0.0      SE   145   0.5      SE   145   0.94    264      -24.5
   11/06/2017 19:00      63.0      62.7       41     38.6      0.00      0.09      69.7     0.30      1018.4     0.0      SE   144   0.6      SE   144   0.94    264      -26.3
   11/06/2017 18:50      63.2      62.5       41     38.9      0.00      0.09      69.7     0.30      1018.3     0.2      SE   144   0.8      SE   144   0.94    264      -25.2
   11/06/2017 18:40      63.1      62.2       42     39.0      0.00      0.09      69.7     0.30      1018.3     0.0      SE   144   0.5      SE   144   0.94    264      -26.3
   11/06/2017 18:30      63.6      62.3       43     39.7      0.00      0.09      69.6     0.30      1018.2     0.2      SE   144   1.1      SE   144   0.94    264      -39.7
   11/06/2017 18:20      64.6      63.2       40     39.2      0.00      0.09      69.6     0.30      1018.1     0.9     SSE   163   1.9       S   170   0.94    264      -54.9
   11/06/2017 18:10      65.0      64.3       39     39.2      0.00      0.09      69.6     0.30      1018.1     1.9     SSW   208   3.2      SW   225   0.94    264      -59.1
   11/06/2017 18:00      65.1      64.7       40     39.8      0.00      0.09      69.6     0.30      1018.0     0.6      SW   215   1.6      SW   228   0.94    264      -38.5
   11/06/2017 17:50      65.2      64.7       40     40.1      0.00      0.09      69.6     0.30      1017.8     1.3       S   176   2.9       S   190   0.94    264      -36.0
   11/06/2017 17:40      65.6      64.9       39     39.5      0.00      0.09      69.6     0.30      1017.7     0.8     SSW   212   2.3       S   182   0.94    264      -39.0
   11/06/2017 17:30      65.7      65.2       39     39.7      0.00      0.09      69.5     0.30      1017.7     0.6     WSW   258   1.6       W   281   0.94    264      -42.5
   11/06/2017 17:20      65.8      65.2       39     40.1      0.00      0.09      69.5     0.30      1017.8     1.7     SSW   194   3.5     SSW   195   0.94    264      -35.4
   11/06/2017 17:10      66.2      65.4       39     40.3      0.00      0.09      69.5     0.30      1017.7     1.8     SSE   157   4.6      SE   141   0.94    264      -37.7
   11/06/2017 17:00      66.5      65.8       40     41.0      0.00      0.09      69.5     0.30      1017.7     1.6       S   180   2.9      SW   223   0.94    264      -37.1
   11/06/2017 16:50      66.7      66.2       40     41.5      0.00      0.09      69.5     0.30      1017.6     1.2     SSE   165   2.6      SE   137   0.94    264      -33.8
   11/06/2017 16:40      66.8      66.3       40     41.1      0.00      0.09      69.5     0.30      1017.5     0.9       S   186   3.5       S   186   0.94    264      -24.3
   11/06/2017 16:30      66.9      66.3       39     40.6      0.00      0.09      69.4     0.30      1017.5     2.4     SSE   168   6.2       S   182   0.94    264      -24.8
   11/06/2017 16:20      67.3      66.6       38     40.5      0.00      0.09      69.4     0.30      1017.5     2.8       S   187   5.5       S   191   0.94    263      -28.4
   11/06/2017 16:10      68.2      67.1       39     41.4      0.00      0.09      69.4     0.30      1017.5     3.1       S   191   6.2       S   180   0.94    263      -40.6
   11/06/2017 16:00      68.5      68.0       39     42.6      0.00      0.09      69.3     0.30      1017.4     3.4       S   179   6.0       S   189   0.94    263       -9.7
   11/06/2017 15:50      69.1      68.2       39     42.7      0.00      0.09      69.3     0.30      1017.4     4.2       S   180   7.1     SSW   206   0.94    263       -3.3
   11/06/2017 15:40      69.6      68.7       38     42.4      0.00      0.09      69.3     0.30      1017.4     4.9       S   178   7.9     SSW   198   0.94    263       51.8
   11/06/2017 15:30      70.0      69.2       35     40.8      0.00      0.09      69.3     0.30      1017.3     4.9       S   179   8.5     SSW   213   0.94    263       67.2
   11/06/2017 15:20      69.9      69.5       37     42.6      0.00      0.09      69.3     0.30      1017.2     4.8       S   185   8.2     SSE   165   0.94    263       91.0
   11/06/2017 15:10      70.4      69.6       39     44.0      0.00      0.09      69.2     0.30      1017.2     4.9     SSE   161   8.1     SSW   202   0.94    263      126.1
   11/06/2017 15:00      71.1      69.8       41     45.7      0.00      0.09      69.2     0.30      1017.2     4.9     SSE   154   8.2      SE   139   0.94    263      162.9
   11/06/2017 14:50      71.1      70.3       41     45.6      0.00      0.09      69.2     0.30      1017.2     3.8     SSE   163   7.5      SE   133   0.94    263      171.3
   11/06/2017 14:40      71.9      70.8       40     45.6      0.00      0.09      69.1     0.30      1017.1     3.3      SE   142   6.8      SE   125   0.94    263      182.2
   11/06/2017 14:30      72.8      71.4       39     45.8      0.00      0.09      69.1     0.30      1017.1     3.7     SSW   200   7.4       S   190   0.94    263      196.2
   11/06/2017 14:20      72.7      71.9       38     45.5      0.00      0.09      69.1     0.30      1017.1     1.8       S   180   4.9       S   190   0.94    263      216.3
   11/06/2017 14:10      72.8      71.7       38     45.6      0.00      0.09      69.1     0.30      1017.2     2.4     SSW   214   5.7      SW   227   0.94    263      234.1
   11/06/2017 14:00      72.5      71.3       39     45.3      0.00      0.09      69.1     0.30      1017.3     1.7     SSE   164   4.6      SE   131   0.94    263      251.7
   11/06/2017 13:50      71.7      71.2       39     45.3      0.00      0.09      69.0     0.30      1017.3     3.6     SSW   205   7.3      SW   224   0.94    263      270.7
   11/06/2017 13:40      71.9      71.1       40     45.7      0.00      0.09      69.0     0.30      1017.4     3.5     SSW   202   7.2     SSW   209   0.94    263      287.0
   11/06/2017 13:30      72.5      71.4       37     44.5      0.00      0.09      69.0     0.30      1017.4     2.9      SE   139   6.6       S   182   0.94    263      298.3
   11/06/2017 13:20      72.0      70.7       38     44.1      0.00      0.09      69.0     0.30      1017.6     2.3     SSE   153   5.3       E    88   0.94    263      312.2
   11/06/2017 13:10      71.2      70.6       38     44.3      0.00      0.09      69.0     0.30      1017.6     3.5       S   190   7.6       S   177   0.94    263      324.9
   11/06/2017 13:00      71.3      69.7       41     45.8      0.00      0.09      69.0     0.30      1017.8     3.1     SSW   201   6.4       S   190   0.94    262      334.9
   11/06/2017 12:50      70.3      69.3       42     45.6      0.00      0.09      69.0     0.30      1018.0     4.0       S   186   7.1      SW   218   0.94    263      345.1
   11/06/2017 12:40      71.4      69.8       39     44.2      0.00      0.09      69.0     0.30      1018.0     5.1      SW   218   9.9     SSW   202   0.94    263      353.1
   11/06/2017 12:30      71.4      69.5       40     44.5      0.00      0.09      69.0     0.30      1018.2     2.5     SSE   151   6.9      SE   130   0.94    263      361.0
   11/06/2017 12:20      70.1      69.3       40     44.5      0.00      0.09      69.0     0.30      1018.3     4.1       S   170   7.1       S   188   0.94    263      369.5
   11/06/2017 12:10      69.8      68.6       41     44.4      0.00      0.09      69.0     0.30      1018.4     4.9       S   181   8.6       S   181   0.94    263      377.8
   11/06/2017 12:00      70.3      69.5       42     46.0      0.00      0.09      69.0     0.30      1018.6     4.6       S   175   9.2      SE   132   0.94    263      379.5
   11/06/2017 11:50      69.9      69.1       44     46.4      0.00      0.09      68.9     0.30      1018.7     3.9       S   181   6.4     WSW   239   0.94    263      384.0
   11/06/2017 11:40      69.8      69.2       45     47.1      0.00      0.09      68.9     0.30      1019.0     3.9       S   173   9.5       S   181   0.94    263      397.5
   11/06/2017 11:30      69.4      68.3       51     50.2      0.00      0.09      69.0     0.30      1019.1     2.2      SE   140   5.6      SE   129   0.94    263      395.9
   11/06/2017 11:20      68.8      67.2       52     49.9      0.00      0.09      69.0     0.30      1019.2     2.8       E   101   6.2       E    85   0.94    263      391.1
   11/06/2017 11:10      68.2      67.1       51     48.9      0.00      0.09      69.0     0.30      1019.2     3.3       E    88   6.6       E    87   0.94    264      273.7
   11/06/2017 11:00      67.9      66.3       51     48.4      0.00      0.09      69.0     0.30      1019.4     3.5       E    92   7.5       E    84   0.94    264      227.9
   11/06/2017 10:50      68.3      67.3       50     48.2      0.00      0.09      69.0     0.30      1019.5     3.9     ESE   108   7.6      SE   130   0.94    263      371.0
   11/06/2017 10:40      68.5      67.2       48     47.3      0.00      0.09      69.0     0.30      1019.6     3.5     ESE   122   8.0     ESE   112   0.94    263      369.5
   11/06/2017 10:30      67.6      66.9       49     47.5      0.00      0.09      69.0     0.30      1019.7     4.7     SSE   149   9.9       S   191   0.94    263      358.3
   11/06/2017 10:20      67.6      66.7       48     46.8      0.00      0.09      69.0     0.30      1019.6     4.1      SE   136   7.1      SE   137   0.94    263      353.1
   11/06/2017 10:10      67.7      67.2       51     48.6      0.00      0.09      69.0     0.30      1019.5     3.0       E    82   5.7     SSE   154   0.94    263      340.7
   11/06/2017 10:00      67.5      66.3       54     49.3      0.00      0.09      69.0     0.30      1019.4     2.2       E    82   5.1       E    94   0.94    263      327.7
   11/06/2017 09:50      66.5      65.8       55     49.4      0.00      0.09      69.1     0.30      1019.4     2.7      NE    49   5.1     ENE    57   0.94    263      320.6
   11/06/2017 09:40      66.3      65.7       56     49.6      0.00      0.09      69.1     0.30      1019.4     2.4     ENE    70   6.7       E    91   0.94    264      310.2
   11/06/2017 09:30      65.8      65.3       57     49.9      0.00      0.09      69.1     0.30      1019.3     2.7     ENE    60   5.7       E    81   0.94    264      286.8
   11/06/2017 09:20      65.8      65.1       59     50.6      0.00      0.09      69.1     0.30      1019.2     2.0      NE    49   5.9       E    79   0.94    264      283.1
   11/06/2017 09:10      65.4      64.0       60     50.5      0.00      0.09      69.1     0.30      1019.3     1.9       E    85   5.4       E    89   0.94    265      261.0
   11/06/2017 09:00      64.5      63.8       61     50.2      0.00      0.09      69.1     0.30      1019.2     2.0     ENE    63   4.1     NNE    25   0.94    268      263.4
   11/06/2017 08:50      64.1      62.5       62     50.0      0.00      0.09      69.2     0.30      1019.2     1.4     NNE    28   3.5      NE    42   0.94    274      253.7
   11/06/2017 08:40      62.6      61.8       63     49.6      0.00      0.09      69.2     0.30      1019.3     1.8      NE    40   3.7      NE    54   0.94    281      228.3
   11/06/2017 08:30      62.9      61.9       62     49.4      0.00      0.09      69.2     0.30      1019.4     1.6      NE    48   4.1     ENE    59   0.94    289      201.0
   11/06/2017 08:20      62.3      61.3       63     49.0      0.00      0.09      69.3     0.29      1019.5     1.0       E    92   3.0       E    92   0.94    265      174.8
   11/06/2017 08:10      61.5      60.4       64     48.7      0.00      0.09      69.2     0.29      1019.5     1.0     ENE    75   2.3       E    84   0.91    266      155.7
   11/06/2017 08:00      60.6      59.5       66     48.7      0.00      0.09      69.3     0.29      1019.4     1.3     ENE    71   3.6       E    83   0.91    266      140.4
   11/06/2017 07:50      59.6      58.4       69     48.8      0.00      0.09      69.3     0.29      1019.5     0.5       E    80   1.8     ENE    77   0.91    266       81.8
   11/06/2017 07:40      58.5      57.1       72     48.7      0.00      0.09      69.3     0.29      1019.7     0.0       N     0   0.0       S   190   0.91    268       23.2
   11/06/2017 07:30      57.3      56.3       74     48.7      0.00      0.09      69.3     0.29      1019.6     0.0       N     0   0.0       S   190   0.91    268       18.1
   11/06/2017 07:20      56.4      55.5       76     48.4      0.00      0.09      69.3     0.29      1019.6     0.1       S   190   0.8       S   190   0.91    268       25.2
   11/06/2017 07:10      55.7      55.3       77     48.3      0.00      0.09      69.4     0.29      1019.6     0.3       S   190   1.0       S   190   0.91    269       14.6
   11/06/2017 07:00      55.4      55.0       77     48.1      0.00      0.09      69.4     0.29      1019.7     0.0       N     0   0.0       S   190   0.91    269       -4.5
   11/06/2017 06:50      55.4      55.0       76     47.8      0.00      0.09      69.4     0.29      1019.7     0.0       S   190   0.6       S   190   0.91    268        0.4
   11/06/2017 06:40      55.2      54.6       77     48.0      0.00      0.09      69.4     0.29      1019.8     0.4     SSW   212   1.2       S   190   0.91    268      -11.7
   11/06/2017 06:30      54.9      54.2       79     48.0      0.00      0.09      69.5     0.29      1019.8     0.3     NNW   345   1.3       N    11   0.91    268      -11.4
   11/06/2017 06:20      54.5      54.0       79     47.6      0.00      0.09      69.5     0.29      1019.6     0.0       N     0   0.0     ESE   104   0.91    268       -7.9
   11/06/2017 06:10      54.2      53.6       79     47.6      0.00      0.09      69.4     0.29      1019.4     0.0     ESE   105   1.0     ESE   110   0.91    269      -11.3
   11/06/2017 06:00      53.8      53.1       80     47.6      0.00      0.09      69.5     0.29      1019.2     0.9     SSW   200   1.6     SSW   196   0.91    269      -12.2
   11/06/2017 05:50      53.2      52.9       82     47.5      0.00      0.09      69.5     0.29      1019.1     0.9       S   176   2.0       S   175   0.91    269      -20.2
   11/06/2017 05:40      53.1      52.7       82     47.4      0.00      0.09      69.5     0.29      1019.0     0.8       S   173   1.7       S   175   0.91    269      -24.4
   11/06/2017 05:30      53.0      52.7       81     47.1      0.00      0.09      69.6     0.29      1019.1     0.9     SSE   153   1.9       S   187   0.91    269      -21.8
   11/06/2017 05:20      53.0      52.5       80     46.9      0.00      0.09      69.6     0.29      1019.2     0.6       S   181   1.3       S   182   0.91    269      -27.6
   11/06/2017 05:10      53.0      52.6       81     47.0      0.00      0.09      69.6     0.29      1019.1     0.0       S   181   0.6       S   181   0.91    269      -24.8
   11/06/2017 05:00      53.0      52.6       81     47.0      0.00      0.09      69.7     0.29      1019.0     0.1       S   182   0.8       S   182   0.91    269      -24.6
   11/06/2017 04:50      53.0      52.7       81     47.1      0.00      0.09      69.6     0.29      1018.8     0.0       N     0   0.0       S   182   0.91    268      -24.9
   11/06/2017 04:40      53.2      52.7       80     46.9      0.00      0.09      69.7     0.29      1018.9     0.0       N     0   0.0       S   181   0.91    269      -33.1
   11/06/2017 04:30      53.3      52.8       80     47.1      0.00      0.09      69.7     0.29      1018.8     0.0       S   181   0.7       S   181   0.91    269      -28.8
   11/06/2017 04:20      53.3      52.9       80     47.0      0.00      0.09      69.7     0.29      1018.8     0.0       N     0   0.0       S   182   0.91    269      -23.0
   11/06/2017 04:10      53.4      52.9       80     47.1      0.00      0.09      69.7     0.29      1018.6     0.2       S   182   1.1       S   182   0.91    269      -26.1
   11/06/2017 04:00      53.5      53.0       80     47.0      0.00      0.09      69.8     0.29      1018.6     0.0       S   181   0.9       S   182   0.91    269      -28.7
   11/06/2017 03:50      53.5      53.0       79     47.0      0.00      0.09      69.8     0.29      1018.6     0.0       N     0   0.0       S   182   0.91    269      -20.8
   11/06/2017 03:40      53.6      53.1       79     46.9      0.00      0.09      69.8     0.29      1018.6     0.0       N     0   0.0       S   182   0.91    268      -22.2
   11/06/2017 03:30      53.6      53.2       79     47.1      0.00      0.09      69.8     0.29      1018.6     0.0       N     0   0.0       S   182   0.91    269      -22.4
   11/06/2017 03:20      53.6      53.2       79     46.9      0.00      0.09      69.8     0.29      1018.6     0.7       S   188   1.2       S   181   0.91    268      -22.6
   11/06/2017 03:10      53.8      53.1       79     46.9      0.00      0.09      69.8     0.29      1018.6     0.5       S   177   1.4       S   190   0.91    268      -23.2
   11/06/2017 03:00      53.6      53.0       81     47.5      0.00      0.09      69.9     0.29      1018.6     0.5      NW   321   1.8      NW   322   0.91    268      -23.1
   11/06/2017 02:50      53.2      52.5       81     47.0      0.00      0.09      69.9     0.29      1018.4     0.5       N   360   2.1     NNW   333   0.91    269      -24.9
   11/06/2017 02:40      53.1      52.5       81     47.0      0.00      0.09      69.9     0.29      1018.4     0.3      SE   124   1.3      SE   143   0.91    269      -25.3
   11/06/2017 02:30      53.1      52.5       80     46.8      0.00      0.09      70.0     0.29      1018.4     0.3     SSE   150   1.3      SE   143   0.91    269      -26.1
   11/06/2017 02:20      53.3      52.7       80     46.9      0.00      0.09      70.0     0.29      1018.3     0.2     NNE    14   0.9     NNE    14   0.91    269      -30.1
   11/06/2017 02:10      53.2      52.4       81     47.3      0.00      0.09      70.0     0.29      1018.3     0.4     WNW   299   1.4      NW   304   0.91    269      -24.5
   11/06/2017 02:00      52.7      52.2       81     46.7      0.00      0.09      70.0     0.29      1018.3     0.3     SSW   192   1.1      SW   222   0.91    269      -23.2
   11/06/2017 01:50      52.9      52.4       81     46.8      0.00      0.09      70.0     0.29      1018.5     0.0       N     0   0.0       S   172   0.91    269      -25.4
   11/06/2017 01:40      52.9      52.5       80     46.9      0.00      0.09      70.0     0.29      1018.6     0.0       N     0   0.0       S   172   0.91    269      -30.2
   11/06/2017 01:30      53.0      52.5       80     46.9      0.00      0.09      70.1     0.29      1018.7     0.1     SSE   168   0.9       S   172   0.91    269      -31.0
   11/06/2017 01:20      52.9      52.5       80     46.6      0.00      0.09      70.1     0.29      1018.7     0.2     SSW   205   1.3     SSW   205   0.91    269      -28.6
   11/06/2017 01:10      52.9      52.6       80     46.6      0.00      0.09      70.1     0.29      1018.8     0.0       N     0   0.0     SSW   205   0.91    269      -27.3
   11/06/2017 01:00      53.0      52.4       80     46.6      0.00      0.09      70.1     0.29      1018.9     0.3     SSW   205   1.1     SSW   205   0.91    269      -28.1
   11/06/2017 00:50      52.9      52.4       81     46.9      0.00      0.09      70.1     0.29      1018.9     0.4     SSW   205   1.4     SSW   205   0.91    269      -30.9
   11/06/2017 00:40      52.9      52.4       81     47.0      0.00      0.09      70.2     0.29      1018.8     0.1     SSW   205   0.8     SSW   205   0.91    269      -31.9
   11/06/2017 00:30      52.8      52.4       81     46.9      0.00      0.09      70.2     0.29      1018.8     0.0       N     0   0.0     SSW   205   0.91    269      -28.5
   11/06/2017 00:20      52.5      52.2       81     46.7      0.00      0.09      70.2     0.29      1018.9     0.0       N     0   0.0     SSW   205   0.91    269      -27.6
   11/06/2017 00:10      52.9      52.1       80     46.4      0.00      0.09      70.2     0.29      1018.9     0.0     SSW   205   0.7     SSW   205   0.91    269      -32.3
   11/06/2017 00:00      53.1      52.5       80     46.8      0.00      0.09      70.3     0.29      1018.9     0.4     SSW   209   1.9     SSW   214   0.91    269      -33.1
   11/05/2017 23:50      52.8      51.9       81     46.6      0.00      0.09      70.3     0.29      1018.8     1.3       S   188   3.0      SW   214   0.91    269      -37.8
   11/05/2017 23:40      52.9      52.2       79     46.3      0.00      0.09      70.3     0.29      1018.9     0.0       N     0   0.0     SSE   153   0.91    270      -42.6
   11/05/2017 23:30      53.2      52.5       79     46.5      0.00      0.09      70.3     0.29      1018.9     0.3     SSE   150   1.2     SSE   153   0.91    269      -40.1
   11/05/2017 23:20      53.4      52.7       79     46.5      0.00      0.09      70.3     0.29      1018.9     0.0     ESE   110   1.0      SE   142   0.91    269      -44.2
   11/05/2017 23:10      54.3      53.0       76     46.3      0.00      0.09      70.3     0.29      1018.9     0.0     SSE   163   0.7     SSE   163   0.91    269      -40.8
   11/05/2017 23:00      54.5      54.0       76     46.6      0.00      0.09      70.4     0.29      1019.0     0.1     WSW   258   1.0       W   260   0.91    269      -55.2
   11/05/2017 22:50      54.9      54.2       74     46.4      0.00      0.09      70.4     0.29      1019.0     0.3     SSW   201   1.2       S   189   0.91    269      -57.5
   11/05/2017 22:40      55.2      54.7       73     46.4      0.00      0.09      70.4     0.29      1019.0     1.4      SW   226   3.7     WSW   239   0.91    268      -58.9
   11/05/2017 22:30      55.7      54.8       71     46.0      0.00      0.09      70.4     0.29      1019.0     1.7      SW   225   3.6     WSW   242   0.91    268      -58.6
   11/05/2017 22:20      55.5      54.9       71     45.9      0.00      0.09      70.4     0.29      1018.9     2.0     WSW   238   4.5     WSW   251   0.91    268      -57.8
   11/05/2017 22:10      55.7      55.2       69     45.6      0.00      0.09      70.4     0.29      1018.9     0.7      SW   233   2.2      SW   231   0.91    268      -58.0
   11/05/2017 22:00      55.5      54.8       70     45.4      0.00      0.09      70.4     0.29      1019.0     1.5      SW   219   3.4      SW   234   0.91    268      -58.0
   11/05/2017 21:50      54.9      54.0       72     45.4      0.00      0.09      70.4     0.29      1018.8     1.6       S   190   3.2       S   188   0.91    268      -57.0
   11/05/2017 21:40      54.3      53.8       72     45.3      0.00      0.09      70.5     0.29      1018.6     0.7     SSE   154   2.2     SSE   167   0.92    268      -57.1
   11/05/2017 21:30      54.1      53.5       73     45.1      0.00      0.09      70.5     0.29      1018.6     0.6       S   170   1.7     SSE   166   0.92    268      -56.8
   11/05/2017 21:20      54.5      53.6       73     45.4      0.00      0.09      70.5     0.29      1018.6     0.3       S   179   1.4       S   179   0.92    268      -57.3
   11/05/2017 21:10      54.8      54.2       72     45.4      0.00      0.09      70.5     0.29      1018.5     0.9     SSE   158   1.4     SSE   147   0.92    268      -57.8
   11/05/2017 21:00      54.9      54.4       70     45.0      0.00      0.09      70.5     0.29      1018.4     0.2     SSW   203   1.3     SSE   153   0.92    268      -57.4
   11/05/2017 20:50      54.8      54.1       72     45.6      0.00      0.09      70.5     0.29      1018.3     1.1     SSW   198   1.9      SW   224   0.92    267      -56.1
   11/05/2017 20:40      55.0      54.5       72     45.7      0.00      0.09      70.5     0.29      1018.6     0.3       S   178   1.1       S   178   0.92    268      -57.9
   11/05/2017 20:30      55.4      54.9       71     45.7      0.00      0.09      70.5     0.29      1018.5     1.5       S   176   2.8       S   182   0.91    267      -57.9
   11/05/2017 20:20      55.6      54.9       70     45.7      0.00      0.09      70.5     0.29      1018.3     1.2       S   187   2.1     SSW   195   0.91    267      -58.8
   11/05/2017 20:10      56.3      54.9       69     45.7      0.00      0.09      70.5     0.29      1018.2     0.7     SSE   160   1.4     SSE   151   0.91    267      -58.3
   11/05/2017 20:00      56.9      55.9       69     46.3      0.00      0.09      70.5     0.29      1018.1     0.0       N     0   0.0     WSW   249   0.91    267      -58.2
   11/05/2017 19:50      57.8      56.6       68     46.4      0.00      0.09      70.5     0.29      1018.1     0.3       S   171   1.2     SSE   148   0.91    267      -59.5
   11/05/2017 19:40      58.6      57.4       65     46.3      0.00      0.09      70.5     0.29      1018.2     0.0       S   181   1.0       S   181   0.91    267      -59.6
   11/05/2017 19:30      59.0      58.3       64     46.4      0.00      0.09      70.5     0.29      1018.1     1.1     SSW   191   2.1       S   187   0.92    266      -54.0
   11/05/2017 19:20      59.3      58.7       63     46.5      0.00      0.09      70.5     0.29      1018.0     1.2     SSW   200   3.1       S   190   0.92    266      -49.2
   11/05/2017 19:10      59.3      58.6       63     46.6      0.00      0.09      70.5     0.29      1018.1     1.3     SSW   204   2.9      SW   219   0.92    266      -51.7
   11/05/2017 19:00      59.2      58.5       64     46.4      0.00      0.09      70.5     0.29      1017.9     1.7     SSW   202   2.3      SW   220   0.92    266      -52.3
   11/05/2017 18:50      59.5      58.9       63     46.8      0.00      0.09      70.5     0.29      1017.8     1.0     SSW   194   2.0     SSW   195   0.92    266      -58.0
   11/05/2017 18:40      59.4      58.6       64     46.9      0.00      0.09      70.5     0.29      1017.8     0.6     SSW   204   1.7     SSW   196   0.92    266      -53.9
   11/05/2017 18:30      58.9      58.5       65     47.0      0.00      0.09      70.4     0.29      1017.8     0.4       S   190   1.3       S   191   0.92    266      -49.1
   11/05/2017 18:20      59.0      58.4       65     46.8      0.00      0.09      70.4     0.29      1017.6     0.8       S   190   1.9       S   190   0.92    266      -54.3
   11/05/2017 18:10      60.2      58.7       63     47.0      0.00      0.09      70.4     0.29      1017.4     0.9       S   183   2.1       S   176   0.92    266      -56.2
   11/05/2017 18:00      61.1      59.9       61     47.2      0.00      0.09      70.4     0.29      1017.6     1.6       S   187   2.3     SSW   196   0.92    266      -61.1
   11/05/2017 17:50      61.0      60.3       61     47.1      0.00      0.09      70.4     0.29      1017.4     0.9     WSW   240   1.9       S   179   0.92    266      -64.2
   11/05/2017 17:40      61.9      60.8       59     46.9      0.00      0.09      70.4     0.29      1017.3     0.0       S   183   0.4       S   183   0.92    266      -65.8
   11/05/2017 17:30      62.2      61.6       59     47.2      0.00      0.09      70.4     0.29      1017.2     0.6       S   190   3.3       S   189   0.92    266      -68.1
   11/05/2017 17:20      62.7      61.9       58     47.4      0.00      0.09      70.3     0.29      1017.1     1.7     SSW   196   2.9     SSE   166   0.92    266      -69.0
   11/05/2017 17:10      63.2      62.5       58     47.8      0.00      0.09      70.3     0.29      1017.0     3.0       S   182   5.3     SSW   212   0.92    266      -70.0
   11/05/2017 17:00      63.8      62.9       57     48.0      0.00      0.09      70.3     0.29      1017.0     2.3       S   182   4.4       S   173   0.92    266      -68.9
   11/05/2017 16:50      64.4      63.6       56     47.9      0.00      0.09      70.3     0.29      1017.0     2.3       S   179   5.4     SSW   193   0.92    266      -66.0
   11/05/2017 16:40      64.9      64.2       55     47.7      0.00      0.09      70.3     0.29      1017.0     3.2       S   178   5.9       S   172   0.92    266      -63.8
   11/05/2017 16:30      65.7      64.6       53     47.5      0.00      0.09      70.3     0.29      1017.0     3.4       S   185   6.8     SSW   204   0.92    265      -59.9
   11/05/2017 16:20      65.8      65.2       52     47.4      0.00      0.09      70.2     0.29      1016.9     3.0       S   173   9.1       S   188   0.92    265      -55.3
   11/05/2017 16:10      66.4      65.5       51     47.3      0.00      0.09      70.3     0.29      1016.9     3.9       S   173   6.9       S   175   0.92    265      -18.3
   11/05/2017 16:00      66.6      66.2       50     47.2      0.00      0.09      70.2     0.29      1016.8     3.9       S   177   6.8     SSW   201   0.92    264        2.6
   11/05/2017 15:50      67.0      66.3       50     47.3      0.00      0.09      70.2     0.29      1016.7     4.3       S   180   7.2       S   189   0.92    264       21.3
   11/05/2017 15:40      67.1      66.6       49     47.3      0.00      0.09      70.2     0.29      1016.7     4.3       S   174   7.5       S   172   0.92    264       46.5
   11/05/2017 15:30      67.4      66.5       50     47.5      0.00      0.09      70.2     0.29      1016.7     5.0       S   169  10.4     SSE   161   0.92    264       71.6
   11/05/2017 15:20      67.6      67.0       49     47.6      0.00      0.09      70.1     0.29      1016.7     4.9     SSE   163   8.3     SSE   155   0.92    264       98.2
   11/05/2017 15:10      67.8      67.1       49     47.6      0.00      0.09      70.1     0.29      1016.8     4.8     SSE   157   7.6      SE   133   0.92    264      129.1
   11/05/2017 15:00      68.7      67.3       48     47.8      0.00      0.09      70.1     0.29      1016.8     5.3      SE   136  12.1     SSE   146   0.92    264      142.9
   11/05/2017 14:50      68.6      67.6       48     47.9      0.00      0.09      70.1     0.29      1016.9     5.4       S   169  10.1      SE   132   0.92    264      191.3
   11/05/2017 14:40      69.1      68.2       48     48.1      0.00      0.09      70.1     0.29      1017.0     4.9     SSE   158   7.7       S   184   0.92    264      211.8
   11/05/2017 14:30      69.1      68.5       48     48.2      0.00      0.09      70.1     0.29      1017.0     5.0     SSE   163   9.5       S   191   0.92    263      224.6
   11/05/2017 14:20      69.8      68.3       47     48.1      0.00      0.09      70.1     0.29      1017.1     5.6       S   184   9.7       S   184   0.92    264      248.5
   11/05/2017 14:10      69.7      69.1       47     48.4      0.00      0.09      70.1     0.29      1017.2     4.6     SSE   155   8.2     SSE   149   0.92    263      278.7
   11/05/2017 14:00      70.1      68.8       47     48.6      0.00      0.09      70.0     0.29      1017.2     3.9     SSE   147   8.3     SSW   194   0.91    263      307.6
   11/05/2017 13:50      69.5      68.6       48     48.7      0.00      0.09      70.0     0.29      1017.2     4.9      SE   145  10.5       S   186   0.91    264      318.6
   11/05/2017 13:40      69.6      68.6       48     48.6      0.00      0.09      70.0     0.29      1017.4     4.4     SSE   149   8.8       S   181   0.91    264      327.1
   11/05/2017 13:30      69.4      68.7       48     48.6      0.00      0.09      70.0     0.29      1017.5     4.7     SSE   152   7.5       S   169   0.92    263      343.2
   11/05/2017 13:20      69.3      68.7       49     49.0      0.00      0.09      70.0     0.29      1017.4     5.6     SSE   163  10.3      SE   143   0.91    263      360.3
   11/05/2017 13:10      69.8      68.8       49     49.3      0.00      0.09      69.9     0.29      1017.4     5.2      SE   134  10.0      SE   129   0.92    264      412.2
   11/05/2017 13:00      70.2      68.7       49     49.5      0.00      0.09      70.0     0.29      1017.5     4.5      SE   143   9.9      SE   130   0.91    263      492.0
   11/05/2017 12:50      70.0      69.1       50     50.4      0.00      0.09      69.9     0.29      1017.7     2.4      NE    43   5.2     NNE    18   0.92    264      458.3
   11/05/2017 12:40      69.2      66.7       55     50.8      0.00      0.09      69.9     0.29      1017.8     0.8     WNW   294   2.7      SW   236   0.92    264      354.6
   11/05/2017 12:30      66.9      66.6       57     50.9      0.00      0.09      69.9     0.29      1017.9     1.1     NNE    30   3.0      NE    47   0.92    266       68.4
   11/05/2017 12:20      66.8      66.3       57     50.9      0.00      0.09      69.9     0.29      1018.1     0.7       W   270   2.3     WSW   243   0.92    266       49.9
   11/05/2017 12:10      66.7      66.0       58     50.9      0.00      0.09      69.9     0.29      1018.3     0.5     NNE    29   3.0     NNE    15   0.92    266       40.6
   11/05/2017 12:00      66.5      65.8       58     50.9      0.00      0.09      69.8     0.29      1018.5     1.7       N   357   4.0     NNW   330   0.92    266       49.8
   11/05/2017 11:50      66.6      66.2       56     50.3      0.00      0.09      69.8     0.29      1018.7     1.8     NNE    18   4.6       N     2   0.92    266       42.4
   11/05/2017 11:40      67.1      66.2       55     49.9      0.00      0.09      69.8     0.29      1018.8     1.4     ENE    57   2.7     ENE    73   0.92    266       52.7
   11/05/2017 11:30      67.1      66.1       55     49.7      0.00      0.09      69.8     0.29      1019.0     0.6     NNE    29   2.7     NNW   348   0.92    265       46.9
   11/05/2017 11:20      66.5      66.0       56     49.9      0.00      0.09      69.8     0.29      1019.0     1.2     NNE    33   2.9      NE    44   0.92    265       42.5
   11/05/2017 11:10      66.8      66.1       56     50.0      0.00      0.09      69.8     0.29      1019.1     1.7      NE    49   3.1      NE    49   0.92    265      102.1
   11/05/2017 11:00      66.6      66.1       56     50.2      0.00      0.09      69.8     0.29      1019.2     1.8       N   352   4.2       N     0   0.92    265       77.3
   11/05/2017 10:50      66.5      65.8       56     50.3      0.00      0.09      69.8     0.29      1019.3     1.7     NNW   347   3.4       N   349   0.92    265       90.3
   11/05/2017 10:40      66.7      65.8       57     50.4      0.00      0.09      69.8     0.29      1019.4     1.6     NNW   334   3.4      NW   306   0.92    265      102.2
   11/05/2017 10:30      67.2      66.2       56     50.4      0.00      0.09      69.9     0.29      1019.4     2.0       N   355   3.4     NNW   346   0.92    265       86.1
   11/05/2017 10:20      69.4      66.9       54     50.7      0.00      0.09      69.8     0.29      1019.4     2.3     NNW   347   5.5       N     6   0.92    264       79.3
   11/05/2017 10:10      69.4      68.6       52     50.5      0.00      0.09      69.9     0.29      1019.6     1.8       N     7   5.4      NW   326   0.92    263      416.5
   11/05/2017 10:00      69.1      67.2       52     50.0      0.00      0.09      69.9     0.29      1019.6     1.4      SW   221   4.6      SW   227   0.92    263      446.3
   11/05/2017 09:50      67.4      66.6       53     49.7      0.00      0.09      69.9     0.29      1019.7     2.4     SSE   157   5.0      SE   138   0.92    263      461.4
   11/05/2017 09:40      67.4      66.0       57     51.0      0.00      0.09      70.0     0.29      1019.7     2.6     SSW   204   6.0     WSW   241   0.92    264      422.6
   11/05/2017 09:30      66.3      65.5       59     51.0      0.00      0.09      69.9     0.29      1019.9     2.5     WSW   250   5.3       W   263   0.92    265      341.5
   11/05/2017 09:20      65.7      64.9       62     51.7      0.00      0.09      70.0     0.29      1020.0     2.6     WSW   242   5.6     WSW   251   0.92    266      316.2
   11/05/2017 09:10      65.0      63.8       64     52.0      0.00      0.09      69.9     0.29      1019.9     2.9     WSW   246   7.6     WSW   254   0.92    266      325.0
   11/05/2017 09:00      64.8      63.7       66     52.5      0.00      0.09      70.0     0.29      1019.9     3.4     SSW   208   6.0     SSW   196   0.92    266      377.2
   11/05/2017 08:50      64.5      63.7       66     52.6      0.00      0.09      70.0     0.29      1020.1     3.5     SSW   207   6.8     SSW   213   0.92    290      351.1
   11/05/2017 08:40      64.5      63.0       68     52.9      0.00      0.09      69.9     0.29      1020.1     1.9       S   183   4.6      SW   222   0.92    387      300.7
   11/05/2017 08:30      63.0      61.3       72     53.1      0.00      0.09      70.0     0.29      1020.0     1.1       S   175   2.3     SSW   205   0.92    440      247.8
   11/05/2017 08:20      61.5      60.9       76     53.6      0.00      0.09      70.0     0.29      1020.0     1.2     SSW   203   2.2       S   185   0.92    478      157.8
   11/05/2017 08:10      61.6      61.0       76     54.0      0.00      0.09      70.0     0.29      1020.0     1.3      SW   223   2.8     WSW   256   0.92    498       92.5
   11/05/2017 08:00      62.0      61.0       76     54.0      0.00      0.09      70.0     0.29      1019.9     1.9      SW   214   3.1      SW   217   0.92    511      148.1
   11/05/2017 07:50      62.5      61.5       76     54.4      0.00      0.09      70.0     0.29      1019.8     1.4     SSW   213   4.0       S   188   0.92    527      153.2
   11/05/2017 07:40      63.0      62.3       76     54.7      0.00      0.09      70.0     0.29      1019.6     0.7     SSE   167   1.9       S   174   0.92    543      126.4
   11/05/2017 07:30      62.8      61.3       82     56.3      0.00      0.09      70.0     0.29      1019.6     0.0       N     0   0.0     SSW   193   0.92    546      126.3
   11/05/2017 07:20      61.5      58.6       88     56.4      0.00      0.09      70.0     0.29      1019.4     0.0       N     0   0.0     SSW   194   0.92    546       43.6
   11/05/2017 07:10      58.6      57.4       89     54.7      0.00      0.09      70.0     0.29      1019.1     0.0       N     0   0.0     SSW   194   0.92    545       16.9
   11/05/2017 07:00      57.9      57.4       89     54.4      0.00      0.09      70.1     0.29      1019.0     0.6     SSW   194   1.2     SSW   194   0.92    544       15.4
   11/05/2017 06:50      58.3      57.6       89     54.7      0.00      0.09      70.1     0.29      1019.0     0.0       N     0   0.0     SSW   194   0.92    542        8.9
   11/05/2017 06:40      58.2      57.9       90     55.0      0.00      0.09      70.1     0.29      1018.8     0.0     SSW   194   0.2     SSW   194   0.92    541        2.5
   11/05/2017 06:30      58.3      57.7       90     55.0      0.00      0.09      70.1     0.29      1018.7     0.5       S   191   2.2     SSW   196   0.92    540       -0.7
   11/05/2017 06:20      58.3      57.8       91     55.2      0.00      0.09      70.1     0.29      1018.6     1.3     SSW   193   2.7       S   173   0.92    542       -3.0
   11/05/2017 06:10      58.2      57.9       91     55.3      0.00      0.09      70.1     0.29      1018.5     1.2     SSW   208   1.7     SSW   208   0.92    544       -4.0
   11/05/2017 06:00      58.1      57.6       90     55.0      0.00      0.09      70.1     0.29      1018.4     1.1     SSW   207   1.8     SSW   207   0.92    544       -3.5
   11/05/2017 05:50      58.6      57.7       90     55.0      0.00      0.09      70.1     0.29      1018.2     0.6     SSW   207   1.4     SSW   207   0.92    546       -4.0
   11/05/2017 05:40      58.7      58.2       90     55.4      0.00      0.09      70.1     0.29      1018.2     0.7       S   186   1.6       S   189   0.92    545       -5.7
   11/05/2017 05:30      58.6      58.3       90     55.6      0.00      0.09      70.1     0.29      1018.1     0.6     SSE   157   2.4      SE   137   0.92    543       -4.5
   11/05/2017 05:20      58.7      58.3       90     55.5      0.00      0.09      70.1     0.29      1018.2     1.3     SSE   161   2.7      SE   136   0.92    544       -4.8
   11/05/2017 05:10      58.9      58.4       89     55.4      0.00      0.09      70.1     0.29      1018.2     2.1     SSW   198   3.9     SSW   202   0.92    545       -5.0
   11/05/2017 05:00      59.2      58.5       88     55.4      0.00      0.09      70.1     0.29      1018.2     1.9     SSW   202   3.7     SSW   206   0.92    547       -4.9
   11/05/2017 04:50      59.3      58.8       87     55.3      0.00      0.09      70.2     0.29      1018.2     1.0      SW   224   1.9      SW   236   0.92    544       -5.1
   11/05/2017 04:40      59.7      59.1       86     55.2      0.00      0.09      70.2     0.29      1018.2     1.4     WSW   252   2.5      SW   230   0.92    407       -5.7
   11/05/2017 04:30      59.6      59.3       85     55.0      0.00      0.09      70.1     0.29      1018.1     1.3     WSW   248   2.2       W   277   0.92    391       -6.4
   11/05/2017 04:20      59.6      59.2       85     54.9      0.00      0.09      70.2     0.29      1018.0     0.3      SW   220   1.5      SW   228   0.92    373       -8.6
   11/05/2017 04:10      59.4      59.1       86     54.9      0.00      0.09      70.2     0.29      1018.0     0.6      SW   214   1.9      SW   230   0.92    337       -7.5
   11/05/2017 04:00      59.3      58.9       86     55.0      0.00      0.09      70.2     0.29      1018.0     0.1       S   171   0.9       S   171   0.92    343       -7.9
   11/05/2017 03:50      59.3      58.9       86     55.0      0.00      0.09      70.2     0.29      1018.0     0.5       S   171   1.5       S   171   0.92    347       -8.1
   11/05/2017 03:40      59.3      58.9       86     55.0      0.00      0.09      70.2     0.29      1018.0     0.5       S   171   1.3       S   171   0.92    349       -8.3
   11/05/2017 03:30      59.3      58.9       86     54.9      0.00      0.09      70.2     0.29      1017.9     0.7       S   172   1.7     SSW   195   0.92    347       -8.0
   11/05/2017 03:20      59.6      59.0       85     54.8      0.00      0.09      70.2     0.29      1017.9     1.1       S   174   2.3       S   182   0.92    344      -11.1
   11/05/2017 03:10      60.1      59.3       84     54.6      0.00      0.09      70.3     0.29      1017.9     1.2       S   174   2.3       S   180   0.92    345      -11.4
   11/05/2017 03:00      60.2      59.8       81     54.2      0.00      0.09      70.3     0.29      1017.9     1.7       S   189   3.3       S   179   0.92    344      -10.0
   11/05/2017 02:50      60.3      59.8       80     53.9      0.00      0.09      70.3     0.29      1017.9     2.2     SSW   193   4.3     SSW   196   0.92    268       -9.7
   11/05/2017 02:40      60.2      59.8       80     53.9      0.00      0.09      70.3     0.29      1017.9     2.3     SSW   209   4.0     SSW   192   0.92    268       -9.2
   11/05/2017 02:30      60.2      59.7       81     53.9      0.00      0.09      70.3     0.29      1017.9     2.2     SSW   195   6.0      SW   223   0.92    268       -9.6
   11/05/2017 02:20      59.9      59.5       81     53.9      0.00      0.09      70.3     0.29      1017.9     1.9       S   169   3.5       S   179   0.92    268       -9.0
   11/05/2017 02:10      59.9      59.4       81     53.8      0.00      0.09      70.3     0.29      1017.8     1.4       S   171   3.0      SE   146   0.92    268       -8.9
   11/05/2017 02:00      59.8      59.4       81     53.9      0.00      0.09      70.4     0.29      1017.7     1.5       S   181   2.3       S   181   0.92    268      -11.6
   11/05/2017 02:00      59.8      59.4       80     53.4      0.00      0.09      70.5     0.29      1017.9     1.9      SE   142   3.2      SE   143   0.92    268       -8.7
   11/05/2017 01:50      60.0      59.4       81     53.8      0.00      0.09      70.3     0.29      1017.8     1.5       S   171   3.1       S   189   0.92    268      -17.7
   11/05/2017 01:50      59.8      59.4       79     53.2      0.00      0.09      70.5     0.29      1017.9     1.4     SSE   156   3.0      SE   146   0.92    268       -8.5
   11/05/2017 01:40      59.9      59.5       80     53.7      0.00      0.09      70.4     0.29      1017.9     1.4       S   179   2.7     ESE   121   0.92    268      -12.2
   11/05/2017 01:40      59.7      59.3       79     53.0      0.00      0.09      70.5     0.29      1017.9     1.2     SSE   166   2.3      SE   143   0.92    268       -8.1
   11/05/2017 01:30      59.9      59.4       80     53.6      0.00      0.09      70.4     0.29      1017.9     1.8       S   176   3.7       S   180   0.92    268       -8.8
   11/05/2017 01:30      59.6      59.1       79     53.0      0.00      0.09      70.5     0.29      1017.9     0.9     SSE   160   2.2       S   180   0.92    268       -8.2
   11/05/2017 01:20      59.8      59.4       80     53.6      0.00      0.09      70.4     0.29      1017.9     1.3     SSE   167   2.3     SSE   150   0.92    268       -8.9
   11/05/2017 01:20      59.4      58.6       80     52.8      0.00      0.09      70.5     0.29      1017.8     0.9     SSE   161   2.2     SSE   163   0.92    268       -7.8
   11/05/2017 01:10      59.7      59.4       80     53.5      0.00      0.09      70.4     0.29      1017.9     1.5     SSE   160   2.9      SE   139   0.92    268       -8.6
   11/05/2017 01:10      58.7      58.0       81     52.6      0.00      0.09      70.5     0.29      1017.9     0.6     SSE   165   1.4       S   169   0.92    268       -7.3
   11/05/2017 01:00      58.2      57.2       83     52.5      0.00      0.09      70.5     0.29      1018.0     1.3     SSE   159   2.6      SE   143   0.92    268       -6.2
   11/05/2017 00:50      57.3      56.0       85     52.1      0.00      0.09      70.5     0.29      1018.1     1.1     SSE   152   2.4     SSE   147   0.92    268       -4.5
   11/05/2017 00:40      56.1      54.7       87     51.5      0.00      0.09      70.5     0.29      1018.2     1.0      SE   146   2.1      SE   144   0.92    269       -3.3
   11/05/2017 00:30      54.8      54.5       87     50.7      0.00      0.09      70.5     0.29      1018.2     0.5     SSE   155   1.7     SSE   151   0.92    272       -4.5
   11/05/2017 00:20      54.9      54.5       86     50.5      0.00      0.09      70.5     0.29      1018.1     0.3       S   177   1.2       S   177   0.92    277      -35.7
   11/05/2017 00:10      55.7      54.6       85     50.5      0.00      0.09      70.5     0.29      1018.1     0.0       S   177   0.7       S   178   0.92    275      -48.6
   11/05/2017 00:00      56.4      55.4       84     51.2      0.00      0.09      70.5     0.29      1018.1     0.8       S   180   1.6       S   184   0.92    273      -46.5
   11/04/2017 23:50      56.5      56.2       84     51.8      0.00      0.09      70.6     0.29      1018.1     1.1      SW   218   1.6     WSW   238   0.92    273      -47.5
   11/04/2017 23:40      56.5      55.5       85     51.4      0.00      0.09      70.6     0.29      1018.0     0.9      SW   236   1.6     WSW   242   0.92    273      -48.5
   11/04/2017 23:30      56.1      55.5       84     50.9      0.00      0.09      70.6     0.29      1018.0     0.4       S   185   1.2       S   185   0.92    271      -49.7
   11/04/2017 23:20      56.8      55.9       84     51.3      0.00      0.09      70.6     0.29      1017.9     1.0       S   189   1.4       S   185   0.92    270      -49.5
   11/04/2017 23:10      56.6      56.1       83     51.1      0.00      0.09      70.6     0.29      1017.9     0.8     SSW   203   1.3     SSW   200   0.92    270      -49.5
   11/04/2017 23:00      56.8      56.0       82     51.0      0.00      0.09      70.6     0.29      1017.8     1.4     SSW   205   1.9      SW   227   0.93    269      -50.0
   11/04/2017 22:50      56.8      56.2       82     51.0      0.00      0.09      70.6     0.29      1017.8     0.9       S   187   1.6     SSW   206   0.93    269      -52.2
   11/04/2017 22:40      57.5      56.6       81     51.3      0.00      0.09      70.6     0.29      1017.8     0.0       S   177   0.7       S   177   0.93    269      -52.0
   11/04/2017 22:30      57.7      57.0       81     51.6      0.00      0.09      70.6     0.29      1017.8     1.0       S   176   2.5       S   181   0.92    268      -39.5
   11/04/2017 22:20      57.7      57.1       80     51.4      0.00      0.09      70.6     0.29      1017.8     0.7     SSE   167   1.6     SSE   148   0.92    268      -48.4
   11/04/2017 22:10      58.6      57.4       78     51.1      0.00      0.09      70.6     0.29      1017.7     1.0       S   175   2.1       S   179   0.92    268      -53.0
   11/04/2017 22:00      58.6      58.3       78     51.6      0.00      0.09      70.6     0.29      1017.6     1.1     SSE   149   2.9      SE   144   0.92    268      -41.7
   11/04/2017 21:50      59.0      58.2       78     51.6      0.00      0.09      70.6     0.29      1017.6     1.2       S   175   2.3     SSE   167   0.92    268      -47.0
   11/04/2017 21:40      59.4      58.6       77     51.7      0.00      0.09      70.6     0.29      1017.5     1.2       S   182   2.1     SSW   211   0.92    268      -54.7
   11/04/2017 21:30      59.6      59.1       76     51.9      0.00      0.09      70.6     0.29      1017.4     1.8       S   178   3.8     SSW   212   0.92    268      -57.9
   11/04/2017 21:20      59.6      59.2       76     51.8      0.00      0.09      70.6     0.29      1017.3     2.5       S   183   5.0      SW   222   0.92    268      -58.6
   11/04/2017 21:10      59.8      59.3       75     51.6      0.00      0.09      70.5     0.29      1017.2     2.2     SSW   200   3.8     SSW   212   0.92    267      -58.9
   11/04/2017 21:00      59.9      59.4       74     51.4      0.00      0.09      70.6     0.29      1017.2     1.6      SW   219   2.9     SSW   207   0.92    267      -59.0
   11/04/2017 20:50      60.3      59.6       74     51.6      0.00      0.09      70.5     0.29      1017.2     2.2      SW   216   3.7      SW   232   0.92    267      -59.8
   11/04/2017 20:40      60.5      60.0       73     51.5      0.00      0.09      70.5     0.29      1017.2     3.1      SW   230   5.5      SW   232   0.92    267      -60.3
   11/04/2017 20:30      60.7      60.3       71     51.1      0.00      0.09      70.5     0.29      1017.2     4.0      SW   231   8.5     WSW   239   0.92    266      -60.3
   11/04/2017 20:20      60.7      60.2       69     50.1      0.00      0.09      70.5     0.29      1017.2     2.3      SW   221   5.1       W   278   0.92    266      -59.2
   11/04/2017 20:10      61.2      60.5       67     49.9      0.00      0.09      70.5     0.29      1017.1     0.9     SSW   196   1.8     SSW   207   0.92    266      -59.2
   11/04/2017 20:00      61.5      60.9       67     50.0      0.00      0.09      70.5     0.29      1017.1     2.5     SSW   198   5.0      SW   232   0.93    266      -61.4
   11/04/2017 19:50      61.8      61.2       65     49.7      0.00      0.09      70.5     0.29      1017.1     2.6     SSW   201   5.3     SSW   207   0.92    266      -62.2
   11/04/2017 19:40      62.0      61.3       65     49.6      0.00      0.09      70.4     0.29      1017.1     2.1     SSW   213   5.3      SW   225   0.92    266      -62.9
   11/04/2017 19:30      62.3      61.8       64     49.5      0.00      0.09      70.4     0.29      1016.9     1.9      SW   225   3.5     SSW   207   0.92    266      -63.5
   11/04/2017 19:20      62.4      61.8       62     49.1      0.00      0.09      70.4     0.29      1016.8     2.7      SW   231   5.1     WSW   242   0.92    266      -64.5
   11/04/2017 19:10      62.8      62.1       61     48.8      0.00      0.09      70.3     0.29      1016.7     2.5     SSW   211   6.7     SSW   194   0.92    266      -65.3
   11/04/2017 19:00      62.9      62.3       59     48.1      0.00      0.09      70.3     0.29      1016.5     2.6      SW   215   5.3       S   172   0.92    266      -65.8
   11/04/2017 18:50      63.2      62.5       58     47.7      0.00      0.09      70.3     0.29      1016.4     1.9     SSW   203   5.3       W   271   0.92    266      -66.5
   11/04/2017 18:40      63.6      62.7       57     47.6      0.00      0.09      70.3     0.29      1016.3     2.3     SSW   204   4.2     SSW   200   0.92    265      -67.1
   11/04/2017 18:30      64.0      63.2       56     47.6      0.00      0.09      70.3     0.29      1016.1     3.9      SW   216   7.6      SW   227   0.92    265      -68.4
   11/04/2017 18:20      64.4      63.6       56     47.8      0.00      0.09      70.2     0.29      1015.8     4.2      SW   234   8.1      SW   232   0.92    265      -68.8
   11/04/2017 18:10      65.0      64.1       55     47.7      0.00      0.09      70.2     0.29      1015.7     5.2      SW   235   8.7     SSW   195   0.92    265      -68.4
   11/04/2017 18:00      65.7      64.7       53     47.7      0.00      0.09      70.2     0.29      1015.5     5.0     WSW   242   9.1     WSW   248   0.92    264      -66.8
   11/04/2017 17:50      66.3      65.4       52     47.8      0.00      0.09      70.1     0.29      1015.4     4.3       W   259   8.0       W   259   0.93    264      -63.8
   11/04/2017 17:40      66.6      66.0       51     47.6      0.00      0.09      70.1     0.29      1015.4     3.7       W   277   7.0      NW   316   0.92    264      -60.9
   11/04/2017 17:30      66.9      66.3       50     47.4      0.00      0.09      70.0     0.29      1015.3     3.3       W   276   6.7       W   259   0.93    264      -56.0
   11/04/2017 17:20      67.6      66.5       49     46.9      0.00      0.09      70.1     0.29      1015.2     4.9     WSW   242   9.7     WSW   237   0.92    264      -53.3
   11/04/2017 17:10      68.5      67.5       47     46.9      0.00      0.09      70.0     0.29      1015.2     4.9     WSW   258   8.2      SW   224   0.92    263      -18.7
   11/04/2017 17:00      68.7      68.1       46     46.9      0.00      0.09      70.0     0.29      1015.2     4.4     WSW   249   6.9     WSW   242   0.92    264        5.4
   11/04/2017 16:50      69.3      68.5       45     46.6      0.00      0.09      70.0     0.29      1015.2     4.7       W   278   8.2     WNW   299   0.92    263       26.7
   11/04/2017 16:40      69.5      68.7       44     46.3      0.00      0.09      70.0     0.29      1015.2     5.5     WSW   251  10.5       W   274   0.92    263       49.3
   11/04/2017 16:30      70.2      69.1       43     46.1      0.00      0.09      69.9     0.29      1015.1     6.6     WSW   247  14.1      SW   218   0.92    263       72.8
   11/04/2017 16:20      70.6      69.9       43     46.7      0.00      0.09      69.9     0.29      1015.0     5.1       W   263   9.6     WNW   289   0.92    263       95.9
   11/04/2017 16:10      70.5      69.9       43     46.9      0.00      0.09      69.9     0.29      1014.9     4.6       W   269   8.3     WSW   257   0.92    263      115.7
   11/04/2017 16:00      70.8      70.1       41     45.9      0.00      0.09      69.8     0.29      1014.9     5.7     WSW   254   9.0      SW   225   0.92    263      148.1
   11/04/2017 15:50      71.5      70.4       41     46.1      0.00      0.09      69.8     0.29      1014.9     6.0     WSW   245  10.2     WSW   250   0.92    263      171.3
   11/04/2017 15:40      71.4      70.3       42     46.8      0.00      0.09      69.8     0.29      1014.9     4.9       W   279  11.3     WNW   303   0.92    263      192.3
   11/04/2017 15:30      71.3      70.3       42     46.2      0.00      0.09      69.7     0.29      1014.9     7.2       W   260  12.6     WSW   245   0.92    263      211.9
   11/04/2017 15:20      71.4      70.8       41     46.5      0.00      0.09      69.7     0.29      1014.8     5.8       W   276   9.2     WNW   291   0.92    263      230.6
   11/04/2017 15:10      71.8      70.8       41     46.4      0.00      0.09      69.7     0.29      1014.9     5.7     WSW   256  10.5     WNW   291   0.92    263      248.9
   11/04/2017 15:00      71.9      71.0       40     46.1      0.00      0.09      69.6     0.29      1014.8     4.7       W   268  10.7     WSW   244   0.93    263      265.6
   11/04/2017 14:50      71.7      70.9       41     46.4      0.00      0.09      69.6     0.29      1014.9     6.1     WSW   252   9.9     WSW   249   0.93    263      283.2
   11/04/2017 14:40      71.9      70.8       40     46.2      0.00      0.09      69.6     0.29      1014.9     5.3     WSW   240   8.2     WSW   247   0.93    263      297.2
   11/04/2017 14:30      71.7      70.5       41     46.0      0.00      0.09      69.6     0.29      1015.0     5.6     WSW   242   9.5     SSW   206   0.92    263      313.4
   11/04/2017 14:20      72.0      71.2       39     45.7      0.00      0.09      69.5     0.29      1015.0     6.1     WSW   237  10.5      SW   236   0.92    263      327.6
   11/04/2017 14:10      72.3      71.5       38     45.3      0.00      0.09      69.6     0.29      1015.0     5.8     WSW   252  12.4     WSW   254   0.92    263      343.1
   11/04/2017 14:00      72.7      71.4       39     45.6      0.00      0.09      69.5     0.29      1015.0     6.5     WSW   254  12.4      SW   228   0.92    263      351.2
   11/04/2017 13:50      73.0      71.9       38     45.4      0.00      0.09      69.5     0.29      1015.0     5.7       W   268   9.6      NW   315   0.92    263      361.3
   11/04/2017 13:40      73.3      71.9       38     45.3      0.00      0.09      69.5     0.29      1015.0     4.7       W   268   8.9     WSW   258   0.93    263      372.1
   11/04/2017 13:30      72.7      71.5       38     45.1      0.00      0.09      69.5     0.29      1015.1     5.5      SW   229   9.6     SSW   200   0.92    263      332.0
   11/04/2017 13:20      72.5      71.7       38     44.8      0.00      0.09      69.5     0.29      1015.4     5.6     WSW   249  11.3       W   277   0.92    263      374.4
   11/04/2017 13:10      72.7      72.2       37     44.7      0.00      0.09      69.4     0.29      1015.5     4.1     WSW   241   8.1     WSW   237   0.92    263      383.2
   11/04/2017 13:00      72.5      71.2       39     45.2      0.00      0.09      69.5     0.29      1015.5     2.6       W   271   5.3      SW   222   0.92    263      386.4
   11/04/2017 12:50      71.4      70.5       39     45.0      0.00      0.09      69.5     0.29      1015.8     4.3     WSW   239   9.2      SW   233   0.92    263      387.8
   11/04/2017 12:40      71.0      70.3       39     44.9      0.00      0.09      69.5     0.29      1016.0     3.6      SW   214   7.6      SW   233   0.92    263      389.4
   11/04/2017 12:30      70.6      69.2       40     44.4      0.00      0.09      69.5     0.29      1016.2     4.1      SW   229   9.0     SSW   207   0.93    263      386.9
   11/04/2017 12:20      70.5      69.6       40     44.3      0.00      0.09      69.5     0.29      1016.4     4.9     WSW   248   7.3     WSW   242   0.93    263      385.2
   11/04/2017 12:10      70.4      69.2       39     43.5      0.00      0.09      69.5     0.29      1016.6     4.5     WSW   247   7.6       W   272   0.93    263      383.7
   11/04/2017 12:00      69.3      68.4       40     43.5      0.00      0.09      69.5     0.29      1016.8     4.3       W   265   8.8      NW   311   0.93    263      380.2
   11/04/2017 11:50      69.1      68.2       41     43.8      0.00      0.09      69.5     0.29      1017.0     4.7     WSW   237   8.2       W   271   0.92    263      377.0
   11/04/2017 11:40      69.2      68.3       42     44.5      0.00      0.09      69.5     0.29      1017.0     3.6     SSW   210   7.2       S   182   0.93    263      370.0
   11/04/2017 11:30      69.1      68.3       43     45.1      0.00      0.09      69.6     0.29      1017.0     2.9     WSW   256   6.1      SW   230   0.93    263      362.1
   11/04/2017 11:20      68.4      67.1       46     46.4      0.00      0.09      69.6     0.29      1017.2     2.1     WSW   241   5.6       W   262   0.93    263      354.5
   11/04/2017 11:10      67.4      66.6       49     47.3      0.00      0.09      69.6     0.29      1017.2     2.5       W   270   5.4     WSW   236   0.93    263      346.7
   11/04/2017 11:00      67.0      66.2       52     48.1      0.00      0.09      69.6     0.29      1017.3     3.4       W   266   7.0      SW   218   0.93    263      336.7
   11/04/2017 10:50      66.6      66.0       51     47.8      0.00      0.09      69.7     0.29      1017.3     3.3     WSW   241   7.0     WSW   250   0.93    263      327.2
   11/04/2017 10:40      66.2      65.1       52     47.5      0.00      0.09      69.7     0.29      1017.3     3.3     WSW   254   6.4     WSW   239   0.93    264      315.1
   11/04/2017 10:30      65.2      64.6       54     47.6      0.00      0.09      69.6     0.29      1017.3     4.6      SW   223   6.9      SW   229   0.93    264      302.0
   11/04/2017 10:20      64.9      63.7       56     48.1      0.00      0.09      69.7     0.29      1017.2     4.7     WSW   242   7.1     SSW   196   0.93    264      286.5
   11/04/2017 10:10      64.1      62.9       59     48.8      0.00      0.09      69.8     0.29      1017.2     4.0     WSW   238   6.2     WSW   252   0.93    265      271.1
   11/04/2017 10:00      63.2      62.7       60     48.9      0.00      0.09      69.8     0.29      1017.1     4.7      SW   229   9.7     SSW   212   0.93    265      255.0
   11/04/2017 09:50      62.7      62.2       62     49.2      0.00      0.09      69.8     0.29      1017.1     4.5      SW   217   7.3     WSW   249   0.93    266      238.1
   11/04/2017 09:40      62.5      61.8       63     49.4      0.00      0.09      69.8     0.29      1017.1     4.2     SSW   206   7.5       S   190   0.93    266      221.2
   11/04/2017 09:30      62.4      61.2       64     49.6      0.00      0.09      69.9     0.29      1017.0     3.0      SW   225   6.2     SSW   202   0.92    266      202.0
   11/04/2017 09:20      61.3      60.4       66     49.4      0.00      0.09      69.9     0.29      1017.0     3.3      SW   217   5.8     SSW   207   0.93    266      181.9
   11/04/2017 09:10      60.8      60.3       67     49.4      0.00      0.09      69.9     0.29      1017.0     3.0      SW   222   5.5     SSW   192   0.92    266      155.2
   11/04/2017 09:00      60.6      60.1       67     49.4      0.00      0.09      70.0     0.29      1017.0     3.1      SW   229   5.5     WSW   249   0.92    267      126.5
   11/04/2017 08:50      60.5      60.0       68     49.6      0.00      0.09      70.0     0.29      1016.9     2.4     WSW   238   4.4      SW   228   0.92    339      117.2
   11/04/2017 08:40      60.5      59.8       69     50.1      0.00      0.09      70.0     0.29      1016.8     1.3      SW   227   3.3      SW   234   0.93    384       67.1
   11/04/2017 08:30      60.0      57.6       75     51.1      0.00      0.09      70.0     0.29      1016.8     0.3     ENE    65   1.3     ENE    70   0.93    390       99.7
   11/04/2017 08:20      57.6      54.8       82     50.8      0.00      0.09      70.0     0.29      1016.7     0.3     ENE    65   1.6      NE    55   0.92    391       35.9
   11/04/2017 08:10      54.9      53.1       86     50.1      0.00      0.09      70.1     0.29      1016.7     0.6     ENE    60   2.4      NE    50   0.93    390        2.4
   11/04/2017 08:00      53.3      52.6       87     49.2      0.00      0.09      70.0     0.29      1016.6     0.4      NE    55   1.5     ENE    59   0.93    389        0.7
   11/04/2017 07:50      52.9      52.1       88     48.8      0.00      0.09      70.1     0.29      1016.5     0.2      SE   146   2.2     ESE   103   0.93    386       -3.4
   11/04/2017 07:40      52.7      52.2       87     48.6      0.00      0.09      70.1     0.29      1016.5     0.0       N     0   0.0      SE   126   0.92    382       -7.7
   11/04/2017 07:30      52.9      52.2       86     48.4      0.00      0.09      70.1     0.29      1016.5     0.0      SE   126   0.4      SE   126   0.92    379      -12.4
   11/04/2017 07:20      54.1      52.7       85     48.6      0.00      0.09      70.2     0.29      1016.4     0.0      SE   126   0.5      SE   126   0.92    375      -17.5
   11/04/2017 07:10      54.9      53.6       83     49.2      0.00      0.09      70.2     0.29      1016.4     1.2     SSE   159   2.5       S   176   0.92    373      -20.2
   11/04/2017 07:00      55.2      54.6       83     49.8      0.00      0.09      70.2     0.29      1016.4     1.2      SW   214   3.1       W   272   0.93    373      -21.2
   11/04/2017 06:50      55.2      54.9       83     49.9      0.00      0.09      70.2     0.29      1016.3     1.5     WSW   249   3.2     WSW   249   0.93    372      -21.6
   11/04/2017 06:40      55.4      54.9       83     49.9      0.00      0.09      70.3     0.29      1016.3     1.2      SW   231   3.2      SW   222   0.93    372      -21.9
   11/04/2017 06:30      55.3      54.9       83     50.1      0.00      0.09      70.3     0.29      1016.2     2.4     SSW   204   4.1     SSW   204   0.93    373      -21.3
   11/04/2017 06:20      55.2      54.5       85     50.3      0.00      0.09      70.3     0.29      1016.3     2.1     SSW   208   4.5      SW   232   0.93    374      -20.0
   11/04/2017 06:10      54.8      54.5       86     50.6      0.00      0.09      70.3     0.29      1016.3     0.7      SW   220   3.1      SW   221   0.93    374      -19.6
   11/04/2017 06:00      54.6      53.5       89     50.9      0.00      0.09      70.3     0.29      1016.2     1.3     SSW   207   3.4      SW   225   0.93    373      -19.8
   11/04/2017 05:50      53.7      52.9       91     50.6      0.00      0.09      70.4     0.29      1016.2     0.4     SSW   202   3.2     SSW   210   0.93    371      -20.6
   11/04/2017 05:40      52.8      51.2       91     49.4      0.00      0.09      70.4     0.29      1016.2     1.1       S   191   2.8       S   190   0.92    368      -20.4
   11/04/2017 05:30      51.6      51.2       90     48.6      0.00      0.09      70.4     0.29      1016.2     0.2       S   173   1.5       S   173   0.93    359      -21.8
   11/04/2017 05:20      52.0      51.4       90     48.8      0.00      0.09      70.4     0.29      1016.2     0.0     ENE    73   0.8       E    82   0.93    353      -23.1
   11/04/2017 05:10      52.1      51.8       89     48.7      0.00      0.09      70.4     0.29      1016.1     0.0       N     0   0.0     ENE    57   0.93    345      -24.7
   11/04/2017 05:00      53.3      51.8       88     49.1      0.00      0.09      70.5     0.29      1016.0     0.4     ENE    66   1.5     ENE    69   0.93    335      -25.5
   11/04/2017 04:50      53.9      53.0       89     50.3      0.00      0.09      70.5     0.29      1016.0     0.3     ENE    69   1.3     ENE    78   0.93    330      -26.4
   11/04/2017 04:40      53.7      53.0       90     50.4      0.00      0.09      70.5     0.29      1016.1     0.1     SSW   206   1.2     SSW   199   0.93    320      -26.3
   11/04/2017 04:30      53.6      52.8       89     49.8      0.00      0.09      70.5     0.29      1016.2     0.7       S   176   1.5       S   173   0.93    311      -26.5
   11/04/2017 04:20      54.0      53.5       89     50.5      0.00      0.09      70.5     0.29      1016.2     1.9       S   190   2.7     SSW   200   0.93    305      -26.2
   11/04/2017 04:10      53.9      53.5       90     50.7      0.00      0.09      70.5     0.29      1016.1     2.3     SSW   207   2.7     SSW   209   0.93    303      -28.3
   11/04/2017 04:00      53.6      52.7       90     50.3      0.00      0.09      70.6     0.29      1016.1     2.7     SSW   211   3.3     SSW   212   0.93    300      -31.3
   11/04/2017 03:50      53.3      52.9       90     50.1      0.00      0.09      70.6     0.29      1016.2     0.8     SSW   204   2.3      SW   215   0.93    296      -35.1
   11/04/2017 03:40      53.7      53.1       89     50.2      0.00      0.09      70.6     0.29      1016.2     0.3     SSW   202   1.7     SSW   194   0.93    292      -39.5
   11/04/2017 03:30      53.7      53.2       88     49.8      0.00      0.09      70.6     0.29      1016.3     0.0       N     0   0.0     SSW   209   0.93    288      -46.6
   11/04/2017 03:20      54.3      53.5       87     50.0      0.00      0.09      70.6     0.29      1016.4     0.0       N     0   0.0     SSW   209   0.93    283      -50.2
   11/04/2017 03:10      54.9      54.0       86     50.0      0.00      0.09      70.6     0.29      1016.5     0.0       S   191   0.7     SSW   209   0.93    279      -53.2
   11/04/2017 03:00      55.9      54.5       85     50.7      0.00      0.09      70.7     0.29      1016.6     0.8     ENE    76   1.8     ENE    58   0.93    275      -54.8
   11/04/2017 02:50      56.1      55.6       85     51.4      0.00      0.09      70.6     0.29      1016.7     1.2     SSW   195   2.3      SW   229   0.93    272      -53.6
   11/04/2017 02:40      56.4      55.6       84     51.3      0.00      0.09      70.7     0.29      1016.7     2.0     SSW   193   3.7     SSW   209   0.93    271      -52.2
   11/04/2017 02:30      56.3      55.5       85     51.4      0.00      0.09      70.7     0.29      1016.9     2.3     SSW   209   3.6     SSW   197   0.93    270      -46.1
   11/04/2017 02:20      55.7      54.6       86     51.0      0.00      0.09      70.7     0.29      1017.0     1.8     SSW   207   2.3     SSW   206   0.93    270      -43.2
   11/04/2017 02:10      54.9      54.5       86     50.6      0.00      0.09      70.7     0.29      1017.1     1.1       S   180   1.4       S   179   0.93    271      -50.0
   11/04/2017 02:00      55.4      54.7       85     50.7      0.00      0.09      70.7     0.29      1017.1     0.9       S   175   1.3       S   179   0.93    270      -49.5
   11/04/2017 01:50      55.7      55.0       85     50.9      0.00      0.09      70.7     0.29      1017.2     1.2       S   179   1.7       S   178   0.93    269      -45.2
   11/04/2017 01:40      55.9      55.0       84     50.6      0.00      0.09      70.7     0.29      1017.3     1.2       S   175   1.8       S   180   0.93    269      -43.7
   11/04/2017 01:30      56.9      55.6       82     50.8      0.00      0.09      70.7     0.29      1017.3     0.8     SSE   159   1.6       S   173   0.93    269      -44.8
   11/04/2017 01:20      56.9      56.6       82     51.4      0.00      0.09      70.7     0.29      1017.3     0.9       S   180   1.7       S   177   0.93    269      -46.0
   11/04/2017 01:10      57.0      56.1       83     51.3      0.00      0.09      70.8     0.29      1017.3     1.3     SSW   203   2.5     SSW   213   0.93    269      -47.9
   11/04/2017 01:00      57.0      56.3       82     51.1      0.00      0.09      70.8     0.29      1017.2     0.4       S   179   1.1       S   179   0.93    269      -50.0
   11/04/2017 00:50      57.1      56.6       81     51.0      0.00      0.09      70.7     0.29      1017.1     0.5     SSW   199   1.2     SSW   203   0.93    269      -49.2
   11/04/2017 00:40      57.1      56.6       80     50.8      0.00      0.09      70.8     0.29      1017.1     0.7     SSE   163   1.5     SSE   160   0.93    268      -40.9
   11/04/2017 00:30      57.1      56.6       80     50.6      0.00      0.09      70.8     0.29      1017.1     0.7       S   181   1.5     SSW   194   0.93    268      -43.0
   11/04/2017 00:20      57.2      56.5       79     50.2      0.00      0.09      70.8     0.29      1017.2     1.3       S   180   2.4       S   175   0.93    268      -40.2
   11/04/2017 00:10      57.4      56.9       78     50.4      0.00      0.09      70.8     0.29      1017.2     0.7       S   183   1.3     SSE   166   0.93    268      -31.0
   11/04/2017 00:00      57.5      57.2       78     50.6      0.00      0.09      70.8     0.29      1017.3     1.1       S   191   1.7     SSW   197   0.94    268      -39.0
   11/03/2017 23:50      57.9      57.2       77     50.4      0.00      0.09      70.8     0.29      1017.4     1.0       S   179   1.6     SSW   192   0.93    268      -47.7
   11/03/2017 23:40      58.0      57.5       76     50.3      0.00      0.09      70.8     0.29      1017.5     1.1       S   185   1.9       S   189   0.93    267      -36.8
   11/03/2017 23:30      58.0      57.4       76     50.1      0.00      0.09      70.8     0.29      1017.6     1.0       S   184   1.8     SSW   198   0.93    267      -30.4
   11/03/2017 23:20      57.9      57.3       75     49.8      0.00      0.09      70.8     0.29      1017.6     1.3       S   174   1.9       S   173   0.94    267      -28.0
   11/03/2017 23:10      58.2      57.5       75     49.9      0.00      0.09      70.9     0.29      1017.6     1.1       S   187   1.8       S   187   0.93    267      -36.4
   11/03/2017 23:00      58.6      57.9       75     50.1      0.00      0.09      70.8     0.29      1017.5     1.5       S   188   2.3     SSW   205   0.93    267      -39.3
   11/03/2017 22:50      58.7      58.2       73     49.9      0.00      0.09      70.8     0.29      1017.5     1.3       S   190   2.1     SSW   196   0.93    268      -35.9
   11/03/2017 22:40      58.9      58.3       73     49.8      0.00      0.09      70.9     0.30      1017.5     1.4     SSW   203   2.6     SSW   211   0.93    268      -38.4
   11/03/2017 22:30      59.2      58.6       72     49.8      0.00      0.09      70.9     0.30      1017.5     0.8     SSW   209   1.4     SSW   201   0.93    268      -40.3
   11/03/2017 22:20      59.1      58.7       72     49.8      0.00      0.09      70.9     0.30      1017.5     1.4      SW   234   2.7     WSW   243   0.93    268      -33.7
   11/03/2017 22:10      59.1      58.7       71     49.7      0.00      0.09      70.9     0.30      1017.4     1.4      SW   231   2.3      SW   226   0.93    266      -33.2
   11/03/2017 22:00      59.0      58.6       71     49.4      0.00      0.09      70.9     0.30      1017.4     1.6      SW   232   3.0     WSW   241   0.93    266      -31.7
   11/03/2017 21:50      58.8      58.4       71     49.3      0.00      0.09      70.9     0.30      1017.4     1.8      SW   228   3.0      SW   230   0.93    266      -34.7
   11/03/2017 21:40      59.0      58.4       70     48.7      0.00      0.09      70.9     0.30      1017.4     1.7      SW   216   2.7      SW   228   0.93    266      -43.4
   11/03/2017 21:30      59.2      58.6       68     48.3      0.00      0.09      70.9     0.30      1017.4     1.5      SW   234   2.6      SW   227   0.93    266      -50.6
   11/03/2017 21:20      59.6      58.9       67     48.2      0.00      0.09      70.9     0.30      1017.4     0.9     WSW   241   1.9     WSW   243   0.93    266      -49.9
   11/03/2017 21:10      60.0      59.3       66     48.2      0.00      0.09      70.9     0.30      1017.5     1.1      SW   235   2.2     WSW   251   0.94    266      -53.0
   11/03/2017 21:00      60.2      59.6       65     48.1      0.00      0.09      70.8     0.30      1017.4     1.8      SW   234   3.4      SW   233   0.93    266      -54.3
   11/03/2017 20:50      60.3      59.8       64     47.7      0.00      0.09      70.9     0.30      1017.3     3.1     WSW   236   4.6     SSW   202   0.93    266      -53.1
   11/03/2017 20:40      60.6      59.8       62     47.1      0.00      0.09      70.8     0.30      1017.3     2.8     WSW   243   6.2       W   261   0.93    266      -55.8
   11/03/2017 20:30      60.7      60.3       61     47.1      0.00      0.09      70.8     0.30      1017.3     1.1       W   271   2.5      SW   233   0.93    266      -54.8
   11/03/2017 20:20      60.9      60.4       61     47.0      0.00      0.09      70.9     0.30      1017.5     2.3      SW   233   3.8      SW   225   0.93    266      -47.3
   11/03/2017 20:10      61.2      60.5       60     47.0      0.00      0.09      70.8     0.30      1017.5     3.0     WSW   237   4.9      SW   230   0.94    266      -35.4
   11/03/2017 20:00      61.3      60.9       60     46.9      0.00      0.09      70.8     0.30      1017.6     2.7     WSW   238   4.9     WSW   246   0.94    266      -34.0
   11/03/2017 19:50      61.2      60.9       59     46.7      0.00      0.09      70.8     0.30      1017.6     3.0     WSW   239   5.3     WSW   237   0.93    266      -37.8
   11/03/2017 19:40      61.5      60.9       59     46.5      0.00      0.09      70.8     0.30      1017.5     2.3      SW   221   3.9      SW   214   0.94    266      -39.6
   11/03/2017 19:30      61.6      61.3       58     46.4      0.00      0.09      70.8     0.30      1017.6     2.3      SW   227   5.2      SW   225   0.93    266      -51.1
   11/03/2017 19:20      61.9      61.3       58     46.5      0.00      0.09      70.8     0.29      1017.6     2.9      SW   232   5.1      SW   231   0.93    266      -60.6
   11/03/2017 19:10      62.2      61.6       58     46.8      0.00      0.09      70.7     0.29      1017.5     3.6      SW   232   6.5     WSW   239   0.93    266      -63.2
   11/03/2017 19:00      62.5      61.8       57     46.7      0.00      0.09      70.7     0.29      1017.3     3.4      SW   233   5.2     SSW   207   0.93    265      -58.8
   11/03/2017 18:50      62.6      62.2       56     46.5      0.00      0.09      70.7     0.29      1017.3     3.8      SW   229   5.9     WSW   249   0.93    265      -53.8
   11/03/2017 18:40      62.7      62.4       56     46.4      0.00      0.09      70.7     0.29      1017.3     2.7      SW   231   5.1     SSW   213   0.93    265      -54.5
   11/03/2017 18:30      62.9      62.4       55     46.2      0.00      0.09      70.7     0.30      1017.2     3.2      SW   218   5.2      SW   224   0.93    265      -48.7
   11/03/2017 18:20      62.9      62.4       55     45.9      0.00      0.09      70.6     0.29      1017.1     3.5      SW   215   6.1      SW   217   0.93    265      -48.5
   11/03/2017 18:10      63.1      62.4       54     45.9      0.00      0.09      70.6     0.30      1017.2     2.6     SSW   201   4.5      SW   217   0.93    265      -55.9
   11/03/2017 18:00      63.5      62.7       54     46.1      0.00      0.09      70.6     0.30      1017.1     3.1       S   188   7.2       S   186   0.93    265      -58.2
   11/03/2017 17:50      64.1      63.2       52     45.7      0.00      0.09      70.6     0.30      1017.1     3.4       S   190   6.9     SSE   165   0.93    264      -57.6
   11/03/2017 17:40      64.3      63.6       51     45.4      0.00      0.09      70.5     0.30      1017.1     2.8     SSW   194   6.9       S   183   0.93    264      -40.9
   11/03/2017 17:30      64.6      64.0       50     45.3      0.00      0.09      70.5     0.30      1017.0     3.8     SSW   194   6.9     SSW   198   0.93    264      -29.8
   11/03/2017 17:20      64.9      64.2       49     45.0      0.00      0.09      70.5     0.29      1017.0     4.3     SSW   202   7.2      SW   216   0.93    264      -24.5
   11/03/2017 17:10      65.6      64.6       47     44.6      0.00      0.09      70.5     0.29      1017.0     4.9     SSW   202   7.8       S   180   0.93    264       -9.8
   11/03/2017 17:00      65.8      65.2       45     43.4      0.00      0.09      70.5     0.29      1017.0     3.8     SSW   205   6.5      SW   230   0.93    264        7.6
   11/03/2017 16:50      66.8      65.5       43     42.9      0.00      0.09      70.4     0.30      1017.0     3.9       S   190   7.8     SSW   212   0.93    264        2.8
   11/03/2017 16:40      67.3      66.5       42     42.9      0.00      0.09      70.4     0.29      1017.0     3.6     SSW   200   7.2       S   182   0.93    264       72.4
   11/03/2017 16:30      67.9      66.5       42     42.9      0.00      0.09      70.4     0.29      1017.0     4.9       S   190   9.2      SW   220   0.93    264       62.8
   11/03/2017 16:20      67.8      67.3       42     43.7      0.00      0.09      70.4     0.29      1017.0     4.4     SSW   199   7.1     WSW   237   0.93    263      115.8
   11/03/2017 16:10      67.7      66.9       43     43.7      0.00      0.09      70.4     0.29      1017.0     5.7     SSW   202  10.9       S   186   0.93    263      158.1
   11/03/2017 16:00      67.7      66.7       43     44.1      0.00      0.09      70.3     0.29      1017.1     4.7     SSW   198   7.7     SSW   201   0.94    263      153.1
   11/03/2017 15:50      67.6      67.1       44     44.8      0.00      0.09      70.3     0.29      1017.0     5.1     SSW   200   9.2      SW   224   0.94    263      128.9
   11/03/2017 15:40      67.5      67.1       45     45.4      0.00      0.09      70.3     0.29      1017.1     5.4     SSE   166  10.6      SE   130   0.93    263      158.3
   11/03/2017 15:30      67.4      66.8       46     45.6      0.00      0.09      70.3     0.29      1017.1     5.9      SE   145  13.1     ESE   104   0.93    263      233.5
   11/03/2017 15:20      67.5      66.3       47     46.0      0.00      0.09      70.3     0.30      1017.2     6.7      SE   144  10.7     ESE   116   0.93    263      225.2
   11/03/2017 15:10      67.8      67.2       46     46.2      0.00      0.09      70.2     0.29      1017.3     5.7     SSE   147   9.3     SSW   195   0.93    263      241.4
   11/03/2017 15:00      68.4      67.2       46     46.3      0.00      0.09      70.2     0.30      1017.3     5.9     SSE   158  11.7     SSE   157   0.94    263      245.8
   11/03/2017 14:50      69.3      68.0       45     46.2      0.00      0.09      70.2     0.30      1017.3     3.9       S   171  10.4      SE   136   0.93    263      241.8
   11/03/2017 14:40      69.5      67.8       44     46.1      0.00      0.09      70.2     0.30      1017.5     3.0     SSW   210   5.8     SSW   198   0.94    263      278.5
   11/03/2017 14:30      68.1      67.5       45     45.9      0.00      0.09      70.1     0.30      1017.5     4.9     SSW   200   8.5     SSW   214   0.93    263      332.9
   11/03/2017 14:20      68.6      67.4       46     46.1      0.00      0.09      70.1     0.30      1017.5     5.4     SSW   203  10.6      SW   217   0.93    263      362.4
   11/03/2017 14:10      69.0      68.0       45     46.0      0.00      0.09      70.1     0.30      1017.6     5.3       S   174   9.3      SW   229   0.94    263      392.7
   11/03/2017 14:00      69.8      68.8       43     46.1      0.00      0.09      70.1     0.30      1017.8     4.3       S   171   7.9       S   169   0.94    263      434.6
   11/03/2017 13:50      68.7      67.4       45     45.9      0.00      0.09      70.1     0.30      1017.9     2.7       S   186   9.0     SSW   199   0.94    263      411.7
   11/03/2017 13:40      68.6      67.7       45     46.1      0.00      0.09      70.1     0.30      1018.0     5.2       S   173   8.9     SSW   192   0.94    263      420.9
   11/03/2017 13:30      68.8      67.5       47     46.7      0.00      0.09      70.1     0.30      1018.2     4.2     SSW   203   8.4     WSW   247   0.93    263      420.8
   11/03/2017 13:20      69.0      67.7       47     47.7      0.00      0.09      70.0     0.30      1018.4     4.9       S   169   8.5      SW   225   0.93    263      439.0
   11/03/2017 13:10      68.8      66.4       49     48.0      0.00      0.09      70.0     0.30      1018.7     2.8     SSE   162   5.3     ESE   116   0.93    263      491.3
   11/03/2017 13:00      66.6      64.6       53     47.6      0.00      0.09      70.0     0.30      1018.9     3.8       S   184   7.1     SSW   202   0.93    263      307.3
   11/03/2017 12:50      65.4      64.7       54     47.9      0.00      0.09      70.0     0.30      1019.0     4.7       S   186   7.5       S   191   0.93    265       41.6
   11/03/2017 12:40      66.8      65.2       52     47.5      0.00      0.09      70.1     0.30      1019.2     3.9     SSW   198   9.3     SSW   203   0.93    264       73.2
   11/03/2017 12:30      66.9      66.0       51     47.7      0.00      0.09      70.1     0.30      1019.4     0.8       S   177   3.8     WSW   239   0.94    264      168.2
   11/03/2017 12:20      66.1      65.7       52     47.9      0.00      0.09      70.0     0.30      1019.4     1.0     ESE   105   2.6     SSE   152   0.94    264       52.2
   11/03/2017 12:10      65.9      65.5       53     48.1      0.00      0.09      70.0     0.30      1019.5     1.9     SSE   151   4.5      SE   141   0.93    264       87.1
   11/03/2017 12:00      66.4      64.9       54     48.4      0.00      0.09      70.1     0.30      1019.6     3.2      SE   133   9.1      SE   137   0.93    264      136.8
   11/03/2017 11:50      66.3      65.8       53     48.3      0.00      0.09      70.1     0.30      1019.8     3.8       E    86   7.0      NE    56   0.93    263      405.4
   11/03/2017 11:40      67.0      65.5       52     48.2      0.00      0.09      70.1     0.30      1020.0     4.3      SE   130   8.9      SE   137   0.94    263      456.0
   11/03/2017 11:30      66.4      65.4       52     47.7      0.00      0.09      70.1     0.30      1020.1     3.9     SSE   159   7.2     SSW   192   0.93    263      403.0
   11/03/2017 11:20      66.7      65.7       52     47.9      0.00      0.09      70.1     0.30      1020.2     3.3      SE   140   5.5     SSE   166   0.94    264      315.7
   11/03/2017 11:10      66.1      65.4       51     47.4      0.00      0.09      70.1     0.30      1020.3     3.9       S   169   7.1      SE   140   0.93    263      429.9
   11/03/2017 11:00      66.7      65.9       51     47.9      0.00      0.09      70.2     0.30      1020.4     3.5       S   179   8.6       S   191   0.94    263      360.6
   11/03/2017 10:50      66.7      65.6       52     48.1      0.00      0.09      70.2     0.30      1020.4     1.7     NNW   326   4.8     WNW   303   0.93    263      366.1
   11/03/2017 10:40      66.2      64.8       54     48.4      0.00      0.09      70.2     0.30      1020.3     2.4      NW   313   5.6      NW   315   0.94    263      348.4
   11/03/2017 10:30      66.9      66.0       53     48.7      0.00      0.09      70.2     0.30      1020.3     1.5       W   271   5.7     WNW   300   0.94    263      318.1
   11/03/2017 10:20      67.1      65.7       54     49.0      0.00      0.09      70.2     0.30      1020.3     0.7     ENE    64   2.8     ESE   113   0.93    264      289.6
   11/03/2017 10:10      65.8      64.7       56     48.9      0.00      0.09      70.2     0.30      1020.3     0.9       N    10   2.8     NNW   347   0.93    264      270.6
   11/03/2017 10:00      65.1      64.2       57     49.0      0.00      0.09      70.2     0.30      1020.3     1.1     NNE    29   3.2     NNE    13   0.93    264      252.9
   11/03/2017 09:50      65.1      64.1       56     48.5      0.00      0.09      70.3     0.30      1020.4     1.2       W   281   2.8     WSW   242   0.93    264      235.0
   11/03/2017 09:40      64.9      63.7       57     48.6      0.00      0.09      70.3     0.30      1020.5     0.5       S   179   2.3     NNE    23   0.93    264      216.6
   11/03/2017 09:30      64.0      62.8       59     48.8      0.00      0.09      70.3     0.30      1020.4     1.1     ENE    60   2.2     ENE    64   0.88    264      197.3
   11/03/2017 09:20      63.6      63.1       58     48.5      0.00      0.09      70.4     0.30      1020.4     0.9     NNW   328   2.4     NNE    21   0.97    264      176.5
   11/03/2017 09:10      63.6      62.2       60     48.5      0.00      0.09      70.4     0.30      1020.4     0.3     ENE    70   2.0       E    97   0.97    265      157.6
   11/03/2017 09:00      62.9      62.0       60     48.4      0.00      0.09      70.4     0.30      1020.3     0.4      SW   216   1.9     SSE   164   0.97    266      137.9
   11/03/2017 08:50      62.3      61.0       62     48.3      0.00      0.09      70.4     0.30      1020.0     0.5      NE    46   1.6     NNE    29   0.97    266      106.8
   11/03/2017 08:40      61.2      58.3       66     48.3      0.00      0.09      70.4     0.30      1019.9     0.3     ENE    76   2.8       E    81   0.97    267       30.1
   11/03/2017 08:30      58.3      56.9       71     48.1      0.00      0.09      70.5     0.30      1020.1     0.0       S   180   0.4       S   180   0.97    267       19.8
   11/03/2017 08:20      57.1      56.4       73     48.2      0.00      0.09      70.5     0.30      1020.1     0.0       S   180   0.0       S   180   0.97    268      -15.1
   11/03/2017 08:10      56.8      56.3       75     48.5      0.00      0.09      70.5     0.30      1020.1     0.0       N     0   0.0       S   180   0.97    268      -13.6
   11/03/2017 08:00      56.6      55.9       75     48.3      0.00      0.09      70.5     0.30      1020.1     0.0       S   180   0.4       S   180   0.97    268       -5.1
   11/03/2017 07:50      56.0      55.6       75     47.9      0.00      0.09      70.5     0.30      1020.1     1.1       S   181   2.1       S   181   0.97    268       -4.3
   11/03/2017 07:40      56.3      55.6       74     47.7      0.00      0.09      70.5     0.30      1020.1     0.0       N     0   0.0     WNW   299   0.97    268       -9.0
   11/03/2017 07:30      56.3      55.9       73     47.6      0.00      0.09      70.6     0.30      1019.9     0.0       N     0   0.0     WNW   299   0.97    268      -13.3
   11/03/2017 07:20      56.3      55.9       74     47.8      0.00      0.09      70.6     0.30      1019.9     0.2     WNW   300   1.6      NW   311   0.97    268      -16.0
   11/03/2017 07:10      56.1      55.5       74     47.8      0.00      0.09      70.6     0.30      1019.8     1.5     WNW   285   2.5     NNW   327   0.97    268      -19.0
   11/03/2017 07:00      55.8      55.2       75     47.8      0.00      0.09      70.6     0.30      1019.6     1.0     SSE   169   1.9     SSW   207   0.97    268      -21.5
   11/03/2017 06:50      55.5      54.9       77     48.0      0.00      0.09      70.6     0.30      1019.7     1.2     ESE   123   2.5       E    89   0.97    268      -15.8
   11/03/2017 06:40      55.1      54.8       76     47.6      0.00      0.09      70.7     0.30      1019.8     0.0       W   277   0.4       W   277   0.97    268      -14.3
   11/03/2017 06:30      55.1      54.7       76     47.6      0.00      0.09      70.7     0.30      1019.9     0.0       N     0   0.0       W   277   0.97    268      -14.2
   11/03/2017 06:20      55.0      54.6       77     47.6      0.00      0.09      70.7     0.30      1019.8     0.0       N     0   0.0       W   278   0.97    268      -14.6
   11/03/2017 06:10      54.9      54.3       78     47.7      0.00      0.09      70.7     0.30      1019.8     0.0       N     0   0.0       W   277   0.97    268      -14.2
   11/03/2017 06:00      54.6      54.2       77     47.4      0.00      0.09      70.7     0.30      1019.7     0.0       N     0   0.0       W   277   0.97    268      -15.0
   11/03/2017 05:50      54.8      54.1       77     47.3      0.00      0.09      70.8     0.30      1019.7     0.0       W   277   0.4       W   277   0.97    268      -19.0
   11/03/2017 05:40      54.9      54.4       76     47.4      0.00      0.09      70.8     0.30      1019.7     0.0       W   277   0.4       W   277   0.97    268      -20.5
   11/03/2017 05:30      54.9      54.4       77     47.4      0.00      0.09      70.8     0.30      1019.7     0.0       N     0   0.0       W   277   0.97    268      -21.2
   11/03/2017 05:20      54.9      54.4       75     47.0      0.00      0.09      70.8     0.30      1019.7     0.0       W   278   0.5       W   278   0.97    268      -21.3
   11/03/2017 05:10      54.8      54.3       77     47.3      0.00      0.09      70.8     0.30      1019.7     0.4       W   271   1.8       W   271   0.97    268      -20.1
   11/03/2017 05:00      54.8      54.3       76     47.2      0.00      0.09      70.9     0.30      1019.7     0.8      SE   145   2.2      SE   139   0.97    268      -22.3
   11/03/2017 04:50      54.7      54.0       77     47.0      0.00      0.09      70.9     0.30      1019.7     1.0     SSE   161   2.5      SE   142   0.97    268      -20.3
   11/03/2017 04:40      54.1      53.6       78     47.1      0.00      0.09      70.9     0.30      1019.7     0.4       S   176   1.4       S   171   0.97    268      -18.5
   11/03/2017 04:30      53.8      53.4       78     46.9      0.00      0.09      70.9     0.30      1019.7     0.8     SSE   166   1.8     SSE   149   0.97    268      -22.1
   11/03/2017 04:20      54.4      53.5       76     46.5      0.00      0.09      71.0     0.30      1019.7     0.3     SSE   157   1.9     SSE   151   0.97    268      -30.0
   11/03/2017 04:10      55.1      54.1       74     46.5      0.00      0.09      71.0     0.30      1019.7     0.0     SSW   197   0.7     SSW   197   0.97    268      -32.0
   11/03/2017 04:00      55.1      54.7       74     46.9      0.00      0.09      71.0     0.30      1019.9     0.0     WSW   242   0.8       W   262   0.97    268      -32.5
   11/03/2017 03:50      55.0      54.5       75     46.9      0.00      0.09      71.0     0.30      1019.8     0.6     WNW   286   1.7     WNW   295   0.97    268      -33.1
   11/03/2017 03:40      54.9      54.1       77     47.2      0.00      0.09      71.0     0.30      1019.8     2.6     WNW   292   4.8     WNW   304   0.97    268      -30.4
   11/03/2017 03:30      54.5      53.9       77     47.1      0.00      0.09      71.1     0.30      1019.6     0.9      SE   133   2.4       W   281   0.97    268      -38.0
   11/03/2017 03:20      54.7      54.0       76     46.9      0.00      0.09      71.1     0.30      1019.8     0.8      SE   132   1.9      SE   138   0.97    268      -42.1
   11/03/2017 03:10      54.8      54.3       76     47.0      0.00      0.09      71.1     0.30      1019.9     0.0       N     0   0.0      SE   139   0.97    268      -31.3
   11/03/2017 03:00      54.9      54.4       75     46.9      0.00      0.09      71.2     0.30      1020.0     0.1      SE   139   0.8      SE   139   0.97    268      -24.3
   11/03/2017 02:50      54.8      54.5       75     46.9      0.00      0.09      71.2     0.30      1020.1     0.2      SE   139   0.8      SE   139   0.97    268      -18.4
   11/03/2017 02:40      54.8      54.0       76     47.0      0.00      0.09      71.2     0.30      1020.2     0.5      SE   143   2.0     SSE   153   0.97    268      -16.9
   11/03/2017 02:30      54.2      53.6       76     46.6      0.00      0.09      71.2     0.30      1020.2     1.0     SSE   159   1.6     SSE   160   0.97    268      -17.2
   11/03/2017 02:20      53.9      53.5       76     46.4      0.00      0.09      71.2     0.30      1020.1     0.0     SSE   160   1.2     SSE   160   0.97    268      -18.2
   11/03/2017 02:10      53.9      53.5       76     46.3      0.00      0.09      71.3     0.30      1020.1     0.2     SSE   160   0.8     SSE   160   0.97    268      -17.8
   11/03/2017 02:00      53.8      53.3       76     46.3      0.00      0.09      71.3     0.30      1020.1     0.0     SSE   160   0.4     SSE   160   0.97    268      -18.2
   11/03/2017 01:50      53.5      53.0       77     46.2      0.00      0.09      71.3     0.30      1020.1     0.0     SSE   160   0.3     SSE   160   0.97    268      -17.4
   11/03/2017 01:40      53.3      52.4       78     46.2      0.00      0.09      71.3     0.30      1020.1     0.0     SSE   160   0.2     SSE   160   0.97    268      -16.8
   11/03/2017 01:30      52.5      51.6       80     46.2      0.00      0.09      71.3     0.30      1020.0     0.0       N     0   0.0     SSE   160   0.97    268      -16.1
   11/03/2017 01:20      51.8      51.3       82     46.2      0.00      0.09      71.3     0.30      1020.0     0.2     SSE   160   0.9     SSE   160   0.97    268      -15.2
   11/03/2017 01:10      51.6      51.2       83     46.3      0.00      0.09      71.4     0.30      1019.9     0.3     SSE   160   0.9     SSE   160   0.97    269      -23.1
   11/03/2017 01:00      51.6      51.1       83     46.2      0.00      0.09      71.3     0.30      1019.9     0.2     SSE   160   0.8     SSE   160   0.97    270      -38.9
   11/03/2017 00:50      51.9      51.2       82     46.2      0.00      0.09      71.4     0.30      1019.8     0.4     SSE   160   1.2     SSE   160   0.97    270      -54.5
   11/03/2017 00:40      52.2      51.7       81     46.3      0.00      0.09      71.4     0.30      1019.9     0.3     SSE   160   0.9     SSE   160   0.97    270      -56.8
   11/03/2017 00:30      52.6      51.9       80     46.3      0.00      0.09      71.4     0.30      1019.9     0.3     SSE   160   1.1     SSE   160   0.97    270      -57.5
   11/03/2017 00:20      53.0      52.3       80     46.6      0.00      0.09      71.4     0.30      1019.9     0.3     SSE   160   1.0     SSE   160   0.97    269      -58.4
   11/03/2017 00:10      53.3      52.7       80     47.0      0.00      0.09      71.4     0.30      1020.0     0.2     SSE   160   0.9     SSE   160   0.97    269      -53.9
   11/03/2017 00:00      53.2      52.7       80     47.1      0.00      0.09      71.4     0.30      1020.0     0.1     SSE   160   0.6     SSE   160   0.97    268      -41.7
   11/02/2017 23:50      53.0      52.5       82     47.4      0.00      0.09      71.4     0.30      1020.0     0.1     SSE   160   0.8     SSE   160   0.97    268      -34.5
   11/02/2017 23:40      53.2      52.6       82     47.4      0.00      0.09      71.4     0.30      1019.9     0.3     SSE   160   0.9     SSE   160   0.97    270      -45.6
   11/02/2017 23:30      53.0      52.5       80     46.8      0.00      0.09      71.5     0.30      1019.9     0.4     SSE   160   1.2     SSE   160   0.97    270      -59.0
   11/02/2017 23:20      54.0      52.6       77     46.3      0.00      0.09      71.5     0.30      1019.8     0.0       N     0   0.0     SSE   160   0.97    269      -61.6
   11/02/2017 23:10      55.0      53.9       78     47.8      0.00      0.09      71.5     0.30      1019.8     0.1     SSE   160   0.7     SSE   160   0.97    268      -63.2
   11/02/2017 23:00      55.6      54.8       77     48.2      0.00      0.09      71.5     0.30      1019.7     0.7     SSE   162   1.4       S   178   0.97    268      -63.2
   11/02/2017 22:50      56.5      55.4       75     47.9      0.00      0.09      71.5     0.30      1019.7     1.0       S   175   1.6     SSE   168   0.97    267      -63.0
   11/02/2017 22:40      57.7      56.4       72     48.0      0.00      0.09      71.5     0.30      1019.6     0.9       S   176   1.5       S   185   0.97    267      -63.5
   11/02/2017 22:30      58.8      57.4       70     48.1      0.00      0.09      71.5     0.30      1019.6     0.9       S   176   1.5       S   170   0.97    267      -59.4
   11/02/2017 22:20      59.2      58.5       68     48.0      0.00      0.09      71.5     0.30      1019.6     0.7       S   174   1.2       S   175   0.97    266      -49.5
   11/02/2017 22:10      59.3      58.8       67     48.1      0.00      0.09      71.5     0.30      1019.6     0.8       S   178   1.5       S   182   0.97    266      -33.0
   11/02/2017 22:00      59.3      58.9       66     47.9      0.00      0.09      71.5     0.30      1019.5     1.0       S   177   2.1       S   189   0.97    266      -26.4
   11/02/2017 21:50      59.3      59.0       66     47.7      0.00      0.09      71.5     0.30      1019.5     1.1       S   179   2.1       S   181   0.97    266      -24.5
   11/02/2017 21:40      59.6      59.0       65     47.5      0.00      0.09      71.5     0.30      1019.4     1.0       S   171   2.2       S   176   0.97    266      -25.4
   11/02/2017 21:30      59.8      59.3       64     47.2      0.00      0.09      71.5     0.30      1019.2     0.7       S   178   1.7     SSW   193   0.97    266      -27.6
   11/02/2017 21:20      59.8      59.3       63     47.0      0.00      0.09      71.5     0.30      1019.2     1.4     SSW   192   2.4     SSW   192   0.97    266      -24.8
   11/02/2017 21:10      59.7      59.3       63     46.9      0.00      0.09      71.5     0.30      1019.2     1.6       S   188   2.7     WSW   242   0.97    266      -26.0
   11/02/2017 21:00      60.1      59.4       62     46.7      0.00      0.09      71.6     0.30      1019.2     0.6       S   185   2.4       S   188   0.97    266      -29.6
   11/02/2017 20:50      60.2      59.7       62     46.7      0.00      0.09      71.5     0.30      1019.1     0.5       S   185   1.2       S   184   0.97    266      -31.2
   11/02/2017 20:40      60.4      59.8       61     46.6      0.00      0.09      71.6     0.30      1019.2     1.7       S   188   3.7     SSW   197   0.97    266      -30.2
   11/02/2017 20:30      60.3      59.9       61     46.6      0.00      0.09      71.6     0.30      1019.1     2.0      SW   222   4.8     SSW   200   0.97    266      -31.2
   11/02/2017 20:20      60.3      59.9       61     46.6      0.00      0.09      71.5     0.30      1019.1     2.2     SSW   197   3.5      SW   224   0.97    266      -25.7
   11/02/2017 20:10      60.4      60.0       62     46.9      0.00      0.09      71.5     0.30      1019.0     2.4     SSW   205   4.3      SW   227   0.97    266      -28.9
   11/02/2017 20:00      60.5      60.0       62     47.0      0.00      0.09      71.5     0.30      1018.9     2.8     SSW   209   4.8      SW   219   0.97    266      -33.6
   11/02/2017 19:50      60.6      60.2       62     47.3      0.00      0.09      71.5     0.30      1019.0     3.0     SSW   207   5.7     SSW   199   0.97    266      -31.5
   11/02/2017 19:40      60.7      60.2       64     48.2      0.00      0.09      71.5     0.30      1019.0     3.0     SSW   205   5.0     SSW   208   0.97    266      -23.1
   11/02/2017 19:30      60.9      60.3       66     48.9      0.00      0.09      71.5     0.30      1018.9     3.7     SSW   205   6.7     SSW   195   0.97    266      -23.8
   11/02/2017 19:20      60.8      60.4       66     49.1      0.00      0.09      71.5     0.30      1018.8     3.2     SSW   207   5.1      SW   220   0.97    266      -23.1
   11/02/2017 19:10      60.8      60.5       66     49.2      0.00      0.09      71.5     0.30      1018.6     3.0     SSW   206   4.9     SSW   210   0.97    266      -22.5
   11/02/2017 19:00      60.9      60.5       66     49.3      0.00      0.09      71.5     0.30      1018.5     2.7     SSW   205   5.2      SW   222   0.97    266      -22.8
   11/02/2017 18:50      60.9      60.5       66     49.2      0.00      0.09      71.5     0.30      1018.4     1.8       S   179   3.3     SSE   165   0.97    266      -23.4
   11/02/2017 18:40      61.0      60.6       65     49.0      0.00      0.09      71.5     0.30      1018.3     2.6       S   190   5.0      SW   231   0.97    266      -26.5
   11/02/2017 18:30      61.3      60.8       65     48.9      0.00      0.09      71.5     0.30      1018.2     2.8       S   182   5.0      SW   215   0.97    266      -24.7
   11/02/2017 18:20      61.5      61.0       63     48.5      0.00      0.09      71.5     0.30      1018.1     2.8       S   182   5.0       S   191   0.97    266      -22.6
   11/02/2017 18:10      61.6      61.1       61     47.8      0.00      0.09      71.4     0.30      1018.1     2.1       S   185   5.5     SSW   194   0.97    266      -22.4
   11/02/2017 18:00      61.8      61.2       60     47.3      0.00      0.09      71.5     0.30      1018.0     2.5       S   180   5.4       S   190   0.97    266      -21.1
   11/02/2017 17:50      61.8      61.4       58     46.5      0.00      0.09      71.4     0.30      1017.9     3.4     SSW   194   5.7     WSW   244   0.97    266      -18.9
   11/02/2017 17:40      62.1      61.4       56     45.8      0.00      0.09      71.4     0.30      1017.9     4.4     SSW   200   8.4     SSW   202   0.97    266      -14.9
   11/02/2017 17:30      62.6      61.7       54     45.3      0.00      0.09      71.4     0.30      1017.9     5.0     SSW   200   8.0     SSW   199   0.97    266      -10.8
   11/02/2017 17:20      62.7      62.2       52     44.5      0.00      0.09      71.4     0.30      1017.9     3.2     SSW   202   8.1     WSW   236   0.97    266       -8.4
   11/02/2017 17:10      63.1      62.2       52     44.5      0.00      0.09      71.4     0.30      1017.8     3.7       S   181   6.0       S   170   0.97    265       -5.9
   11/02/2017 17:00      62.9      62.6       51     44.4      0.00      0.09      71.4     0.30      1017.8     3.6     SSW   206   6.1      SW   216   0.97    265        3.1
   11/02/2017 16:50      63.1      62.5       54     45.8      0.00      0.09      71.4     0.30      1017.7     4.4     SSW   198   6.9       S   171   0.97    266       19.7
   11/02/2017 16:40      63.3      62.8       58     48.0      0.00      0.09      71.4     0.30      1017.7     3.4     SSE   166   5.6     SSE   160   0.97    266       30.6
   11/02/2017 16:30      63.2      62.7       58     48.2      0.00      0.09      71.4     0.30      1017.7     3.6       S   174   8.1     SSW   198   0.97    266       41.8
   11/02/2017 16:20      63.4      62.7       59     48.4      0.00      0.09      71.3     0.30      1017.6     5.0       S   178   8.3       S   172   0.97    266       55.3
   11/02/2017 16:10      64.0      63.0       59     48.7      0.00      0.09      71.4     0.30      1017.7     5.7       S   175   9.3     SSW   199   0.97    266       70.0
   11/02/2017 16:00      64.1      63.5       58     48.9      0.00      0.09      71.4     0.30      1017.7     4.7       S   170   8.5       S   184   0.97    265       93.8
   11/02/2017 15:50      64.1      63.6       58     48.9      0.00      0.09      71.3     0.30      1017.6     4.6       S   171   8.3       S   177   0.97    265      103.8
   11/02/2017 15:40      64.5      63.8       58     49.0      0.00      0.09      71.4     0.30      1017.5     4.7       S   172   9.2       S   173   0.97    265      116.1
   11/02/2017 15:30      64.4      63.6       59     49.1      0.00      0.09      71.3     0.30      1017.5     4.8       S   184   9.7     SSW   203   0.97    266      129.1
   11/02/2017 15:20      65.1      64.1       57     48.9      0.00      0.09      71.4     0.30      1017.5     4.7       S   171   8.7     SSW   212   0.97    265      112.1
   11/02/2017 15:10      65.3      64.7       56     48.8      0.00      0.09      71.3     0.30      1017.4     4.6       S   178   8.6     SSW   210   0.97    265      161.9
   11/02/2017 15:00      65.3      64.4       56     48.8      0.00      0.09      71.3     0.30      1017.3     4.4     SSE   159   7.7     SSE   169   0.97    265      166.7
   11/02/2017 14:50      65.7      65.0       53     47.9      0.00      0.09      71.3     0.30      1017.4     4.2       S   171   7.6      SE   143   0.97    265      157.3
   11/02/2017 14:40      65.5      64.9       53     47.7      0.00      0.09      71.3     0.30      1017.3     3.8     SSE   158   6.6      SE   141   0.97    265      173.9
   11/02/2017 14:30      65.4      64.9       52     46.9      0.00      0.09      71.3     0.30      1017.4     2.6      SE   128   6.3     ESE   119   0.97    265      138.9
   11/02/2017 14:20      65.5      64.9       51     46.7      0.00      0.09      71.3     0.30      1017.4     1.7     ENE    78   4.7      SE   137   0.97    265      126.7
   11/02/2017 14:10      65.3      64.8       52     46.8      0.00      0.09      71.3     0.30      1017.4     1.7     ENE    66   4.2      NE    47   0.97    265       81.9
   11/02/2017 14:00      65.3      64.6       52     46.9      0.00      0.09      71.3     0.30      1017.4     1.1       N    10   2.4      SE   135   0.97    265      130.1
   11/02/2017 13:50      64.8      64.2       53     46.9      0.00      0.09      71.3     0.30      1017.6     1.1      NE    35   2.1       N   352   0.97    265      108.6
   11/02/2017 13:40      64.6      64.0       54     47.0      0.00      0.09      71.3     0.30      1017.6     1.3     NNE    27   3.5     NNE    20   0.97    266       40.3
   11/02/2017 13:30      64.4      63.9       54     47.4      0.00      0.09      71.3     0.30      1017.7     1.0       N     8   3.6       N     4   0.97    266       47.6
   11/02/2017 13:20      64.4      64.0       55     47.5      0.00      0.09      71.3     0.30      1017.8     1.5       N     5   3.9     NNE    21   0.97    266       67.7
   11/02/2017 13:10      64.6      63.8       55     47.6      0.00      0.09      71.3     0.30      1017.9     0.8      NE    38   2.5       N     2   0.97    266       66.0
   11/02/2017 13:00      64.8      64.2       54     47.6      0.00      0.09      71.3     0.30      1018.0     1.6     WNW   281   3.7      SW   230   0.97    266      106.8
   11/02/2017 12:50      65.0      64.0       55     48.1      0.00      0.09      71.3     0.30      1018.1     1.3       W   280   4.5       W   259   0.97    265      165.1
   11/02/2017 12:40      64.4      63.8       56     47.9      0.00      0.09      71.3     0.30      1018.3     2.8       W   263   5.8     WSW   250   0.97    265      263.4
   11/02/2017 12:30      64.2      62.7       58     48.1      0.00      0.09      71.3     0.30      1018.4     1.7     NNW   334   5.3     NNW   326   0.97    265      224.0
   11/02/2017 12:20      63.0      62.2       58     47.5      0.00      0.09      71.3     0.30      1018.5     3.1     WSW   254   6.0     WSW   250   0.97    266      179.6
   11/02/2017 12:10      62.6      62.1       59     48.0      0.00      0.09      71.4     0.30      1018.6     3.5     WSW   254   6.3     WSW   255   0.97    266      191.9
   11/02/2017 12:00      62.4      61.6       61     48.2      0.00      0.09      71.4     0.30      1018.8     3.1     WSW   249   5.2     SSW   199   0.97    266      169.5
   11/02/2017 11:50      62.1      61.5       62     48.7      0.00      0.09      71.4     0.30      1018.8     2.3     WSW   241   5.3       W   263   0.97    273      145.8
   11/02/2017 11:40      62.1      61.5       62     48.6      0.00      0.09      71.4     0.30      1018.8     2.4     SSW   211   4.2      SW   215   0.97    289      159.2
   11/02/2017 11:30      62.1      61.3       63     49.0      0.00      0.09      71.4     0.30      1018.9     1.6      SW   223   4.6     WSW   257   0.97    306      164.0
   11/02/2017 11:20      61.5      60.5       66     49.6      0.00      0.09      71.4     0.30      1018.8     1.4       S   169   3.2      SW   216   0.97    332      210.8
   11/02/2017 11:10      60.6      59.8       69     49.9      0.00      0.09      71.4     0.30      1018.8     2.2      SW   233   3.4     SSW   209   0.97    357      220.5
   11/02/2017 11:00      59.9      59.3       73     51.1      0.00      0.09      71.5     0.30      1018.9     1.4     WSW   252   3.2     SSW   198   0.97    389      147.3
   11/02/2017 10:50      59.4      58.8       74     50.9      0.00      0.09      71.5     0.30      1018.9     2.2      SW   228   3.7       W   275   0.97    408      136.0
   11/02/2017 10:40      58.8      58.3       75     50.5      0.00      0.09      71.5     0.30      1018.7     2.5      SW   220   5.0     SSW   207   0.97    439      164.1
   11/02/2017 10:30      58.5      57.4       77     50.5      0.00      0.09      71.5     0.30      1018.7     3.1      SW   231   5.7       W   262   0.97    461      163.8
   11/02/2017 10:20      57.6      57.2       78     50.6      0.00      0.09      71.5     0.30      1018.7     4.4     SSW   206   7.2     SSW   197   0.97    480       95.0
   11/02/2017 10:10      57.6      57.0       82     52.0      0.00      0.09      71.5     0.30      1018.5     4.5      SW   215  10.7     WSW   245   0.97    491      102.1
   11/02/2017 10:00      57.9      57.3       85     53.1      0.00      0.09      71.5     0.30      1018.5     3.7     WSW   238   5.4      SW   220   0.97    504       82.7
   11/02/2017 09:50      58.6      57.6       81     52.4      0.00      0.09      71.5     0.30      1018.5     4.3      SW   233   8.6     WSW   249   0.97    513       24.1
   11/02/2017 09:40      59.1      58.3       79     52.1      0.00      0.09      71.5     0.30      1018.4     4.4     WSW   239   7.9     WSW   248   0.97    267       45.2
   11/02/2017 09:30      58.8      58.3       79     52.2      0.00      0.09      71.5     0.30      1018.2     2.8     WSW   250   5.2     WSW   240   0.97    267       69.6
   11/02/2017 09:20      58.8      58.3       78     51.6      0.00      0.09      71.6     0.30      1018.2     3.7     SSW   210   5.7     SSW   197   0.97    268       33.7
   11/02/2017 09:10      59.4      58.6       75     51.1      0.00      0.09      71.6     0.30      1018.0     3.6      SW   220   6.1      SW   221   0.97    267       30.8
   11/02/2017 09:00      59.6      59.0       74     50.9      0.00      0.09      71.6     0.30      1017.9     3.2      SW   219   4.9     SSW   206   0.97    267       20.6
   11/02/2017 08:50      59.7      59.3       73     50.7      0.00      0.09      71.6     0.30      1017.7     2.1      SW   226   4.4     SSW   212   0.97    267       18.5
   11/02/2017 08:40      59.6      59.3       73     50.7      0.00      0.09      71.7     0.30      1017.5     2.5     WSW   239   4.6       W   263   0.97    267       14.3
   11/02/2017 08:30      59.9      59.3       72     50.6      0.00      0.09      71.7     0.30      1017.4     2.2     SSW   213   3.8      SW   223   0.97    267       14.9
   11/02/2017 08:20      59.8      59.3       71     50.3      0.00      0.09      71.7     0.30      1017.2     1.3     SSW   208   2.5      SW   235   0.97    267       15.3
   11/02/2017 08:10      59.6      59.2       72     50.2      0.00      0.09      71.7     0.30      1017.1     1.6      SW   227   2.6     WSW   251   0.81    267        8.3
   11/02/2017 08:00      59.5      59.1       71     50.0      0.00      0.09      71.7     0.30      1017.0     2.0     WSW   238   3.2       W   265   0.91    267        1.2
   11/02/2017 07:50      59.4      59.0       71     49.8      0.00      0.09      71.7     0.30      1016.9     1.0      SW   233   1.9      SW   225   0.91    267       -5.7
   11/02/2017 07:40      59.2      58.8       71     49.8      0.00      0.09      71.7     0.30      1016.8     0.2      SW   216   1.1     SSW   204   0.91    267       -8.3
   11/02/2017 07:30      59.1      58.6       72     49.8      0.00      0.09      71.7     0.30      1016.6     0.5      SW   235   2.0     WSW   250   0.91    267      -12.1
   11/02/2017 07:20      59.1      58.6       72     49.7      0.00      0.09      71.8     0.30      1016.4     1.1     SSW   209   2.5     WSW   238   0.91    267      -13.0
   11/02/2017 07:10      59.0      58.6       72     49.6      0.00      0.09      71.8     0.30      1016.4     0.7     SSW   193   1.5       S   188   0.91    267      -13.6
   11/02/2017 07:00      59.1      58.5       72     49.6      0.00      0.09      71.8     0.30      1016.3     0.3      SW   221   1.2     SSW   199   0.91    267      -14.3
   11/02/2017 06:50      58.9      58.5       72     49.6      0.00      0.09      71.8     0.30      1016.3     0.0       N     0   0.0       S   184   0.91    267      -15.1
   11/02/2017 06:40      59.0      58.5       72     49.5      0.00      0.09      71.8     0.30      1016.2     0.9     SSW   205   2.0     WSW   240   0.91    267      -15.3
   11/02/2017 06:30      59.2      58.6       71     49.6      0.00      0.09      71.8     0.30      1016.2     2.0     WSW   251   3.3     WSW   258   0.91    267      -20.2
   11/02/2017 06:20      59.1      58.8       72     49.7      0.00      0.09      71.8     0.30      1016.1     0.7       W   280   2.5     WNW   292   0.90    267      -19.0
   11/02/2017 06:10      59.1      58.6       72     49.8      0.00      0.09      71.8     0.30      1016.1     0.4       W   275   2.0     WNW   300   0.91    267      -20.4
   11/02/2017 06:00      58.8      58.4       72     49.7      0.00      0.09      71.8     0.30      1016.1     0.2      NW   312   1.3       N   351   0.91    267      -15.7
   11/02/2017 05:50      58.6      58.2       72     49.6      0.00      0.09      71.9     0.30      1016.1     0.4     SSW   199   2.4     SSW   196   0.91    267      -16.4
   11/02/2017 05:40      58.7      58.3       72     49.6      0.00      0.09      71.9     0.30      1016.0     0.7     SSW   193   2.2     SSW   213   0.91    267      -26.7
   11/02/2017 05:30      58.8      58.3       72     49.6      0.00      0.09      71.9     0.30      1016.0     0.2       S   187   1.4       S   188   0.91    267      -30.8
   11/02/2017 05:20      58.8      58.4       72     49.7      0.00      0.09      71.9     0.30      1016.0     0.5     SSW   191   1.7       S   173   0.91    267      -27.9
   11/02/2017 05:10      58.8      58.3       72     49.7      0.00      0.09      71.9     0.30      1016.0     0.5      SW   223   1.0       S   181   0.91    267      -19.4
   11/02/2017 05:00      58.7      58.3       73     49.6      0.00      0.09      72.0     0.30      1016.0     0.6      SW   231   1.2      SW   231   0.91    267      -17.6
   11/02/2017 04:50      59.0      58.3       72     49.5      0.00      0.09      72.0     0.30      1015.9     0.0       N     0   0.0      SW   232   0.91    267      -17.6
   11/02/2017 04:40      59.1      58.6       71     49.5      0.00      0.09      72.0     0.30      1015.9     0.0       N     0   0.0      SW   232   0.91    267      -18.9
   11/02/2017 04:30      59.0      58.6       71     49.6      0.00      0.09      72.0     0.30      1015.9     0.0       N     0   0.0      SW   232   0.91    267      -19.3
   11/02/2017 04:20      58.9      58.5       72     49.6      0.00      0.09      72.0     0.30      1016.0     1.0     SSW   206   2.6      SW   229   0.91    267      -19.4
   11/02/2017 04:10      58.8      58.5       72     49.5      0.00      0.09      72.0     0.30      1016.1     1.5     SSW   207   2.7       S   190   0.91    267      -19.2
   11/02/2017 04:00      58.9      58.4       72     49.5      0.00      0.09      72.0     0.30      1016.1     1.3       S   191   2.7     SSW   201   0.92    267      -18.8
   11/02/2017 03:50      59.1      58.5       71     49.5      0.00      0.09      72.0     0.30      1016.1     1.5     SSW   202   2.7     SSW   214   0.91    267      -20.9
   11/02/2017 03:40      59.1      58.6       71     49.6      0.00      0.09      72.1     0.30      1016.1     1.1     SSW   212   2.7     SSW   195   0.91    267      -20.6
   11/02/2017 03:30      59.1      58.7       71     49.6      0.00      0.09      72.1     0.30      1016.2     1.8     SSW   203   2.8     SSW   193   0.91    267      -20.8
   11/02/2017 03:20      59.4      58.8       71     49.6      0.00      0.09      72.1     0.30      1016.2     1.7     SSW   211   2.5       S   187   0.90    267      -21.0
   11/02/2017 03:10      59.3      58.9       71     49.6      0.00      0.09      72.1     0.30      1016.2     0.5     WSW   247   1.8      SW   230   0.90    267      -22.8
   11/02/2017 03:00      59.2      58.8       71     49.6      0.00      0.09      72.1     0.30      1016.2     1.7     WSW   241   4.6       W   274   0.90    267      -24.2
   11/02/2017 02:50      59.3      58.8       71     49.5      0.00      0.09      72.2     0.30      1016.2     1.6     WSW   237   2.8     WSW   239   0.91    267      -26.2
   11/02/2017 02:40      59.3      58.8       71     49.5      0.00      0.09      72.1     0.30      1016.3     1.0     SSW   209   2.5       S   186   0.91    267      -26.9
   11/02/2017 02:30      59.4      58.9       70     49.5      0.00      0.09      72.2     0.30      1016.3     1.3     SSW   205   2.9     WSW   237   0.91    267      -25.9
   11/02/2017 02:20      59.3      59.0       71     49.6      0.00      0.09      72.2     0.30      1016.3     1.4      SW   232   2.8      SW   216   0.91    267      -24.1
   11/02/2017 02:10      59.3      59.0       71     49.9      0.00      0.09      72.2     0.30      1016.3     0.6      SW   229   1.9      SW   231   0.91    267      -29.1
   11/02/2017 02:00      59.4      58.8       72     50.0      0.00      0.09      72.2     0.30      1016.2     1.5      SW   224   2.4     WSW   249   0.91    267      -32.5
   11/02/2017 01:50      59.1      58.6       72     49.9      0.00      0.09      72.2     0.30      1016.3     1.0      SW   214   2.2      SW   223   0.91    267      -32.4
   11/02/2017 01:40      59.3      58.8       72     50.0      0.00      0.09      72.2     0.30      1016.3     0.5     WSW   239   1.4      SW   233   0.91    267      -32.1
   11/02/2017 01:30      59.3      58.9       72     50.2      0.00      0.09      72.2     0.30      1016.3     0.0       N     0   0.0      SW   234   0.91    267      -30.8
   11/02/2017 01:20      59.2      58.8       72     50.1      0.00      0.09      72.3     0.30      1016.3     0.4      SW   234   0.8      SW   234   0.91    267      -28.5
   11/02/2017 01:10      59.3      58.8       72     50.0      0.00      0.09      72.3     0.30      1016.3     0.0      SW   234   0.7      SW   234   0.91    267      -27.4
   11/02/2017 01:00      59.3      58.8       72     50.0      0.00      0.09      72.2     0.30      1016.3     0.0      SW   234   0.6      SW   234   0.91    267      -24.8
   11/02/2017 00:50      59.3      58.8       72     50.0      0.00      0.09      72.3     0.30      1016.2     0.0       N     0   0.0      SW   234   0.91    267      -23.7
   11/02/2017 00:40      59.6      59.0       71     49.9      0.00      0.09      72.3     0.30      1016.1     0.0       N     0   0.0      SW   234   0.91    267      -22.6
   11/02/2017 00:30      59.4      58.8       72     50.0      0.00      0.09      72.3     0.30      1016.1     0.0       N     0   0.0      SW   234   0.91    267      -26.3
   11/02/2017 00:20      59.3      58.8       71     49.8      0.00      0.09      72.3     0.30      1016.1     0.0      SW   234   0.5      SW   234   0.91    267      -25.7
   11/02/2017 00:10      59.2      58.7       72     49.9      0.00      0.09      72.3     0.30      1016.0     0.4      SW   234   1.0      SW   234   0.91    267      -25.6
   11/02/2017 00:00      59.1      58.6       72     49.8      0.00      0.09      72.3     0.30      1016.0     0.0       N     0   0.0      SW   234   0.91    266      -25.2
   11/01/2017 23:50      59.2      58.7       72     49.9      0.00      0.09      72.3     0.30      1016.0     0.0      SW   234   0.5      SW   234   0.91    267      -26.6
   11/01/2017 23:40      59.3      58.8       72     49.8      0.00      0.09      72.3     0.30      1016.0     0.0      SW   234   0.4      SW   234   0.91    267      -28.4
   11/01/2017 23:30      59.5      58.8       71     49.8      0.00      0.09      72.4     0.30      1015.9     0.3      SW   234   1.1      SW   234   0.91    267      -30.2
   11/01/2017 23:20      60.1      59.3       70     49.8      0.00      0.09      72.3     0.30      1015.9     0.0       N     0   0.0      SW   234   0.91    266      -38.2
   11/01/2017 23:10      60.4      59.7       69     49.9      0.00      0.09      72.4     0.30      1015.9     0.0       N     0   0.0      SW   234   0.91    266      -39.4
   11/01/2017 23:00      60.4      60.1       69     50.1      0.00      0.09      72.4     0.30      1016.0     0.2     WSW   246   1.3      NW   313   0.91    266      -33.9
   11/01/2017 22:50      60.6      60.1       69     50.1      0.00      0.09      72.4     0.30      1016.0     0.1       W   269   0.9     WNW   289   0.91    266      -32.4
   11/01/2017 22:40      60.6      60.2       69     50.3      0.00      0.09      72.3     0.30      1016.0     0.5       S   190   2.3      SW   224   0.91    266      -29.6
   11/01/2017 22:30      60.5      60.2       69     50.3      0.00      0.09      72.4     0.30      1016.0     0.8       S   183   2.5     SSW   203   0.91    266      -27.8
   11/01/2017 22:20      60.5      60.2       69     50.3      0.00      0.09      72.4     0.30      1016.0     2.1     SSW   208   3.7       S   189   0.92    266      -26.4
   11/01/2017 22:10      60.8      60.2       69     50.3      0.00      0.09      72.4     0.30      1015.8     2.7     SSW   207   4.3     WSW   238   0.92    266      -34.8
   11/01/2017 22:00      60.9      60.4       69     50.4      0.00      0.09      72.4     0.30      1015.8     1.5     SSW   195   3.4     SSW   195   0.92    266      -36.1
   11/01/2017 21:50      61.1      60.6       69     50.4      0.00      0.09      72.4     0.30      1015.7     1.2     SSW   198   2.5     SSW   200   0.91    266      -35.8
   11/01/2017 21:40      61.2      60.8       68     50.4      0.00      0.09      72.4     0.30      1015.6     1.3      SW   215   2.8      SW   228   0.91    266      -31.3
   11/01/2017 21:30      61.2      60.9       68     50.4      0.00      0.09      72.4     0.30      1015.5     1.5      SW   216   2.6     WSW   257   0.91    266      -27.7
   11/01/2017 21:20      61.3      60.8       68     50.4      0.00      0.09      72.4     0.30      1015.4     1.4     SSW   213   2.8     WSW   238   0.91    266      -29.9
   11/01/2017 21:10      61.4      60.8       68     50.4      0.00      0.09      72.4     0.30      1015.3     2.0      SW   224   3.2     WSW   245   0.91    266      -31.5
   11/01/2017 21:00      61.5      61.0       68     50.4      0.00      0.09      72.4     0.30      1015.2     1.9      SW   227   3.3     SSW   208   0.91    266      -32.2
   11/01/2017 20:50      61.6      61.1       68     50.5      0.00      0.09      72.3     0.30      1015.1     2.7     SSW   210   4.8     SSW   198   0.91    266      -27.3
   11/01/2017 20:40      61.8      61.2       68     50.6      0.00      0.09      72.4     0.30      1015.0     2.8     SSW   206   4.1      SW   214   0.91    266      -22.8
   11/01/2017 20:30      62.1      61.4       67     50.6      0.00      0.09      72.3     0.30      1014.9     2.4      SW   220   4.0     WSW   252   0.91    266      -24.6
   11/01/2017 20:20      62.3      61.8       66     50.6      0.00      0.09      72.3     0.30      1014.8     1.6       W   270   5.4     WNW   302   0.91    266      -24.4
   11/01/2017 20:10      62.5      62.0       66     50.8      0.00      0.09      72.3     0.30      1014.6     2.5     WSW   247   5.1      NW   315   0.91    266      -23.6
   11/01/2017 20:00      62.7      62.2       66     50.9      0.00      0.09      72.3     0.30      1014.6     2.5       W   263   4.5       W   261   0.91    266      -24.0
   11/01/2017 19:50      62.6      62.2       66     50.9      0.00      0.09      72.3     0.30      1014.5     1.9       W   260   4.2     WNW   282   0.91    266      -24.4
   11/01/2017 19:40      62.7      62.2       66     50.7      0.00      0.09      72.3     0.30      1014.5     3.7      SW   232   5.5      SW   217   0.91    266      -25.8
   11/01/2017 19:30      62.7      62.2       65     50.6      0.00      0.09      72.3     0.30      1014.4     4.1     WSW   244   7.3      SW   235   0.91    266      -24.7
   11/01/2017 19:20      63.3      62.5       64     50.5      0.00      0.09      72.3     0.30      1014.3     4.2     WSW   239   8.5      SW   230   0.91    266      -25.6
   11/01/2017 19:10      63.6      63.0       62     50.2      0.00      0.09      72.3     0.30      1014.3     2.2      SW   235   4.2     SSW   209   0.91    266      -25.9
   11/01/2017 19:00      63.5      63.0       62     50.0      0.00      0.09      72.3     0.30      1014.2     0.8     WSW   243   2.6       W   261   0.91    266      -27.1
   11/01/2017 18:50      63.6      63.0       62     50.1      0.00      0.09      72.2     0.30      1014.0     1.8      SW   222   4.4     WSW   255   0.91    266      -39.2
   11/01/2017 18:40      63.6      63.2       62     50.2      0.00      0.09      72.2     0.30      1014.0     1.0       S   190   2.7       W   261   0.91    266      -41.5
   11/01/2017 18:30      64.1      63.3       62     50.4      0.00      0.09      72.2     0.30      1013.9     1.7     SSW   212   3.6     WSW   249   0.91    266      -42.8
   11/01/2017 18:20      64.2      63.6       62     50.5      0.00      0.09      72.2     0.30      1013.8     1.5     SSW   209   3.3      SW   227   0.91    266      -39.2
   11/01/2017 18:10      64.7      63.9       61     50.6      0.00      0.09      72.2     0.30      1013.7     2.8       S   186   6.1       S   184   0.91    266      -35.5
   11/01/2017 18:00      64.9      64.4       60     50.5      0.00      0.09      72.1     0.30      1013.5     2.5       S   179   5.7     SSE   167   0.91    266      -32.2
   11/01/2017 17:50      65.2      64.6       59     50.4      0.00      0.09      72.2     0.30      1013.5     4.1       S   175   7.3     SSE   162   0.91    266      -33.8
   11/01/2017 17:40      65.4      64.9       59     50.3      0.00      0.09      72.1     0.30      1013.4     3.2     SSE   169   5.9       S   189   0.91    265      -28.2
   11/01/2017 17:30      65.7      65.1       57     49.9      0.00      0.09      72.1     0.30      1013.3     4.2     SSE   160   7.2     SSE   153   0.91    265      -15.8
   11/01/2017 17:20      65.8      65.4       57     49.8      0.00      0.09      72.1     0.30      1013.2     3.7     SSE   158   6.1     ESE   120   0.91    265       -8.8
   11/01/2017 17:10      66.2      65.4       57     49.9      0.00      0.09      72.1     0.30      1013.2     4.9       S   174   8.6       S   188   0.91    265       -0.6
   11/01/2017 17:00      66.4      65.7       56     50.0      0.00      0.09      72.0     0.30      1013.2     4.9       S   178  10.2     SSW   201   0.91    265       11.2
   11/01/2017 16:50      66.6      66.0       55     49.8      0.00      0.09      72.0     0.30      1013.2     4.7       S   182   8.1     SSE   149   0.91    265       20.1
   11/01/2017 16:40      66.8      66.3       54     49.6      0.00      0.09      72.0     0.30      1013.1     4.8       S   182   8.6     SSW   199   0.91    264       31.2
   11/01/2017 16:30      67.9      66.5       53     49.5      0.00      0.09      72.0     0.30      1013.1     5.0     SSW   193   8.1     SSW   201   0.91    264       54.8
   11/01/2017 16:20      68.8      67.6       52     49.8      0.00      0.09      72.0     0.30      1013.1     5.7     SSW   213   9.8     SSW   213   0.91    264      110.8
   11/01/2017 16:10      69.6      68.2       51     50.0      0.00      0.09      72.0     0.30      1013.1     4.5       S   186   8.8     SSE   161   0.91    264      167.3
   11/01/2017 16:00      69.3      68.2       49     48.9      0.00      0.09      71.9     0.30      1013.0     2.5     SSE   152   5.8     SSW   195   0.91    264      192.9
   11/01/2017 15:50      68.3      67.5       50     48.3      0.00      0.09      71.9     0.30      1013.1     2.8     SSE   148   8.4      SE   125   0.91    264      107.7
   11/01/2017 15:40      69.3      67.8       49     48.4      0.00      0.09      71.9     0.30      1013.0     2.5     SSE   154   5.6     SSE   167   0.91    264       32.0
   11/01/2017 15:30      69.3      68.8       48     48.5      0.00      0.09      71.9     0.30      1013.0     2.8      SE   143   5.6      SW   230   0.91    263      173.6
   11/01/2017 15:20      68.9      67.6       48     48.0      0.00      0.09      71.9     0.30      1013.0     4.0     SSW   194   8.4     SSW   196   0.91    264      214.6
   11/01/2017 15:10      68.5      67.7       48     47.8      0.00      0.09      71.9     0.30      1013.0     4.1       S   172   7.0     SSW   199   0.92    264      105.4
   11/01/2017 15:00      69.0      68.2       48     47.9      0.00      0.09      71.9     0.30      1013.0     3.4       S   187   7.5      SW   217   0.92    264      126.0
   11/01/2017 14:50      68.6      68.0       49     48.3      0.00      0.09      71.9     0.30      1013.1     3.0     SSE   165   6.1      SW   229   0.92    264      122.1
   11/01/2017 14:40      68.5      67.7       49     48.4      0.00      0.09      71.8     0.30      1013.1     1.8     ESE   117   5.0      SE   134   0.91    264      108.7
   11/01/2017 14:30      68.5      67.6       51     49.0      0.00      0.09      71.8     0.30      1013.1     3.3       S   179   6.1       S   187   0.91    264      144.5
   11/01/2017 14:20      68.5      67.9       51     49.3      0.00      0.09      71.8     0.30      1013.2     3.9       S   175   8.2       S   178   0.91    264      141.0
   11/01/2017 14:10      68.7      68.0       48     47.8      0.00      0.09      71.8     0.30      1013.3     2.5      SE   144   4.6     SSE   153   0.91    263      145.8
   11/01/2017 14:00      69.0      68.2       46     47.2      0.00      0.09      71.8     0.30      1013.4     3.4      SE   126   6.4      SE   129   0.92    263      185.0
   11/01/2017 13:50      68.9      68.2       47     47.5      0.00      0.09      71.8     0.30      1013.4     2.5     ESE   116   5.9      SE   140   0.92    263      236.3
   11/01/2017 13:40      68.5      68.0       48     48.0      0.00      0.09      71.8     0.30      1013.4     2.7      SE   128   7.0     SSW   194   0.92    263      153.0
   11/01/2017 13:30      68.6      68.0       50     48.8      0.00      0.09      71.8     0.30      1013.5     3.0     SSE   152   6.7       S   191   0.92    264      179.8
   11/01/2017 13:20      69.1      67.8       49     48.7      0.00      0.09      71.8     0.30      1013.7     2.9      SE   129   6.0       E    80   0.92    264      155.3
   11/01/2017 13:10      69.0      68.2       48     48.3      0.00      0.09      71.8     0.30      1013.8     2.9       S   181   6.1      SE   126   0.92    264      128.8
   11/01/2017 13:00      69.6      68.7       46     47.5      0.00      0.09      71.8     0.30      1013.9     2.1     SSW   196   4.5     SSW   211   0.92    263      205.8
   11/01/2017 12:50      68.8      68.2       47     47.4      0.00      0.09      71.8     0.30      1014.1     1.5      SE   133   4.2       S   188   0.91    264      204.9
   11/01/2017 12:40      68.5      68.0       46     46.9      0.00      0.09      71.8     0.30      1014.2     1.7       E    93   3.9       E   100   0.91    263      144.7
   11/01/2017 12:30      68.0      67.3       47     46.7      0.00      0.09      71.8     0.30      1014.3     1.4     SSW   193   4.1       S   174   0.92    263      133.5
   11/01/2017 12:20      68.3      67.4       46     46.2      0.00      0.09      71.8     0.30      1014.5     2.5      SE   143   5.2     ESE   115   0.92    263      115.0
   11/01/2017 12:10      68.7      67.9       45     46.2      0.00      0.09      71.8     0.30      1014.6     3.0      SE   141   6.8       S   189   0.91    263      203.7
   11/01/2017 12:00      69.3      68.2       46     46.8      0.00      0.09      71.8     0.30      1014.7     3.8     SSE   158   7.2     SSE   151   0.92    263      468.4
   11/01/2017 11:50      69.3      68.6       45     46.8      0.00      0.09      71.8     0.30      1014.8     2.7     ESE   123   6.4     SSE   147   0.92    263      458.7
   11/01/2017 11:40      69.5      67.5       45     46.9      0.00      0.09      71.8     0.30      1014.9     2.8      SE   127   6.0       E    80   0.92    263      469.5
   11/01/2017 11:30      68.1      67.1       47     46.9      0.00      0.09      71.8     0.30      1015.0     3.8      SE   126   9.2     SSE   158   0.92    264      420.4
   11/01/2017 11:20      67.3      65.6       49     46.1      0.00      0.09      71.8     0.30      1015.1     3.0     SSE   158   6.4     SSE   152   0.92    264      337.7
   11/01/2017 11:10      65.9      65.2       50     46.5      0.00      0.09      71.8     0.30      1015.1     2.5     SSE   150   6.6     SSE   148   0.92    265      136.6
   11/01/2017 11:00      66.0      65.5       61     52.1      0.00      0.09      71.8     0.30      1015.1     1.4     NNE    28   3.4      SE   131   0.92    266       99.6
   11/01/2017 10:50      66.5      65.7       63     52.9      0.00      0.09      71.8     0.30      1015.2     1.0      NE    35   2.7     NNE    32   0.92    266       94.0
   11/01/2017 10:40      66.4      65.2       64     53.2      0.00      0.09      71.9     0.30      1015.3     0.4     NNE    30   1.5       E    83   0.92    266      143.2
   11/01/2017 10:30      65.4      64.2       66     53.1      0.00      0.09      71.9     0.30      1015.3     0.6       N   353   2.1     NNW   333   0.92    266      119.6
   11/01/2017 10:20      64.4      63.9       67     53.0      0.00      0.09      71.9     0.30      1015.3     1.3     SSE   154   3.2     ESE   108   0.92    266      109.0
   11/01/2017 10:10      64.4      64.1       68     53.6      0.00      0.09      71.9     0.30      1015.3     1.4     ENE    77   3.3       E    90   0.92    266      132.7
   11/01/2017 10:00      64.2      63.7       69     53.7      0.00      0.09      71.9     0.30      1015.3     1.7     NNE    25   3.3       N    10   0.92    266      114.7
   11/01/2017 09:50      64.0      63.5       69     53.5      0.00      0.09      71.9     0.30      1015.3     0.9     ENE    67   3.2      NE    37   0.92    266       78.9
   11/01/2017 09:40      64.0      63.0       71     53.9      0.00      0.09      71.9     0.30      1015.2     0.8     ENE    72   2.9       N   353   0.92    266       73.4
   11/01/2017 09:30      63.2      62.7       71     53.4      0.00      0.09      71.9     0.30      1015.2     1.5      NE    53   3.5     NNW   329   0.92    267       69.9
   11/01/2017 09:20      63.1      62.7       71     53.4      0.00      0.09      72.0     0.30      1015.2     1.3       E    84   3.7       E    80   0.92    267       52.3
   11/01/2017 09:10      63.0      62.5       72     53.6      0.00      0.09      71.9     0.30      1015.2     0.7      NE    35   2.0     NNE    25   0.92    267       44.2
   11/01/2017 09:00      62.6      62.1       73     53.5      0.00      0.09      72.0     0.30      1015.2     0.2     SSE   153   1.2     SSE   153   0.92    267       36.6
   11/01/2017 08:50      62.6      62.1       73     53.4      0.00      0.09      72.0     0.30      1015.1     0.4     SSE   153   1.5     SSE   152   0.92    267       27.2
   11/01/2017 08:40      62.6      61.9       73     53.4      0.00      0.09      72.0     0.30      1014.9     0.0       N     0   0.0     SSE   153   0.92    267       18.6
   11/01/2017 08:30      62.1      61.6       74     53.3      0.00      0.09      72.0     0.30      1014.8     0.0     SSE   153   1.1     SSE   153   0.92    267       16.5
   11/01/2017 08:20      61.8      61.4       74     53.1      0.00      0.09      72.0     0.30      1014.6     0.2     SSE   157   1.5     SSE   153   0.92    267       13.8
   11/01/2017 08:10      61.6      61.0       74     53.0      0.00      0.09      72.1     0.30      1014.5     0.0       N     0   0.0       S   176   0.92    267        6.6
   11/01/2017 08:00      61.2      60.7       74     52.6      0.00      0.09      72.1     0.30      1014.3     0.0       N     0   0.0       S   176   0.92    267        0.5
   11/01/2017 07:50      60.9      60.4       74     52.2      0.00      0.09      72.1     0.30      1014.2     0.0       N     0   0.0       S   176   0.92    267       -5.0
   11/01/2017 07:40      60.7      60.3       75     52.4      0.00      0.09      72.1     0.30      1014.1     0.0       N     0   0.0       S   176   0.92    267       -9.2
   11/01/2017 07:30      60.5      60.1       75     52.2      0.00      0.09      72.0     0.30      1014.0     0.0       N     0   0.0       S   176   0.92    268      -11.4
   11/01/2017 07:20      60.3      59.9       75     52.2      0.00      0.09      72.1     0.30      1014.0     0.0       N     0   0.0       S   176   0.91    267      -13.4
   11/01/2017 07:10      60.2      59.9       75     51.9      0.00      0.09      72.1     0.30      1014.0     0.0       S   176   0.2       S   176   0.91    268      -14.8
   11/01/2017 07:00      60.3      59.8       74     51.6      0.00      0.09      72.1     0.30      1014.0     0.0       S   176   0.4       S   176   0.91    267      -15.7
   11/01/2017 06:50      60.2      59.8       74     51.5      0.00      0.09      72.2     0.30      1014.0     0.2       S   176   0.9       S   176   0.91    267      -16.0
   11/01/2017 06:40      60.2      59.7       74     51.7      0.00      0.09      72.1     0.30      1013.9     0.0       N     0   0.0       S   176   0.92    267      -16.4
   11/01/2017 06:30      60.1      59.7       75     51.8      0.00      0.09      72.2     0.30      1013.9     0.0       N     0   0.0       S   176   0.92    267      -15.1
   11/01/2017 06:20      60.1      59.7       75     51.8      0.00      0.09      72.2     0.30      1013.8     0.0       S   176   0.8       S   176   0.92    267      -15.8
   11/01/2017 06:10      60.1      59.7       74     51.6      0.00      0.09      72.2     0.30      1013.9     0.0       S   176   0.5       S   176   0.92    267      -17.7
   11/01/2017 06:00      60.3      59.8       74     51.6      0.00      0.09      72.2     0.30      1013.9     0.1       S   176   0.6       S   176   0.92    267      -19.4
   11/01/2017 05:50      60.2      59.8       74     51.8      0.00      0.09      72.2     0.30      1013.9     0.0       N     0   0.0       S   176   0.92    267      -21.6
   11/01/2017 05:40      60.3      59.9       74     51.8      0.00      0.09      72.2     0.30      1014.0     0.0       S   176   0.6       S   176   0.92    267      -20.1
   11/01/2017 05:30      60.4      60.0       73     51.7      0.00      0.09      72.2     0.30      1013.9     0.0       S   176   0.5       S   176   0.92    267      -18.0
   11/01/2017 05:20      60.4      59.9       74     51.8      0.00      0.09      72.3     0.30      1013.9     0.8       S   176   1.9       S   176   0.92    267      -16.9
   11/01/2017 05:10      60.3      59.9       73     51.3      0.00      0.09      72.3     0.30      1014.0     0.0       S   176   0.9       S   176   0.92    267      -16.5
   11/01/2017 05:00      60.4      60.1       72     51.3      0.00      0.09      72.3     0.30      1014.0     0.0       N     0   0.0       S   176   0.92    267      -17.4
   11/01/2017 04:50      60.6      60.1       72     51.2      0.00      0.09      72.3     0.30      1014.0     0.0       S   176   0.4       S   176   0.92    267      -16.6
   11/01/2017 04:40      60.6      60.2       72     51.4      0.00      0.09      72.3     0.30      1014.0     0.0       N     0   0.0       S   176   0.92    267      -16.5
   11/01/2017 04:30      60.5      60.1       72     51.3      0.00      0.09      72.3     0.30      1014.1     0.0       N     0   0.0       S   176   0.92    267      -15.9
   11/01/2017 04:20      60.6      60.1       72     51.2      0.00      0.09      72.3     0.30      1014.1     0.0       N     0   0.0       S   176   0.92    267      -15.6
   11/01/2017 04:10      60.5      60.1       71     51.1      0.00      0.09      72.3     0.30      1014.1     0.0       N     0   0.0       S   176   0.92    267      -16.2
   11/01/2017 04:00      60.6      60.2       71     51.0      0.00      0.09      72.3     0.30      1014.1     0.0       N     0   0.0       S   176   0.92    267      -16.3
   11/01/2017 03:50      60.8      60.3       71     50.9      0.00      0.09      72.3     0.30      1014.2     0.0       N     0   0.0       S   176   0.92    267      -16.7
   11/01/2017 03:40      60.7      60.3       71     51.0      0.00      0.09      72.4     0.30      1014.2     0.0       N     0   0.0       S   176   0.92    267      -15.3
   11/01/2017 03:30      60.6      60.3       71     51.1      0.00      0.09      72.4     0.30      1014.4     0.0       N     0   0.0       S   176   0.93    267      -14.1
   11/01/2017 03:20      60.7      60.2       72     51.3      0.00      0.09      72.4     0.30      1014.4     0.0       N     0   0.0       S   176   0.92    267      -14.4
   11/01/2017 03:10      60.6      60.2       72     51.3      0.00      0.09      72.4     0.30      1014.4     0.3       S   176   1.1       S   176   0.92    267      -16.4
   11/01/2017 03:00      60.5      60.2       72     51.3      0.00      0.09      72.4     0.30      1014.5     0.3       S   176   0.9       S   176   0.92    267      -16.9
   11/01/2017 02:50      60.6      60.2       72     51.3      0.00      0.09      72.4     0.30      1014.5     0.1       S   176   0.7       S   176   0.92    267      -17.1
   11/01/2017 02:40      60.7      60.3       72     51.4      0.00      0.09      72.4     0.30      1014.6     0.0       N     0   0.0       S   176   0.92    267      -18.5
   11/01/2017 02:30      60.7      60.2       72     51.4      0.00      0.09      72.4     0.30      1014.5     0.0       S   176   0.6       S   176   0.92    267      -20.4
   11/01/2017 02:20      60.9      60.4       72     51.3      0.00      0.09      72.4     0.30      1014.5     0.0       S   176   0.5       S   176   0.92    267      -18.1
   11/01/2017 02:10      60.8      60.3       72     51.3      0.00      0.09      72.5     0.30      1014.5     0.2       S   176   0.8       S   176   0.92    267      -17.9
   11/01/2017 02:00      60.9      60.5       72     51.4      0.00      0.09      72.5     0.30      1014.5     0.0       N     0   0.0     SSW   195   0.92    267      -18.7
   11/01/2017 01:50      61.0      60.5       72     51.6      0.00      0.09      72.5     0.30      1014.6     0.0     SSW   198   0.6     SSW   195   0.92    267      -19.7
   11/01/2017 01:40      61.0      60.6       72     51.7      0.00      0.09      72.5     0.30      1014.6     0.0      SW   220   1.0      SW   220   0.92    267      -20.5
   11/01/2017 01:30      61.2      60.7       72     51.8      0.00      0.09      72.5     0.30      1014.6     0.4       S   187   1.4      SW   235   0.92    267      -19.3
   11/01/2017 01:20      61.2      60.7       72     52.0      0.00      0.09      72.5     0.30      1014.7     0.4       S   174   1.2       S   171   0.92    267      -19.0
   11/01/2017 01:10      61.2      60.7       73     52.1      0.00      0.09      72.5     0.30      1014.6     0.8       S   189   2.1       S   184   0.92    267      -19.9
   11/01/2017 01:00      61.2      60.8       73     52.2      0.00      0.09      72.5     0.30      1014.7     1.1       S   176   2.1       S   187   0.92    267      -19.0
   11/01/2017 00:50      61.2      60.8       73     52.3      0.00      0.09      72.5     0.30      1014.7     0.2       S   174   0.9     SSE   165   0.92    267      -15.7
   11/01/2017 00:40      61.2      60.8       73     52.3      0.00      0.09      72.5     0.30      1014.6     0.8     SSW   192   2.4       S   170   0.92    267      -15.9
   11/01/2017 00:30      61.2      60.8       73     52.3      0.00      0.09      72.5     0.30      1014.5     1.5     SSW   201   3.8     WSW   239   0.92    267      -16.7
   11/01/2017 00:20      61.3      60.9       73     52.3      0.00      0.09      72.5     0.30      1014.5     1.6      SW   230   4.1       W   267   0.92    267      -18.0
   11/01/2017 00:10      61.5      60.9       73     52.3      0.00      0.09      72.5     0.30      1014.6     1.9     SSW   210   2.9     SSW   196   0.92    267      -14.9
   11/01/2017 00:00      61.4      61.0       72     52.2      0.00      0.09      72.6     0.30      1014.6     1.4      SW   225   3.0     WSW   237   0.92    267      -15.3
                         30.1       1.8       81     21.0      3.36     77.00     "NAN"


Back to data home page